<?xml version="1.0" encoding="UTF-8" standalone="no" ?>
<gpx xmlns="http://www.topografix.com/GPX/1/1" xmlns:xsi="http://www.w3.org/2001/XMLSchema-instance" xsi:schemaLocation="http://www.topografix.com/GPX/1/1 http://www.topografix.com/GPX/1/1/gpx.xsd" version="1.1" creator="VisuGPX - https://www.visugpx.com">
  <metadata>
    <name>J7 Voie Bleue : Tour en Allemagne et Luxembourg</name>
    <desc><![CDATA[Voie Bleue réalisée dans le sens Sud (Lyon) Nord (Apach)

Pour l'itinéraire complet, suivre le [url=https://www.visugpx.com/membres/33867/voie-bleue/]dossier suivant[/url].]]></desc>
  </metadata>
  <trk>
    <name><![CDATA[Vélo sur route, 2026-05-19]]></name>
    <trkseg>
      <trkpt lat="49.47086" lon="6.37226">
        <ele>158.90039</ele>
        <time>2026-05-19T16:08:34+02:00</time>
      </trkpt>
      <trkpt lat="49.47089" lon="6.37226">
        <ele>158.90039</ele>
        <time>2026-05-19T16:08:35+02:00</time>
      </trkpt>
      <trkpt lat="49.47093" lon="6.37227">
        <ele>158.5</ele>
        <time>2026-05-19T16:08:36+02:00</time>
      </trkpt>
      <trkpt lat="49.47099" lon="6.37228">
        <ele>158.2002</ele>
        <time>2026-05-19T16:08:37+02:00</time>
      </trkpt>
      <trkpt lat="49.47103" lon="6.37227">
        <ele>157.90039</ele>
        <time>2026-05-19T16:08:38+02:00</time>
      </trkpt>
      <trkpt lat="49.47107" lon="6.37226">
        <ele>157.90039</ele>
        <time>2026-05-19T16:08:39+02:00</time>
      </trkpt>
      <trkpt lat="49.47109" lon="6.37224">
        <ele>157.2998</ele>
        <time>2026-05-19T16:08:40+02:00</time>
      </trkpt>
      <trkpt lat="49.4711" lon="6.37223">
        <ele>157.2998</ele>
        <time>2026-05-19T16:08:41+02:00</time>
      </trkpt>
      <trkpt lat="49.4711" lon="6.37223">
        <ele>157.2998</ele>
        <time>2026-05-19T16:08:42+02:00</time>
      </trkpt>
      <trkpt lat="49.4711" lon="6.37223">
        <ele>157.2998</ele>
        <time>2026-05-19T16:08:43+02:00</time>
      </trkpt>
      <trkpt lat="49.4711" lon="6.37223">
        <ele>157.2998</ele>
        <time>2026-05-19T16:08:44+02:00</time>
      </trkpt>
      <trkpt lat="49.4711" lon="6.37223">
        <ele>157.2998</ele>
        <time>2026-05-19T16:08:45+02:00</time>
      </trkpt>
      <trkpt lat="49.47115" lon="6.37254">
        <ele>159</ele>
        <time>2026-05-19T16:09:33+02:00</time>
      </trkpt>
      <trkpt lat="49.47118" lon="6.37258">
        <ele>159</ele>
        <time>2026-05-19T16:09:34+02:00</time>
      </trkpt>
      <trkpt lat="49.47122" lon="6.3726">
        <ele>159.40039</ele>
        <time>2026-05-19T16:09:35+02:00</time>
      </trkpt>
      <trkpt lat="49.47126" lon="6.37261">
        <ele>159.2002</ele>
        <time>2026-05-19T16:09:36+02:00</time>
      </trkpt>
      <trkpt lat="49.4713" lon="6.37259">
        <ele>159.2002</ele>
        <time>2026-05-19T16:09:37+02:00</time>
      </trkpt>
      <trkpt lat="49.47135" lon="6.37255">
        <ele>158.60059</ele>
        <time>2026-05-19T16:09:38+02:00</time>
      </trkpt>
      <trkpt lat="49.47139" lon="6.37252">
        <ele>158.5</ele>
        <time>2026-05-19T16:09:39+02:00</time>
      </trkpt>
      <trkpt lat="49.47144" lon="6.37249">
        <ele>158.10059</ele>
        <time>2026-05-19T16:09:40+02:00</time>
      </trkpt>
      <trkpt lat="49.4715" lon="6.37248">
        <ele>158.10059</ele>
        <time>2026-05-19T16:09:41+02:00</time>
      </trkpt>
      <trkpt lat="49.47156" lon="6.37248">
        <ele>158.2002</ele>
        <time>2026-05-19T16:09:42+02:00</time>
      </trkpt>
      <trkpt lat="49.47161" lon="6.37248">
        <ele>158.2998</ele>
        <time>2026-05-19T16:09:43+02:00</time>
      </trkpt>
      <trkpt lat="49.47167" lon="6.37248">
        <ele>158.40039</ele>
        <time>2026-05-19T16:09:44+02:00</time>
      </trkpt>
      <trkpt lat="49.47173" lon="6.37249">
        <ele>158.5</ele>
        <time>2026-05-19T16:09:45+02:00</time>
      </trkpt>
      <trkpt lat="49.47178" lon="6.37249">
        <ele>158.5</ele>
        <time>2026-05-19T16:09:46+02:00</time>
      </trkpt>
      <trkpt lat="49.47184" lon="6.37249">
        <ele>158.60059</ele>
        <time>2026-05-19T16:09:47+02:00</time>
      </trkpt>
      <trkpt lat="49.4719" lon="6.3725">
        <ele>158.90039</ele>
        <time>2026-05-19T16:09:48+02:00</time>
      </trkpt>
      <trkpt lat="49.47196" lon="6.3725">
        <ele>159</ele>
        <time>2026-05-19T16:09:49+02:00</time>
      </trkpt>
      <trkpt lat="49.47201" lon="6.37251">
        <ele>159.2002</ele>
        <time>2026-05-19T16:09:50+02:00</time>
      </trkpt>
      <trkpt lat="49.47206" lon="6.37252">
        <ele>159.2998</ele>
        <time>2026-05-19T16:09:51+02:00</time>
      </trkpt>
      <trkpt lat="49.47211" lon="6.37253">
        <ele>159.5</ele>
        <time>2026-05-19T16:09:52+02:00</time>
      </trkpt>
      <trkpt lat="49.47217" lon="6.37254">
        <ele>159.60059</ele>
        <time>2026-05-19T16:09:53+02:00</time>
      </trkpt>
      <trkpt lat="49.47222" lon="6.37253">
        <ele>159.7998</ele>
        <time>2026-05-19T16:09:54+02:00</time>
      </trkpt>
      <trkpt lat="49.47227" lon="6.37253">
        <ele>160</ele>
        <time>2026-05-19T16:09:55+02:00</time>
      </trkpt>
      <trkpt lat="49.47233" lon="6.37253">
        <ele>160.10059</ele>
        <time>2026-05-19T16:09:56+02:00</time>
      </trkpt>
      <trkpt lat="49.47238" lon="6.37252">
        <ele>160.2998</ele>
        <time>2026-05-19T16:09:57+02:00</time>
      </trkpt>
      <trkpt lat="49.47243" lon="6.37251">
        <ele>160.5</ele>
        <time>2026-05-19T16:09:58+02:00</time>
      </trkpt>
      <trkpt lat="49.47249" lon="6.37248">
        <ele>160.2998</ele>
        <time>2026-05-19T16:09:59+02:00</time>
      </trkpt>
      <trkpt lat="49.47254" lon="6.37246">
        <ele>160.60059</ele>
        <time>2026-05-19T16:10:00+02:00</time>
      </trkpt>
      <trkpt lat="49.47259" lon="6.37244">
        <ele>160.7998</ele>
        <time>2026-05-19T16:10:01+02:00</time>
      </trkpt>
      <trkpt lat="49.47264" lon="6.37241">
        <ele>160.5</ele>
        <time>2026-05-19T16:10:02+02:00</time>
      </trkpt>
      <trkpt lat="49.47269" lon="6.37239">
        <ele>160.7002</ele>
        <time>2026-05-19T16:10:03+02:00</time>
      </trkpt>
      <trkpt lat="49.47274" lon="6.37236">
        <ele>161</ele>
        <time>2026-05-19T16:10:04+02:00</time>
      </trkpt>
      <trkpt lat="49.47279" lon="6.37234">
        <ele>161.2998</ele>
        <time>2026-05-19T16:10:05+02:00</time>
      </trkpt>
      <trkpt lat="49.47284" lon="6.37231">
        <ele>161.2002</ele>
        <time>2026-05-19T16:10:06+02:00</time>
      </trkpt>
      <trkpt lat="49.47288" lon="6.37229">
        <ele>161.5</ele>
        <time>2026-05-19T16:10:07+02:00</time>
      </trkpt>
      <trkpt lat="49.47292" lon="6.37226">
        <ele>161.5</ele>
        <time>2026-05-19T16:10:08+02:00</time>
      </trkpt>
      <trkpt lat="49.47296" lon="6.37224">
        <ele>161.5</ele>
        <time>2026-05-19T16:10:09+02:00</time>
      </trkpt>
      <trkpt lat="49.47301" lon="6.37222">
        <ele>161.7998</ele>
        <time>2026-05-19T16:10:10+02:00</time>
      </trkpt>
      <trkpt lat="49.47305" lon="6.3722">
        <ele>162.10059</ele>
        <time>2026-05-19T16:10:11+02:00</time>
      </trkpt>
      <trkpt lat="49.4731" lon="6.37219">
        <ele>162.40039</ele>
        <time>2026-05-19T16:10:12+02:00</time>
      </trkpt>
      <trkpt lat="49.47314" lon="6.37219">
        <ele>162.40039</ele>
        <time>2026-05-19T16:10:13+02:00</time>
      </trkpt>
      <trkpt lat="49.47316" lon="6.3722">
        <ele>162.60059</ele>
        <time>2026-05-19T16:10:14+02:00</time>
      </trkpt>
      <trkpt lat="49.47321" lon="6.37224">
        <ele>162.90039</ele>
        <time>2026-05-19T16:10:15+02:00</time>
      </trkpt>
      <trkpt lat="49.47325" lon="6.37228">
        <ele>163.2002</ele>
        <time>2026-05-19T16:10:16+02:00</time>
      </trkpt>
      <trkpt lat="49.47328" lon="6.37231">
        <ele>163.40039</ele>
        <time>2026-05-19T16:10:17+02:00</time>
      </trkpt>
      <trkpt lat="49.47333" lon="6.37231">
        <ele>163.60059</ele>
        <time>2026-05-19T16:10:18+02:00</time>
      </trkpt>
      <trkpt lat="49.47337" lon="6.37229">
        <ele>163.7998</ele>
        <time>2026-05-19T16:10:19+02:00</time>
      </trkpt>
      <trkpt lat="49.47341" lon="6.37225">
        <ele>163.7998</ele>
        <time>2026-05-19T16:10:20+02:00</time>
      </trkpt>
      <trkpt lat="49.47344" lon="6.37218">
        <ele>163.7998</ele>
        <time>2026-05-19T16:10:21+02:00</time>
      </trkpt>
      <trkpt lat="49.47346" lon="6.3721">
        <ele>163.60059</ele>
        <time>2026-05-19T16:10:22+02:00</time>
      </trkpt>
      <trkpt lat="49.47349" lon="6.37203">
        <ele>163.5</ele>
        <time>2026-05-19T16:10:23+02:00</time>
      </trkpt>
      <trkpt lat="49.4735" lon="6.372">
        <ele>163.5</ele>
        <time>2026-05-19T16:10:24+02:00</time>
      </trkpt>
      <trkpt lat="49.47355" lon="6.37192">
        <ele>163.60059</ele>
        <time>2026-05-19T16:10:25+02:00</time>
      </trkpt>
      <trkpt lat="49.4736" lon="6.37188">
        <ele>163.7002</ele>
        <time>2026-05-19T16:10:26+02:00</time>
      </trkpt>
      <trkpt lat="49.47364" lon="6.37183">
        <ele>163.7002</ele>
        <time>2026-05-19T16:10:27+02:00</time>
      </trkpt>
      <trkpt lat="49.47368" lon="6.37179">
        <ele>163.7998</ele>
        <time>2026-05-19T16:10:28+02:00</time>
      </trkpt>
      <trkpt lat="49.47372" lon="6.37176">
        <ele>164.10059</ele>
        <time>2026-05-19T16:10:29+02:00</time>
      </trkpt>
      <trkpt lat="49.47376" lon="6.37172">
        <ele>164.10059</ele>
        <time>2026-05-19T16:10:30+02:00</time>
      </trkpt>
      <trkpt lat="49.47381" lon="6.37169">
        <ele>164.10059</ele>
        <time>2026-05-19T16:10:31+02:00</time>
      </trkpt>
      <trkpt lat="49.47385" lon="6.37166">
        <ele>164.40039</ele>
        <time>2026-05-19T16:10:32+02:00</time>
      </trkpt>
      <trkpt lat="49.4739" lon="6.37163">
        <ele>164.2998</ele>
        <time>2026-05-19T16:10:33+02:00</time>
      </trkpt>
      <trkpt lat="49.47394" lon="6.3716">
        <ele>164.5</ele>
        <time>2026-05-19T16:10:34+02:00</time>
      </trkpt>
      <trkpt lat="49.47399" lon="6.37157">
        <ele>164.7002</ele>
        <time>2026-05-19T16:10:35+02:00</time>
      </trkpt>
      <trkpt lat="49.47402" lon="6.37154">
        <ele>164.40039</ele>
        <time>2026-05-19T16:10:36+02:00</time>
      </trkpt>
      <trkpt lat="49.47405" lon="6.37152">
        <ele>164.60059</ele>
        <time>2026-05-19T16:10:37+02:00</time>
      </trkpt>
      <trkpt lat="49.47408" lon="6.3715">
        <ele>164.60059</ele>
        <time>2026-05-19T16:10:38+02:00</time>
      </trkpt>
      <trkpt lat="49.47411" lon="6.37148">
        <ele>164.7998</ele>
        <time>2026-05-19T16:10:39+02:00</time>
      </trkpt>
      <trkpt lat="49.47414" lon="6.37146">
        <ele>164.5</ele>
        <time>2026-05-19T16:10:40+02:00</time>
      </trkpt>
      <trkpt lat="49.47415" lon="6.37145">
        <ele>164.7002</ele>
        <time>2026-05-19T16:10:41+02:00</time>
      </trkpt>
      <trkpt lat="49.47419" lon="6.37142">
        <ele>164.7002</ele>
        <time>2026-05-19T16:10:42+02:00</time>
      </trkpt>
      <trkpt lat="49.47421" lon="6.3714">
        <ele>164.7002</ele>
        <time>2026-05-19T16:10:43+02:00</time>
      </trkpt>
      <trkpt lat="49.47424" lon="6.37137">
        <ele>164.40039</ele>
        <time>2026-05-19T16:10:44+02:00</time>
      </trkpt>
      <trkpt lat="49.47427" lon="6.37135">
        <ele>164.5</ele>
        <time>2026-05-19T16:10:45+02:00</time>
      </trkpt>
      <trkpt lat="49.4743" lon="6.37134">
        <ele>164.5</ele>
        <time>2026-05-19T16:10:46+02:00</time>
      </trkpt>
      <trkpt lat="49.47433" lon="6.37132">
        <ele>164.5</ele>
        <time>2026-05-19T16:10:47+02:00</time>
      </trkpt>
      <trkpt lat="49.47436" lon="6.3713">
        <ele>164.5</ele>
        <time>2026-05-19T16:10:48+02:00</time>
      </trkpt>
      <trkpt lat="49.4744" lon="6.37128">
        <ele>164.2002</ele>
        <time>2026-05-19T16:10:49+02:00</time>
      </trkpt>
      <trkpt lat="49.47443" lon="6.37125">
        <ele>164.2998</ele>
        <time>2026-05-19T16:10:50+02:00</time>
      </trkpt>
      <trkpt lat="49.47447" lon="6.37123">
        <ele>164.2998</ele>
        <time>2026-05-19T16:10:51+02:00</time>
      </trkpt>
      <trkpt lat="49.4745" lon="6.37121">
        <ele>164</ele>
        <time>2026-05-19T16:10:52+02:00</time>
      </trkpt>
      <trkpt lat="49.47451" lon="6.3712">
        <ele>164</ele>
        <time>2026-05-19T16:10:53+02:00</time>
      </trkpt>
      <trkpt lat="49.47452" lon="6.3712">
        <ele>164</ele>
        <time>2026-05-19T16:10:54+02:00</time>
      </trkpt>
      <trkpt lat="49.47452" lon="6.3712">
        <ele>164</ele>
        <time>2026-05-19T16:10:55+02:00</time>
      </trkpt>
      <trkpt lat="49.47452" lon="6.3712">
        <ele>164</ele>
        <time>2026-05-19T16:10:56+02:00</time>
      </trkpt>
      <trkpt lat="49.47452" lon="6.3712">
        <ele>164</ele>
        <time>2026-05-19T16:10:57+02:00</time>
      </trkpt>
      <trkpt lat="49.4744" lon="6.37117">
        <ele>163.90039</ele>
        <time>2026-05-19T16:11:19+02:00</time>
      </trkpt>
      <trkpt lat="49.47437" lon="6.3712">
        <ele>163.7998</ele>
        <time>2026-05-19T16:11:20+02:00</time>
      </trkpt>
      <trkpt lat="49.47433" lon="6.37123">
        <ele>164.2002</ele>
        <time>2026-05-19T16:11:21+02:00</time>
      </trkpt>
      <trkpt lat="49.47429" lon="6.37125">
        <ele>164.2002</ele>
        <time>2026-05-19T16:11:22+02:00</time>
      </trkpt>
      <trkpt lat="49.47424" lon="6.37128">
        <ele>164.10059</ele>
        <time>2026-05-19T16:11:23+02:00</time>
      </trkpt>
      <trkpt lat="49.47419" lon="6.37132">
        <ele>164.40039</ele>
        <time>2026-05-19T16:11:24+02:00</time>
      </trkpt>
      <trkpt lat="49.47417" lon="6.37133">
        <ele>164.40039</ele>
        <time>2026-05-19T16:11:25+02:00</time>
      </trkpt>
      <trkpt lat="49.47409" lon="6.37139">
        <ele>164.2998</ele>
        <time>2026-05-19T16:11:26+02:00</time>
      </trkpt>
      <trkpt lat="49.47404" lon="6.37142">
        <ele>164.2998</ele>
        <time>2026-05-19T16:11:27+02:00</time>
      </trkpt>
      <trkpt lat="49.47398" lon="6.37146">
        <ele>163.90039</ele>
        <time>2026-05-19T16:11:28+02:00</time>
      </trkpt>
      <trkpt lat="49.47393" lon="6.3715">
        <ele>164.2002</ele>
        <time>2026-05-19T16:11:29+02:00</time>
      </trkpt>
      <trkpt lat="49.47387" lon="6.37154">
        <ele>164</ele>
        <time>2026-05-19T16:11:30+02:00</time>
      </trkpt>
      <trkpt lat="49.47382" lon="6.37157">
        <ele>164.10059</ele>
        <time>2026-05-19T16:11:31+02:00</time>
      </trkpt>
      <trkpt lat="49.47377" lon="6.37161">
        <ele>163.90039</ele>
        <time>2026-05-19T16:11:32+02:00</time>
      </trkpt>
      <trkpt lat="49.47371" lon="6.37164">
        <ele>163.60059</ele>
        <time>2026-05-19T16:11:33+02:00</time>
      </trkpt>
      <trkpt lat="49.47366" lon="6.37168">
        <ele>163.60059</ele>
        <time>2026-05-19T16:11:34+02:00</time>
      </trkpt>
      <trkpt lat="49.47361" lon="6.37172">
        <ele>163.40039</ele>
        <time>2026-05-19T16:11:35+02:00</time>
      </trkpt>
      <trkpt lat="49.47356" lon="6.37178">
        <ele>163.2002</ele>
        <time>2026-05-19T16:11:36+02:00</time>
      </trkpt>
      <trkpt lat="49.47352" lon="6.37183">
        <ele>163.10059</ele>
        <time>2026-05-19T16:11:37+02:00</time>
      </trkpt>
      <trkpt lat="49.47348" lon="6.37187">
        <ele>163.10059</ele>
        <time>2026-05-19T16:11:38+02:00</time>
      </trkpt>
      <trkpt lat="49.47345" lon="6.3719">
        <ele>163.10059</ele>
        <time>2026-05-19T16:11:39+02:00</time>
      </trkpt>
      <trkpt lat="49.47341" lon="6.37192">
        <ele>162.90039</ele>
        <time>2026-05-19T16:11:40+02:00</time>
      </trkpt>
      <trkpt lat="49.47337" lon="6.37194">
        <ele>162.90039</ele>
        <time>2026-05-19T16:11:41+02:00</time>
      </trkpt>
      <trkpt lat="49.47333" lon="6.37197">
        <ele>162.7002</ele>
        <time>2026-05-19T16:11:42+02:00</time>
      </trkpt>
      <trkpt lat="49.47329" lon="6.37202">
        <ele>162.7002</ele>
        <time>2026-05-19T16:11:43+02:00</time>
      </trkpt>
      <trkpt lat="49.47327" lon="6.37208">
        <ele>162.90039</ele>
        <time>2026-05-19T16:11:44+02:00</time>
      </trkpt>
      <trkpt lat="49.47328" lon="6.37216">
        <ele>163.10059</ele>
        <time>2026-05-19T16:11:45+02:00</time>
      </trkpt>
      <trkpt lat="49.4733" lon="6.37222">
        <ele>163.10059</ele>
        <time>2026-05-19T16:11:46+02:00</time>
      </trkpt>
      <trkpt lat="49.47334" lon="6.37228">
        <ele>163.60059</ele>
        <time>2026-05-19T16:11:47+02:00</time>
      </trkpt>
      <trkpt lat="49.47338" lon="6.37234">
        <ele>164.10059</ele>
        <time>2026-05-19T16:11:48+02:00</time>
      </trkpt>
      <trkpt lat="49.47342" lon="6.37241">
        <ele>164.10059</ele>
        <time>2026-05-19T16:11:49+02:00</time>
      </trkpt>
      <trkpt lat="49.47344" lon="6.3725">
        <ele>164.7998</ele>
        <time>2026-05-19T16:11:50+02:00</time>
      </trkpt>
      <trkpt lat="49.47347" lon="6.37258">
        <ele>164.7998</ele>
        <time>2026-05-19T16:11:51+02:00</time>
      </trkpt>
      <trkpt lat="49.47349" lon="6.37266">
        <ele>165.2002</ele>
        <time>2026-05-19T16:11:52+02:00</time>
      </trkpt>
      <trkpt lat="49.47352" lon="6.37274">
        <ele>165.5</ele>
        <time>2026-05-19T16:11:53+02:00</time>
      </trkpt>
      <trkpt lat="49.47354" lon="6.37282">
        <ele>166</ele>
        <time>2026-05-19T16:11:54+02:00</time>
      </trkpt>
      <trkpt lat="49.47357" lon="6.37289">
        <ele>166.2998</ele>
        <time>2026-05-19T16:11:55+02:00</time>
      </trkpt>
      <trkpt lat="49.47359" lon="6.37297">
        <ele>166.7002</ele>
        <time>2026-05-19T16:11:56+02:00</time>
      </trkpt>
      <trkpt lat="49.47362" lon="6.37303">
        <ele>167</ele>
        <time>2026-05-19T16:11:57+02:00</time>
      </trkpt>
      <trkpt lat="49.47365" lon="6.3731">
        <ele>167.10059</ele>
        <time>2026-05-19T16:11:58+02:00</time>
      </trkpt>
      <trkpt lat="49.47367" lon="6.37317">
        <ele>167.2998</ele>
        <time>2026-05-19T16:11:59+02:00</time>
      </trkpt>
      <trkpt lat="49.47369" lon="6.37323">
        <ele>167.5</ele>
        <time>2026-05-19T16:12:00+02:00</time>
      </trkpt>
      <trkpt lat="49.47371" lon="6.37329">
        <ele>167.7998</ele>
        <time>2026-05-19T16:12:01+02:00</time>
      </trkpt>
      <trkpt lat="49.47374" lon="6.37336">
        <ele>168</ele>
        <time>2026-05-19T16:12:02+02:00</time>
      </trkpt>
      <trkpt lat="49.47376" lon="6.37342">
        <ele>168.10059</ele>
        <time>2026-05-19T16:12:03+02:00</time>
      </trkpt>
      <trkpt lat="49.47378" lon="6.37348">
        <ele>168.2998</ele>
        <time>2026-05-19T16:12:04+02:00</time>
      </trkpt>
      <trkpt lat="49.4738" lon="6.37355">
        <ele>168.60059</ele>
        <time>2026-05-19T16:12:05+02:00</time>
      </trkpt>
      <trkpt lat="49.47382" lon="6.37361">
        <ele>168.60059</ele>
        <time>2026-05-19T16:12:06+02:00</time>
      </trkpt>
      <trkpt lat="49.47384" lon="6.37368">
        <ele>168.7998</ele>
        <time>2026-05-19T16:12:07+02:00</time>
      </trkpt>
      <trkpt lat="49.47386" lon="6.37374">
        <ele>169.10059</ele>
        <time>2026-05-19T16:12:08+02:00</time>
      </trkpt>
      <trkpt lat="49.47389" lon="6.37381">
        <ele>169.40039</ele>
        <time>2026-05-19T16:12:09+02:00</time>
      </trkpt>
      <trkpt lat="49.47391" lon="6.37388">
        <ele>169.7002</ele>
        <time>2026-05-19T16:12:10+02:00</time>
      </trkpt>
      <trkpt lat="49.47393" lon="6.37394">
        <ele>169.7002</ele>
        <time>2026-05-19T16:12:11+02:00</time>
      </trkpt>
      <trkpt lat="49.47395" lon="6.37401">
        <ele>170</ele>
        <time>2026-05-19T16:12:12+02:00</time>
      </trkpt>
      <trkpt lat="49.47397" lon="6.37407">
        <ele>170.2998</ele>
        <time>2026-05-19T16:12:13+02:00</time>
      </trkpt>
      <trkpt lat="49.47399" lon="6.37414">
        <ele>170.60059</ele>
        <time>2026-05-19T16:12:14+02:00</time>
      </trkpt>
      <trkpt lat="49.47401" lon="6.37421">
        <ele>170.60059</ele>
        <time>2026-05-19T16:12:15+02:00</time>
      </trkpt>
      <trkpt lat="49.47403" lon="6.37428">
        <ele>170.7998</ele>
        <time>2026-05-19T16:12:16+02:00</time>
      </trkpt>
      <trkpt lat="49.47404" lon="6.37436">
        <ele>171.10059</ele>
        <time>2026-05-19T16:12:17+02:00</time>
      </trkpt>
      <trkpt lat="49.47406" lon="6.37443">
        <ele>171.40039</ele>
        <time>2026-05-19T16:12:18+02:00</time>
      </trkpt>
      <trkpt lat="49.47407" lon="6.3745">
        <ele>171.60059</ele>
        <time>2026-05-19T16:12:19+02:00</time>
      </trkpt>
      <trkpt lat="49.47408" lon="6.37457">
        <ele>171.90039</ele>
        <time>2026-05-19T16:12:20+02:00</time>
      </trkpt>
      <trkpt lat="49.4741" lon="6.37464">
        <ele>171.90039</ele>
        <time>2026-05-19T16:12:21+02:00</time>
      </trkpt>
      <trkpt lat="49.47411" lon="6.37471">
        <ele>172.2002</ele>
        <time>2026-05-19T16:12:22+02:00</time>
      </trkpt>
      <trkpt lat="49.47412" lon="6.37477">
        <ele>172.5</ele>
        <time>2026-05-19T16:12:23+02:00</time>
      </trkpt>
      <trkpt lat="49.47413" lon="6.37485">
        <ele>172.7998</ele>
        <time>2026-05-19T16:12:24+02:00</time>
      </trkpt>
      <trkpt lat="49.47414" lon="6.37492">
        <ele>173.10059</ele>
        <time>2026-05-19T16:12:25+02:00</time>
      </trkpt>
      <trkpt lat="49.47415" lon="6.37499">
        <ele>173.5</ele>
        <time>2026-05-19T16:12:26+02:00</time>
      </trkpt>
      <trkpt lat="49.47416" lon="6.37506">
        <ele>173.5</ele>
        <time>2026-05-19T16:12:27+02:00</time>
      </trkpt>
      <trkpt lat="49.47417" lon="6.37514">
        <ele>173.7998</ele>
        <time>2026-05-19T16:12:28+02:00</time>
      </trkpt>
      <trkpt lat="49.47418" lon="6.37521">
        <ele>174.2002</ele>
        <time>2026-05-19T16:12:29+02:00</time>
      </trkpt>
      <trkpt lat="49.47419" lon="6.37529">
        <ele>174.60059</ele>
        <time>2026-05-19T16:12:30+02:00</time>
      </trkpt>
      <trkpt lat="49.47419" lon="6.37536">
        <ele>175</ele>
        <time>2026-05-19T16:12:31+02:00</time>
      </trkpt>
      <trkpt lat="49.4742" lon="6.37544">
        <ele>175.40039</ele>
        <time>2026-05-19T16:12:32+02:00</time>
      </trkpt>
      <trkpt lat="49.47421" lon="6.37551">
        <ele>176</ele>
        <time>2026-05-19T16:12:33+02:00</time>
      </trkpt>
      <trkpt lat="49.47421" lon="6.37559">
        <ele>176.40039</ele>
        <time>2026-05-19T16:12:34+02:00</time>
      </trkpt>
      <trkpt lat="49.47422" lon="6.37563">
        <ele>176.40039</ele>
        <time>2026-05-19T16:12:35+02:00</time>
      </trkpt>
      <trkpt lat="49.47423" lon="6.37575">
        <ele>176.90039</ele>
        <time>2026-05-19T16:12:36+02:00</time>
      </trkpt>
      <trkpt lat="49.47423" lon="6.37583">
        <ele>177.40039</ele>
        <time>2026-05-19T16:12:37+02:00</time>
      </trkpt>
      <trkpt lat="49.47423" lon="6.3759">
        <ele>177.90039</ele>
        <time>2026-05-19T16:12:38+02:00</time>
      </trkpt>
      <trkpt lat="49.47424" lon="6.37598">
        <ele>178.40039</ele>
        <time>2026-05-19T16:12:39+02:00</time>
      </trkpt>
      <trkpt lat="49.47424" lon="6.37605">
        <ele>178.90039</ele>
        <time>2026-05-19T16:12:40+02:00</time>
      </trkpt>
      <trkpt lat="49.47424" lon="6.37612">
        <ele>179.2998</ele>
        <time>2026-05-19T16:12:41+02:00</time>
      </trkpt>
      <trkpt lat="49.47424" lon="6.37619">
        <ele>179.60059</ele>
        <time>2026-05-19T16:12:42+02:00</time>
      </trkpt>
      <trkpt lat="49.47425" lon="6.37626">
        <ele>179.60059</ele>
        <time>2026-05-19T16:12:43+02:00</time>
      </trkpt>
      <trkpt lat="49.47425" lon="6.37632">
        <ele>180</ele>
        <time>2026-05-19T16:12:44+02:00</time>
      </trkpt>
      <trkpt lat="49.47426" lon="6.37639">
        <ele>180.2998</ele>
        <time>2026-05-19T16:12:45+02:00</time>
      </trkpt>
      <trkpt lat="49.47426" lon="6.37646">
        <ele>180.5</ele>
        <time>2026-05-19T16:12:46+02:00</time>
      </trkpt>
      <trkpt lat="49.47427" lon="6.37652">
        <ele>180.7998</ele>
        <time>2026-05-19T16:12:47+02:00</time>
      </trkpt>
      <trkpt lat="49.47427" lon="6.37659">
        <ele>180.90039</ele>
        <time>2026-05-19T16:12:48+02:00</time>
      </trkpt>
      <trkpt lat="49.47428" lon="6.37665">
        <ele>181.10059</ele>
        <time>2026-05-19T16:12:49+02:00</time>
      </trkpt>
      <trkpt lat="49.47428" lon="6.37671">
        <ele>181.2998</ele>
        <time>2026-05-19T16:12:50+02:00</time>
      </trkpt>
      <trkpt lat="49.47428" lon="6.37677">
        <ele>181.2998</ele>
        <time>2026-05-19T16:12:51+02:00</time>
      </trkpt>
      <trkpt lat="49.47429" lon="6.37683">
        <ele>181.60059</ele>
        <time>2026-05-19T16:12:52+02:00</time>
      </trkpt>
      <trkpt lat="49.47429" lon="6.37687">
        <ele>181.60059</ele>
        <time>2026-05-19T16:12:53+02:00</time>
      </trkpt>
      <trkpt lat="49.47431" lon="6.37696">
        <ele>182</ele>
        <time>2026-05-19T16:12:54+02:00</time>
      </trkpt>
      <trkpt lat="49.47431" lon="6.37703">
        <ele>182.2998</ele>
        <time>2026-05-19T16:12:55+02:00</time>
      </trkpt>
      <trkpt lat="49.47432" lon="6.37709">
        <ele>182.90039</ele>
        <time>2026-05-19T16:12:56+02:00</time>
      </trkpt>
      <trkpt lat="49.47432" lon="6.37716">
        <ele>183.2998</ele>
        <time>2026-05-19T16:12:57+02:00</time>
      </trkpt>
      <trkpt lat="49.47433" lon="6.37722">
        <ele>183.7002</ele>
        <time>2026-05-19T16:12:58+02:00</time>
      </trkpt>
      <trkpt lat="49.47434" lon="6.37729">
        <ele>183.7002</ele>
        <time>2026-05-19T16:12:59+02:00</time>
      </trkpt>
      <trkpt lat="49.47435" lon="6.37735">
        <ele>184.10059</ele>
        <time>2026-05-19T16:13:00+02:00</time>
      </trkpt>
      <trkpt lat="49.47436" lon="6.37741">
        <ele>184.2998</ele>
        <time>2026-05-19T16:13:01+02:00</time>
      </trkpt>
      <trkpt lat="49.47437" lon="6.37748">
        <ele>184.5</ele>
        <time>2026-05-19T16:13:02+02:00</time>
      </trkpt>
      <trkpt lat="49.47438" lon="6.37754">
        <ele>184.7998</ele>
        <time>2026-05-19T16:13:03+02:00</time>
      </trkpt>
      <trkpt lat="49.47439" lon="6.37761">
        <ele>184.7998</ele>
        <time>2026-05-19T16:13:04+02:00</time>
      </trkpt>
      <trkpt lat="49.4744" lon="6.37767">
        <ele>184.90039</ele>
        <time>2026-05-19T16:13:05+02:00</time>
      </trkpt>
      <trkpt lat="49.47441" lon="6.37774">
        <ele>185.2002</ele>
        <time>2026-05-19T16:13:06+02:00</time>
      </trkpt>
      <trkpt lat="49.47442" lon="6.3778">
        <ele>185.2002</ele>
        <time>2026-05-19T16:13:07+02:00</time>
      </trkpt>
      <trkpt lat="49.47444" lon="6.37787">
        <ele>185.7998</ele>
        <time>2026-05-19T16:13:08+02:00</time>
      </trkpt>
      <trkpt lat="49.47445" lon="6.37793">
        <ele>186.10059</ele>
        <time>2026-05-19T16:13:09+02:00</time>
      </trkpt>
      <trkpt lat="49.47446" lon="6.378">
        <ele>186.5</ele>
        <time>2026-05-19T16:13:10+02:00</time>
      </trkpt>
      <trkpt lat="49.47447" lon="6.37806">
        <ele>186.5</ele>
        <time>2026-05-19T16:13:11+02:00</time>
      </trkpt>
      <trkpt lat="49.47448" lon="6.37812">
        <ele>186.7998</ele>
        <time>2026-05-19T16:13:12+02:00</time>
      </trkpt>
      <trkpt lat="49.4745" lon="6.37818">
        <ele>187.5</ele>
        <time>2026-05-19T16:13:13+02:00</time>
      </trkpt>
      <trkpt lat="49.47451" lon="6.37825">
        <ele>187.7998</ele>
        <time>2026-05-19T16:13:14+02:00</time>
      </trkpt>
      <trkpt lat="49.47453" lon="6.37831">
        <ele>187.7998</ele>
        <time>2026-05-19T16:13:15+02:00</time>
      </trkpt>
      <trkpt lat="49.47453" lon="6.37834">
        <ele>188.10059</ele>
        <time>2026-05-19T16:13:16+02:00</time>
      </trkpt>
      <trkpt lat="49.47455" lon="6.37843">
        <ele>188.60059</ele>
        <time>2026-05-19T16:13:17+02:00</time>
      </trkpt>
      <trkpt lat="49.47456" lon="6.3785">
        <ele>188.60059</ele>
        <time>2026-05-19T16:13:18+02:00</time>
      </trkpt>
      <trkpt lat="49.47458" lon="6.37856">
        <ele>188.60059</ele>
        <time>2026-05-19T16:13:19+02:00</time>
      </trkpt>
      <trkpt lat="49.4746" lon="6.37862">
        <ele>188.90039</ele>
        <time>2026-05-19T16:13:20+02:00</time>
      </trkpt>
      <trkpt lat="49.47461" lon="6.37869">
        <ele>189</ele>
        <time>2026-05-19T16:13:21+02:00</time>
      </trkpt>
      <trkpt lat="49.47463" lon="6.37875">
        <ele>189</ele>
        <time>2026-05-19T16:13:22+02:00</time>
      </trkpt>
      <trkpt lat="49.47465" lon="6.37881">
        <ele>189.5</ele>
        <time>2026-05-19T16:13:23+02:00</time>
      </trkpt>
      <trkpt lat="49.47466" lon="6.37887">
        <ele>189.7998</ele>
        <time>2026-05-19T16:13:24+02:00</time>
      </trkpt>
      <trkpt lat="49.47467" lon="6.3789">
        <ele>189.7998</ele>
        <time>2026-05-19T16:13:25+02:00</time>
      </trkpt>
      <trkpt lat="49.4747" lon="6.37899">
        <ele>190.10059</ele>
        <time>2026-05-19T16:13:26+02:00</time>
      </trkpt>
      <trkpt lat="49.47472" lon="6.37905">
        <ele>190.60059</ele>
        <time>2026-05-19T16:13:27+02:00</time>
      </trkpt>
      <trkpt lat="49.47474" lon="6.37911">
        <ele>190.7998</ele>
        <time>2026-05-19T16:13:28+02:00</time>
      </trkpt>
      <trkpt lat="49.47476" lon="6.37917">
        <ele>190.7998</ele>
        <time>2026-05-19T16:13:29+02:00</time>
      </trkpt>
      <trkpt lat="49.47477" lon="6.37923">
        <ele>191.10059</ele>
        <time>2026-05-19T16:13:30+02:00</time>
      </trkpt>
      <trkpt lat="49.47479" lon="6.37929">
        <ele>191.10059</ele>
        <time>2026-05-19T16:13:31+02:00</time>
      </trkpt>
      <trkpt lat="49.47481" lon="6.37935">
        <ele>191.10059</ele>
        <time>2026-05-19T16:13:32+02:00</time>
      </trkpt>
      <trkpt lat="49.47483" lon="6.3794">
        <ele>191.40039</ele>
        <time>2026-05-19T16:13:33+02:00</time>
      </trkpt>
      <trkpt lat="49.47485" lon="6.37946">
        <ele>191.5</ele>
        <time>2026-05-19T16:13:34+02:00</time>
      </trkpt>
      <trkpt lat="49.47487" lon="6.37952">
        <ele>191.5</ele>
        <time>2026-05-19T16:13:35+02:00</time>
      </trkpt>
      <trkpt lat="49.47489" lon="6.37957">
        <ele>191.90039</ele>
        <time>2026-05-19T16:13:36+02:00</time>
      </trkpt>
      <trkpt lat="49.47491" lon="6.37963">
        <ele>191.90039</ele>
        <time>2026-05-19T16:13:37+02:00</time>
      </trkpt>
      <trkpt lat="49.47493" lon="6.37969">
        <ele>192.2998</ele>
        <time>2026-05-19T16:13:38+02:00</time>
      </trkpt>
      <trkpt lat="49.47495" lon="6.37975">
        <ele>192.2998</ele>
        <time>2026-05-19T16:13:39+02:00</time>
      </trkpt>
      <trkpt lat="49.47497" lon="6.37981">
        <ele>192.40039</ele>
        <time>2026-05-19T16:13:40+02:00</time>
      </trkpt>
      <trkpt lat="49.47499" lon="6.37987">
        <ele>192.7998</ele>
        <time>2026-05-19T16:13:41+02:00</time>
      </trkpt>
      <trkpt lat="49.47501" lon="6.37993">
        <ele>192.90039</ele>
        <time>2026-05-19T16:13:42+02:00</time>
      </trkpt>
      <trkpt lat="49.47503" lon="6.37999">
        <ele>193</ele>
        <time>2026-05-19T16:13:43+02:00</time>
      </trkpt>
      <trkpt lat="49.47505" lon="6.38005">
        <ele>193.40039</ele>
        <time>2026-05-19T16:13:44+02:00</time>
      </trkpt>
      <trkpt lat="49.47507" lon="6.3801">
        <ele>193.5</ele>
        <time>2026-05-19T16:13:45+02:00</time>
      </trkpt>
      <trkpt lat="49.47509" lon="6.38016">
        <ele>193.60059</ele>
        <time>2026-05-19T16:13:46+02:00</time>
      </trkpt>
      <trkpt lat="49.47511" lon="6.38022">
        <ele>194</ele>
        <time>2026-05-19T16:13:47+02:00</time>
      </trkpt>
      <trkpt lat="49.47513" lon="6.38028">
        <ele>194.10059</ele>
        <time>2026-05-19T16:13:48+02:00</time>
      </trkpt>
      <trkpt lat="49.47514" lon="6.38034">
        <ele>194.2002</ele>
        <time>2026-05-19T16:13:49+02:00</time>
      </trkpt>
      <trkpt lat="49.47516" lon="6.3804">
        <ele>194.60059</ele>
        <time>2026-05-19T16:13:50+02:00</time>
      </trkpt>
      <trkpt lat="49.47523" lon="6.38065">
        <ele>195.2998</ele>
        <time>2026-05-19T16:13:51+02:00</time>
      </trkpt>
      <trkpt lat="49.47525" lon="6.38071">
        <ele>195.5</ele>
        <time>2026-05-19T16:13:52+02:00</time>
      </trkpt>
      <trkpt lat="49.47527" lon="6.38077">
        <ele>195.90039</ele>
        <time>2026-05-19T16:13:53+02:00</time>
      </trkpt>
      <trkpt lat="49.47528" lon="6.38083">
        <ele>196</ele>
        <time>2026-05-19T16:13:54+02:00</time>
      </trkpt>
      <trkpt lat="49.4753" lon="6.3809">
        <ele>196</ele>
        <time>2026-05-19T16:13:55+02:00</time>
      </trkpt>
      <trkpt lat="49.47532" lon="6.38096">
        <ele>196.10059</ele>
        <time>2026-05-19T16:13:56+02:00</time>
      </trkpt>
      <trkpt lat="49.47533" lon="6.38103">
        <ele>196.40039</ele>
        <time>2026-05-19T16:13:57+02:00</time>
      </trkpt>
      <trkpt lat="49.47535" lon="6.38109">
        <ele>196.40039</ele>
        <time>2026-05-19T16:13:58+02:00</time>
      </trkpt>
      <trkpt lat="49.47536" lon="6.38115">
        <ele>196.40039</ele>
        <time>2026-05-19T16:13:59+02:00</time>
      </trkpt>
      <trkpt lat="49.47538" lon="6.38122">
        <ele>196.7002</ele>
        <time>2026-05-19T16:14:00+02:00</time>
      </trkpt>
      <trkpt lat="49.47539" lon="6.38129">
        <ele>196.7002</ele>
        <time>2026-05-19T16:14:01+02:00</time>
      </trkpt>
      <trkpt lat="49.4754" lon="6.38135">
        <ele>196.7998</ele>
        <time>2026-05-19T16:14:02+02:00</time>
      </trkpt>
      <trkpt lat="49.47542" lon="6.38142">
        <ele>196.7998</ele>
        <time>2026-05-19T16:14:03+02:00</time>
      </trkpt>
      <trkpt lat="49.47543" lon="6.38148">
        <ele>196.7998</ele>
        <time>2026-05-19T16:14:04+02:00</time>
      </trkpt>
      <trkpt lat="49.47545" lon="6.38155">
        <ele>197</ele>
        <time>2026-05-19T16:14:05+02:00</time>
      </trkpt>
      <trkpt lat="49.47546" lon="6.38161">
        <ele>196.90039</ele>
        <time>2026-05-19T16:14:06+02:00</time>
      </trkpt>
      <trkpt lat="49.47547" lon="6.38168">
        <ele>196.90039</ele>
        <time>2026-05-19T16:14:07+02:00</time>
      </trkpt>
      <trkpt lat="49.47548" lon="6.38174">
        <ele>196.90039</ele>
        <time>2026-05-19T16:14:08+02:00</time>
      </trkpt>
      <trkpt lat="49.4755" lon="6.38181">
        <ele>197.10059</ele>
        <time>2026-05-19T16:14:09+02:00</time>
      </trkpt>
      <trkpt lat="49.47551" lon="6.38187">
        <ele>197.10059</ele>
        <time>2026-05-19T16:14:10+02:00</time>
      </trkpt>
      <trkpt lat="49.47552" lon="6.38193">
        <ele>197.10059</ele>
        <time>2026-05-19T16:14:11+02:00</time>
      </trkpt>
      <trkpt lat="49.47553" lon="6.382">
        <ele>197.10059</ele>
        <time>2026-05-19T16:14:12+02:00</time>
      </trkpt>
      <trkpt lat="49.47554" lon="6.38206">
        <ele>197</ele>
        <time>2026-05-19T16:14:13+02:00</time>
      </trkpt>
      <trkpt lat="49.47555" lon="6.38213">
        <ele>197.2002</ele>
        <time>2026-05-19T16:14:14+02:00</time>
      </trkpt>
      <trkpt lat="49.47556" lon="6.3822">
        <ele>197.10059</ele>
        <time>2026-05-19T16:14:15+02:00</time>
      </trkpt>
      <trkpt lat="49.47558" lon="6.38226">
        <ele>197.10059</ele>
        <time>2026-05-19T16:14:16+02:00</time>
      </trkpt>
      <trkpt lat="49.47559" lon="6.38233">
        <ele>197.10059</ele>
        <time>2026-05-19T16:14:17+02:00</time>
      </trkpt>
      <trkpt lat="49.4756" lon="6.3824">
        <ele>197.2998</ele>
        <time>2026-05-19T16:14:18+02:00</time>
      </trkpt>
      <trkpt lat="49.47561" lon="6.38247">
        <ele>197.2998</ele>
        <time>2026-05-19T16:14:19+02:00</time>
      </trkpt>
      <trkpt lat="49.47562" lon="6.38254">
        <ele>197.2998</ele>
        <time>2026-05-19T16:14:20+02:00</time>
      </trkpt>
      <trkpt lat="49.47563" lon="6.3826">
        <ele>197.2998</ele>
        <time>2026-05-19T16:14:21+02:00</time>
      </trkpt>
      <trkpt lat="49.47565" lon="6.38267">
        <ele>197.40039</ele>
        <time>2026-05-19T16:14:22+02:00</time>
      </trkpt>
      <trkpt lat="49.47566" lon="6.38274">
        <ele>197.7002</ele>
        <time>2026-05-19T16:14:23+02:00</time>
      </trkpt>
      <trkpt lat="49.47567" lon="6.38281">
        <ele>197.7998</ele>
        <time>2026-05-19T16:14:24+02:00</time>
      </trkpt>
      <trkpt lat="49.47568" lon="6.38287">
        <ele>197.7998</ele>
        <time>2026-05-19T16:14:25+02:00</time>
      </trkpt>
      <trkpt lat="49.4757" lon="6.38294">
        <ele>197.90039</ele>
        <time>2026-05-19T16:14:26+02:00</time>
      </trkpt>
      <trkpt lat="49.47571" lon="6.38301">
        <ele>198.40039</ele>
        <time>2026-05-19T16:14:27+02:00</time>
      </trkpt>
      <trkpt lat="49.47572" lon="6.38308">
        <ele>198.60059</ele>
        <time>2026-05-19T16:14:28+02:00</time>
      </trkpt>
      <trkpt lat="49.47573" lon="6.38314">
        <ele>198.60059</ele>
        <time>2026-05-19T16:14:29+02:00</time>
      </trkpt>
      <trkpt lat="49.47574" lon="6.38321">
        <ele>198.7998</ele>
        <time>2026-05-19T16:14:30+02:00</time>
      </trkpt>
      <trkpt lat="49.47576" lon="6.38328">
        <ele>198.90039</ele>
        <time>2026-05-19T16:14:31+02:00</time>
      </trkpt>
      <trkpt lat="49.47577" lon="6.38334">
        <ele>199.5</ele>
        <time>2026-05-19T16:14:32+02:00</time>
      </trkpt>
      <trkpt lat="49.47578" lon="6.38341">
        <ele>199.7002</ele>
        <time>2026-05-19T16:14:33+02:00</time>
      </trkpt>
      <trkpt lat="49.47579" lon="6.38347">
        <ele>199.7002</ele>
        <time>2026-05-19T16:14:34+02:00</time>
      </trkpt>
      <trkpt lat="49.4758" lon="6.38353">
        <ele>200</ele>
        <time>2026-05-19T16:14:35+02:00</time>
      </trkpt>
      <trkpt lat="49.47581" lon="6.38359">
        <ele>200.2998</ele>
        <time>2026-05-19T16:14:36+02:00</time>
      </trkpt>
      <trkpt lat="49.47582" lon="6.38365">
        <ele>200.2998</ele>
        <time>2026-05-19T16:14:37+02:00</time>
      </trkpt>
      <trkpt lat="49.47584" lon="6.38371">
        <ele>201</ele>
        <time>2026-05-19T16:14:38+02:00</time>
      </trkpt>
      <trkpt lat="49.47585" lon="6.38377">
        <ele>201.2998</ele>
        <time>2026-05-19T16:14:39+02:00</time>
      </trkpt>
      <trkpt lat="49.47586" lon="6.38383">
        <ele>201.7002</ele>
        <time>2026-05-19T16:14:40+02:00</time>
      </trkpt>
      <trkpt lat="49.47588" lon="6.38389">
        <ele>202</ele>
        <time>2026-05-19T16:14:41+02:00</time>
      </trkpt>
      <trkpt lat="49.47589" lon="6.38394">
        <ele>202.40039</ele>
        <time>2026-05-19T16:14:42+02:00</time>
      </trkpt>
      <trkpt lat="49.47591" lon="6.384">
        <ele>202.40039</ele>
        <time>2026-05-19T16:14:43+02:00</time>
      </trkpt>
      <trkpt lat="49.47592" lon="6.38406">
        <ele>202.7002</ele>
        <time>2026-05-19T16:14:44+02:00</time>
      </trkpt>
      <trkpt lat="49.47593" lon="6.38412">
        <ele>203</ele>
        <time>2026-05-19T16:14:45+02:00</time>
      </trkpt>
      <trkpt lat="49.47595" lon="6.38418">
        <ele>203.7002</ele>
        <time>2026-05-19T16:14:46+02:00</time>
      </trkpt>
      <trkpt lat="49.47597" lon="6.38423">
        <ele>203.7002</ele>
        <time>2026-05-19T16:14:47+02:00</time>
      </trkpt>
      <trkpt lat="49.47599" lon="6.38429">
        <ele>204.40039</ele>
        <time>2026-05-19T16:14:48+02:00</time>
      </trkpt>
      <trkpt lat="49.47601" lon="6.38435">
        <ele>204.60059</ele>
        <time>2026-05-19T16:14:49+02:00</time>
      </trkpt>
      <trkpt lat="49.47603" lon="6.38441">
        <ele>204.60059</ele>
        <time>2026-05-19T16:14:50+02:00</time>
      </trkpt>
      <trkpt lat="49.47603" lon="6.38444">
        <ele>204.90039</ele>
        <time>2026-05-19T16:14:51+02:00</time>
      </trkpt>
      <trkpt lat="49.47606" lon="6.38453">
        <ele>205.40039</ele>
        <time>2026-05-19T16:14:52+02:00</time>
      </trkpt>
      <trkpt lat="49.47608" lon="6.38459">
        <ele>205.40039</ele>
        <time>2026-05-19T16:14:53+02:00</time>
      </trkpt>
      <trkpt lat="49.47611" lon="6.38464">
        <ele>205.90039</ele>
        <time>2026-05-19T16:14:54+02:00</time>
      </trkpt>
      <trkpt lat="49.47612" lon="6.3847">
        <ele>206.10059</ele>
        <time>2026-05-19T16:14:55+02:00</time>
      </trkpt>
      <trkpt lat="49.47614" lon="6.38476">
        <ele>206.10059</ele>
        <time>2026-05-19T16:14:56+02:00</time>
      </trkpt>
      <trkpt lat="49.47617" lon="6.38482">
        <ele>206.5</ele>
        <time>2026-05-19T16:14:57+02:00</time>
      </trkpt>
      <trkpt lat="49.47619" lon="6.38487">
        <ele>206.7002</ele>
        <time>2026-05-19T16:14:58+02:00</time>
      </trkpt>
      <trkpt lat="49.47621" lon="6.38493">
        <ele>207</ele>
        <time>2026-05-19T16:14:59+02:00</time>
      </trkpt>
      <trkpt lat="49.47623" lon="6.38499">
        <ele>207.2002</ele>
        <time>2026-05-19T16:15:00+02:00</time>
      </trkpt>
      <trkpt lat="49.47625" lon="6.38504">
        <ele>207.2998</ele>
        <time>2026-05-19T16:15:01+02:00</time>
      </trkpt>
      <trkpt lat="49.47627" lon="6.3851">
        <ele>207.60059</ele>
        <time>2026-05-19T16:15:02+02:00</time>
      </trkpt>
      <trkpt lat="49.47629" lon="6.38515">
        <ele>207.7002</ele>
        <time>2026-05-19T16:15:03+02:00</time>
      </trkpt>
      <trkpt lat="49.47631" lon="6.3852">
        <ele>207.7002</ele>
        <time>2026-05-19T16:15:04+02:00</time>
      </trkpt>
      <trkpt lat="49.47633" lon="6.38525">
        <ele>208.10059</ele>
        <time>2026-05-19T16:15:05+02:00</time>
      </trkpt>
      <trkpt lat="49.47635" lon="6.3853">
        <ele>208.2002</ele>
        <time>2026-05-19T16:15:06+02:00</time>
      </trkpt>
      <trkpt lat="49.47637" lon="6.38535">
        <ele>208.2002</ele>
        <time>2026-05-19T16:15:07+02:00</time>
      </trkpt>
      <trkpt lat="49.47638" lon="6.3854">
        <ele>208.60059</ele>
        <time>2026-05-19T16:15:08+02:00</time>
      </trkpt>
      <trkpt lat="49.4764" lon="6.38545">
        <ele>208.60059</ele>
        <time>2026-05-19T16:15:09+02:00</time>
      </trkpt>
      <trkpt lat="49.47642" lon="6.38549">
        <ele>208.7002</ele>
        <time>2026-05-19T16:15:10+02:00</time>
      </trkpt>
      <trkpt lat="49.47643" lon="6.38554">
        <ele>208.7002</ele>
        <time>2026-05-19T16:15:11+02:00</time>
      </trkpt>
      <trkpt lat="49.47646" lon="6.38559">
        <ele>209</ele>
        <time>2026-05-19T16:15:12+02:00</time>
      </trkpt>
      <trkpt lat="49.47648" lon="6.38564">
        <ele>209.10059</ele>
        <time>2026-05-19T16:15:13+02:00</time>
      </trkpt>
      <trkpt lat="49.4765" lon="6.38569">
        <ele>209.2002</ele>
        <time>2026-05-19T16:15:14+02:00</time>
      </trkpt>
      <trkpt lat="49.47651" lon="6.38574">
        <ele>209.40039</ele>
        <time>2026-05-19T16:15:15+02:00</time>
      </trkpt>
      <trkpt lat="49.47653" lon="6.38578">
        <ele>209.40039</ele>
        <time>2026-05-19T16:15:16+02:00</time>
      </trkpt>
      <trkpt lat="49.47655" lon="6.38583">
        <ele>209.7998</ele>
        <time>2026-05-19T16:15:17+02:00</time>
      </trkpt>
      <trkpt lat="49.47658" lon="6.38588">
        <ele>209.7998</ele>
        <time>2026-05-19T16:15:18+02:00</time>
      </trkpt>
      <trkpt lat="49.47659" lon="6.38593">
        <ele>210</ele>
        <time>2026-05-19T16:15:19+02:00</time>
      </trkpt>
      <trkpt lat="49.47661" lon="6.38598">
        <ele>210.40039</ele>
        <time>2026-05-19T16:15:20+02:00</time>
      </trkpt>
      <trkpt lat="49.47663" lon="6.38603">
        <ele>210.40039</ele>
        <time>2026-05-19T16:15:21+02:00</time>
      </trkpt>
      <trkpt lat="49.47665" lon="6.38607">
        <ele>210.7002</ele>
        <time>2026-05-19T16:15:22+02:00</time>
      </trkpt>
      <trkpt lat="49.47667" lon="6.38612">
        <ele>210.7998</ele>
        <time>2026-05-19T16:15:23+02:00</time>
      </trkpt>
      <trkpt lat="49.47669" lon="6.38617">
        <ele>211.10059</ele>
        <time>2026-05-19T16:15:24+02:00</time>
      </trkpt>
      <trkpt lat="49.47671" lon="6.38622">
        <ele>211.10059</ele>
        <time>2026-05-19T16:15:25+02:00</time>
      </trkpt>
      <trkpt lat="49.47673" lon="6.38627">
        <ele>211.60059</ele>
        <time>2026-05-19T16:15:26+02:00</time>
      </trkpt>
      <trkpt lat="49.47675" lon="6.38632">
        <ele>211.90039</ele>
        <time>2026-05-19T16:15:27+02:00</time>
      </trkpt>
      <trkpt lat="49.47677" lon="6.38637">
        <ele>211.90039</ele>
        <time>2026-05-19T16:15:28+02:00</time>
      </trkpt>
      <trkpt lat="49.47679" lon="6.38642">
        <ele>212.40039</ele>
        <time>2026-05-19T16:15:29+02:00</time>
      </trkpt>
      <trkpt lat="49.4768" lon="6.38647">
        <ele>212.40039</ele>
        <time>2026-05-19T16:15:30+02:00</time>
      </trkpt>
      <trkpt lat="49.47682" lon="6.38652">
        <ele>212.7002</ele>
        <time>2026-05-19T16:15:31+02:00</time>
      </trkpt>
      <trkpt lat="49.47684" lon="6.38657">
        <ele>212.90039</ele>
        <time>2026-05-19T16:15:32+02:00</time>
      </trkpt>
      <trkpt lat="49.47685" lon="6.38662">
        <ele>213.10059</ele>
        <time>2026-05-19T16:15:33+02:00</time>
      </trkpt>
      <trkpt lat="49.47687" lon="6.38666">
        <ele>213.10059</ele>
        <time>2026-05-19T16:15:34+02:00</time>
      </trkpt>
      <trkpt lat="49.47687" lon="6.38671">
        <ele>213.40039</ele>
        <time>2026-05-19T16:15:35+02:00</time>
      </trkpt>
      <trkpt lat="49.47688" lon="6.38674">
        <ele>213.40039</ele>
        <time>2026-05-19T16:15:36+02:00</time>
      </trkpt>
      <trkpt lat="49.47688" lon="6.38678">
        <ele>213.60059</ele>
        <time>2026-05-19T16:15:37+02:00</time>
      </trkpt>
      <trkpt lat="49.47689" lon="6.38681">
        <ele>213.7002</ele>
        <time>2026-05-19T16:15:38+02:00</time>
      </trkpt>
      <trkpt lat="49.47691" lon="6.38686">
        <ele>214</ele>
        <time>2026-05-19T16:15:39+02:00</time>
      </trkpt>
      <trkpt lat="49.47692" lon="6.3869">
        <ele>214</ele>
        <time>2026-05-19T16:15:40+02:00</time>
      </trkpt>
      <trkpt lat="49.47694" lon="6.38694">
        <ele>214.40039</ele>
        <time>2026-05-19T16:15:41+02:00</time>
      </trkpt>
      <trkpt lat="49.47695" lon="6.38699">
        <ele>214.40039</ele>
        <time>2026-05-19T16:15:42+02:00</time>
      </trkpt>
      <trkpt lat="49.47696" lon="6.38705">
        <ele>214.7002</ele>
        <time>2026-05-19T16:15:43+02:00</time>
      </trkpt>
      <trkpt lat="49.47696" lon="6.3871">
        <ele>215</ele>
        <time>2026-05-19T16:15:44+02:00</time>
      </trkpt>
      <trkpt lat="49.47695" lon="6.38716">
        <ele>215</ele>
        <time>2026-05-19T16:15:45+02:00</time>
      </trkpt>
      <trkpt lat="49.47695" lon="6.38722">
        <ele>215.2998</ele>
        <time>2026-05-19T16:15:46+02:00</time>
      </trkpt>
      <trkpt lat="49.47695" lon="6.38724">
        <ele>215.2998</ele>
        <time>2026-05-19T16:15:47+02:00</time>
      </trkpt>
      <trkpt lat="49.47693" lon="6.38732">
        <ele>215.5</ele>
        <time>2026-05-19T16:15:48+02:00</time>
      </trkpt>
      <trkpt lat="49.47692" lon="6.38738">
        <ele>215.7998</ele>
        <time>2026-05-19T16:15:49+02:00</time>
      </trkpt>
      <trkpt lat="49.47691" lon="6.38743">
        <ele>215.7998</ele>
        <time>2026-05-19T16:15:50+02:00</time>
      </trkpt>
      <trkpt lat="49.4769" lon="6.38748">
        <ele>216.10059</ele>
        <time>2026-05-19T16:15:51+02:00</time>
      </trkpt>
      <trkpt lat="49.4769" lon="6.38751">
        <ele>216.10059</ele>
        <time>2026-05-19T16:15:52+02:00</time>
      </trkpt>
      <trkpt lat="49.47691" lon="6.38759">
        <ele>216.40039</ele>
        <time>2026-05-19T16:15:53+02:00</time>
      </trkpt>
      <trkpt lat="49.47692" lon="6.38763">
        <ele>216.7002</ele>
        <time>2026-05-19T16:15:54+02:00</time>
      </trkpt>
      <trkpt lat="49.47695" lon="6.38767">
        <ele>216.7002</ele>
        <time>2026-05-19T16:15:55+02:00</time>
      </trkpt>
      <trkpt lat="49.47697" lon="6.38769">
        <ele>216.7002</ele>
        <time>2026-05-19T16:15:56+02:00</time>
      </trkpt>
      <trkpt lat="49.477" lon="6.38771">
        <ele>217.2002</ele>
        <time>2026-05-19T16:15:57+02:00</time>
      </trkpt>
      <trkpt lat="49.47704" lon="6.38773">
        <ele>217.2002</ele>
        <time>2026-05-19T16:15:58+02:00</time>
      </trkpt>
      <trkpt lat="49.47707" lon="6.38774">
        <ele>217.2002</ele>
        <time>2026-05-19T16:15:59+02:00</time>
      </trkpt>
      <trkpt lat="49.47711" lon="6.38776">
        <ele>217.2998</ele>
        <time>2026-05-19T16:16:00+02:00</time>
      </trkpt>
      <trkpt lat="49.47714" lon="6.38777">
        <ele>217.2998</ele>
        <time>2026-05-19T16:16:01+02:00</time>
      </trkpt>
      <trkpt lat="49.47718" lon="6.38778">
        <ele>217.7002</ele>
        <time>2026-05-19T16:16:02+02:00</time>
      </trkpt>
      <trkpt lat="49.47722" lon="6.38779">
        <ele>217.7002</ele>
        <time>2026-05-19T16:16:03+02:00</time>
      </trkpt>
      <trkpt lat="49.47726" lon="6.38779">
        <ele>217.7002</ele>
        <time>2026-05-19T16:16:04+02:00</time>
      </trkpt>
      <trkpt lat="49.4773" lon="6.3878">
        <ele>217.7998</ele>
        <time>2026-05-19T16:16:05+02:00</time>
      </trkpt>
      <trkpt lat="49.47734" lon="6.3878">
        <ele>217.7998</ele>
        <time>2026-05-19T16:16:06+02:00</time>
      </trkpt>
      <trkpt lat="49.47738" lon="6.38781">
        <ele>217.7998</ele>
        <time>2026-05-19T16:16:07+02:00</time>
      </trkpt>
      <trkpt lat="49.47742" lon="6.38781">
        <ele>217.90039</ele>
        <time>2026-05-19T16:16:08+02:00</time>
      </trkpt>
      <trkpt lat="49.47746" lon="6.38782">
        <ele>217.90039</ele>
        <time>2026-05-19T16:16:09+02:00</time>
      </trkpt>
      <trkpt lat="49.4775" lon="6.38783">
        <ele>218</ele>
        <time>2026-05-19T16:16:10+02:00</time>
      </trkpt>
      <trkpt lat="49.47753" lon="6.38783">
        <ele>218</ele>
        <time>2026-05-19T16:16:11+02:00</time>
      </trkpt>
      <trkpt lat="49.47757" lon="6.38784">
        <ele>218</ele>
        <time>2026-05-19T16:16:12+02:00</time>
      </trkpt>
      <trkpt lat="49.47759" lon="6.38784">
        <ele>218</ele>
        <time>2026-05-19T16:16:13+02:00</time>
      </trkpt>
      <trkpt lat="49.47762" lon="6.38784">
        <ele>218.10059</ele>
        <time>2026-05-19T16:16:14+02:00</time>
      </trkpt>
      <trkpt lat="49.47764" lon="6.38784">
        <ele>218.10059</ele>
        <time>2026-05-19T16:16:15+02:00</time>
      </trkpt>
      <trkpt lat="49.47768" lon="6.38784">
        <ele>218.10059</ele>
        <time>2026-05-19T16:16:16+02:00</time>
      </trkpt>
      <trkpt lat="49.4777" lon="6.38785">
        <ele>218.10059</ele>
        <time>2026-05-19T16:16:17+02:00</time>
      </trkpt>
      <trkpt lat="49.47772" lon="6.38785">
        <ele>218.2002</ele>
        <time>2026-05-19T16:16:18+02:00</time>
      </trkpt>
      <trkpt lat="49.47774" lon="6.38786">
        <ele>218.2002</ele>
        <time>2026-05-19T16:16:19+02:00</time>
      </trkpt>
      <trkpt lat="49.47776" lon="6.38786">
        <ele>218.2002</ele>
        <time>2026-05-19T16:16:20+02:00</time>
      </trkpt>
      <trkpt lat="49.47777" lon="6.38787">
        <ele>218.5</ele>
        <time>2026-05-19T16:16:21+02:00</time>
      </trkpt>
      <trkpt lat="49.47778" lon="6.38787">
        <ele>218.5</ele>
        <time>2026-05-19T16:16:22+02:00</time>
      </trkpt>
      <trkpt lat="49.47779" lon="6.38788">
        <ele>218.5</ele>
        <time>2026-05-19T16:16:23+02:00</time>
      </trkpt>
      <trkpt lat="49.47779" lon="6.38788">
        <ele>218.5</ele>
        <time>2026-05-19T16:16:24+02:00</time>
      </trkpt>
      <trkpt lat="49.47779" lon="6.38788">
        <ele>218.5</ele>
        <time>2026-05-19T16:16:25+02:00</time>
      </trkpt>
      <trkpt lat="49.47779" lon="6.38788">
        <ele>218.5</ele>
        <time>2026-05-19T16:16:26+02:00</time>
      </trkpt>
      <trkpt lat="49.47793" lon="6.38791">
        <ele>218.60059</ele>
        <time>2026-05-19T16:18:11+02:00</time>
      </trkpt>
      <trkpt lat="49.47796" lon="6.38792">
        <ele>218.7002</ele>
        <time>2026-05-19T16:18:12+02:00</time>
      </trkpt>
      <trkpt lat="49.47799" lon="6.38792">
        <ele>218.7002</ele>
        <time>2026-05-19T16:18:13+02:00</time>
      </trkpt>
      <trkpt lat="49.47802" lon="6.38792">
        <ele>218.7002</ele>
        <time>2026-05-19T16:18:14+02:00</time>
      </trkpt>
      <trkpt lat="49.47805" lon="6.38792">
        <ele>218.7002</ele>
        <time>2026-05-19T16:18:15+02:00</time>
      </trkpt>
      <trkpt lat="49.47809" lon="6.38792">
        <ele>218.7002</ele>
        <time>2026-05-19T16:18:16+02:00</time>
      </trkpt>
      <trkpt lat="49.47812" lon="6.38793">
        <ele>218.7998</ele>
        <time>2026-05-19T16:18:17+02:00</time>
      </trkpt>
      <trkpt lat="49.47817" lon="6.38794">
        <ele>218.7998</ele>
        <time>2026-05-19T16:18:18+02:00</time>
      </trkpt>
      <trkpt lat="49.4782" lon="6.38794">
        <ele>218.7998</ele>
        <time>2026-05-19T16:18:19+02:00</time>
      </trkpt>
      <trkpt lat="49.47825" lon="6.38795">
        <ele>219.10059</ele>
        <time>2026-05-19T16:18:20+02:00</time>
      </trkpt>
      <trkpt lat="49.47829" lon="6.38795">
        <ele>219.10059</ele>
        <time>2026-05-19T16:18:21+02:00</time>
      </trkpt>
      <trkpt lat="49.47834" lon="6.38795">
        <ele>219.2002</ele>
        <time>2026-05-19T16:18:22+02:00</time>
      </trkpt>
      <trkpt lat="49.47838" lon="6.38795">
        <ele>219.2002</ele>
        <time>2026-05-19T16:18:23+02:00</time>
      </trkpt>
      <trkpt lat="49.47843" lon="6.38795">
        <ele>219.2002</ele>
        <time>2026-05-19T16:18:24+02:00</time>
      </trkpt>
      <trkpt lat="49.47848" lon="6.38795">
        <ele>219.2998</ele>
        <time>2026-05-19T16:18:25+02:00</time>
      </trkpt>
      <trkpt lat="49.47853" lon="6.38796">
        <ele>219.40039</ele>
        <time>2026-05-19T16:18:26+02:00</time>
      </trkpt>
      <trkpt lat="49.47858" lon="6.38796">
        <ele>219.5</ele>
        <time>2026-05-19T16:18:27+02:00</time>
      </trkpt>
      <trkpt lat="49.47863" lon="6.38796">
        <ele>219.7002</ele>
        <time>2026-05-19T16:18:28+02:00</time>
      </trkpt>
      <trkpt lat="49.47868" lon="6.38796">
        <ele>219.7998</ele>
        <time>2026-05-19T16:18:29+02:00</time>
      </trkpt>
      <trkpt lat="49.47873" lon="6.38796">
        <ele>220</ele>
        <time>2026-05-19T16:18:30+02:00</time>
      </trkpt>
      <trkpt lat="49.47878" lon="6.38796">
        <ele>220</ele>
        <time>2026-05-19T16:18:31+02:00</time>
      </trkpt>
      <trkpt lat="49.47883" lon="6.38796">
        <ele>220</ele>
        <time>2026-05-19T16:18:32+02:00</time>
      </trkpt>
      <trkpt lat="49.47885" lon="6.38796">
        <ele>220.10059</ele>
        <time>2026-05-19T16:18:33+02:00</time>
      </trkpt>
      <trkpt lat="49.47893" lon="6.38796">
        <ele>220.10059</ele>
        <time>2026-05-19T16:18:34+02:00</time>
      </trkpt>
      <trkpt lat="49.47897" lon="6.38796">
        <ele>220.10059</ele>
        <time>2026-05-19T16:18:35+02:00</time>
      </trkpt>
      <trkpt lat="49.47902" lon="6.38796">
        <ele>220</ele>
        <time>2026-05-19T16:18:36+02:00</time>
      </trkpt>
      <trkpt lat="49.47907" lon="6.38796">
        <ele>220</ele>
        <time>2026-05-19T16:18:37+02:00</time>
      </trkpt>
      <trkpt lat="49.47911" lon="6.38795">
        <ele>220</ele>
        <time>2026-05-19T16:18:38+02:00</time>
      </trkpt>
      <trkpt lat="49.47915" lon="6.38794">
        <ele>219.40039</ele>
        <time>2026-05-19T16:18:39+02:00</time>
      </trkpt>
      <trkpt lat="49.4792" lon="6.38794">
        <ele>219.40039</ele>
        <time>2026-05-19T16:18:40+02:00</time>
      </trkpt>
      <trkpt lat="49.47924" lon="6.38794">
        <ele>219.2998</ele>
        <time>2026-05-19T16:18:41+02:00</time>
      </trkpt>
      <trkpt lat="49.47929" lon="6.38793">
        <ele>219.2002</ele>
        <time>2026-05-19T16:18:42+02:00</time>
      </trkpt>
      <trkpt lat="49.47934" lon="6.38792">
        <ele>219.10059</ele>
        <time>2026-05-19T16:18:43+02:00</time>
      </trkpt>
      <trkpt lat="49.47939" lon="6.3879">
        <ele>219.10059</ele>
        <time>2026-05-19T16:18:44+02:00</time>
      </trkpt>
      <trkpt lat="49.47944" lon="6.38789">
        <ele>218.90039</ele>
        <time>2026-05-19T16:18:45+02:00</time>
      </trkpt>
      <trkpt lat="49.47949" lon="6.38788">
        <ele>218.7998</ele>
        <time>2026-05-19T16:18:46+02:00</time>
      </trkpt>
      <trkpt lat="49.47955" lon="6.38786">
        <ele>217.90039</ele>
        <time>2026-05-19T16:18:47+02:00</time>
      </trkpt>
      <trkpt lat="49.4796" lon="6.38783">
        <ele>217.7998</ele>
        <time>2026-05-19T16:18:48+02:00</time>
      </trkpt>
      <trkpt lat="49.47966" lon="6.38781">
        <ele>217.60059</ele>
        <time>2026-05-19T16:18:49+02:00</time>
      </trkpt>
      <trkpt lat="49.47972" lon="6.38782">
        <ele>217.40039</ele>
        <time>2026-05-19T16:18:50+02:00</time>
      </trkpt>
      <trkpt lat="49.47975" lon="6.38783">
        <ele>217.2002</ele>
        <time>2026-05-19T16:18:51+02:00</time>
      </trkpt>
      <trkpt lat="49.47983" lon="6.38784">
        <ele>217.10059</ele>
        <time>2026-05-19T16:18:52+02:00</time>
      </trkpt>
      <trkpt lat="49.47988" lon="6.38783">
        <ele>216.90039</ele>
        <time>2026-05-19T16:18:53+02:00</time>
      </trkpt>
      <trkpt lat="49.47994" lon="6.38781">
        <ele>216.7998</ele>
        <time>2026-05-19T16:18:54+02:00</time>
      </trkpt>
      <trkpt lat="49.48" lon="6.38779">
        <ele>216.7002</ele>
        <time>2026-05-19T16:18:55+02:00</time>
      </trkpt>
      <trkpt lat="49.48006" lon="6.3878">
        <ele>216.60059</ele>
        <time>2026-05-19T16:18:56+02:00</time>
      </trkpt>
      <trkpt lat="49.48012" lon="6.38781">
        <ele>216.5</ele>
        <time>2026-05-19T16:18:57+02:00</time>
      </trkpt>
      <trkpt lat="49.48018" lon="6.38781">
        <ele>216.40039</ele>
        <time>2026-05-19T16:18:58+02:00</time>
      </trkpt>
      <trkpt lat="49.48025" lon="6.3878">
        <ele>216.40039</ele>
        <time>2026-05-19T16:18:59+02:00</time>
      </trkpt>
      <trkpt lat="49.48031" lon="6.38779">
        <ele>216.2998</ele>
        <time>2026-05-19T16:19:00+02:00</time>
      </trkpt>
      <trkpt lat="49.48038" lon="6.38777">
        <ele>215.7998</ele>
        <time>2026-05-19T16:19:01+02:00</time>
      </trkpt>
      <trkpt lat="49.48045" lon="6.38776">
        <ele>215.7002</ele>
        <time>2026-05-19T16:19:02+02:00</time>
      </trkpt>
      <trkpt lat="49.48052" lon="6.38775">
        <ele>215.7002</ele>
        <time>2026-05-19T16:19:03+02:00</time>
      </trkpt>
      <trkpt lat="49.48055" lon="6.38774">
        <ele>215.7002</ele>
        <time>2026-05-19T16:19:04+02:00</time>
      </trkpt>
      <trkpt lat="49.48066" lon="6.38771">
        <ele>215.7002</ele>
        <time>2026-05-19T16:19:05+02:00</time>
      </trkpt>
      <trkpt lat="49.48073" lon="6.38769">
        <ele>215.2998</ele>
        <time>2026-05-19T16:19:06+02:00</time>
      </trkpt>
      <trkpt lat="49.48079" lon="6.38767">
        <ele>215.2998</ele>
        <time>2026-05-19T16:19:07+02:00</time>
      </trkpt>
      <trkpt lat="49.48086" lon="6.38766">
        <ele>215.2002</ele>
        <time>2026-05-19T16:19:08+02:00</time>
      </trkpt>
      <trkpt lat="49.48093" lon="6.38764">
        <ele>215.2002</ele>
        <time>2026-05-19T16:19:09+02:00</time>
      </trkpt>
      <trkpt lat="49.48099" lon="6.38762">
        <ele>215.10059</ele>
        <time>2026-05-19T16:19:10+02:00</time>
      </trkpt>
      <trkpt lat="49.48106" lon="6.3876">
        <ele>214.7002</ele>
        <time>2026-05-19T16:19:11+02:00</time>
      </trkpt>
      <trkpt lat="49.48113" lon="6.38758">
        <ele>214.40039</ele>
        <time>2026-05-19T16:19:12+02:00</time>
      </trkpt>
      <trkpt lat="49.48119" lon="6.38757">
        <ele>214.2998</ele>
        <time>2026-05-19T16:19:13+02:00</time>
      </trkpt>
      <trkpt lat="49.48126" lon="6.38755">
        <ele>214.2002</ele>
        <time>2026-05-19T16:19:14+02:00</time>
      </trkpt>
      <trkpt lat="49.48133" lon="6.38753">
        <ele>214</ele>
        <time>2026-05-19T16:19:15+02:00</time>
      </trkpt>
      <trkpt lat="49.4814" lon="6.38752">
        <ele>213.7998</ele>
        <time>2026-05-19T16:19:16+02:00</time>
      </trkpt>
      <trkpt lat="49.48147" lon="6.3875">
        <ele>213.40039</ele>
        <time>2026-05-19T16:19:17+02:00</time>
      </trkpt>
      <trkpt lat="49.48153" lon="6.38748">
        <ele>213.40039</ele>
        <time>2026-05-19T16:19:18+02:00</time>
      </trkpt>
      <trkpt lat="49.4816" lon="6.38746">
        <ele>213.2998</ele>
        <time>2026-05-19T16:19:19+02:00</time>
      </trkpt>
      <trkpt lat="49.48167" lon="6.38744">
        <ele>213.2998</ele>
        <time>2026-05-19T16:19:20+02:00</time>
      </trkpt>
      <trkpt lat="49.48174" lon="6.38742">
        <ele>212.90039</ele>
        <time>2026-05-19T16:19:21+02:00</time>
      </trkpt>
      <trkpt lat="49.48181" lon="6.3874">
        <ele>212.90039</ele>
        <time>2026-05-19T16:19:22+02:00</time>
      </trkpt>
      <trkpt lat="49.48187" lon="6.38738">
        <ele>212.7998</ele>
        <time>2026-05-19T16:19:23+02:00</time>
      </trkpt>
      <trkpt lat="49.48194" lon="6.38736">
        <ele>212.7002</ele>
        <time>2026-05-19T16:19:24+02:00</time>
      </trkpt>
      <trkpt lat="49.48202" lon="6.38735">
        <ele>212.60059</ele>
        <time>2026-05-19T16:19:25+02:00</time>
      </trkpt>
      <trkpt lat="49.48209" lon="6.38733">
        <ele>212.5</ele>
        <time>2026-05-19T16:19:26+02:00</time>
      </trkpt>
      <trkpt lat="49.48216" lon="6.38732">
        <ele>212.40039</ele>
        <time>2026-05-19T16:19:27+02:00</time>
      </trkpt>
      <trkpt lat="49.48224" lon="6.38731">
        <ele>212.40039</ele>
        <time>2026-05-19T16:19:28+02:00</time>
      </trkpt>
      <trkpt lat="49.48231" lon="6.38731">
        <ele>212.2998</ele>
        <time>2026-05-19T16:19:29+02:00</time>
      </trkpt>
      <trkpt lat="49.48238" lon="6.3873">
        <ele>212.2998</ele>
        <time>2026-05-19T16:19:30+02:00</time>
      </trkpt>
      <trkpt lat="49.48245" lon="6.38729">
        <ele>212.2002</ele>
        <time>2026-05-19T16:19:31+02:00</time>
      </trkpt>
      <trkpt lat="49.48253" lon="6.38728">
        <ele>212.10059</ele>
        <time>2026-05-19T16:19:32+02:00</time>
      </trkpt>
      <trkpt lat="49.4826" lon="6.38727">
        <ele>212</ele>
        <time>2026-05-19T16:19:33+02:00</time>
      </trkpt>
      <trkpt lat="49.48268" lon="6.38727">
        <ele>211.90039</ele>
        <time>2026-05-19T16:19:34+02:00</time>
      </trkpt>
      <trkpt lat="49.48276" lon="6.38726">
        <ele>211.90039</ele>
        <time>2026-05-19T16:19:35+02:00</time>
      </trkpt>
      <trkpt lat="49.48283" lon="6.38726">
        <ele>211.7998</ele>
        <time>2026-05-19T16:19:36+02:00</time>
      </trkpt>
      <trkpt lat="49.48291" lon="6.38725">
        <ele>211.7002</ele>
        <time>2026-05-19T16:19:37+02:00</time>
      </trkpt>
      <trkpt lat="49.48298" lon="6.38724">
        <ele>211.60059</ele>
        <time>2026-05-19T16:19:38+02:00</time>
      </trkpt>
      <trkpt lat="49.48306" lon="6.38723">
        <ele>211.5</ele>
        <time>2026-05-19T16:19:39+02:00</time>
      </trkpt>
      <trkpt lat="49.48314" lon="6.38722">
        <ele>211.2002</ele>
        <time>2026-05-19T16:19:40+02:00</time>
      </trkpt>
      <trkpt lat="49.48322" lon="6.38722">
        <ele>211</ele>
        <time>2026-05-19T16:19:41+02:00</time>
      </trkpt>
      <trkpt lat="49.4833" lon="6.38721">
        <ele>210.60059</ele>
        <time>2026-05-19T16:19:42+02:00</time>
      </trkpt>
      <trkpt lat="49.48337" lon="6.3872">
        <ele>210.40039</ele>
        <time>2026-05-19T16:19:43+02:00</time>
      </trkpt>
      <trkpt lat="49.48345" lon="6.38719">
        <ele>210.2002</ele>
        <time>2026-05-19T16:19:44+02:00</time>
      </trkpt>
      <trkpt lat="49.48353" lon="6.38717">
        <ele>209.7998</ele>
        <time>2026-05-19T16:19:45+02:00</time>
      </trkpt>
      <trkpt lat="49.48361" lon="6.38716">
        <ele>209.60059</ele>
        <time>2026-05-19T16:19:46+02:00</time>
      </trkpt>
      <trkpt lat="49.48369" lon="6.38715">
        <ele>209.2002</ele>
        <time>2026-05-19T16:19:47+02:00</time>
      </trkpt>
      <trkpt lat="49.48376" lon="6.38713">
        <ele>209</ele>
        <time>2026-05-19T16:19:48+02:00</time>
      </trkpt>
      <trkpt lat="49.48383" lon="6.38712">
        <ele>208.7998</ele>
        <time>2026-05-19T16:19:49+02:00</time>
      </trkpt>
      <trkpt lat="49.48391" lon="6.3871">
        <ele>208.5</ele>
        <time>2026-05-19T16:19:50+02:00</time>
      </trkpt>
      <trkpt lat="49.48399" lon="6.38708">
        <ele>208.5</ele>
        <time>2026-05-19T16:19:51+02:00</time>
      </trkpt>
      <trkpt lat="49.48406" lon="6.38706">
        <ele>208.40039</ele>
        <time>2026-05-19T16:19:52+02:00</time>
      </trkpt>
      <trkpt lat="49.48414" lon="6.38704">
        <ele>208.10059</ele>
        <time>2026-05-19T16:19:53+02:00</time>
      </trkpt>
      <trkpt lat="49.48422" lon="6.38702">
        <ele>208</ele>
        <time>2026-05-19T16:19:54+02:00</time>
      </trkpt>
      <trkpt lat="49.48429" lon="6.387">
        <ele>208</ele>
        <time>2026-05-19T16:19:55+02:00</time>
      </trkpt>
      <trkpt lat="49.48437" lon="6.38698">
        <ele>207.7998</ele>
        <time>2026-05-19T16:19:56+02:00</time>
      </trkpt>
      <trkpt lat="49.48445" lon="6.38695">
        <ele>207.7002</ele>
        <time>2026-05-19T16:19:57+02:00</time>
      </trkpt>
      <trkpt lat="49.48454" lon="6.38693">
        <ele>207.5</ele>
        <time>2026-05-19T16:19:58+02:00</time>
      </trkpt>
      <trkpt lat="49.48458" lon="6.38691">
        <ele>207.5</ele>
        <time>2026-05-19T16:19:59+02:00</time>
      </trkpt>
      <trkpt lat="49.4847" lon="6.38687">
        <ele>207.2998</ele>
        <time>2026-05-19T16:20:00+02:00</time>
      </trkpt>
      <trkpt lat="49.48479" lon="6.38684">
        <ele>207.2002</ele>
        <time>2026-05-19T16:20:01+02:00</time>
      </trkpt>
      <trkpt lat="49.48488" lon="6.38681">
        <ele>207.10059</ele>
        <time>2026-05-19T16:20:02+02:00</time>
      </trkpt>
      <trkpt lat="49.48496" lon="6.38678">
        <ele>207</ele>
        <time>2026-05-19T16:20:03+02:00</time>
      </trkpt>
      <trkpt lat="49.48505" lon="6.38675">
        <ele>206.7002</ele>
        <time>2026-05-19T16:20:04+02:00</time>
      </trkpt>
      <trkpt lat="49.48514" lon="6.38672">
        <ele>206.7002</ele>
        <time>2026-05-19T16:20:05+02:00</time>
      </trkpt>
      <trkpt lat="49.48522" lon="6.3867">
        <ele>206.5</ele>
        <time>2026-05-19T16:20:06+02:00</time>
      </trkpt>
      <trkpt lat="49.48531" lon="6.38667">
        <ele>206.2998</ele>
        <time>2026-05-19T16:20:07+02:00</time>
      </trkpt>
      <trkpt lat="49.4854" lon="6.38663">
        <ele>206.40039</ele>
        <time>2026-05-19T16:20:08+02:00</time>
      </trkpt>
      <trkpt lat="49.48549" lon="6.3866">
        <ele>206.2002</ele>
        <time>2026-05-19T16:20:09+02:00</time>
      </trkpt>
      <trkpt lat="49.48558" lon="6.38657">
        <ele>206.2002</ele>
        <time>2026-05-19T16:20:10+02:00</time>
      </trkpt>
      <trkpt lat="49.48567" lon="6.38655">
        <ele>206.2002</ele>
        <time>2026-05-19T16:20:11+02:00</time>
      </trkpt>
      <trkpt lat="49.48576" lon="6.38652">
        <ele>206.2998</ele>
        <time>2026-05-19T16:20:12+02:00</time>
      </trkpt>
      <trkpt lat="49.48584" lon="6.38649">
        <ele>206.2998</ele>
        <time>2026-05-19T16:20:13+02:00</time>
      </trkpt>
      <trkpt lat="49.48593" lon="6.38646">
        <ele>206.5</ele>
        <time>2026-05-19T16:20:14+02:00</time>
      </trkpt>
      <trkpt lat="49.48602" lon="6.38644">
        <ele>206.7002</ele>
        <time>2026-05-19T16:20:15+02:00</time>
      </trkpt>
      <trkpt lat="49.4861" lon="6.38642">
        <ele>207.10059</ele>
        <time>2026-05-19T16:20:16+02:00</time>
      </trkpt>
      <trkpt lat="49.48619" lon="6.3864">
        <ele>207</ele>
        <time>2026-05-19T16:20:17+02:00</time>
      </trkpt>
      <trkpt lat="49.48627" lon="6.38638">
        <ele>207.40039</ele>
        <time>2026-05-19T16:20:18+02:00</time>
      </trkpt>
      <trkpt lat="49.48635" lon="6.38636">
        <ele>207.60059</ele>
        <time>2026-05-19T16:20:19+02:00</time>
      </trkpt>
      <trkpt lat="49.48639" lon="6.38635">
        <ele>207.7998</ele>
        <time>2026-05-19T16:20:20+02:00</time>
      </trkpt>
      <trkpt lat="49.48651" lon="6.38633">
        <ele>208.2998</ele>
        <time>2026-05-19T16:20:21+02:00</time>
      </trkpt>
      <trkpt lat="49.48659" lon="6.38632">
        <ele>208.7998</ele>
        <time>2026-05-19T16:20:22+02:00</time>
      </trkpt>
      <trkpt lat="49.48666" lon="6.38631">
        <ele>208.90039</ele>
        <time>2026-05-19T16:20:23+02:00</time>
      </trkpt>
      <trkpt lat="49.48673" lon="6.38631">
        <ele>209.10059</ele>
        <time>2026-05-19T16:20:24+02:00</time>
      </trkpt>
      <trkpt lat="49.48681" lon="6.38631">
        <ele>209.5</ele>
        <time>2026-05-19T16:20:25+02:00</time>
      </trkpt>
      <trkpt lat="49.48687" lon="6.3863">
        <ele>209.7002</ele>
        <time>2026-05-19T16:20:26+02:00</time>
      </trkpt>
      <trkpt lat="49.48695" lon="6.3863">
        <ele>209.7998</ele>
        <time>2026-05-19T16:20:27+02:00</time>
      </trkpt>
      <trkpt lat="49.48702" lon="6.3863">
        <ele>210</ele>
        <time>2026-05-19T16:20:28+02:00</time>
      </trkpt>
      <trkpt lat="49.48708" lon="6.3863">
        <ele>210.10059</ele>
        <time>2026-05-19T16:20:29+02:00</time>
      </trkpt>
      <trkpt lat="49.48715" lon="6.3863">
        <ele>210.2002</ele>
        <time>2026-05-19T16:20:30+02:00</time>
      </trkpt>
      <trkpt lat="49.48722" lon="6.3863">
        <ele>210.2998</ele>
        <time>2026-05-19T16:20:31+02:00</time>
      </trkpt>
      <trkpt lat="49.48728" lon="6.3863">
        <ele>210.2998</ele>
        <time>2026-05-19T16:20:32+02:00</time>
      </trkpt>
      <trkpt lat="49.48734" lon="6.3863">
        <ele>210.40039</ele>
        <time>2026-05-19T16:20:33+02:00</time>
      </trkpt>
      <trkpt lat="49.4874" lon="6.3863">
        <ele>210.40039</ele>
        <time>2026-05-19T16:20:34+02:00</time>
      </trkpt>
      <trkpt lat="49.48746" lon="6.3863">
        <ele>210.5</ele>
        <time>2026-05-19T16:20:35+02:00</time>
      </trkpt>
      <trkpt lat="49.48752" lon="6.3863">
        <ele>210.5</ele>
        <time>2026-05-19T16:20:36+02:00</time>
      </trkpt>
      <trkpt lat="49.48758" lon="6.3863">
        <ele>210.60059</ele>
        <time>2026-05-19T16:20:37+02:00</time>
      </trkpt>
      <trkpt lat="49.48764" lon="6.3863">
        <ele>210.60059</ele>
        <time>2026-05-19T16:20:38+02:00</time>
      </trkpt>
      <trkpt lat="49.4877" lon="6.38631">
        <ele>210.7002</ele>
        <time>2026-05-19T16:20:39+02:00</time>
      </trkpt>
      <trkpt lat="49.48776" lon="6.38631">
        <ele>210.7998</ele>
        <time>2026-05-19T16:20:40+02:00</time>
      </trkpt>
      <trkpt lat="49.48781" lon="6.38631">
        <ele>210.7998</ele>
        <time>2026-05-19T16:20:41+02:00</time>
      </trkpt>
      <trkpt lat="49.48786" lon="6.38631">
        <ele>210.7998</ele>
        <time>2026-05-19T16:20:42+02:00</time>
      </trkpt>
      <trkpt lat="49.48792" lon="6.38631">
        <ele>210.7998</ele>
        <time>2026-05-19T16:20:43+02:00</time>
      </trkpt>
      <trkpt lat="49.48797" lon="6.38631">
        <ele>210.90039</ele>
        <time>2026-05-19T16:20:44+02:00</time>
      </trkpt>
      <trkpt lat="49.48802" lon="6.38631">
        <ele>210.90039</ele>
        <time>2026-05-19T16:20:45+02:00</time>
      </trkpt>
      <trkpt lat="49.48807" lon="6.38631">
        <ele>211</ele>
        <time>2026-05-19T16:20:46+02:00</time>
      </trkpt>
      <trkpt lat="49.48812" lon="6.38632">
        <ele>211.2002</ele>
        <time>2026-05-19T16:20:47+02:00</time>
      </trkpt>
      <trkpt lat="49.48817" lon="6.38632">
        <ele>211.2998</ele>
        <time>2026-05-19T16:20:48+02:00</time>
      </trkpt>
      <trkpt lat="49.48822" lon="6.38631">
        <ele>211.2002</ele>
        <time>2026-05-19T16:20:49+02:00</time>
      </trkpt>
      <trkpt lat="49.48827" lon="6.38632">
        <ele>211.5</ele>
        <time>2026-05-19T16:20:50+02:00</time>
      </trkpt>
      <trkpt lat="49.48832" lon="6.38632">
        <ele>211.60059</ele>
        <time>2026-05-19T16:20:51+02:00</time>
      </trkpt>
      <trkpt lat="49.48837" lon="6.38632">
        <ele>211.7002</ele>
        <time>2026-05-19T16:20:52+02:00</time>
      </trkpt>
      <trkpt lat="49.48843" lon="6.38632">
        <ele>211.7998</ele>
        <time>2026-05-19T16:20:53+02:00</time>
      </trkpt>
      <trkpt lat="49.48848" lon="6.38631">
        <ele>211.7002</ele>
        <time>2026-05-19T16:20:54+02:00</time>
      </trkpt>
      <trkpt lat="49.48853" lon="6.38631">
        <ele>211.7002</ele>
        <time>2026-05-19T16:20:55+02:00</time>
      </trkpt>
      <trkpt lat="49.48859" lon="6.38631">
        <ele>211.7998</ele>
        <time>2026-05-19T16:20:56+02:00</time>
      </trkpt>
      <trkpt lat="49.48864" lon="6.38632">
        <ele>212.2002</ele>
        <time>2026-05-19T16:20:57+02:00</time>
      </trkpt>
      <trkpt lat="49.48869" lon="6.38632">
        <ele>212.2998</ele>
        <time>2026-05-19T16:20:58+02:00</time>
      </trkpt>
      <trkpt lat="49.48874" lon="6.38633">
        <ele>212.40039</ele>
        <time>2026-05-19T16:20:59+02:00</time>
      </trkpt>
      <trkpt lat="49.48878" lon="6.38634">
        <ele>212.5</ele>
        <time>2026-05-19T16:21:00+02:00</time>
      </trkpt>
      <trkpt lat="49.48882" lon="6.38635">
        <ele>212.60059</ele>
        <time>2026-05-19T16:21:01+02:00</time>
      </trkpt>
      <trkpt lat="49.48886" lon="6.38636">
        <ele>212.60059</ele>
        <time>2026-05-19T16:21:02+02:00</time>
      </trkpt>
      <trkpt lat="49.48889" lon="6.38637">
        <ele>212.7002</ele>
        <time>2026-05-19T16:21:03+02:00</time>
      </trkpt>
      <trkpt lat="49.48892" lon="6.38637">
        <ele>212.7002</ele>
        <time>2026-05-19T16:21:04+02:00</time>
      </trkpt>
      <trkpt lat="49.48895" lon="6.38638">
        <ele>212.7998</ele>
        <time>2026-05-19T16:21:05+02:00</time>
      </trkpt>
      <trkpt lat="49.48897" lon="6.3864">
        <ele>212.7998</ele>
        <time>2026-05-19T16:21:06+02:00</time>
      </trkpt>
      <trkpt lat="49.48899" lon="6.38641">
        <ele>213.10059</ele>
        <time>2026-05-19T16:21:07+02:00</time>
      </trkpt>
      <trkpt lat="49.489" lon="6.38641">
        <ele>213.10059</ele>
        <time>2026-05-19T16:21:08+02:00</time>
      </trkpt>
      <trkpt lat="49.489" lon="6.38641">
        <ele>213.10059</ele>
        <time>2026-05-19T16:21:09+02:00</time>
      </trkpt>
      <trkpt lat="49.489" lon="6.38641">
        <ele>213.10059</ele>
        <time>2026-05-19T16:21:10+02:00</time>
      </trkpt>
      <trkpt lat="49.489" lon="6.38641">
        <ele>213.10059</ele>
        <time>2026-05-19T16:21:11+02:00</time>
      </trkpt>
      <trkpt lat="49.489" lon="6.38641">
        <ele>213.10059</ele>
        <time>2026-05-19T16:21:12+02:00</time>
      </trkpt>
      <trkpt lat="49.48917" lon="6.3865">
        <ele>213.2002</ele>
        <time>2026-05-19T16:22:05+02:00</time>
      </trkpt>
      <trkpt lat="49.48919" lon="6.38652">
        <ele>213.2002</ele>
        <time>2026-05-19T16:22:06+02:00</time>
      </trkpt>
      <trkpt lat="49.48922" lon="6.38654">
        <ele>213.2002</ele>
        <time>2026-05-19T16:22:07+02:00</time>
      </trkpt>
      <trkpt lat="49.48924" lon="6.38656">
        <ele>213.2002</ele>
        <time>2026-05-19T16:22:08+02:00</time>
      </trkpt>
      <trkpt lat="49.48927" lon="6.38658">
        <ele>213.2998</ele>
        <time>2026-05-19T16:22:09+02:00</time>
      </trkpt>
      <trkpt lat="49.4893" lon="6.38661">
        <ele>213.2998</ele>
        <time>2026-05-19T16:22:10+02:00</time>
      </trkpt>
      <trkpt lat="49.48933" lon="6.38664">
        <ele>213.2998</ele>
        <time>2026-05-19T16:22:11+02:00</time>
      </trkpt>
      <trkpt lat="49.48937" lon="6.38667">
        <ele>213.60059</ele>
        <time>2026-05-19T16:22:12+02:00</time>
      </trkpt>
      <trkpt lat="49.4894" lon="6.38672">
        <ele>213.40039</ele>
        <time>2026-05-19T16:22:13+02:00</time>
      </trkpt>
      <trkpt lat="49.48945" lon="6.38676">
        <ele>213.7002</ele>
        <time>2026-05-19T16:22:14+02:00</time>
      </trkpt>
      <trkpt lat="49.48949" lon="6.38681">
        <ele>213.5</ele>
        <time>2026-05-19T16:22:15+02:00</time>
      </trkpt>
      <trkpt lat="49.48954" lon="6.38686">
        <ele>213.7998</ele>
        <time>2026-05-19T16:22:16+02:00</time>
      </trkpt>
      <trkpt lat="49.48958" lon="6.38692">
        <ele>214.10059</ele>
        <time>2026-05-19T16:22:17+02:00</time>
      </trkpt>
      <trkpt lat="49.48962" lon="6.38698">
        <ele>214</ele>
        <time>2026-05-19T16:22:18+02:00</time>
      </trkpt>
      <trkpt lat="49.48967" lon="6.38705">
        <ele>214.2002</ele>
        <time>2026-05-19T16:22:19+02:00</time>
      </trkpt>
      <trkpt lat="49.48971" lon="6.38711">
        <ele>214.60059</ele>
        <time>2026-05-19T16:22:20+02:00</time>
      </trkpt>
      <trkpt lat="49.48976" lon="6.38718">
        <ele>215</ele>
        <time>2026-05-19T16:22:21+02:00</time>
      </trkpt>
      <trkpt lat="49.48981" lon="6.38725">
        <ele>215</ele>
        <time>2026-05-19T16:22:22+02:00</time>
      </trkpt>
      <trkpt lat="49.48985" lon="6.38731">
        <ele>215.40039</ele>
        <time>2026-05-19T16:22:23+02:00</time>
      </trkpt>
      <trkpt lat="49.48991" lon="6.38737">
        <ele>215.7998</ele>
        <time>2026-05-19T16:22:24+02:00</time>
      </trkpt>
      <trkpt lat="49.48996" lon="6.38743">
        <ele>215.90039</ele>
        <time>2026-05-19T16:22:25+02:00</time>
      </trkpt>
      <trkpt lat="49.49002" lon="6.38748">
        <ele>216.2998</ele>
        <time>2026-05-19T16:22:26+02:00</time>
      </trkpt>
      <trkpt lat="49.49008" lon="6.38753">
        <ele>216.60059</ele>
        <time>2026-05-19T16:22:27+02:00</time>
      </trkpt>
      <trkpt lat="49.49014" lon="6.38758">
        <ele>216.7002</ele>
        <time>2026-05-19T16:22:28+02:00</time>
      </trkpt>
      <trkpt lat="49.4902" lon="6.38762">
        <ele>216.90039</ele>
        <time>2026-05-19T16:22:29+02:00</time>
      </trkpt>
      <trkpt lat="49.49026" lon="6.38767">
        <ele>216.90039</ele>
        <time>2026-05-19T16:22:30+02:00</time>
      </trkpt>
      <trkpt lat="49.49033" lon="6.38771">
        <ele>217.10059</ele>
        <time>2026-05-19T16:22:31+02:00</time>
      </trkpt>
      <trkpt lat="49.49039" lon="6.38776">
        <ele>217.10059</ele>
        <time>2026-05-19T16:22:32+02:00</time>
      </trkpt>
      <trkpt lat="49.49046" lon="6.3878">
        <ele>217.10059</ele>
        <time>2026-05-19T16:22:33+02:00</time>
      </trkpt>
      <trkpt lat="49.49052" lon="6.38784">
        <ele>217.10059</ele>
        <time>2026-05-19T16:22:34+02:00</time>
      </trkpt>
      <trkpt lat="49.49059" lon="6.38789">
        <ele>217.10059</ele>
        <time>2026-05-19T16:22:35+02:00</time>
      </trkpt>
      <trkpt lat="49.49065" lon="6.38793">
        <ele>217</ele>
        <time>2026-05-19T16:22:36+02:00</time>
      </trkpt>
      <trkpt lat="49.49072" lon="6.38798">
        <ele>216.90039</ele>
        <time>2026-05-19T16:22:37+02:00</time>
      </trkpt>
      <trkpt lat="49.49079" lon="6.38802">
        <ele>216.7998</ele>
        <time>2026-05-19T16:22:38+02:00</time>
      </trkpt>
      <trkpt lat="49.49086" lon="6.38807">
        <ele>216.60059</ele>
        <time>2026-05-19T16:22:39+02:00</time>
      </trkpt>
      <trkpt lat="49.49089" lon="6.38809">
        <ele>216.5</ele>
        <time>2026-05-19T16:22:40+02:00</time>
      </trkpt>
      <trkpt lat="49.49099" lon="6.38816">
        <ele>215.90039</ele>
        <time>2026-05-19T16:22:41+02:00</time>
      </trkpt>
      <trkpt lat="49.49107" lon="6.38821">
        <ele>215.5</ele>
        <time>2026-05-19T16:22:42+02:00</time>
      </trkpt>
      <trkpt lat="49.49114" lon="6.38826">
        <ele>215.2002</ele>
        <time>2026-05-19T16:22:43+02:00</time>
      </trkpt>
      <trkpt lat="49.49122" lon="6.38831">
        <ele>214.5</ele>
        <time>2026-05-19T16:22:44+02:00</time>
      </trkpt>
      <trkpt lat="49.49129" lon="6.38836">
        <ele>214.2002</ele>
        <time>2026-05-19T16:22:45+02:00</time>
      </trkpt>
      <trkpt lat="49.49137" lon="6.38842">
        <ele>213.5</ele>
        <time>2026-05-19T16:22:46+02:00</time>
      </trkpt>
      <trkpt lat="49.49144" lon="6.38848">
        <ele>212.2998</ele>
        <time>2026-05-19T16:22:47+02:00</time>
      </trkpt>
      <trkpt lat="49.49153" lon="6.38854">
        <ele>211.7998</ele>
        <time>2026-05-19T16:22:48+02:00</time>
      </trkpt>
      <trkpt lat="49.49161" lon="6.3886">
        <ele>210.60059</ele>
        <time>2026-05-19T16:22:49+02:00</time>
      </trkpt>
      <trkpt lat="49.49169" lon="6.38866">
        <ele>210</ele>
        <time>2026-05-19T16:22:50+02:00</time>
      </trkpt>
      <trkpt lat="49.49177" lon="6.38873">
        <ele>209.2002</ele>
        <time>2026-05-19T16:22:51+02:00</time>
      </trkpt>
      <trkpt lat="49.49184" lon="6.3888">
        <ele>208.7998</ele>
        <time>2026-05-19T16:22:52+02:00</time>
      </trkpt>
      <trkpt lat="49.49192" lon="6.38887">
        <ele>208.2998</ele>
        <time>2026-05-19T16:22:53+02:00</time>
      </trkpt>
      <trkpt lat="49.492" lon="6.38895">
        <ele>207.5</ele>
        <time>2026-05-19T16:22:54+02:00</time>
      </trkpt>
      <trkpt lat="49.49207" lon="6.38902">
        <ele>207</ele>
        <time>2026-05-19T16:22:55+02:00</time>
      </trkpt>
      <trkpt lat="49.49215" lon="6.3891">
        <ele>206.60059</ele>
        <time>2026-05-19T16:22:56+02:00</time>
      </trkpt>
      <trkpt lat="49.49222" lon="6.38917">
        <ele>206</ele>
        <time>2026-05-19T16:22:57+02:00</time>
      </trkpt>
      <trkpt lat="49.4923" lon="6.38925">
        <ele>205.90039</ele>
        <time>2026-05-19T16:22:58+02:00</time>
      </trkpt>
      <trkpt lat="49.49237" lon="6.38933">
        <ele>205.90039</ele>
        <time>2026-05-19T16:22:59+02:00</time>
      </trkpt>
      <trkpt lat="49.49244" lon="6.3894">
        <ele>205.5</ele>
        <time>2026-05-19T16:23:00+02:00</time>
      </trkpt>
      <trkpt lat="49.49251" lon="6.38947">
        <ele>205.60059</ele>
        <time>2026-05-19T16:23:01+02:00</time>
      </trkpt>
      <trkpt lat="49.49258" lon="6.38954">
        <ele>205.5</ele>
        <time>2026-05-19T16:23:02+02:00</time>
      </trkpt>
      <trkpt lat="49.49264" lon="6.38962">
        <ele>205.40039</ele>
        <time>2026-05-19T16:23:03+02:00</time>
      </trkpt>
      <trkpt lat="49.49271" lon="6.38969">
        <ele>205.2002</ele>
        <time>2026-05-19T16:23:04+02:00</time>
      </trkpt>
      <trkpt lat="49.49277" lon="6.38977">
        <ele>205.2002</ele>
        <time>2026-05-19T16:23:05+02:00</time>
      </trkpt>
      <trkpt lat="49.49283" lon="6.38984">
        <ele>204.7998</ele>
        <time>2026-05-19T16:23:06+02:00</time>
      </trkpt>
      <trkpt lat="49.49289" lon="6.38992">
        <ele>204.5</ele>
        <time>2026-05-19T16:23:07+02:00</time>
      </trkpt>
      <trkpt lat="49.49294" lon="6.39">
        <ele>204.5</ele>
        <time>2026-05-19T16:23:08+02:00</time>
      </trkpt>
      <trkpt lat="49.493" lon="6.39008">
        <ele>204</ele>
        <time>2026-05-19T16:23:09+02:00</time>
      </trkpt>
      <trkpt lat="49.49306" lon="6.39017">
        <ele>203.7998</ele>
        <time>2026-05-19T16:23:10+02:00</time>
      </trkpt>
      <trkpt lat="49.49312" lon="6.39025">
        <ele>203.60059</ele>
        <time>2026-05-19T16:23:11+02:00</time>
      </trkpt>
      <trkpt lat="49.49317" lon="6.39032">
        <ele>203.2998</ele>
        <time>2026-05-19T16:23:12+02:00</time>
      </trkpt>
      <trkpt lat="49.49323" lon="6.3904">
        <ele>203.2002</ele>
        <time>2026-05-19T16:23:13+02:00</time>
      </trkpt>
      <trkpt lat="49.49328" lon="6.39048">
        <ele>203.10059</ele>
        <time>2026-05-19T16:23:14+02:00</time>
      </trkpt>
      <trkpt lat="49.49333" lon="6.39057">
        <ele>203.2998</ele>
        <time>2026-05-19T16:23:15+02:00</time>
      </trkpt>
      <trkpt lat="49.49339" lon="6.39065">
        <ele>203.2998</ele>
        <time>2026-05-19T16:23:16+02:00</time>
      </trkpt>
      <trkpt lat="49.49344" lon="6.39074">
        <ele>203.60059</ele>
        <time>2026-05-19T16:23:17+02:00</time>
      </trkpt>
      <trkpt lat="49.49349" lon="6.39082">
        <ele>203.7002</ele>
        <time>2026-05-19T16:23:18+02:00</time>
      </trkpt>
      <trkpt lat="49.49354" lon="6.39091">
        <ele>203.90039</ele>
        <time>2026-05-19T16:23:19+02:00</time>
      </trkpt>
      <trkpt lat="49.49359" lon="6.391">
        <ele>204</ele>
        <time>2026-05-19T16:23:20+02:00</time>
      </trkpt>
      <trkpt lat="49.49364" lon="6.39109">
        <ele>204.10059</ele>
        <time>2026-05-19T16:23:21+02:00</time>
      </trkpt>
      <trkpt lat="49.49369" lon="6.39118">
        <ele>204.2998</ele>
        <time>2026-05-19T16:23:22+02:00</time>
      </trkpt>
      <trkpt lat="49.49374" lon="6.39127">
        <ele>204.40039</ele>
        <time>2026-05-19T16:23:23+02:00</time>
      </trkpt>
      <trkpt lat="49.49379" lon="6.39136">
        <ele>204.5</ele>
        <time>2026-05-19T16:23:24+02:00</time>
      </trkpt>
      <trkpt lat="49.49383" lon="6.39144">
        <ele>204.7002</ele>
        <time>2026-05-19T16:23:25+02:00</time>
      </trkpt>
      <trkpt lat="49.49388" lon="6.39153">
        <ele>205</ele>
        <time>2026-05-19T16:23:26+02:00</time>
      </trkpt>
      <trkpt lat="49.49393" lon="6.39162">
        <ele>205.2002</ele>
        <time>2026-05-19T16:23:27+02:00</time>
      </trkpt>
      <trkpt lat="49.49397" lon="6.39171">
        <ele>205.40039</ele>
        <time>2026-05-19T16:23:28+02:00</time>
      </trkpt>
      <trkpt lat="49.49402" lon="6.3918">
        <ele>205.60059</ele>
        <time>2026-05-19T16:23:29+02:00</time>
      </trkpt>
      <trkpt lat="49.49406" lon="6.39188">
        <ele>205.7998</ele>
        <time>2026-05-19T16:23:30+02:00</time>
      </trkpt>
      <trkpt lat="49.49411" lon="6.39196">
        <ele>206.10059</ele>
        <time>2026-05-19T16:23:31+02:00</time>
      </trkpt>
      <trkpt lat="49.49415" lon="6.39204">
        <ele>206.40039</ele>
        <time>2026-05-19T16:23:32+02:00</time>
      </trkpt>
      <trkpt lat="49.49419" lon="6.39212">
        <ele>206.60059</ele>
        <time>2026-05-19T16:23:33+02:00</time>
      </trkpt>
      <trkpt lat="49.49423" lon="6.39219">
        <ele>206.90039</ele>
        <time>2026-05-19T16:23:34+02:00</time>
      </trkpt>
      <trkpt lat="49.49426" lon="6.39225">
        <ele>207.10059</ele>
        <time>2026-05-19T16:23:35+02:00</time>
      </trkpt>
      <trkpt lat="49.49429" lon="6.39232">
        <ele>207.10059</ele>
        <time>2026-05-19T16:23:36+02:00</time>
      </trkpt>
      <trkpt lat="49.49433" lon="6.39238">
        <ele>207.40039</ele>
        <time>2026-05-19T16:23:37+02:00</time>
      </trkpt>
      <trkpt lat="49.49436" lon="6.39244">
        <ele>207.60059</ele>
        <time>2026-05-19T16:23:38+02:00</time>
      </trkpt>
      <trkpt lat="49.4944" lon="6.3925">
        <ele>207.90039</ele>
        <time>2026-05-19T16:23:39+02:00</time>
      </trkpt>
      <trkpt lat="49.49443" lon="6.39254">
        <ele>207.90039</ele>
        <time>2026-05-19T16:23:40+02:00</time>
      </trkpt>
      <trkpt lat="49.49447" lon="6.39255">
        <ele>208</ele>
        <time>2026-05-19T16:23:41+02:00</time>
      </trkpt>
      <trkpt lat="49.4945" lon="6.39254">
        <ele>208</ele>
        <time>2026-05-19T16:23:42+02:00</time>
      </trkpt>
      <trkpt lat="49.49453" lon="6.3925">
        <ele>208.10059</ele>
        <time>2026-05-19T16:23:43+02:00</time>
      </trkpt>
      <trkpt lat="49.49457" lon="6.39246">
        <ele>207.90039</ele>
        <time>2026-05-19T16:23:44+02:00</time>
      </trkpt>
      <trkpt lat="49.4946" lon="6.39242">
        <ele>207.90039</ele>
        <time>2026-05-19T16:23:45+02:00</time>
      </trkpt>
      <trkpt lat="49.49464" lon="6.39237">
        <ele>207.7002</ele>
        <time>2026-05-19T16:23:46+02:00</time>
      </trkpt>
      <trkpt lat="49.49468" lon="6.39232">
        <ele>207.60059</ele>
        <time>2026-05-19T16:23:47+02:00</time>
      </trkpt>
      <trkpt lat="49.49472" lon="6.39227">
        <ele>207.60059</ele>
        <time>2026-05-19T16:23:48+02:00</time>
      </trkpt>
      <trkpt lat="49.49476" lon="6.39221">
        <ele>207.40039</ele>
        <time>2026-05-19T16:23:49+02:00</time>
      </trkpt>
      <trkpt lat="49.49481" lon="6.39215">
        <ele>207.2002</ele>
        <time>2026-05-19T16:23:50+02:00</time>
      </trkpt>
      <trkpt lat="49.49485" lon="6.39209">
        <ele>207.2998</ele>
        <time>2026-05-19T16:23:51+02:00</time>
      </trkpt>
      <trkpt lat="49.49489" lon="6.39204">
        <ele>206.90039</ele>
        <time>2026-05-19T16:23:52+02:00</time>
      </trkpt>
      <trkpt lat="49.49494" lon="6.39198">
        <ele>206.7002</ele>
        <time>2026-05-19T16:23:53+02:00</time>
      </trkpt>
      <trkpt lat="49.49499" lon="6.39193">
        <ele>206.7998</ele>
        <time>2026-05-19T16:23:54+02:00</time>
      </trkpt>
      <trkpt lat="49.49504" lon="6.39188">
        <ele>206.60059</ele>
        <time>2026-05-19T16:23:55+02:00</time>
      </trkpt>
      <trkpt lat="49.49509" lon="6.39183">
        <ele>206.7002</ele>
        <time>2026-05-19T16:23:56+02:00</time>
      </trkpt>
      <trkpt lat="49.49514" lon="6.39179">
        <ele>206.5</ele>
        <time>2026-05-19T16:23:57+02:00</time>
      </trkpt>
      <trkpt lat="49.49519" lon="6.39175">
        <ele>206.7002</ele>
        <time>2026-05-19T16:23:58+02:00</time>
      </trkpt>
      <trkpt lat="49.49524" lon="6.39171">
        <ele>206.60059</ele>
        <time>2026-05-19T16:23:59+02:00</time>
      </trkpt>
      <trkpt lat="49.4953" lon="6.39167">
        <ele>206.7998</ele>
        <time>2026-05-19T16:24:00+02:00</time>
      </trkpt>
      <trkpt lat="49.49536" lon="6.39162">
        <ele>206.7998</ele>
        <time>2026-05-19T16:24:01+02:00</time>
      </trkpt>
      <trkpt lat="49.49541" lon="6.39158">
        <ele>207</ele>
        <time>2026-05-19T16:24:02+02:00</time>
      </trkpt>
      <trkpt lat="49.49546" lon="6.39154">
        <ele>207</ele>
        <time>2026-05-19T16:24:03+02:00</time>
      </trkpt>
      <trkpt lat="49.49551" lon="6.39149">
        <ele>207.10059</ele>
        <time>2026-05-19T16:24:04+02:00</time>
      </trkpt>
      <trkpt lat="49.49556" lon="6.39145">
        <ele>207.10059</ele>
        <time>2026-05-19T16:24:05+02:00</time>
      </trkpt>
      <trkpt lat="49.49561" lon="6.3914">
        <ele>207.10059</ele>
        <time>2026-05-19T16:24:06+02:00</time>
      </trkpt>
      <trkpt lat="49.49566" lon="6.39136">
        <ele>207.10059</ele>
        <time>2026-05-19T16:24:07+02:00</time>
      </trkpt>
      <trkpt lat="49.49571" lon="6.3913">
        <ele>207.2002</ele>
        <time>2026-05-19T16:24:08+02:00</time>
      </trkpt>
      <trkpt lat="49.49576" lon="6.39123">
        <ele>207.40039</ele>
        <time>2026-05-19T16:24:09+02:00</time>
      </trkpt>
      <trkpt lat="49.49579" lon="6.39116">
        <ele>207.7002</ele>
        <time>2026-05-19T16:24:10+02:00</time>
      </trkpt>
      <trkpt lat="49.49583" lon="6.39109">
        <ele>207.7002</ele>
        <time>2026-05-19T16:24:11+02:00</time>
      </trkpt>
      <trkpt lat="49.49587" lon="6.39102">
        <ele>208.2998</ele>
        <time>2026-05-19T16:24:12+02:00</time>
      </trkpt>
      <trkpt lat="49.49591" lon="6.39094">
        <ele>209.10059</ele>
        <time>2026-05-19T16:24:13+02:00</time>
      </trkpt>
      <trkpt lat="49.49594" lon="6.39087">
        <ele>209.10059</ele>
        <time>2026-05-19T16:24:14+02:00</time>
      </trkpt>
      <trkpt lat="49.49598" lon="6.39079">
        <ele>210</ele>
        <time>2026-05-19T16:24:15+02:00</time>
      </trkpt>
      <trkpt lat="49.49601" lon="6.39072">
        <ele>210.90039</ele>
        <time>2026-05-19T16:24:16+02:00</time>
      </trkpt>
      <trkpt lat="49.49604" lon="6.39065">
        <ele>211.2002</ele>
        <time>2026-05-19T16:24:17+02:00</time>
      </trkpt>
      <trkpt lat="49.49607" lon="6.39059">
        <ele>212.10059</ele>
        <time>2026-05-19T16:24:18+02:00</time>
      </trkpt>
      <trkpt lat="49.4961" lon="6.39053">
        <ele>212.10059</ele>
        <time>2026-05-19T16:24:19+02:00</time>
      </trkpt>
      <trkpt lat="49.49613" lon="6.39047">
        <ele>213.10059</ele>
        <time>2026-05-19T16:24:20+02:00</time>
      </trkpt>
      <trkpt lat="49.49615" lon="6.39041">
        <ele>213.60059</ele>
        <time>2026-05-19T16:24:21+02:00</time>
      </trkpt>
      <trkpt lat="49.49618" lon="6.39036">
        <ele>214.2002</ele>
        <time>2026-05-19T16:24:22+02:00</time>
      </trkpt>
      <trkpt lat="49.49621" lon="6.39032">
        <ele>214.60059</ele>
        <time>2026-05-19T16:24:23+02:00</time>
      </trkpt>
      <trkpt lat="49.49623" lon="6.39027">
        <ele>215.40039</ele>
        <time>2026-05-19T16:24:24+02:00</time>
      </trkpt>
      <trkpt lat="49.49626" lon="6.39023">
        <ele>215.7002</ele>
        <time>2026-05-19T16:24:25+02:00</time>
      </trkpt>
      <trkpt lat="49.49628" lon="6.3902">
        <ele>215.7002</ele>
        <time>2026-05-19T16:24:26+02:00</time>
      </trkpt>
      <trkpt lat="49.4963" lon="6.39016">
        <ele>216.5</ele>
        <time>2026-05-19T16:24:27+02:00</time>
      </trkpt>
      <trkpt lat="49.49633" lon="6.39012">
        <ele>216.5</ele>
        <time>2026-05-19T16:24:28+02:00</time>
      </trkpt>
      <trkpt lat="49.49635" lon="6.39009">
        <ele>217.2002</ele>
        <time>2026-05-19T16:24:29+02:00</time>
      </trkpt>
      <trkpt lat="49.49638" lon="6.39006">
        <ele>217.2002</ele>
        <time>2026-05-19T16:24:30+02:00</time>
      </trkpt>
      <trkpt lat="49.4964" lon="6.39003">
        <ele>217.90039</ele>
        <time>2026-05-19T16:24:31+02:00</time>
      </trkpt>
      <trkpt lat="49.49643" lon="6.39">
        <ele>217.90039</ele>
        <time>2026-05-19T16:24:32+02:00</time>
      </trkpt>
      <trkpt lat="49.49645" lon="6.38996">
        <ele>217.90039</ele>
        <time>2026-05-19T16:24:33+02:00</time>
      </trkpt>
      <trkpt lat="49.49648" lon="6.38992">
        <ele>218.90039</ele>
        <time>2026-05-19T16:24:34+02:00</time>
      </trkpt>
      <trkpt lat="49.49651" lon="6.38988">
        <ele>219.7002</ele>
        <time>2026-05-19T16:24:35+02:00</time>
      </trkpt>
      <trkpt lat="49.49654" lon="6.38984">
        <ele>219.7002</ele>
        <time>2026-05-19T16:24:36+02:00</time>
      </trkpt>
      <trkpt lat="49.49656" lon="6.3898">
        <ele>219.7998</ele>
        <time>2026-05-19T16:24:37+02:00</time>
      </trkpt>
      <trkpt lat="49.49659" lon="6.38975">
        <ele>220.7002</ele>
        <time>2026-05-19T16:24:38+02:00</time>
      </trkpt>
      <trkpt lat="49.49662" lon="6.38971">
        <ele>221.2998</ele>
        <time>2026-05-19T16:24:39+02:00</time>
      </trkpt>
      <trkpt lat="49.49665" lon="6.38967">
        <ele>221.2998</ele>
        <time>2026-05-19T16:24:40+02:00</time>
      </trkpt>
      <trkpt lat="49.49667" lon="6.38965">
        <ele>221.40039</ele>
        <time>2026-05-19T16:24:41+02:00</time>
      </trkpt>
      <trkpt lat="49.49671" lon="6.38958">
        <ele>222.2002</ele>
        <time>2026-05-19T16:24:42+02:00</time>
      </trkpt>
      <trkpt lat="49.49674" lon="6.38954">
        <ele>222.7002</ele>
        <time>2026-05-19T16:24:43+02:00</time>
      </trkpt>
      <trkpt lat="49.49677" lon="6.3895">
        <ele>222.7002</ele>
        <time>2026-05-19T16:24:44+02:00</time>
      </trkpt>
      <trkpt lat="49.49679" lon="6.38946">
        <ele>223.40039</ele>
        <time>2026-05-19T16:24:45+02:00</time>
      </trkpt>
      <trkpt lat="49.49682" lon="6.38943">
        <ele>223.40039</ele>
        <time>2026-05-19T16:24:46+02:00</time>
      </trkpt>
      <trkpt lat="49.49684" lon="6.38939">
        <ele>223.7002</ele>
        <time>2026-05-19T16:24:47+02:00</time>
      </trkpt>
      <trkpt lat="49.49687" lon="6.38935">
        <ele>223.90039</ele>
        <time>2026-05-19T16:24:48+02:00</time>
      </trkpt>
      <trkpt lat="49.4969" lon="6.38931">
        <ele>224.2998</ele>
        <time>2026-05-19T16:24:49+02:00</time>
      </trkpt>
      <trkpt lat="49.49692" lon="6.38927">
        <ele>224.2998</ele>
        <time>2026-05-19T16:24:50+02:00</time>
      </trkpt>
      <trkpt lat="49.49695" lon="6.38923">
        <ele>224.5</ele>
        <time>2026-05-19T16:24:51+02:00</time>
      </trkpt>
      <trkpt lat="49.49698" lon="6.38919">
        <ele>224.60059</ele>
        <time>2026-05-19T16:24:52+02:00</time>
      </trkpt>
      <trkpt lat="49.497" lon="6.38915">
        <ele>224.7998</ele>
        <time>2026-05-19T16:24:53+02:00</time>
      </trkpt>
      <trkpt lat="49.49703" lon="6.3891">
        <ele>224.7998</ele>
        <time>2026-05-19T16:24:54+02:00</time>
      </trkpt>
      <trkpt lat="49.49705" lon="6.38906">
        <ele>225.10059</ele>
        <time>2026-05-19T16:24:55+02:00</time>
      </trkpt>
      <trkpt lat="49.49708" lon="6.38902">
        <ele>225</ele>
        <time>2026-05-19T16:24:56+02:00</time>
      </trkpt>
      <trkpt lat="49.49711" lon="6.38898">
        <ele>225</ele>
        <time>2026-05-19T16:24:57+02:00</time>
      </trkpt>
      <trkpt lat="49.49714" lon="6.38895">
        <ele>225.2002</ele>
        <time>2026-05-19T16:24:58+02:00</time>
      </trkpt>
      <trkpt lat="49.49717" lon="6.38891">
        <ele>225.2002</ele>
        <time>2026-05-19T16:24:59+02:00</time>
      </trkpt>
      <trkpt lat="49.49721" lon="6.38887">
        <ele>225.2002</ele>
        <time>2026-05-19T16:25:00+02:00</time>
      </trkpt>
      <trkpt lat="49.49724" lon="6.38883">
        <ele>225.10059</ele>
        <time>2026-05-19T16:25:01+02:00</time>
      </trkpt>
      <trkpt lat="49.49728" lon="6.3888">
        <ele>225.2998</ele>
        <time>2026-05-19T16:25:02+02:00</time>
      </trkpt>
      <trkpt lat="49.49731" lon="6.38877">
        <ele>225.2002</ele>
        <time>2026-05-19T16:25:03+02:00</time>
      </trkpt>
      <trkpt lat="49.49734" lon="6.38873">
        <ele>225.2002</ele>
        <time>2026-05-19T16:25:04+02:00</time>
      </trkpt>
      <trkpt lat="49.49737" lon="6.3887">
        <ele>225.2998</ele>
        <time>2026-05-19T16:25:05+02:00</time>
      </trkpt>
      <trkpt lat="49.49741" lon="6.38866">
        <ele>225.2998</ele>
        <time>2026-05-19T16:25:06+02:00</time>
      </trkpt>
      <trkpt lat="49.49744" lon="6.38862">
        <ele>225.5</ele>
        <time>2026-05-19T16:25:07+02:00</time>
      </trkpt>
      <trkpt lat="49.49748" lon="6.38858">
        <ele>225.40039</ele>
        <time>2026-05-19T16:25:08+02:00</time>
      </trkpt>
      <trkpt lat="49.49752" lon="6.38855">
        <ele>225.40039</ele>
        <time>2026-05-19T16:25:09+02:00</time>
      </trkpt>
      <trkpt lat="49.49756" lon="6.38851">
        <ele>225.60059</ele>
        <time>2026-05-19T16:25:10+02:00</time>
      </trkpt>
      <trkpt lat="49.49761" lon="6.38848">
        <ele>225.60059</ele>
        <time>2026-05-19T16:25:11+02:00</time>
      </trkpt>
      <trkpt lat="49.49764" lon="6.38844">
        <ele>225.7998</ele>
        <time>2026-05-19T16:25:12+02:00</time>
      </trkpt>
      <trkpt lat="49.49768" lon="6.38841">
        <ele>225.7998</ele>
        <time>2026-05-19T16:25:13+02:00</time>
      </trkpt>
      <trkpt lat="49.49772" lon="6.38838">
        <ele>225.7998</ele>
        <time>2026-05-19T16:25:14+02:00</time>
      </trkpt>
      <trkpt lat="49.49776" lon="6.38836">
        <ele>225.90039</ele>
        <time>2026-05-19T16:25:15+02:00</time>
      </trkpt>
      <trkpt lat="49.4978" lon="6.38832">
        <ele>225.90039</ele>
        <time>2026-05-19T16:25:16+02:00</time>
      </trkpt>
      <trkpt lat="49.49783" lon="6.38829">
        <ele>226</ele>
        <time>2026-05-19T16:25:17+02:00</time>
      </trkpt>
      <trkpt lat="49.49787" lon="6.38826">
        <ele>226</ele>
        <time>2026-05-19T16:25:18+02:00</time>
      </trkpt>
      <trkpt lat="49.4979" lon="6.38823">
        <ele>226</ele>
        <time>2026-05-19T16:25:19+02:00</time>
      </trkpt>
      <trkpt lat="49.49794" lon="6.38821">
        <ele>226</ele>
        <time>2026-05-19T16:25:20+02:00</time>
      </trkpt>
      <trkpt lat="49.49798" lon="6.38818">
        <ele>226.10059</ele>
        <time>2026-05-19T16:25:21+02:00</time>
      </trkpt>
      <trkpt lat="49.49802" lon="6.38814">
        <ele>226.10059</ele>
        <time>2026-05-19T16:25:22+02:00</time>
      </trkpt>
      <trkpt lat="49.49806" lon="6.3881">
        <ele>226.10059</ele>
        <time>2026-05-19T16:25:23+02:00</time>
      </trkpt>
      <trkpt lat="49.49811" lon="6.38807">
        <ele>226.10059</ele>
        <time>2026-05-19T16:25:24+02:00</time>
      </trkpt>
      <trkpt lat="49.49815" lon="6.38803">
        <ele>226.10059</ele>
        <time>2026-05-19T16:25:25+02:00</time>
      </trkpt>
      <trkpt lat="49.49819" lon="6.388">
        <ele>226.10059</ele>
        <time>2026-05-19T16:25:26+02:00</time>
      </trkpt>
      <trkpt lat="49.49824" lon="6.38796">
        <ele>226.10059</ele>
        <time>2026-05-19T16:25:27+02:00</time>
      </trkpt>
      <trkpt lat="49.49828" lon="6.38792">
        <ele>226.2002</ele>
        <time>2026-05-19T16:25:28+02:00</time>
      </trkpt>
      <trkpt lat="49.49832" lon="6.38787">
        <ele>226.10059</ele>
        <time>2026-05-19T16:25:29+02:00</time>
      </trkpt>
      <trkpt lat="49.49836" lon="6.38784">
        <ele>226.10059</ele>
        <time>2026-05-19T16:25:30+02:00</time>
      </trkpt>
      <trkpt lat="49.49838" lon="6.38782">
        <ele>226.10059</ele>
        <time>2026-05-19T16:25:31+02:00</time>
      </trkpt>
      <trkpt lat="49.49844" lon="6.38776">
        <ele>226</ele>
        <time>2026-05-19T16:25:32+02:00</time>
      </trkpt>
      <trkpt lat="49.49848" lon="6.38773">
        <ele>225.90039</ele>
        <time>2026-05-19T16:25:33+02:00</time>
      </trkpt>
      <trkpt lat="49.49853" lon="6.38768">
        <ele>225.7002</ele>
        <time>2026-05-19T16:25:34+02:00</time>
      </trkpt>
      <trkpt lat="49.49857" lon="6.38765">
        <ele>225.7002</ele>
        <time>2026-05-19T16:25:35+02:00</time>
      </trkpt>
      <trkpt lat="49.49862" lon="6.38761">
        <ele>225.60059</ele>
        <time>2026-05-19T16:25:36+02:00</time>
      </trkpt>
      <trkpt lat="49.49867" lon="6.38757">
        <ele>225.40039</ele>
        <time>2026-05-19T16:25:37+02:00</time>
      </trkpt>
      <trkpt lat="49.49871" lon="6.38752">
        <ele>225.2998</ele>
        <time>2026-05-19T16:25:38+02:00</time>
      </trkpt>
      <trkpt lat="49.49876" lon="6.38748">
        <ele>225</ele>
        <time>2026-05-19T16:25:39+02:00</time>
      </trkpt>
      <trkpt lat="49.49878" lon="6.38745">
        <ele>225</ele>
        <time>2026-05-19T16:25:40+02:00</time>
      </trkpt>
      <trkpt lat="49.49885" lon="6.38738">
        <ele>224.40039</ele>
        <time>2026-05-19T16:25:41+02:00</time>
      </trkpt>
      <trkpt lat="49.4989" lon="6.38733">
        <ele>224.10059</ele>
        <time>2026-05-19T16:25:42+02:00</time>
      </trkpt>
      <trkpt lat="49.49894" lon="6.38728">
        <ele>223.90039</ele>
        <time>2026-05-19T16:25:43+02:00</time>
      </trkpt>
      <trkpt lat="49.49899" lon="6.38722">
        <ele>223.40039</ele>
        <time>2026-05-19T16:25:44+02:00</time>
      </trkpt>
      <trkpt lat="49.49903" lon="6.38717">
        <ele>222.90039</ele>
        <time>2026-05-19T16:25:45+02:00</time>
      </trkpt>
      <trkpt lat="49.49908" lon="6.38711">
        <ele>222.60059</ele>
        <time>2026-05-19T16:25:46+02:00</time>
      </trkpt>
      <trkpt lat="49.49912" lon="6.38706">
        <ele>222.40039</ele>
        <time>2026-05-19T16:25:47+02:00</time>
      </trkpt>
      <trkpt lat="49.49916" lon="6.387">
        <ele>222</ele>
        <time>2026-05-19T16:25:48+02:00</time>
      </trkpt>
      <trkpt lat="49.4992" lon="6.38695">
        <ele>221.7002</ele>
        <time>2026-05-19T16:25:49+02:00</time>
      </trkpt>
      <trkpt lat="49.49924" lon="6.3869">
        <ele>221.2998</ele>
        <time>2026-05-19T16:25:50+02:00</time>
      </trkpt>
      <trkpt lat="49.49927" lon="6.38685">
        <ele>221.2998</ele>
        <time>2026-05-19T16:25:51+02:00</time>
      </trkpt>
      <trkpt lat="49.49931" lon="6.38681">
        <ele>221</ele>
        <time>2026-05-19T16:25:52+02:00</time>
      </trkpt>
      <trkpt lat="49.49935" lon="6.38676">
        <ele>220.7002</ele>
        <time>2026-05-19T16:25:53+02:00</time>
      </trkpt>
      <trkpt lat="49.49938" lon="6.38671">
        <ele>220.7002</ele>
        <time>2026-05-19T16:25:54+02:00</time>
      </trkpt>
      <trkpt lat="49.49943" lon="6.38666">
        <ele>220.40039</ele>
        <time>2026-05-19T16:25:55+02:00</time>
      </trkpt>
      <trkpt lat="49.49946" lon="6.38661">
        <ele>220.40039</ele>
        <time>2026-05-19T16:25:56+02:00</time>
      </trkpt>
      <trkpt lat="49.4995" lon="6.38657">
        <ele>220.2002</ele>
        <time>2026-05-19T16:25:57+02:00</time>
      </trkpt>
      <trkpt lat="49.49954" lon="6.38652">
        <ele>220</ele>
        <time>2026-05-19T16:25:58+02:00</time>
      </trkpt>
      <trkpt lat="49.49958" lon="6.38646">
        <ele>219.7002</ele>
        <time>2026-05-19T16:25:59+02:00</time>
      </trkpt>
      <trkpt lat="49.49962" lon="6.38641">
        <ele>219.7002</ele>
        <time>2026-05-19T16:26:00+02:00</time>
      </trkpt>
      <trkpt lat="49.49965" lon="6.38636">
        <ele>219.5</ele>
        <time>2026-05-19T16:26:01+02:00</time>
      </trkpt>
      <trkpt lat="49.49969" lon="6.38631">
        <ele>219.2002</ele>
        <time>2026-05-19T16:26:02+02:00</time>
      </trkpt>
      <trkpt lat="49.49973" lon="6.38626">
        <ele>219.2002</ele>
        <time>2026-05-19T16:26:03+02:00</time>
      </trkpt>
      <trkpt lat="49.49976" lon="6.38621">
        <ele>219</ele>
        <time>2026-05-19T16:26:04+02:00</time>
      </trkpt>
      <trkpt lat="49.4998" lon="6.38616">
        <ele>218.90039</ele>
        <time>2026-05-19T16:26:05+02:00</time>
      </trkpt>
      <trkpt lat="49.49985" lon="6.38611">
        <ele>218.7998</ele>
        <time>2026-05-19T16:26:06+02:00</time>
      </trkpt>
      <trkpt lat="49.49989" lon="6.38606">
        <ele>218.60059</ele>
        <time>2026-05-19T16:26:07+02:00</time>
      </trkpt>
      <trkpt lat="49.49993" lon="6.386">
        <ele>218.5</ele>
        <time>2026-05-19T16:26:08+02:00</time>
      </trkpt>
      <trkpt lat="49.49997" lon="6.38594">
        <ele>218.2002</ele>
        <time>2026-05-19T16:26:09+02:00</time>
      </trkpt>
      <trkpt lat="49.50002" lon="6.38588">
        <ele>218.10059</ele>
        <time>2026-05-19T16:26:10+02:00</time>
      </trkpt>
      <trkpt lat="49.50007" lon="6.38582">
        <ele>218</ele>
        <time>2026-05-19T16:26:11+02:00</time>
      </trkpt>
      <trkpt lat="49.50011" lon="6.38575">
        <ele>217.7998</ele>
        <time>2026-05-19T16:26:12+02:00</time>
      </trkpt>
      <trkpt lat="49.50016" lon="6.38569">
        <ele>217.5</ele>
        <time>2026-05-19T16:26:13+02:00</time>
      </trkpt>
      <trkpt lat="49.50021" lon="6.38564">
        <ele>217.40039</ele>
        <time>2026-05-19T16:26:14+02:00</time>
      </trkpt>
      <trkpt lat="49.50026" lon="6.38557">
        <ele>217.2002</ele>
        <time>2026-05-19T16:26:15+02:00</time>
      </trkpt>
      <trkpt lat="49.50031" lon="6.38551">
        <ele>217</ele>
        <time>2026-05-19T16:26:16+02:00</time>
      </trkpt>
      <trkpt lat="49.50036" lon="6.38544">
        <ele>216.7998</ele>
        <time>2026-05-19T16:26:17+02:00</time>
      </trkpt>
      <trkpt lat="49.50041" lon="6.38537">
        <ele>216.60059</ele>
        <time>2026-05-19T16:26:18+02:00</time>
      </trkpt>
      <trkpt lat="49.50045" lon="6.38531">
        <ele>216.60059</ele>
        <time>2026-05-19T16:26:19+02:00</time>
      </trkpt>
      <trkpt lat="49.5005" lon="6.38524">
        <ele>216.40039</ele>
        <time>2026-05-19T16:26:20+02:00</time>
      </trkpt>
      <trkpt lat="49.50055" lon="6.38518">
        <ele>216.2002</ele>
        <time>2026-05-19T16:26:21+02:00</time>
      </trkpt>
      <trkpt lat="49.50059" lon="6.38511">
        <ele>216.10059</ele>
        <time>2026-05-19T16:26:22+02:00</time>
      </trkpt>
      <trkpt lat="49.50064" lon="6.38505">
        <ele>216</ele>
        <time>2026-05-19T16:26:23+02:00</time>
      </trkpt>
      <trkpt lat="49.50069" lon="6.38497">
        <ele>215.7998</ele>
        <time>2026-05-19T16:26:24+02:00</time>
      </trkpt>
      <trkpt lat="49.50075" lon="6.3849">
        <ele>215.40039</ele>
        <time>2026-05-19T16:26:25+02:00</time>
      </trkpt>
      <trkpt lat="49.50079" lon="6.38482">
        <ele>215.2002</ele>
        <time>2026-05-19T16:26:26+02:00</time>
      </trkpt>
      <trkpt lat="49.50084" lon="6.38475">
        <ele>214.90039</ele>
        <time>2026-05-19T16:26:27+02:00</time>
      </trkpt>
      <trkpt lat="49.50089" lon="6.38469">
        <ele>214.7998</ele>
        <time>2026-05-19T16:26:28+02:00</time>
      </trkpt>
      <trkpt lat="49.50095" lon="6.38463">
        <ele>214.5</ele>
        <time>2026-05-19T16:26:29+02:00</time>
      </trkpt>
      <trkpt lat="49.50099" lon="6.38458">
        <ele>214.10059</ele>
        <time>2026-05-19T16:26:30+02:00</time>
      </trkpt>
      <trkpt lat="49.50104" lon="6.38451">
        <ele>213.60059</ele>
        <time>2026-05-19T16:26:31+02:00</time>
      </trkpt>
      <trkpt lat="49.50108" lon="6.38446">
        <ele>213.40039</ele>
        <time>2026-05-19T16:26:32+02:00</time>
      </trkpt>
      <trkpt lat="49.50113" lon="6.3844">
        <ele>213.10059</ele>
        <time>2026-05-19T16:26:33+02:00</time>
      </trkpt>
      <trkpt lat="49.50118" lon="6.38433">
        <ele>212.60059</ele>
        <time>2026-05-19T16:26:34+02:00</time>
      </trkpt>
      <trkpt lat="49.50122" lon="6.38427">
        <ele>212.40039</ele>
        <time>2026-05-19T16:26:35+02:00</time>
      </trkpt>
      <trkpt lat="49.50127" lon="6.3842">
        <ele>211.7998</ele>
        <time>2026-05-19T16:26:36+02:00</time>
      </trkpt>
      <trkpt lat="49.50131" lon="6.38413">
        <ele>211.2002</ele>
        <time>2026-05-19T16:26:37+02:00</time>
      </trkpt>
      <trkpt lat="49.50136" lon="6.38407">
        <ele>210.60059</ele>
        <time>2026-05-19T16:26:38+02:00</time>
      </trkpt>
      <trkpt lat="49.50139" lon="6.38404">
        <ele>210.60059</ele>
        <time>2026-05-19T16:26:39+02:00</time>
      </trkpt>
      <trkpt lat="49.50146" lon="6.38395">
        <ele>210.10059</ele>
        <time>2026-05-19T16:26:40+02:00</time>
      </trkpt>
      <trkpt lat="49.5015" lon="6.38389">
        <ele>209.7998</ele>
        <time>2026-05-19T16:26:41+02:00</time>
      </trkpt>
      <trkpt lat="49.50154" lon="6.38383">
        <ele>209.60059</ele>
        <time>2026-05-19T16:26:42+02:00</time>
      </trkpt>
      <trkpt lat="49.50159" lon="6.38378">
        <ele>209.2998</ele>
        <time>2026-05-19T16:26:43+02:00</time>
      </trkpt>
      <trkpt lat="49.50163" lon="6.38371">
        <ele>209.10059</ele>
        <time>2026-05-19T16:26:44+02:00</time>
      </trkpt>
      <trkpt lat="49.50167" lon="6.38364">
        <ele>208.7002</ele>
        <time>2026-05-19T16:26:45+02:00</time>
      </trkpt>
      <trkpt lat="49.50171" lon="6.38357">
        <ele>208.2002</ele>
        <time>2026-05-19T16:26:46+02:00</time>
      </trkpt>
      <trkpt lat="49.50175" lon="6.38351">
        <ele>208.10059</ele>
        <time>2026-05-19T16:26:47+02:00</time>
      </trkpt>
      <trkpt lat="49.50179" lon="6.38345">
        <ele>207.7998</ele>
        <time>2026-05-19T16:26:48+02:00</time>
      </trkpt>
      <trkpt lat="49.50182" lon="6.38339">
        <ele>207.2998</ele>
        <time>2026-05-19T16:26:49+02:00</time>
      </trkpt>
      <trkpt lat="49.50187" lon="6.38333">
        <ele>207.10059</ele>
        <time>2026-05-19T16:26:50+02:00</time>
      </trkpt>
      <trkpt lat="49.5019" lon="6.38328">
        <ele>206.7998</ele>
        <time>2026-05-19T16:26:51+02:00</time>
      </trkpt>
      <trkpt lat="49.50194" lon="6.38322">
        <ele>206.40039</ele>
        <time>2026-05-19T16:26:52+02:00</time>
      </trkpt>
      <trkpt lat="49.50198" lon="6.38316">
        <ele>206.2998</ele>
        <time>2026-05-19T16:26:53+02:00</time>
      </trkpt>
      <trkpt lat="49.50202" lon="6.3831">
        <ele>206.10059</ele>
        <time>2026-05-19T16:26:54+02:00</time>
      </trkpt>
      <trkpt lat="49.50206" lon="6.38303">
        <ele>205.7002</ele>
        <time>2026-05-19T16:26:55+02:00</time>
      </trkpt>
      <trkpt lat="49.50208" lon="6.38298">
        <ele>205.7002</ele>
        <time>2026-05-19T16:26:56+02:00</time>
      </trkpt>
      <trkpt lat="49.50212" lon="6.38291">
        <ele>205.40039</ele>
        <time>2026-05-19T16:26:57+02:00</time>
      </trkpt>
      <trkpt lat="49.50218" lon="6.38285">
        <ele>204.90039</ele>
        <time>2026-05-19T16:26:58+02:00</time>
      </trkpt>
      <trkpt lat="49.50222" lon="6.38277">
        <ele>204.2998</ele>
        <time>2026-05-19T16:26:59+02:00</time>
      </trkpt>
      <trkpt lat="49.50227" lon="6.38271">
        <ele>203.60059</ele>
        <time>2026-05-19T16:27:00+02:00</time>
      </trkpt>
      <trkpt lat="49.50232" lon="6.38263">
        <ele>203.10059</ele>
        <time>2026-05-19T16:27:01+02:00</time>
      </trkpt>
      <trkpt lat="49.50237" lon="6.38256">
        <ele>202.2002</ele>
        <time>2026-05-19T16:27:02+02:00</time>
      </trkpt>
      <trkpt lat="49.50242" lon="6.38248">
        <ele>201.2002</ele>
        <time>2026-05-19T16:27:03+02:00</time>
      </trkpt>
      <trkpt lat="49.50247" lon="6.38241">
        <ele>200.7002</ele>
        <time>2026-05-19T16:27:04+02:00</time>
      </trkpt>
      <trkpt lat="49.50252" lon="6.38233">
        <ele>199.2998</ele>
        <time>2026-05-19T16:27:05+02:00</time>
      </trkpt>
      <trkpt lat="49.50256" lon="6.38226">
        <ele>197.7998</ele>
        <time>2026-05-19T16:27:06+02:00</time>
      </trkpt>
      <trkpt lat="49.5026" lon="6.38219">
        <ele>196.2002</ele>
        <time>2026-05-19T16:27:07+02:00</time>
      </trkpt>
      <trkpt lat="49.50264" lon="6.38211">
        <ele>194.7002</ele>
        <time>2026-05-19T16:27:08+02:00</time>
      </trkpt>
      <trkpt lat="49.50269" lon="6.38204">
        <ele>194.7002</ele>
        <time>2026-05-19T16:27:09+02:00</time>
      </trkpt>
      <trkpt lat="49.50273" lon="6.38198">
        <ele>193.40039</ele>
        <time>2026-05-19T16:27:10+02:00</time>
      </trkpt>
      <trkpt lat="49.50277" lon="6.38192">
        <ele>192.2002</ele>
        <time>2026-05-19T16:27:11+02:00</time>
      </trkpt>
      <trkpt lat="49.50281" lon="6.38185">
        <ele>191.2002</ele>
        <time>2026-05-19T16:27:12+02:00</time>
      </trkpt>
      <trkpt lat="49.50285" lon="6.38179">
        <ele>191.2002</ele>
        <time>2026-05-19T16:27:13+02:00</time>
      </trkpt>
      <trkpt lat="49.50289" lon="6.38172">
        <ele>190.2002</ele>
        <time>2026-05-19T16:27:14+02:00</time>
      </trkpt>
      <trkpt lat="49.50293" lon="6.38166">
        <ele>189.2998</ele>
        <time>2026-05-19T16:27:15+02:00</time>
      </trkpt>
      <trkpt lat="49.50298" lon="6.3816">
        <ele>188.7998</ele>
        <time>2026-05-19T16:27:16+02:00</time>
      </trkpt>
      <trkpt lat="49.50301" lon="6.38154">
        <ele>188.2998</ele>
        <time>2026-05-19T16:27:17+02:00</time>
      </trkpt>
      <trkpt lat="49.50304" lon="6.38148">
        <ele>187.40039</ele>
        <time>2026-05-19T16:27:18+02:00</time>
      </trkpt>
      <trkpt lat="49.50308" lon="6.38144">
        <ele>187.40039</ele>
        <time>2026-05-19T16:27:19+02:00</time>
      </trkpt>
      <trkpt lat="49.5031" lon="6.38141">
        <ele>186.5</ele>
        <time>2026-05-19T16:27:20+02:00</time>
      </trkpt>
      <trkpt lat="49.50311" lon="6.38139">
        <ele>186.5</ele>
        <time>2026-05-19T16:27:21+02:00</time>
      </trkpt>
      <trkpt lat="49.50311" lon="6.38138">
        <ele>186.5</ele>
        <time>2026-05-19T16:27:22+02:00</time>
      </trkpt>
      <trkpt lat="49.50311" lon="6.38138">
        <ele>186.5</ele>
        <time>2026-05-19T16:27:23+02:00</time>
      </trkpt>
      <trkpt lat="49.50311" lon="6.38138">
        <ele>186.5</ele>
        <time>2026-05-19T16:27:24+02:00</time>
      </trkpt>
      <trkpt lat="49.50311" lon="6.38138">
        <ele>186.5</ele>
        <time>2026-05-19T16:27:25+02:00</time>
      </trkpt>
      <trkpt lat="49.50325" lon="6.3812">
        <ele>185</ele>
        <time>2026-05-19T16:27:49+02:00</time>
      </trkpt>
      <trkpt lat="49.50327" lon="6.38116">
        <ele>184.2998</ele>
        <time>2026-05-19T16:27:50+02:00</time>
      </trkpt>
      <trkpt lat="49.5033" lon="6.38112">
        <ele>184.2998</ele>
        <time>2026-05-19T16:27:51+02:00</time>
      </trkpt>
      <trkpt lat="49.50333" lon="6.38107">
        <ele>183.5</ele>
        <time>2026-05-19T16:27:52+02:00</time>
      </trkpt>
      <trkpt lat="49.50336" lon="6.38102">
        <ele>183.5</ele>
        <time>2026-05-19T16:27:53+02:00</time>
      </trkpt>
      <trkpt lat="49.50339" lon="6.38097">
        <ele>182.60059</ele>
        <time>2026-05-19T16:27:54+02:00</time>
      </trkpt>
      <trkpt lat="49.50342" lon="6.38092">
        <ele>182.2002</ele>
        <time>2026-05-19T16:27:55+02:00</time>
      </trkpt>
      <trkpt lat="49.50345" lon="6.38088">
        <ele>181.7998</ele>
        <time>2026-05-19T16:27:56+02:00</time>
      </trkpt>
      <trkpt lat="49.50348" lon="6.38083">
        <ele>181.40039</ele>
        <time>2026-05-19T16:27:57+02:00</time>
      </trkpt>
      <trkpt lat="49.50351" lon="6.38078">
        <ele>181.10059</ele>
        <time>2026-05-19T16:27:58+02:00</time>
      </trkpt>
      <trkpt lat="49.50355" lon="6.38073">
        <ele>180.5</ele>
        <time>2026-05-19T16:27:59+02:00</time>
      </trkpt>
      <trkpt lat="49.50358" lon="6.38067">
        <ele>180.5</ele>
        <time>2026-05-19T16:28:00+02:00</time>
      </trkpt>
      <trkpt lat="49.50361" lon="6.38061">
        <ele>180</ele>
        <time>2026-05-19T16:28:01+02:00</time>
      </trkpt>
      <trkpt lat="49.50364" lon="6.38056">
        <ele>179.7998</ele>
        <time>2026-05-19T16:28:02+02:00</time>
      </trkpt>
      <trkpt lat="49.50368" lon="6.3805">
        <ele>179.60059</ele>
        <time>2026-05-19T16:28:03+02:00</time>
      </trkpt>
      <trkpt lat="49.50371" lon="6.38045">
        <ele>179.10059</ele>
        <time>2026-05-19T16:28:04+02:00</time>
      </trkpt>
      <trkpt lat="49.50375" lon="6.38039">
        <ele>178.90039</ele>
        <time>2026-05-19T16:28:05+02:00</time>
      </trkpt>
      <trkpt lat="49.50379" lon="6.38034">
        <ele>178.7002</ele>
        <time>2026-05-19T16:28:06+02:00</time>
      </trkpt>
      <trkpt lat="49.5038" lon="6.38031">
        <ele>178.7002</ele>
        <time>2026-05-19T16:28:07+02:00</time>
      </trkpt>
      <trkpt lat="49.50386" lon="6.38024">
        <ele>178.2002</ele>
        <time>2026-05-19T16:28:08+02:00</time>
      </trkpt>
      <trkpt lat="49.5039" lon="6.38019">
        <ele>177.7002</ele>
        <time>2026-05-19T16:28:09+02:00</time>
      </trkpt>
      <trkpt lat="49.50395" lon="6.38015">
        <ele>177.5</ele>
        <time>2026-05-19T16:28:10+02:00</time>
      </trkpt>
      <trkpt lat="49.50399" lon="6.38011">
        <ele>176.90039</ele>
        <time>2026-05-19T16:28:11+02:00</time>
      </trkpt>
      <trkpt lat="49.50403" lon="6.38007">
        <ele>176.90039</ele>
        <time>2026-05-19T16:28:12+02:00</time>
      </trkpt>
      <trkpt lat="49.50408" lon="6.38003">
        <ele>176.2998</ele>
        <time>2026-05-19T16:28:13+02:00</time>
      </trkpt>
      <trkpt lat="49.50413" lon="6.37998">
        <ele>176</ele>
        <time>2026-05-19T16:28:14+02:00</time>
      </trkpt>
      <trkpt lat="49.50417" lon="6.37994">
        <ele>175.40039</ele>
        <time>2026-05-19T16:28:15+02:00</time>
      </trkpt>
      <trkpt lat="49.50423" lon="6.37989">
        <ele>175.10059</ele>
        <time>2026-05-19T16:28:16+02:00</time>
      </trkpt>
      <trkpt lat="49.50429" lon="6.37983">
        <ele>174.40039</ele>
        <time>2026-05-19T16:28:17+02:00</time>
      </trkpt>
      <trkpt lat="49.50434" lon="6.37978">
        <ele>173.7998</ele>
        <time>2026-05-19T16:28:18+02:00</time>
      </trkpt>
      <trkpt lat="49.5044" lon="6.37973">
        <ele>173.5</ele>
        <time>2026-05-19T16:28:19+02:00</time>
      </trkpt>
      <trkpt lat="49.50445" lon="6.37967">
        <ele>173</ele>
        <time>2026-05-19T16:28:20+02:00</time>
      </trkpt>
      <trkpt lat="49.50451" lon="6.37961">
        <ele>172.5</ele>
        <time>2026-05-19T16:28:21+02:00</time>
      </trkpt>
      <trkpt lat="49.50456" lon="6.37953">
        <ele>172</ele>
        <time>2026-05-19T16:28:22+02:00</time>
      </trkpt>
      <trkpt lat="49.50461" lon="6.37945">
        <ele>171.60059</ele>
        <time>2026-05-19T16:28:23+02:00</time>
      </trkpt>
      <trkpt lat="49.50465" lon="6.37936">
        <ele>171.2002</ele>
        <time>2026-05-19T16:28:24+02:00</time>
      </trkpt>
      <trkpt lat="49.50468" lon="6.37926">
        <ele>171</ele>
        <time>2026-05-19T16:28:25+02:00</time>
      </trkpt>
      <trkpt lat="49.50471" lon="6.37917">
        <ele>170.60059</ele>
        <time>2026-05-19T16:28:26+02:00</time>
      </trkpt>
      <trkpt lat="49.50474" lon="6.37908">
        <ele>170.40039</ele>
        <time>2026-05-19T16:28:27+02:00</time>
      </trkpt>
      <trkpt lat="49.50477" lon="6.37898">
        <ele>170</ele>
        <time>2026-05-19T16:28:28+02:00</time>
      </trkpt>
      <trkpt lat="49.5048" lon="6.37888">
        <ele>169.7998</ele>
        <time>2026-05-19T16:28:29+02:00</time>
      </trkpt>
      <trkpt lat="49.50483" lon="6.37879">
        <ele>169.2998</ele>
        <time>2026-05-19T16:28:30+02:00</time>
      </trkpt>
      <trkpt lat="49.50486" lon="6.3787">
        <ele>169.10059</ele>
        <time>2026-05-19T16:28:31+02:00</time>
      </trkpt>
      <trkpt lat="49.50489" lon="6.37863">
        <ele>168.5</ele>
        <time>2026-05-19T16:28:32+02:00</time>
      </trkpt>
      <trkpt lat="49.50493" lon="6.37857">
        <ele>168</ele>
        <time>2026-05-19T16:28:33+02:00</time>
      </trkpt>
      <trkpt lat="49.50496" lon="6.37852">
        <ele>168</ele>
        <time>2026-05-19T16:28:34+02:00</time>
      </trkpt>
      <trkpt lat="49.50499" lon="6.37847">
        <ele>167.5</ele>
        <time>2026-05-19T16:28:35+02:00</time>
      </trkpt>
      <trkpt lat="49.50502" lon="6.37842">
        <ele>167.2998</ele>
        <time>2026-05-19T16:28:36+02:00</time>
      </trkpt>
      <trkpt lat="49.50504" lon="6.37835">
        <ele>167.10059</ele>
        <time>2026-05-19T16:28:37+02:00</time>
      </trkpt>
      <trkpt lat="49.50506" lon="6.37829">
        <ele>166.90039</ele>
        <time>2026-05-19T16:28:38+02:00</time>
      </trkpt>
      <trkpt lat="49.50508" lon="6.37822">
        <ele>166.7002</ele>
        <time>2026-05-19T16:28:39+02:00</time>
      </trkpt>
      <trkpt lat="49.50509" lon="6.37814">
        <ele>166.5</ele>
        <time>2026-05-19T16:28:40+02:00</time>
      </trkpt>
      <trkpt lat="49.50511" lon="6.37805">
        <ele>166.10059</ele>
        <time>2026-05-19T16:28:41+02:00</time>
      </trkpt>
      <trkpt lat="49.50511" lon="6.37797">
        <ele>165.90039</ele>
        <time>2026-05-19T16:28:42+02:00</time>
      </trkpt>
      <trkpt lat="49.50512" lon="6.37792">
        <ele>165.90039</ele>
        <time>2026-05-19T16:28:43+02:00</time>
      </trkpt>
      <trkpt lat="49.50514" lon="6.37779">
        <ele>165.7002</ele>
        <time>2026-05-19T16:28:44+02:00</time>
      </trkpt>
      <trkpt lat="49.50514" lon="6.3777">
        <ele>165.60059</ele>
        <time>2026-05-19T16:28:45+02:00</time>
      </trkpt>
      <trkpt lat="49.50515" lon="6.37761">
        <ele>165.40039</ele>
        <time>2026-05-19T16:28:46+02:00</time>
      </trkpt>
      <trkpt lat="49.50516" lon="6.37751">
        <ele>165.2998</ele>
        <time>2026-05-19T16:28:47+02:00</time>
      </trkpt>
      <trkpt lat="49.50517" lon="6.37742">
        <ele>165.2002</ele>
        <time>2026-05-19T16:28:48+02:00</time>
      </trkpt>
      <trkpt lat="49.50517" lon="6.37733">
        <ele>165.10059</ele>
        <time>2026-05-19T16:28:49+02:00</time>
      </trkpt>
      <trkpt lat="49.50518" lon="6.37723">
        <ele>165</ele>
        <time>2026-05-19T16:28:50+02:00</time>
      </trkpt>
      <trkpt lat="49.50518" lon="6.37714">
        <ele>164.90039</ele>
        <time>2026-05-19T16:28:51+02:00</time>
      </trkpt>
      <trkpt lat="49.50518" lon="6.37704">
        <ele>164.7998</ele>
        <time>2026-05-19T16:28:52+02:00</time>
      </trkpt>
      <trkpt lat="49.50518" lon="6.37694">
        <ele>164.7002</ele>
        <time>2026-05-19T16:28:53+02:00</time>
      </trkpt>
      <trkpt lat="49.50518" lon="6.37684">
        <ele>164.60059</ele>
        <time>2026-05-19T16:28:54+02:00</time>
      </trkpt>
      <trkpt lat="49.50518" lon="6.37675">
        <ele>164.5</ele>
        <time>2026-05-19T16:28:55+02:00</time>
      </trkpt>
      <trkpt lat="49.50518" lon="6.3767">
        <ele>164.5</ele>
        <time>2026-05-19T16:28:56+02:00</time>
      </trkpt>
      <trkpt lat="49.50517" lon="6.37655">
        <ele>164.40039</ele>
        <time>2026-05-19T16:28:57+02:00</time>
      </trkpt>
      <trkpt lat="49.50517" lon="6.37645">
        <ele>164.2998</ele>
        <time>2026-05-19T16:28:58+02:00</time>
      </trkpt>
      <trkpt lat="49.50518" lon="6.37635">
        <ele>164.10059</ele>
        <time>2026-05-19T16:28:59+02:00</time>
      </trkpt>
      <trkpt lat="49.50518" lon="6.37625">
        <ele>164</ele>
        <time>2026-05-19T16:29:00+02:00</time>
      </trkpt>
      <trkpt lat="49.50517" lon="6.37615">
        <ele>163.90039</ele>
        <time>2026-05-19T16:29:01+02:00</time>
      </trkpt>
      <trkpt lat="49.50517" lon="6.37605">
        <ele>163.7998</ele>
        <time>2026-05-19T16:29:02+02:00</time>
      </trkpt>
      <trkpt lat="49.50517" lon="6.37595">
        <ele>163.7002</ele>
        <time>2026-05-19T16:29:03+02:00</time>
      </trkpt>
      <trkpt lat="49.50517" lon="6.3759">
        <ele>163.60059</ele>
        <time>2026-05-19T16:29:04+02:00</time>
      </trkpt>
      <trkpt lat="49.50516" lon="6.37575">
        <ele>163.2998</ele>
        <time>2026-05-19T16:29:05+02:00</time>
      </trkpt>
      <trkpt lat="49.50516" lon="6.37566">
        <ele>163.2002</ele>
        <time>2026-05-19T16:29:06+02:00</time>
      </trkpt>
      <trkpt lat="49.50516" lon="6.37556">
        <ele>163.10059</ele>
        <time>2026-05-19T16:29:07+02:00</time>
      </trkpt>
      <trkpt lat="49.50515" lon="6.37547">
        <ele>163</ele>
        <time>2026-05-19T16:29:08+02:00</time>
      </trkpt>
      <trkpt lat="49.50515" lon="6.37537">
        <ele>162.90039</ele>
        <time>2026-05-19T16:29:09+02:00</time>
      </trkpt>
      <trkpt lat="49.50514" lon="6.37528">
        <ele>162.90039</ele>
        <time>2026-05-19T16:29:10+02:00</time>
      </trkpt>
      <trkpt lat="49.50514" lon="6.37518">
        <ele>162.7998</ele>
        <time>2026-05-19T16:29:11+02:00</time>
      </trkpt>
      <trkpt lat="49.50513" lon="6.37508">
        <ele>162.60059</ele>
        <time>2026-05-19T16:29:12+02:00</time>
      </trkpt>
      <trkpt lat="49.50512" lon="6.37498">
        <ele>162.10059</ele>
        <time>2026-05-19T16:29:13+02:00</time>
      </trkpt>
      <trkpt lat="49.50511" lon="6.37489">
        <ele>161.90039</ele>
        <time>2026-05-19T16:29:14+02:00</time>
      </trkpt>
      <trkpt lat="49.50511" lon="6.37479">
        <ele>161.60059</ele>
        <time>2026-05-19T16:29:15+02:00</time>
      </trkpt>
      <trkpt lat="49.50511" lon="6.3747">
        <ele>161.2998</ele>
        <time>2026-05-19T16:29:16+02:00</time>
      </trkpt>
      <trkpt lat="49.50511" lon="6.3746">
        <ele>161</ele>
        <time>2026-05-19T16:29:17+02:00</time>
      </trkpt>
      <trkpt lat="49.5051" lon="6.37452">
        <ele>160.7002</ele>
        <time>2026-05-19T16:29:18+02:00</time>
      </trkpt>
      <trkpt lat="49.50511" lon="6.37444">
        <ele>160.40039</ele>
        <time>2026-05-19T16:29:19+02:00</time>
      </trkpt>
      <trkpt lat="49.50511" lon="6.37437">
        <ele>160</ele>
        <time>2026-05-19T16:29:20+02:00</time>
      </trkpt>
      <trkpt lat="49.5051" lon="6.37429">
        <ele>159.7002</ele>
        <time>2026-05-19T16:29:21+02:00</time>
      </trkpt>
      <trkpt lat="49.50508" lon="6.37422">
        <ele>159.7998</ele>
        <time>2026-05-19T16:29:22+02:00</time>
      </trkpt>
      <trkpt lat="49.50506" lon="6.37415">
        <ele>159.40039</ele>
        <time>2026-05-19T16:29:23+02:00</time>
      </trkpt>
      <trkpt lat="49.50504" lon="6.37407">
        <ele>159.10059</ele>
        <time>2026-05-19T16:29:24+02:00</time>
      </trkpt>
      <trkpt lat="49.50501" lon="6.37398">
        <ele>158.7998</ele>
        <time>2026-05-19T16:29:25+02:00</time>
      </trkpt>
      <trkpt lat="49.50498" lon="6.37389">
        <ele>158.5</ele>
        <time>2026-05-19T16:29:26+02:00</time>
      </trkpt>
      <trkpt lat="49.50496" lon="6.37379">
        <ele>158.2002</ele>
        <time>2026-05-19T16:29:27+02:00</time>
      </trkpt>
      <trkpt lat="49.50494" lon="6.37368">
        <ele>157.5</ele>
        <time>2026-05-19T16:29:28+02:00</time>
      </trkpt>
      <trkpt lat="49.50493" lon="6.37358">
        <ele>157.10059</ele>
        <time>2026-05-19T16:29:29+02:00</time>
      </trkpt>
      <trkpt lat="49.50491" lon="6.37347">
        <ele>156.7998</ele>
        <time>2026-05-19T16:29:30+02:00</time>
      </trkpt>
      <trkpt lat="49.5049" lon="6.37336">
        <ele>156.40039</ele>
        <time>2026-05-19T16:29:31+02:00</time>
      </trkpt>
      <trkpt lat="49.50489" lon="6.37326">
        <ele>155.7998</ele>
        <time>2026-05-19T16:29:32+02:00</time>
      </trkpt>
      <trkpt lat="49.50488" lon="6.37317">
        <ele>155.40039</ele>
        <time>2026-05-19T16:29:33+02:00</time>
      </trkpt>
      <trkpt lat="49.50487" lon="6.37308">
        <ele>155.10059</ele>
        <time>2026-05-19T16:29:34+02:00</time>
      </trkpt>
      <trkpt lat="49.50485" lon="6.37299">
        <ele>154.90039</ele>
        <time>2026-05-19T16:29:35+02:00</time>
      </trkpt>
      <trkpt lat="49.50483" lon="6.3729">
        <ele>154.7002</ele>
        <time>2026-05-19T16:29:36+02:00</time>
      </trkpt>
      <trkpt lat="49.50481" lon="6.37282">
        <ele>154.5</ele>
        <time>2026-05-19T16:29:37+02:00</time>
      </trkpt>
      <trkpt lat="49.50478" lon="6.37274">
        <ele>154.2998</ele>
        <time>2026-05-19T16:29:38+02:00</time>
      </trkpt>
      <trkpt lat="49.50477" lon="6.37267">
        <ele>154</ele>
        <time>2026-05-19T16:29:39+02:00</time>
      </trkpt>
      <trkpt lat="49.50474" lon="6.3726">
        <ele>154.10059</ele>
        <time>2026-05-19T16:29:40+02:00</time>
      </trkpt>
      <trkpt lat="49.50472" lon="6.37253">
        <ele>153.90039</ele>
        <time>2026-05-19T16:29:41+02:00</time>
      </trkpt>
      <trkpt lat="49.5047" lon="6.37246">
        <ele>153.7998</ele>
        <time>2026-05-19T16:29:42+02:00</time>
      </trkpt>
      <trkpt lat="49.50468" lon="6.37239">
        <ele>153.7002</ele>
        <time>2026-05-19T16:29:43+02:00</time>
      </trkpt>
      <trkpt lat="49.50466" lon="6.37232">
        <ele>153.60059</ele>
        <time>2026-05-19T16:29:44+02:00</time>
      </trkpt>
      <trkpt lat="49.50464" lon="6.37224">
        <ele>153.7002</ele>
        <time>2026-05-19T16:29:45+02:00</time>
      </trkpt>
      <trkpt lat="49.50462" lon="6.37216">
        <ele>153.7002</ele>
        <time>2026-05-19T16:29:46+02:00</time>
      </trkpt>
      <trkpt lat="49.50461" lon="6.37208">
        <ele>153.60059</ele>
        <time>2026-05-19T16:29:47+02:00</time>
      </trkpt>
      <trkpt lat="49.5046" lon="6.372">
        <ele>153.60059</ele>
        <time>2026-05-19T16:29:48+02:00</time>
      </trkpt>
      <trkpt lat="49.50459" lon="6.3719">
        <ele>153.60059</ele>
        <time>2026-05-19T16:29:49+02:00</time>
      </trkpt>
      <trkpt lat="49.50459" lon="6.37185">
        <ele>153.60059</ele>
        <time>2026-05-19T16:29:50+02:00</time>
      </trkpt>
      <trkpt lat="49.50458" lon="6.3717">
        <ele>153.5</ele>
        <time>2026-05-19T16:29:51+02:00</time>
      </trkpt>
      <trkpt lat="49.50458" lon="6.37159">
        <ele>153.40039</ele>
        <time>2026-05-19T16:29:52+02:00</time>
      </trkpt>
      <trkpt lat="49.50459" lon="6.37149">
        <ele>153.2998</ele>
        <time>2026-05-19T16:29:53+02:00</time>
      </trkpt>
      <trkpt lat="49.50461" lon="6.37138">
        <ele>153</ele>
        <time>2026-05-19T16:29:54+02:00</time>
      </trkpt>
      <trkpt lat="49.50462" lon="6.37127">
        <ele>152.7998</ele>
        <time>2026-05-19T16:29:55+02:00</time>
      </trkpt>
      <trkpt lat="49.50463" lon="6.37116">
        <ele>152.7002</ele>
        <time>2026-05-19T16:29:56+02:00</time>
      </trkpt>
      <trkpt lat="49.50464" lon="6.37105">
        <ele>152.5</ele>
        <time>2026-05-19T16:29:57+02:00</time>
      </trkpt>
      <trkpt lat="49.50465" lon="6.37094">
        <ele>152.2998</ele>
        <time>2026-05-19T16:29:58+02:00</time>
      </trkpt>
      <trkpt lat="49.50466" lon="6.37083">
        <ele>152.2002</ele>
        <time>2026-05-19T16:29:59+02:00</time>
      </trkpt>
      <trkpt lat="49.50467" lon="6.37072">
        <ele>152.10059</ele>
        <time>2026-05-19T16:30:00+02:00</time>
      </trkpt>
      <trkpt lat="49.50467" lon="6.37061">
        <ele>152</ele>
        <time>2026-05-19T16:30:01+02:00</time>
      </trkpt>
      <trkpt lat="49.50468" lon="6.3705">
        <ele>152</ele>
        <time>2026-05-19T16:30:02+02:00</time>
      </trkpt>
      <trkpt lat="49.50469" lon="6.3704">
        <ele>152</ele>
        <time>2026-05-19T16:30:03+02:00</time>
      </trkpt>
      <trkpt lat="49.5047" lon="6.3703">
        <ele>152</ele>
        <time>2026-05-19T16:30:04+02:00</time>
      </trkpt>
      <trkpt lat="49.50472" lon="6.37019">
        <ele>152</ele>
        <time>2026-05-19T16:30:05+02:00</time>
      </trkpt>
      <trkpt lat="49.50474" lon="6.37009">
        <ele>151.90039</ele>
        <time>2026-05-19T16:30:06+02:00</time>
      </trkpt>
      <trkpt lat="49.50476" lon="6.36999">
        <ele>151.90039</ele>
        <time>2026-05-19T16:30:07+02:00</time>
      </trkpt>
      <trkpt lat="49.50477" lon="6.36989">
        <ele>151.90039</ele>
        <time>2026-05-19T16:30:08+02:00</time>
      </trkpt>
      <trkpt lat="49.50479" lon="6.36981">
        <ele>151.7998</ele>
        <time>2026-05-19T16:30:09+02:00</time>
      </trkpt>
      <trkpt lat="49.5048" lon="6.36974">
        <ele>151.7998</ele>
        <time>2026-05-19T16:30:10+02:00</time>
      </trkpt>
      <trkpt lat="49.50479" lon="6.36967">
        <ele>151.7998</ele>
        <time>2026-05-19T16:30:11+02:00</time>
      </trkpt>
      <trkpt lat="49.50476" lon="6.36961">
        <ele>151.7002</ele>
        <time>2026-05-19T16:30:12+02:00</time>
      </trkpt>
      <trkpt lat="49.50472" lon="6.36957">
        <ele>151.5</ele>
        <time>2026-05-19T16:30:13+02:00</time>
      </trkpt>
      <trkpt lat="49.50467" lon="6.36954">
        <ele>151.40039</ele>
        <time>2026-05-19T16:30:14+02:00</time>
      </trkpt>
      <trkpt lat="49.50462" lon="6.36951">
        <ele>151.2998</ele>
        <time>2026-05-19T16:30:15+02:00</time>
      </trkpt>
      <trkpt lat="49.50439" lon="6.36946">
        <ele>150.7002</ele>
        <time>2026-05-19T16:30:16+02:00</time>
      </trkpt>
      <trkpt lat="49.50432" lon="6.36946">
        <ele>150.60059</ele>
        <time>2026-05-19T16:30:17+02:00</time>
      </trkpt>
      <trkpt lat="49.50426" lon="6.36947">
        <ele>150.5</ele>
        <time>2026-05-19T16:30:18+02:00</time>
      </trkpt>
      <trkpt lat="49.50419" lon="6.36947">
        <ele>150.40039</ele>
        <time>2026-05-19T16:30:19+02:00</time>
      </trkpt>
      <trkpt lat="49.50413" lon="6.36947">
        <ele>150.2998</ele>
        <time>2026-05-19T16:30:20+02:00</time>
      </trkpt>
      <trkpt lat="49.50406" lon="6.36948">
        <ele>150.2998</ele>
        <time>2026-05-19T16:30:21+02:00</time>
      </trkpt>
      <trkpt lat="49.504" lon="6.36948">
        <ele>150.2998</ele>
        <time>2026-05-19T16:30:22+02:00</time>
      </trkpt>
      <trkpt lat="49.50394" lon="6.36947">
        <ele>150.2998</ele>
        <time>2026-05-19T16:30:23+02:00</time>
      </trkpt>
      <trkpt lat="49.50388" lon="6.36947">
        <ele>150.2998</ele>
        <time>2026-05-19T16:30:24+02:00</time>
      </trkpt>
      <trkpt lat="49.50382" lon="6.36946">
        <ele>150.2998</ele>
        <time>2026-05-19T16:30:25+02:00</time>
      </trkpt>
      <trkpt lat="49.50376" lon="6.36945">
        <ele>150.2998</ele>
        <time>2026-05-19T16:30:26+02:00</time>
      </trkpt>
      <trkpt lat="49.5037" lon="6.36945">
        <ele>150.2998</ele>
        <time>2026-05-19T16:30:27+02:00</time>
      </trkpt>
      <trkpt lat="49.50364" lon="6.36945">
        <ele>150.2998</ele>
        <time>2026-05-19T16:30:28+02:00</time>
      </trkpt>
      <trkpt lat="49.50358" lon="6.36945">
        <ele>150.2998</ele>
        <time>2026-05-19T16:30:29+02:00</time>
      </trkpt>
      <trkpt lat="49.50353" lon="6.36945">
        <ele>150.2998</ele>
        <time>2026-05-19T16:30:30+02:00</time>
      </trkpt>
      <trkpt lat="49.50347" lon="6.36946">
        <ele>150.2002</ele>
        <time>2026-05-19T16:30:31+02:00</time>
      </trkpt>
      <trkpt lat="49.50342" lon="6.36947">
        <ele>150.2002</ele>
        <time>2026-05-19T16:30:32+02:00</time>
      </trkpt>
      <trkpt lat="49.50336" lon="6.36948">
        <ele>150.10059</ele>
        <time>2026-05-19T16:30:33+02:00</time>
      </trkpt>
      <trkpt lat="49.5033" lon="6.36949">
        <ele>150.10059</ele>
        <time>2026-05-19T16:30:34+02:00</time>
      </trkpt>
      <trkpt lat="49.50324" lon="6.36949">
        <ele>150</ele>
        <time>2026-05-19T16:30:35+02:00</time>
      </trkpt>
      <trkpt lat="49.50319" lon="6.3695">
        <ele>150.10059</ele>
        <time>2026-05-19T16:30:36+02:00</time>
      </trkpt>
      <trkpt lat="49.50313" lon="6.36951">
        <ele>150</ele>
        <time>2026-05-19T16:30:37+02:00</time>
      </trkpt>
      <trkpt lat="49.50306" lon="6.36951">
        <ele>149.90039</ele>
        <time>2026-05-19T16:30:38+02:00</time>
      </trkpt>
      <trkpt lat="49.503" lon="6.36953">
        <ele>149.90039</ele>
        <time>2026-05-19T16:30:39+02:00</time>
      </trkpt>
      <trkpt lat="49.50294" lon="6.36954">
        <ele>149.7002</ele>
        <time>2026-05-19T16:30:40+02:00</time>
      </trkpt>
      <trkpt lat="49.50288" lon="6.36956">
        <ele>149.60059</ele>
        <time>2026-05-19T16:30:41+02:00</time>
      </trkpt>
      <trkpt lat="49.50282" lon="6.36957">
        <ele>149.40039</ele>
        <time>2026-05-19T16:30:42+02:00</time>
      </trkpt>
      <trkpt lat="49.50276" lon="6.36958">
        <ele>149.2998</ele>
        <time>2026-05-19T16:30:43+02:00</time>
      </trkpt>
      <trkpt lat="49.50269" lon="6.36958">
        <ele>148.90039</ele>
        <time>2026-05-19T16:30:44+02:00</time>
      </trkpt>
      <trkpt lat="49.50264" lon="6.36959">
        <ele>149</ele>
        <time>2026-05-19T16:30:45+02:00</time>
      </trkpt>
      <trkpt lat="49.50258" lon="6.36959">
        <ele>148.7002</ele>
        <time>2026-05-19T16:30:46+02:00</time>
      </trkpt>
      <trkpt lat="49.50252" lon="6.36959">
        <ele>148.5</ele>
        <time>2026-05-19T16:30:47+02:00</time>
      </trkpt>
      <trkpt lat="49.50246" lon="6.3696">
        <ele>148.2998</ele>
        <time>2026-05-19T16:30:48+02:00</time>
      </trkpt>
      <trkpt lat="49.5024" lon="6.3696">
        <ele>148.10059</ele>
        <time>2026-05-19T16:30:49+02:00</time>
      </trkpt>
      <trkpt lat="49.50234" lon="6.3696">
        <ele>148</ele>
        <time>2026-05-19T16:30:50+02:00</time>
      </trkpt>
      <trkpt lat="49.50227" lon="6.36961">
        <ele>147.7998</ele>
        <time>2026-05-19T16:30:51+02:00</time>
      </trkpt>
      <trkpt lat="49.50221" lon="6.36961">
        <ele>147.7002</ele>
        <time>2026-05-19T16:30:52+02:00</time>
      </trkpt>
      <trkpt lat="49.50214" lon="6.36962">
        <ele>147.60059</ele>
        <time>2026-05-19T16:30:53+02:00</time>
      </trkpt>
      <trkpt lat="49.50208" lon="6.36962">
        <ele>147.40039</ele>
        <time>2026-05-19T16:30:54+02:00</time>
      </trkpt>
      <trkpt lat="49.50201" lon="6.36963">
        <ele>147.2998</ele>
        <time>2026-05-19T16:30:55+02:00</time>
      </trkpt>
      <trkpt lat="49.50195" lon="6.36964">
        <ele>147.2002</ele>
        <time>2026-05-19T16:30:56+02:00</time>
      </trkpt>
      <trkpt lat="49.50189" lon="6.36964">
        <ele>147.10059</ele>
        <time>2026-05-19T16:30:57+02:00</time>
      </trkpt>
      <trkpt lat="49.50182" lon="6.36965">
        <ele>147.10059</ele>
        <time>2026-05-19T16:30:58+02:00</time>
      </trkpt>
      <trkpt lat="49.50177" lon="6.36964">
        <ele>147</ele>
        <time>2026-05-19T16:30:59+02:00</time>
      </trkpt>
      <trkpt lat="49.50171" lon="6.36963">
        <ele>147</ele>
        <time>2026-05-19T16:31:00+02:00</time>
      </trkpt>
      <trkpt lat="49.50165" lon="6.36961">
        <ele>146.90039</ele>
        <time>2026-05-19T16:31:01+02:00</time>
      </trkpt>
      <trkpt lat="49.5016" lon="6.36957">
        <ele>146.7998</ele>
        <time>2026-05-19T16:31:02+02:00</time>
      </trkpt>
      <trkpt lat="49.50155" lon="6.36953">
        <ele>146.7002</ele>
        <time>2026-05-19T16:31:03+02:00</time>
      </trkpt>
      <trkpt lat="49.5015" lon="6.36949">
        <ele>146.60059</ele>
        <time>2026-05-19T16:31:04+02:00</time>
      </trkpt>
      <trkpt lat="49.50145" lon="6.36946">
        <ele>146.60059</ele>
        <time>2026-05-19T16:31:05+02:00</time>
      </trkpt>
      <trkpt lat="49.5014" lon="6.36943">
        <ele>146.60059</ele>
        <time>2026-05-19T16:31:06+02:00</time>
      </trkpt>
      <trkpt lat="49.50135" lon="6.36941">
        <ele>146.60059</ele>
        <time>2026-05-19T16:31:07+02:00</time>
      </trkpt>
      <trkpt lat="49.50131" lon="6.3694">
        <ele>146.5</ele>
        <time>2026-05-19T16:31:08+02:00</time>
      </trkpt>
      <trkpt lat="49.50126" lon="6.36938">
        <ele>146.40039</ele>
        <time>2026-05-19T16:31:09+02:00</time>
      </trkpt>
      <trkpt lat="49.5012" lon="6.36937">
        <ele>146.2998</ele>
        <time>2026-05-19T16:31:10+02:00</time>
      </trkpt>
      <trkpt lat="49.50115" lon="6.36936">
        <ele>146.2002</ele>
        <time>2026-05-19T16:31:11+02:00</time>
      </trkpt>
      <trkpt lat="49.5011" lon="6.36935">
        <ele>146.10059</ele>
        <time>2026-05-19T16:31:12+02:00</time>
      </trkpt>
      <trkpt lat="49.50105" lon="6.36936">
        <ele>146</ele>
        <time>2026-05-19T16:31:13+02:00</time>
      </trkpt>
      <trkpt lat="49.50099" lon="6.36936">
        <ele>146</ele>
        <time>2026-05-19T16:31:14+02:00</time>
      </trkpt>
      <trkpt lat="49.50094" lon="6.36936">
        <ele>145.90039</ele>
        <time>2026-05-19T16:31:15+02:00</time>
      </trkpt>
      <trkpt lat="49.5009" lon="6.36936">
        <ele>145.90039</ele>
        <time>2026-05-19T16:31:16+02:00</time>
      </trkpt>
      <trkpt lat="49.50085" lon="6.36936">
        <ele>145.7998</ele>
        <time>2026-05-19T16:31:17+02:00</time>
      </trkpt>
      <trkpt lat="49.5008" lon="6.36936">
        <ele>145.7998</ele>
        <time>2026-05-19T16:31:18+02:00</time>
      </trkpt>
      <trkpt lat="49.50076" lon="6.36936">
        <ele>145.7998</ele>
        <time>2026-05-19T16:31:19+02:00</time>
      </trkpt>
      <trkpt lat="49.50073" lon="6.36936">
        <ele>145.7998</ele>
        <time>2026-05-19T16:31:20+02:00</time>
      </trkpt>
      <trkpt lat="49.50066" lon="6.36937">
        <ele>145.7002</ele>
        <time>2026-05-19T16:31:21+02:00</time>
      </trkpt>
      <trkpt lat="49.50061" lon="6.36938">
        <ele>145.7002</ele>
        <time>2026-05-19T16:31:22+02:00</time>
      </trkpt>
      <trkpt lat="49.50056" lon="6.3694">
        <ele>145.7002</ele>
        <time>2026-05-19T16:31:23+02:00</time>
      </trkpt>
      <trkpt lat="49.50051" lon="6.36941">
        <ele>145.90039</ele>
        <time>2026-05-19T16:31:24+02:00</time>
      </trkpt>
      <trkpt lat="49.50046" lon="6.36943">
        <ele>145.90039</ele>
        <time>2026-05-19T16:31:25+02:00</time>
      </trkpt>
      <trkpt lat="49.50041" lon="6.36945">
        <ele>145.90039</ele>
        <time>2026-05-19T16:31:26+02:00</time>
      </trkpt>
      <trkpt lat="49.50036" lon="6.36947">
        <ele>145.90039</ele>
        <time>2026-05-19T16:31:27+02:00</time>
      </trkpt>
      <trkpt lat="49.50031" lon="6.36948">
        <ele>145.90039</ele>
        <time>2026-05-19T16:31:28+02:00</time>
      </trkpt>
      <trkpt lat="49.50029" lon="6.36949">
        <ele>145.7998</ele>
        <time>2026-05-19T16:31:29+02:00</time>
      </trkpt>
      <trkpt lat="49.50021" lon="6.36951">
        <ele>146.10059</ele>
        <time>2026-05-19T16:31:30+02:00</time>
      </trkpt>
      <trkpt lat="49.50015" lon="6.36953">
        <ele>146</ele>
        <time>2026-05-19T16:31:31+02:00</time>
      </trkpt>
      <trkpt lat="49.5001" lon="6.36954">
        <ele>145.90039</ele>
        <time>2026-05-19T16:31:32+02:00</time>
      </trkpt>
      <trkpt lat="49.50004" lon="6.36955">
        <ele>145.90039</ele>
        <time>2026-05-19T16:31:33+02:00</time>
      </trkpt>
      <trkpt lat="49.49999" lon="6.36956">
        <ele>145.7998</ele>
        <time>2026-05-19T16:31:34+02:00</time>
      </trkpt>
      <trkpt lat="49.49993" lon="6.36956">
        <ele>145.7998</ele>
        <time>2026-05-19T16:31:35+02:00</time>
      </trkpt>
      <trkpt lat="49.49988" lon="6.36956">
        <ele>145.7002</ele>
        <time>2026-05-19T16:31:36+02:00</time>
      </trkpt>
      <trkpt lat="49.49983" lon="6.36955">
        <ele>145.7002</ele>
        <time>2026-05-19T16:31:37+02:00</time>
      </trkpt>
      <trkpt lat="49.49978" lon="6.36953">
        <ele>145.60059</ele>
        <time>2026-05-19T16:31:38+02:00</time>
      </trkpt>
      <trkpt lat="49.49973" lon="6.36952">
        <ele>145.5</ele>
        <time>2026-05-19T16:31:39+02:00</time>
      </trkpt>
      <trkpt lat="49.49968" lon="6.3695">
        <ele>145.40039</ele>
        <time>2026-05-19T16:31:40+02:00</time>
      </trkpt>
      <trkpt lat="49.49963" lon="6.36948">
        <ele>145.2002</ele>
        <time>2026-05-19T16:31:41+02:00</time>
      </trkpt>
      <trkpt lat="49.49958" lon="6.36946">
        <ele>145.10059</ele>
        <time>2026-05-19T16:31:42+02:00</time>
      </trkpt>
      <trkpt lat="49.49952" lon="6.36944">
        <ele>145</ele>
        <time>2026-05-19T16:31:43+02:00</time>
      </trkpt>
      <trkpt lat="49.49947" lon="6.36943">
        <ele>144.7998</ele>
        <time>2026-05-19T16:31:44+02:00</time>
      </trkpt>
      <trkpt lat="49.49941" lon="6.36941">
        <ele>144.7002</ele>
        <time>2026-05-19T16:31:45+02:00</time>
      </trkpt>
      <trkpt lat="49.49935" lon="6.36939">
        <ele>144.40039</ele>
        <time>2026-05-19T16:31:46+02:00</time>
      </trkpt>
      <trkpt lat="49.49929" lon="6.36937">
        <ele>144.10059</ele>
        <time>2026-05-19T16:31:47+02:00</time>
      </trkpt>
      <trkpt lat="49.49923" lon="6.36935">
        <ele>144</ele>
        <time>2026-05-19T16:31:48+02:00</time>
      </trkpt>
      <trkpt lat="49.49917" lon="6.36933">
        <ele>143.90039</ele>
        <time>2026-05-19T16:31:49+02:00</time>
      </trkpt>
      <trkpt lat="49.49911" lon="6.36931">
        <ele>143.7998</ele>
        <time>2026-05-19T16:31:50+02:00</time>
      </trkpt>
      <trkpt lat="49.49906" lon="6.3693">
        <ele>143.7998</ele>
        <time>2026-05-19T16:31:51+02:00</time>
      </trkpt>
      <trkpt lat="49.499" lon="6.36928">
        <ele>143.7998</ele>
        <time>2026-05-19T16:31:52+02:00</time>
      </trkpt>
      <trkpt lat="49.49895" lon="6.36927">
        <ele>143.90039</ele>
        <time>2026-05-19T16:31:53+02:00</time>
      </trkpt>
      <trkpt lat="49.49889" lon="6.36926">
        <ele>144</ele>
        <time>2026-05-19T16:31:54+02:00</time>
      </trkpt>
      <trkpt lat="49.49884" lon="6.36924">
        <ele>144.10059</ele>
        <time>2026-05-19T16:31:55+02:00</time>
      </trkpt>
      <trkpt lat="49.49878" lon="6.36923">
        <ele>144.10059</ele>
        <time>2026-05-19T16:31:56+02:00</time>
      </trkpt>
      <trkpt lat="49.49873" lon="6.36921">
        <ele>144.2002</ele>
        <time>2026-05-19T16:31:57+02:00</time>
      </trkpt>
      <trkpt lat="49.49867" lon="6.36919">
        <ele>144.2002</ele>
        <time>2026-05-19T16:31:58+02:00</time>
      </trkpt>
      <trkpt lat="49.49861" lon="6.36918">
        <ele>144.2998</ele>
        <time>2026-05-19T16:31:59+02:00</time>
      </trkpt>
      <trkpt lat="49.49856" lon="6.36916">
        <ele>144.40039</ele>
        <time>2026-05-19T16:32:00+02:00</time>
      </trkpt>
      <trkpt lat="49.4985" lon="6.36915">
        <ele>144.40039</ele>
        <time>2026-05-19T16:32:01+02:00</time>
      </trkpt>
      <trkpt lat="49.49845" lon="6.36913">
        <ele>144.5</ele>
        <time>2026-05-19T16:32:02+02:00</time>
      </trkpt>
      <trkpt lat="49.49839" lon="6.36912">
        <ele>144.60059</ele>
        <time>2026-05-19T16:32:03+02:00</time>
      </trkpt>
      <trkpt lat="49.49833" lon="6.3691">
        <ele>144.7998</ele>
        <time>2026-05-19T16:32:04+02:00</time>
      </trkpt>
      <trkpt lat="49.49828" lon="6.36908">
        <ele>145</ele>
        <time>2026-05-19T16:32:05+02:00</time>
      </trkpt>
      <trkpt lat="49.49822" lon="6.36907">
        <ele>145.2002</ele>
        <time>2026-05-19T16:32:06+02:00</time>
      </trkpt>
      <trkpt lat="49.49816" lon="6.36906">
        <ele>145.2998</ele>
        <time>2026-05-19T16:32:07+02:00</time>
      </trkpt>
      <trkpt lat="49.4981" lon="6.36904">
        <ele>145.60059</ele>
        <time>2026-05-19T16:32:08+02:00</time>
      </trkpt>
      <trkpt lat="49.49804" lon="6.36902">
        <ele>145.90039</ele>
        <time>2026-05-19T16:32:09+02:00</time>
      </trkpt>
      <trkpt lat="49.49799" lon="6.36901">
        <ele>146.2998</ele>
        <time>2026-05-19T16:32:10+02:00</time>
      </trkpt>
      <trkpt lat="49.49793" lon="6.36899">
        <ele>146.60059</ele>
        <time>2026-05-19T16:32:11+02:00</time>
      </trkpt>
      <trkpt lat="49.49787" lon="6.36897">
        <ele>146.7002</ele>
        <time>2026-05-19T16:32:12+02:00</time>
      </trkpt>
      <trkpt lat="49.49782" lon="6.36896">
        <ele>147.10059</ele>
        <time>2026-05-19T16:32:13+02:00</time>
      </trkpt>
      <trkpt lat="49.49776" lon="6.36895">
        <ele>147.5</ele>
        <time>2026-05-19T16:32:14+02:00</time>
      </trkpt>
      <trkpt lat="49.4977" lon="6.36893">
        <ele>147.7002</ele>
        <time>2026-05-19T16:32:15+02:00</time>
      </trkpt>
      <trkpt lat="49.49765" lon="6.36892">
        <ele>148</ele>
        <time>2026-05-19T16:32:16+02:00</time>
      </trkpt>
      <trkpt lat="49.49759" lon="6.3689">
        <ele>148.10059</ele>
        <time>2026-05-19T16:32:17+02:00</time>
      </trkpt>
      <trkpt lat="49.49754" lon="6.36888">
        <ele>148.10059</ele>
        <time>2026-05-19T16:32:18+02:00</time>
      </trkpt>
      <trkpt lat="49.49748" lon="6.36887">
        <ele>148.2998</ele>
        <time>2026-05-19T16:32:19+02:00</time>
      </trkpt>
      <trkpt lat="49.49742" lon="6.36885">
        <ele>148.5</ele>
        <time>2026-05-19T16:32:20+02:00</time>
      </trkpt>
      <trkpt lat="49.49737" lon="6.36884">
        <ele>148.7002</ele>
        <time>2026-05-19T16:32:21+02:00</time>
      </trkpt>
      <trkpt lat="49.49731" lon="6.36883">
        <ele>148.7998</ele>
        <time>2026-05-19T16:32:22+02:00</time>
      </trkpt>
      <trkpt lat="49.49725" lon="6.36882">
        <ele>149</ele>
        <time>2026-05-19T16:32:23+02:00</time>
      </trkpt>
      <trkpt lat="49.49719" lon="6.36881">
        <ele>149</ele>
        <time>2026-05-19T16:32:24+02:00</time>
      </trkpt>
      <trkpt lat="49.49714" lon="6.3688">
        <ele>148.7002</ele>
        <time>2026-05-19T16:32:25+02:00</time>
      </trkpt>
      <trkpt lat="49.49708" lon="6.3688">
        <ele>148.60059</ele>
        <time>2026-05-19T16:32:26+02:00</time>
      </trkpt>
      <trkpt lat="49.49702" lon="6.3688">
        <ele>148.5</ele>
        <time>2026-05-19T16:32:27+02:00</time>
      </trkpt>
      <trkpt lat="49.49696" lon="6.36879">
        <ele>148.40039</ele>
        <time>2026-05-19T16:32:28+02:00</time>
      </trkpt>
      <trkpt lat="49.49691" lon="6.36879">
        <ele>148.2002</ele>
        <time>2026-05-19T16:32:29+02:00</time>
      </trkpt>
      <trkpt lat="49.49685" lon="6.36879">
        <ele>148</ele>
        <time>2026-05-19T16:32:30+02:00</time>
      </trkpt>
      <trkpt lat="49.49679" lon="6.36879">
        <ele>147.7002</ele>
        <time>2026-05-19T16:32:31+02:00</time>
      </trkpt>
      <trkpt lat="49.49674" lon="6.3688">
        <ele>147.40039</ele>
        <time>2026-05-19T16:32:32+02:00</time>
      </trkpt>
      <trkpt lat="49.49668" lon="6.3688">
        <ele>147.10059</ele>
        <time>2026-05-19T16:32:33+02:00</time>
      </trkpt>
      <trkpt lat="49.49662" lon="6.36881">
        <ele>147</ele>
        <time>2026-05-19T16:32:34+02:00</time>
      </trkpt>
      <trkpt lat="49.49656" lon="6.36882">
        <ele>146.5</ele>
        <time>2026-05-19T16:32:35+02:00</time>
      </trkpt>
      <trkpt lat="49.4965" lon="6.36882">
        <ele>146.2998</ele>
        <time>2026-05-19T16:32:36+02:00</time>
      </trkpt>
      <trkpt lat="49.49643" lon="6.36883">
        <ele>146.10059</ele>
        <time>2026-05-19T16:32:37+02:00</time>
      </trkpt>
      <trkpt lat="49.4964" lon="6.36884">
        <ele>146.10059</ele>
        <time>2026-05-19T16:32:38+02:00</time>
      </trkpt>
      <trkpt lat="49.49631" lon="6.36885">
        <ele>145.90039</ele>
        <time>2026-05-19T16:32:39+02:00</time>
      </trkpt>
      <trkpt lat="49.49625" lon="6.36886">
        <ele>145.7998</ele>
        <time>2026-05-19T16:32:40+02:00</time>
      </trkpt>
      <trkpt lat="49.49619" lon="6.36886">
        <ele>145.7998</ele>
        <time>2026-05-19T16:32:41+02:00</time>
      </trkpt>
      <trkpt lat="49.49613" lon="6.36887">
        <ele>145.7002</ele>
        <time>2026-05-19T16:32:42+02:00</time>
      </trkpt>
      <trkpt lat="49.49607" lon="6.36887">
        <ele>145.5</ele>
        <time>2026-05-19T16:32:43+02:00</time>
      </trkpt>
      <trkpt lat="49.496" lon="6.36888">
        <ele>144.90039</ele>
        <time>2026-05-19T16:32:44+02:00</time>
      </trkpt>
      <trkpt lat="49.49594" lon="6.36889">
        <ele>144.7998</ele>
        <time>2026-05-19T16:32:45+02:00</time>
      </trkpt>
      <trkpt lat="49.49588" lon="6.3689">
        <ele>145.2002</ele>
        <time>2026-05-19T16:32:46+02:00</time>
      </trkpt>
      <trkpt lat="49.49581" lon="6.36891">
        <ele>145.2002</ele>
        <time>2026-05-19T16:32:47+02:00</time>
      </trkpt>
      <trkpt lat="49.49575" lon="6.36891">
        <ele>145.2002</ele>
        <time>2026-05-19T16:32:48+02:00</time>
      </trkpt>
      <trkpt lat="49.49569" lon="6.36892">
        <ele>145.2998</ele>
        <time>2026-05-19T16:32:49+02:00</time>
      </trkpt>
      <trkpt lat="49.49562" lon="6.36892">
        <ele>145.2998</ele>
        <time>2026-05-19T16:32:50+02:00</time>
      </trkpt>
      <trkpt lat="49.49555" lon="6.36893">
        <ele>145.5</ele>
        <time>2026-05-19T16:32:51+02:00</time>
      </trkpt>
      <trkpt lat="49.49549" lon="6.36894">
        <ele>145.7002</ele>
        <time>2026-05-19T16:32:52+02:00</time>
      </trkpt>
      <trkpt lat="49.49542" lon="6.36895">
        <ele>145.7998</ele>
        <time>2026-05-19T16:32:53+02:00</time>
      </trkpt>
      <trkpt lat="49.49536" lon="6.36895">
        <ele>146</ele>
        <time>2026-05-19T16:32:54+02:00</time>
      </trkpt>
      <trkpt lat="49.49529" lon="6.36896">
        <ele>146.10059</ele>
        <time>2026-05-19T16:32:55+02:00</time>
      </trkpt>
      <trkpt lat="49.49526" lon="6.36896">
        <ele>146.2998</ele>
        <time>2026-05-19T16:32:56+02:00</time>
      </trkpt>
      <trkpt lat="49.49516" lon="6.36897">
        <ele>146.7002</ele>
        <time>2026-05-19T16:32:57+02:00</time>
      </trkpt>
      <trkpt lat="49.49509" lon="6.36898">
        <ele>146.90039</ele>
        <time>2026-05-19T16:32:58+02:00</time>
      </trkpt>
      <trkpt lat="49.49503" lon="6.36899">
        <ele>147.60059</ele>
        <time>2026-05-19T16:32:59+02:00</time>
      </trkpt>
      <trkpt lat="49.49496" lon="6.36899">
        <ele>147.7998</ele>
        <time>2026-05-19T16:33:00+02:00</time>
      </trkpt>
      <trkpt lat="49.4949" lon="6.369">
        <ele>147.90039</ele>
        <time>2026-05-19T16:33:01+02:00</time>
      </trkpt>
      <trkpt lat="49.49484" lon="6.36901">
        <ele>148</ele>
        <time>2026-05-19T16:33:02+02:00</time>
      </trkpt>
      <trkpt lat="49.49478" lon="6.36902">
        <ele>148.10059</ele>
        <time>2026-05-19T16:33:03+02:00</time>
      </trkpt>
      <trkpt lat="49.49472" lon="6.36903">
        <ele>148.10059</ele>
        <time>2026-05-19T16:33:04+02:00</time>
      </trkpt>
      <trkpt lat="49.49466" lon="6.36903">
        <ele>148.10059</ele>
        <time>2026-05-19T16:33:05+02:00</time>
      </trkpt>
      <trkpt lat="49.4946" lon="6.36904">
        <ele>148</ele>
        <time>2026-05-19T16:33:06+02:00</time>
      </trkpt>
      <trkpt lat="49.49453" lon="6.36905">
        <ele>147.90039</ele>
        <time>2026-05-19T16:33:07+02:00</time>
      </trkpt>
      <trkpt lat="49.49447" lon="6.36905">
        <ele>147.7002</ele>
        <time>2026-05-19T16:33:08+02:00</time>
      </trkpt>
      <trkpt lat="49.49441" lon="6.36906">
        <ele>147.60059</ele>
        <time>2026-05-19T16:33:09+02:00</time>
      </trkpt>
      <trkpt lat="49.49434" lon="6.36906">
        <ele>147.40039</ele>
        <time>2026-05-19T16:33:10+02:00</time>
      </trkpt>
      <trkpt lat="49.49428" lon="6.36907">
        <ele>148.2002</ele>
        <time>2026-05-19T16:33:11+02:00</time>
      </trkpt>
      <trkpt lat="49.49422" lon="6.36908">
        <ele>147.90039</ele>
        <time>2026-05-19T16:33:12+02:00</time>
      </trkpt>
      <trkpt lat="49.49419" lon="6.36908">
        <ele>147.90039</ele>
        <time>2026-05-19T16:33:13+02:00</time>
      </trkpt>
      <trkpt lat="49.49409" lon="6.36908">
        <ele>147.7002</ele>
        <time>2026-05-19T16:33:14+02:00</time>
      </trkpt>
      <trkpt lat="49.49404" lon="6.36908">
        <ele>147.7002</ele>
        <time>2026-05-19T16:33:15+02:00</time>
      </trkpt>
      <trkpt lat="49.49397" lon="6.36908">
        <ele>147.7002</ele>
        <time>2026-05-19T16:33:16+02:00</time>
      </trkpt>
      <trkpt lat="49.49391" lon="6.36908">
        <ele>147.60059</ele>
        <time>2026-05-19T16:33:17+02:00</time>
      </trkpt>
      <trkpt lat="49.49385" lon="6.36908">
        <ele>147.40039</ele>
        <time>2026-05-19T16:33:18+02:00</time>
      </trkpt>
      <trkpt lat="49.49379" lon="6.36909">
        <ele>147.2998</ele>
        <time>2026-05-19T16:33:19+02:00</time>
      </trkpt>
      <trkpt lat="49.49374" lon="6.36909">
        <ele>147.10059</ele>
        <time>2026-05-19T16:33:20+02:00</time>
      </trkpt>
      <trkpt lat="49.49368" lon="6.36908">
        <ele>146.90039</ele>
        <time>2026-05-19T16:33:21+02:00</time>
      </trkpt>
      <trkpt lat="49.49362" lon="6.36908">
        <ele>146.7002</ele>
        <time>2026-05-19T16:33:22+02:00</time>
      </trkpt>
      <trkpt lat="49.49356" lon="6.36908">
        <ele>146.5</ele>
        <time>2026-05-19T16:33:23+02:00</time>
      </trkpt>
      <trkpt lat="49.4935" lon="6.36908">
        <ele>146.2998</ele>
        <time>2026-05-19T16:33:24+02:00</time>
      </trkpt>
      <trkpt lat="49.49344" lon="6.36908">
        <ele>146</ele>
        <time>2026-05-19T16:33:25+02:00</time>
      </trkpt>
      <trkpt lat="49.49338" lon="6.36908">
        <ele>145.90039</ele>
        <time>2026-05-19T16:33:26+02:00</time>
      </trkpt>
      <trkpt lat="49.49333" lon="6.36908">
        <ele>145.90039</ele>
        <time>2026-05-19T16:33:27+02:00</time>
      </trkpt>
      <trkpt lat="49.49326" lon="6.36908">
        <ele>145.90039</ele>
        <time>2026-05-19T16:33:28+02:00</time>
      </trkpt>
      <trkpt lat="49.4932" lon="6.36908">
        <ele>146</ele>
        <time>2026-05-19T16:33:29+02:00</time>
      </trkpt>
      <trkpt lat="49.49314" lon="6.36908">
        <ele>146.10059</ele>
        <time>2026-05-19T16:33:30+02:00</time>
      </trkpt>
      <trkpt lat="49.49308" lon="6.36907">
        <ele>146.2998</ele>
        <time>2026-05-19T16:33:31+02:00</time>
      </trkpt>
      <trkpt lat="49.49302" lon="6.36907">
        <ele>146.60059</ele>
        <time>2026-05-19T16:33:32+02:00</time>
      </trkpt>
      <trkpt lat="49.49296" lon="6.36907">
        <ele>147</ele>
        <time>2026-05-19T16:33:33+02:00</time>
      </trkpt>
      <trkpt lat="49.4929" lon="6.36907">
        <ele>147.60059</ele>
        <time>2026-05-19T16:33:34+02:00</time>
      </trkpt>
      <trkpt lat="49.49288" lon="6.36907">
        <ele>148.2998</ele>
        <time>2026-05-19T16:33:35+02:00</time>
      </trkpt>
      <trkpt lat="49.49279" lon="6.36907">
        <ele>148.7998</ele>
        <time>2026-05-19T16:33:36+02:00</time>
      </trkpt>
      <trkpt lat="49.49273" lon="6.36908">
        <ele>149.2002</ele>
        <time>2026-05-19T16:33:37+02:00</time>
      </trkpt>
      <trkpt lat="49.49267" lon="6.36908">
        <ele>149.5</ele>
        <time>2026-05-19T16:33:38+02:00</time>
      </trkpt>
      <trkpt lat="49.49264" lon="6.36908">
        <ele>149.7002</ele>
        <time>2026-05-19T16:33:39+02:00</time>
      </trkpt>
      <trkpt lat="49.49256" lon="6.36908">
        <ele>149.90039</ele>
        <time>2026-05-19T16:33:40+02:00</time>
      </trkpt>
      <trkpt lat="49.49249" lon="6.36908">
        <ele>150</ele>
        <time>2026-05-19T16:33:41+02:00</time>
      </trkpt>
      <trkpt lat="49.49243" lon="6.36908">
        <ele>150.10059</ele>
        <time>2026-05-19T16:33:42+02:00</time>
      </trkpt>
      <trkpt lat="49.49237" lon="6.36909">
        <ele>150</ele>
        <time>2026-05-19T16:33:43+02:00</time>
      </trkpt>
      <trkpt lat="49.49231" lon="6.36909">
        <ele>150</ele>
        <time>2026-05-19T16:33:44+02:00</time>
      </trkpt>
      <trkpt lat="49.49225" lon="6.3691">
        <ele>149.90039</ele>
        <time>2026-05-19T16:33:45+02:00</time>
      </trkpt>
      <trkpt lat="49.49219" lon="6.3691">
        <ele>149.7998</ele>
        <time>2026-05-19T16:33:46+02:00</time>
      </trkpt>
      <trkpt lat="49.49212" lon="6.36911">
        <ele>149.60059</ele>
        <time>2026-05-19T16:33:47+02:00</time>
      </trkpt>
      <trkpt lat="49.49207" lon="6.36911">
        <ele>149.40039</ele>
        <time>2026-05-19T16:33:48+02:00</time>
      </trkpt>
      <trkpt lat="49.49201" lon="6.36912">
        <ele>149.10059</ele>
        <time>2026-05-19T16:33:49+02:00</time>
      </trkpt>
      <trkpt lat="49.49194" lon="6.36912">
        <ele>148.7998</ele>
        <time>2026-05-19T16:33:50+02:00</time>
      </trkpt>
      <trkpt lat="49.49188" lon="6.36913">
        <ele>148.2002</ele>
        <time>2026-05-19T16:33:51+02:00</time>
      </trkpt>
      <trkpt lat="49.49184" lon="6.36913">
        <ele>148.2002</ele>
        <time>2026-05-19T16:33:52+02:00</time>
      </trkpt>
      <trkpt lat="49.49174" lon="6.36914">
        <ele>147.7998</ele>
        <time>2026-05-19T16:33:53+02:00</time>
      </trkpt>
      <trkpt lat="49.49167" lon="6.36915">
        <ele>147.7002</ele>
        <time>2026-05-19T16:33:54+02:00</time>
      </trkpt>
      <trkpt lat="49.49161" lon="6.36917">
        <ele>148.40039</ele>
        <time>2026-05-19T16:33:55+02:00</time>
      </trkpt>
      <trkpt lat="49.49154" lon="6.36919">
        <ele>148.5</ele>
        <time>2026-05-19T16:33:56+02:00</time>
      </trkpt>
      <trkpt lat="49.49148" lon="6.36922">
        <ele>148.5</ele>
        <time>2026-05-19T16:33:57+02:00</time>
      </trkpt>
      <trkpt lat="49.49141" lon="6.36924">
        <ele>148.7998</ele>
        <time>2026-05-19T16:33:58+02:00</time>
      </trkpt>
      <trkpt lat="49.49135" lon="6.36926">
        <ele>148.10059</ele>
        <time>2026-05-19T16:33:59+02:00</time>
      </trkpt>
      <trkpt lat="49.49128" lon="6.36929">
        <ele>147.2002</ele>
        <time>2026-05-19T16:34:00+02:00</time>
      </trkpt>
      <trkpt lat="49.49122" lon="6.36932">
        <ele>146.5</ele>
        <time>2026-05-19T16:34:01+02:00</time>
      </trkpt>
      <trkpt lat="49.49116" lon="6.36935">
        <ele>147.2998</ele>
        <time>2026-05-19T16:34:02+02:00</time>
      </trkpt>
      <trkpt lat="49.4911" lon="6.36938">
        <ele>147.10059</ele>
        <time>2026-05-19T16:34:03+02:00</time>
      </trkpt>
      <trkpt lat="49.49104" lon="6.3694">
        <ele>146.7998</ele>
        <time>2026-05-19T16:34:04+02:00</time>
      </trkpt>
      <trkpt lat="49.49098" lon="6.36943">
        <ele>148.10059</ele>
        <time>2026-05-19T16:34:05+02:00</time>
      </trkpt>
      <trkpt lat="49.49093" lon="6.36946">
        <ele>148</ele>
        <time>2026-05-19T16:34:06+02:00</time>
      </trkpt>
      <trkpt lat="49.49087" lon="6.36948">
        <ele>147.90039</ele>
        <time>2026-05-19T16:34:07+02:00</time>
      </trkpt>
      <trkpt lat="49.49081" lon="6.36951">
        <ele>149.2002</ele>
        <time>2026-05-19T16:34:08+02:00</time>
      </trkpt>
      <trkpt lat="49.49075" lon="6.36954">
        <ele>149.10059</ele>
        <time>2026-05-19T16:34:09+02:00</time>
      </trkpt>
      <trkpt lat="49.49069" lon="6.36956">
        <ele>148.90039</ele>
        <time>2026-05-19T16:34:10+02:00</time>
      </trkpt>
      <trkpt lat="49.49063" lon="6.36959">
        <ele>149.7002</ele>
        <time>2026-05-19T16:34:11+02:00</time>
      </trkpt>
      <trkpt lat="49.49058" lon="6.36962">
        <ele>149.60059</ele>
        <time>2026-05-19T16:34:12+02:00</time>
      </trkpt>
      <trkpt lat="49.49051" lon="6.36964">
        <ele>149.7002</ele>
        <time>2026-05-19T16:34:13+02:00</time>
      </trkpt>
      <trkpt lat="49.49046" lon="6.36967">
        <ele>150.7998</ele>
        <time>2026-05-19T16:34:14+02:00</time>
      </trkpt>
      <trkpt lat="49.4904" lon="6.36969">
        <ele>151.10059</ele>
        <time>2026-05-19T16:34:15+02:00</time>
      </trkpt>
      <trkpt lat="49.49033" lon="6.36972">
        <ele>151.2998</ele>
        <time>2026-05-19T16:34:16+02:00</time>
      </trkpt>
      <trkpt lat="49.49027" lon="6.36975">
        <ele>151.60059</ele>
        <time>2026-05-19T16:34:17+02:00</time>
      </trkpt>
      <trkpt lat="49.49021" lon="6.36978">
        <ele>152.5</ele>
        <time>2026-05-19T16:34:18+02:00</time>
      </trkpt>
      <trkpt lat="49.49018" lon="6.36979">
        <ele>152.7002</ele>
        <time>2026-05-19T16:34:19+02:00</time>
      </trkpt>
      <trkpt lat="49.49009" lon="6.36983">
        <ele>152.90039</ele>
        <time>2026-05-19T16:34:20+02:00</time>
      </trkpt>
      <trkpt lat="49.49003" lon="6.36985">
        <ele>153.40039</ele>
        <time>2026-05-19T16:34:21+02:00</time>
      </trkpt>
      <trkpt lat="49.48997" lon="6.36988">
        <ele>153.2998</ele>
        <time>2026-05-19T16:34:22+02:00</time>
      </trkpt>
      <trkpt lat="49.48991" lon="6.36991">
        <ele>153</ele>
        <time>2026-05-19T16:34:23+02:00</time>
      </trkpt>
      <trkpt lat="49.48985" lon="6.36993">
        <ele>153.7998</ele>
        <time>2026-05-19T16:34:24+02:00</time>
      </trkpt>
      <trkpt lat="49.48979" lon="6.36996">
        <ele>153.60059</ele>
        <time>2026-05-19T16:34:25+02:00</time>
      </trkpt>
      <trkpt lat="49.48973" lon="6.36998">
        <ele>153.40039</ele>
        <time>2026-05-19T16:34:26+02:00</time>
      </trkpt>
      <trkpt lat="49.48967" lon="6.37001">
        <ele>153.10059</ele>
        <time>2026-05-19T16:34:27+02:00</time>
      </trkpt>
      <trkpt lat="49.48962" lon="6.37004">
        <ele>154.5</ele>
        <time>2026-05-19T16:34:28+02:00</time>
      </trkpt>
      <trkpt lat="49.48956" lon="6.37006">
        <ele>154.2002</ele>
        <time>2026-05-19T16:34:29+02:00</time>
      </trkpt>
      <trkpt lat="49.4895" lon="6.37009">
        <ele>153.90039</ele>
        <time>2026-05-19T16:34:30+02:00</time>
      </trkpt>
      <trkpt lat="49.48944" lon="6.37012">
        <ele>154.7002</ele>
        <time>2026-05-19T16:34:31+02:00</time>
      </trkpt>
      <trkpt lat="49.48938" lon="6.37015">
        <ele>154.2002</ele>
        <time>2026-05-19T16:34:32+02:00</time>
      </trkpt>
      <trkpt lat="49.48935" lon="6.37016">
        <ele>153.60059</ele>
        <time>2026-05-19T16:34:33+02:00</time>
      </trkpt>
      <trkpt lat="49.48926" lon="6.37019">
        <ele>154</ele>
        <time>2026-05-19T16:34:34+02:00</time>
      </trkpt>
      <trkpt lat="49.48919" lon="6.37022">
        <ele>152.7002</ele>
        <time>2026-05-19T16:34:35+02:00</time>
      </trkpt>
      <trkpt lat="49.48914" lon="6.37024">
        <ele>152</ele>
        <time>2026-05-19T16:34:36+02:00</time>
      </trkpt>
      <trkpt lat="49.48908" lon="6.37026">
        <ele>151.2002</ele>
        <time>2026-05-19T16:34:37+02:00</time>
      </trkpt>
      <trkpt lat="49.48902" lon="6.37029">
        <ele>151.60059</ele>
        <time>2026-05-19T16:34:38+02:00</time>
      </trkpt>
      <trkpt lat="49.48896" lon="6.37031">
        <ele>151</ele>
        <time>2026-05-19T16:34:39+02:00</time>
      </trkpt>
      <trkpt lat="49.4889" lon="6.37034">
        <ele>150.2998</ele>
        <time>2026-05-19T16:34:40+02:00</time>
      </trkpt>
      <trkpt lat="49.48884" lon="6.37037">
        <ele>150.60059</ele>
        <time>2026-05-19T16:34:41+02:00</time>
      </trkpt>
      <trkpt lat="49.48877" lon="6.37039">
        <ele>150</ele>
        <time>2026-05-19T16:34:42+02:00</time>
      </trkpt>
      <trkpt lat="49.48872" lon="6.37042">
        <ele>149.40039</ele>
        <time>2026-05-19T16:34:43+02:00</time>
      </trkpt>
      <trkpt lat="49.48866" lon="6.37044">
        <ele>149.7998</ele>
        <time>2026-05-19T16:34:44+02:00</time>
      </trkpt>
      <trkpt lat="49.48859" lon="6.37046">
        <ele>148.7002</ele>
        <time>2026-05-19T16:34:45+02:00</time>
      </trkpt>
      <trkpt lat="49.48853" lon="6.37049">
        <ele>148.2998</ele>
        <time>2026-05-19T16:34:46+02:00</time>
      </trkpt>
      <trkpt lat="49.48847" lon="6.37052">
        <ele>147.90039</ele>
        <time>2026-05-19T16:34:47+02:00</time>
      </trkpt>
      <trkpt lat="49.4884" lon="6.37054">
        <ele>148.60059</ele>
        <time>2026-05-19T16:34:48+02:00</time>
      </trkpt>
      <trkpt lat="49.48834" lon="6.37057">
        <ele>148.2002</ele>
        <time>2026-05-19T16:34:49+02:00</time>
      </trkpt>
      <trkpt lat="49.48827" lon="6.3706">
        <ele>147.7998</ele>
        <time>2026-05-19T16:34:50+02:00</time>
      </trkpt>
      <trkpt lat="49.48821" lon="6.37062">
        <ele>148.2998</ele>
        <time>2026-05-19T16:34:51+02:00</time>
      </trkpt>
      <trkpt lat="49.48815" lon="6.37064">
        <ele>147.90039</ele>
        <time>2026-05-19T16:34:52+02:00</time>
      </trkpt>
      <trkpt lat="49.48808" lon="6.37066">
        <ele>147.5</ele>
        <time>2026-05-19T16:34:53+02:00</time>
      </trkpt>
      <trkpt lat="49.48802" lon="6.37066">
        <ele>147.2998</ele>
        <time>2026-05-19T16:34:54+02:00</time>
      </trkpt>
      <trkpt lat="49.48795" lon="6.37067">
        <ele>147.2002</ele>
        <time>2026-05-19T16:34:55+02:00</time>
      </trkpt>
      <trkpt lat="49.48789" lon="6.37066">
        <ele>147.10059</ele>
        <time>2026-05-19T16:34:56+02:00</time>
      </trkpt>
      <trkpt lat="49.48783" lon="6.37064">
        <ele>147.10059</ele>
        <time>2026-05-19T16:34:57+02:00</time>
      </trkpt>
      <trkpt lat="49.4878" lon="6.37063">
        <ele>147.10059</ele>
        <time>2026-05-19T16:34:58+02:00</time>
      </trkpt>
      <trkpt lat="49.4877" lon="6.37058">
        <ele>146.90039</ele>
        <time>2026-05-19T16:34:59+02:00</time>
      </trkpt>
      <trkpt lat="49.48763" lon="6.37055">
        <ele>146.90039</ele>
        <time>2026-05-19T16:35:00+02:00</time>
      </trkpt>
      <trkpt lat="49.48757" lon="6.3705">
        <ele>146.7002</ele>
        <time>2026-05-19T16:35:01+02:00</time>
      </trkpt>
      <trkpt lat="49.48751" lon="6.37046">
        <ele>146.7002</ele>
        <time>2026-05-19T16:35:02+02:00</time>
      </trkpt>
      <trkpt lat="49.48745" lon="6.37042">
        <ele>146.5</ele>
        <time>2026-05-19T16:35:03+02:00</time>
      </trkpt>
      <trkpt lat="49.48739" lon="6.37037">
        <ele>146.5</ele>
        <time>2026-05-19T16:35:04+02:00</time>
      </trkpt>
      <trkpt lat="49.48733" lon="6.37032">
        <ele>146.2998</ele>
        <time>2026-05-19T16:35:05+02:00</time>
      </trkpt>
      <trkpt lat="49.48727" lon="6.37027">
        <ele>146.2998</ele>
        <time>2026-05-19T16:35:06+02:00</time>
      </trkpt>
      <trkpt lat="49.48721" lon="6.37023">
        <ele>146.10059</ele>
        <time>2026-05-19T16:35:07+02:00</time>
      </trkpt>
      <trkpt lat="49.48716" lon="6.37018">
        <ele>146</ele>
        <time>2026-05-19T16:35:08+02:00</time>
      </trkpt>
      <trkpt lat="49.48711" lon="6.37014">
        <ele>146</ele>
        <time>2026-05-19T16:35:09+02:00</time>
      </trkpt>
      <trkpt lat="49.48705" lon="6.37009">
        <ele>146</ele>
        <time>2026-05-19T16:35:10+02:00</time>
      </trkpt>
      <trkpt lat="49.48702" lon="6.37007">
        <ele>146</ele>
        <time>2026-05-19T16:35:11+02:00</time>
      </trkpt>
      <trkpt lat="49.48694" lon="6.37002">
        <ele>145.90039</ele>
        <time>2026-05-19T16:35:12+02:00</time>
      </trkpt>
      <trkpt lat="49.48687" lon="6.36999">
        <ele>145.90039</ele>
        <time>2026-05-19T16:35:13+02:00</time>
      </trkpt>
      <trkpt lat="49.48682" lon="6.36996">
        <ele>145.7998</ele>
        <time>2026-05-19T16:35:14+02:00</time>
      </trkpt>
      <trkpt lat="49.48676" lon="6.36993">
        <ele>145.7998</ele>
        <time>2026-05-19T16:35:15+02:00</time>
      </trkpt>
      <trkpt lat="49.4867" lon="6.3699">
        <ele>145.5</ele>
        <time>2026-05-19T16:35:16+02:00</time>
      </trkpt>
      <trkpt lat="49.48664" lon="6.36988">
        <ele>145.5</ele>
        <time>2026-05-19T16:35:17+02:00</time>
      </trkpt>
      <trkpt lat="49.48658" lon="6.36986">
        <ele>145.40039</ele>
        <time>2026-05-19T16:35:18+02:00</time>
      </trkpt>
      <trkpt lat="49.48652" lon="6.36984">
        <ele>145.40039</ele>
        <time>2026-05-19T16:35:19+02:00</time>
      </trkpt>
      <trkpt lat="49.48646" lon="6.36981">
        <ele>145.2998</ele>
        <time>2026-05-19T16:35:20+02:00</time>
      </trkpt>
      <trkpt lat="49.4864" lon="6.36979">
        <ele>145.40039</ele>
        <time>2026-05-19T16:35:21+02:00</time>
      </trkpt>
      <trkpt lat="49.48634" lon="6.36977">
        <ele>145.40039</ele>
        <time>2026-05-19T16:35:22+02:00</time>
      </trkpt>
      <trkpt lat="49.48628" lon="6.36975">
        <ele>145.2998</ele>
        <time>2026-05-19T16:35:23+02:00</time>
      </trkpt>
      <trkpt lat="49.48622" lon="6.36973">
        <ele>145.2998</ele>
        <time>2026-05-19T16:35:24+02:00</time>
      </trkpt>
      <trkpt lat="49.48616" lon="6.36972">
        <ele>145.2998</ele>
        <time>2026-05-19T16:35:25+02:00</time>
      </trkpt>
      <trkpt lat="49.4861" lon="6.3697">
        <ele>145.2002</ele>
        <time>2026-05-19T16:35:26+02:00</time>
      </trkpt>
      <trkpt lat="49.48603" lon="6.36969">
        <ele>145.2002</ele>
        <time>2026-05-19T16:35:27+02:00</time>
      </trkpt>
      <trkpt lat="49.48597" lon="6.36968">
        <ele>145</ele>
        <time>2026-05-19T16:35:28+02:00</time>
      </trkpt>
      <trkpt lat="49.48591" lon="6.36966">
        <ele>144.7002</ele>
        <time>2026-05-19T16:35:29+02:00</time>
      </trkpt>
      <trkpt lat="49.48585" lon="6.36965">
        <ele>144.60059</ele>
        <time>2026-05-19T16:35:30+02:00</time>
      </trkpt>
      <trkpt lat="49.48579" lon="6.36964">
        <ele>144.5</ele>
        <time>2026-05-19T16:35:31+02:00</time>
      </trkpt>
      <trkpt lat="49.48573" lon="6.36963">
        <ele>144.5</ele>
        <time>2026-05-19T16:35:32+02:00</time>
      </trkpt>
      <trkpt lat="49.48567" lon="6.36962">
        <ele>144.40039</ele>
        <time>2026-05-19T16:35:33+02:00</time>
      </trkpt>
      <trkpt lat="49.4856" lon="6.3696">
        <ele>144.40039</ele>
        <time>2026-05-19T16:35:34+02:00</time>
      </trkpt>
      <trkpt lat="49.48555" lon="6.36958">
        <ele>144</ele>
        <time>2026-05-19T16:35:35+02:00</time>
      </trkpt>
      <trkpt lat="49.48549" lon="6.36957">
        <ele>143.90039</ele>
        <time>2026-05-19T16:35:36+02:00</time>
      </trkpt>
      <trkpt lat="49.48543" lon="6.36955">
        <ele>143.7998</ele>
        <time>2026-05-19T16:35:37+02:00</time>
      </trkpt>
      <trkpt lat="49.48536" lon="6.36953">
        <ele>143.7998</ele>
        <time>2026-05-19T16:35:38+02:00</time>
      </trkpt>
      <trkpt lat="49.4853" lon="6.36952">
        <ele>143.7002</ele>
        <time>2026-05-19T16:35:39+02:00</time>
      </trkpt>
      <trkpt lat="49.48524" lon="6.36951">
        <ele>143.7002</ele>
        <time>2026-05-19T16:35:40+02:00</time>
      </trkpt>
      <trkpt lat="49.48518" lon="6.36949">
        <ele>143.2998</ele>
        <time>2026-05-19T16:35:41+02:00</time>
      </trkpt>
      <trkpt lat="49.48512" lon="6.36947">
        <ele>143.2998</ele>
        <time>2026-05-19T16:35:42+02:00</time>
      </trkpt>
      <trkpt lat="49.48506" lon="6.36946">
        <ele>143.2998</ele>
        <time>2026-05-19T16:35:43+02:00</time>
      </trkpt>
      <trkpt lat="49.485" lon="6.36944">
        <ele>143.2998</ele>
        <time>2026-05-19T16:35:44+02:00</time>
      </trkpt>
      <trkpt lat="49.48494" lon="6.36943">
        <ele>143.40039</ele>
        <time>2026-05-19T16:35:45+02:00</time>
      </trkpt>
      <trkpt lat="49.48488" lon="6.36941">
        <ele>143.5</ele>
        <time>2026-05-19T16:35:46+02:00</time>
      </trkpt>
      <trkpt lat="49.48481" lon="6.3694">
        <ele>143.2002</ele>
        <time>2026-05-19T16:35:47+02:00</time>
      </trkpt>
      <trkpt lat="49.48475" lon="6.36938">
        <ele>143.2998</ele>
        <time>2026-05-19T16:35:48+02:00</time>
      </trkpt>
      <trkpt lat="49.48468" lon="6.36936">
        <ele>143.60059</ele>
        <time>2026-05-19T16:35:49+02:00</time>
      </trkpt>
      <trkpt lat="49.48462" lon="6.36935">
        <ele>143.7998</ele>
        <time>2026-05-19T16:35:50+02:00</time>
      </trkpt>
      <trkpt lat="49.48456" lon="6.36933">
        <ele>144</ele>
        <time>2026-05-19T16:35:51+02:00</time>
      </trkpt>
      <trkpt lat="49.4845" lon="6.36931">
        <ele>143.60059</ele>
        <time>2026-05-19T16:35:52+02:00</time>
      </trkpt>
      <trkpt lat="49.48444" lon="6.3693">
        <ele>143.7002</ele>
        <time>2026-05-19T16:35:53+02:00</time>
      </trkpt>
      <trkpt lat="49.48438" lon="6.36928">
        <ele>143.7998</ele>
        <time>2026-05-19T16:35:54+02:00</time>
      </trkpt>
      <trkpt lat="49.48432" lon="6.36927">
        <ele>144</ele>
        <time>2026-05-19T16:35:55+02:00</time>
      </trkpt>
      <trkpt lat="49.48425" lon="6.36925">
        <ele>144.10059</ele>
        <time>2026-05-19T16:35:56+02:00</time>
      </trkpt>
      <trkpt lat="49.4842" lon="6.36923">
        <ele>143.5</ele>
        <time>2026-05-19T16:35:57+02:00</time>
      </trkpt>
      <trkpt lat="49.48414" lon="6.36921">
        <ele>143.7002</ele>
        <time>2026-05-19T16:35:58+02:00</time>
      </trkpt>
      <trkpt lat="49.48407" lon="6.3692">
        <ele>144.10059</ele>
        <time>2026-05-19T16:35:59+02:00</time>
      </trkpt>
      <trkpt lat="49.48401" lon="6.36918">
        <ele>144.2002</ele>
        <time>2026-05-19T16:36:00+02:00</time>
      </trkpt>
      <trkpt lat="49.48395" lon="6.36917">
        <ele>144.5</ele>
        <time>2026-05-19T16:36:01+02:00</time>
      </trkpt>
      <trkpt lat="49.48389" lon="6.36915">
        <ele>143.90039</ele>
        <time>2026-05-19T16:36:02+02:00</time>
      </trkpt>
      <trkpt lat="49.48382" lon="6.36914">
        <ele>144.10059</ele>
        <time>2026-05-19T16:36:03+02:00</time>
      </trkpt>
      <trkpt lat="49.48376" lon="6.36912">
        <ele>144.2998</ele>
        <time>2026-05-19T16:36:04+02:00</time>
      </trkpt>
      <trkpt lat="49.4837" lon="6.36911">
        <ele>144.5</ele>
        <time>2026-05-19T16:36:05+02:00</time>
      </trkpt>
      <trkpt lat="49.48364" lon="6.3691">
        <ele>144.7002</ele>
        <time>2026-05-19T16:36:06+02:00</time>
      </trkpt>
      <trkpt lat="49.48358" lon="6.36908">
        <ele>144.90039</ele>
        <time>2026-05-19T16:36:07+02:00</time>
      </trkpt>
      <trkpt lat="49.48351" lon="6.36907">
        <ele>145.2998</ele>
        <time>2026-05-19T16:36:08+02:00</time>
      </trkpt>
      <trkpt lat="49.48345" lon="6.36906">
        <ele>144.90039</ele>
        <time>2026-05-19T16:36:09+02:00</time>
      </trkpt>
      <trkpt lat="49.48339" lon="6.36905">
        <ele>145.10059</ele>
        <time>2026-05-19T16:36:10+02:00</time>
      </trkpt>
      <trkpt lat="49.48332" lon="6.36904">
        <ele>145.2998</ele>
        <time>2026-05-19T16:36:11+02:00</time>
      </trkpt>
      <trkpt lat="49.48326" lon="6.36903">
        <ele>145.2998</ele>
        <time>2026-05-19T16:36:12+02:00</time>
      </trkpt>
      <trkpt lat="49.4832" lon="6.36902">
        <ele>145.40039</ele>
        <time>2026-05-19T16:36:13+02:00</time>
      </trkpt>
      <trkpt lat="49.48314" lon="6.36902">
        <ele>145.40039</ele>
        <time>2026-05-19T16:36:14+02:00</time>
      </trkpt>
      <trkpt lat="49.48308" lon="6.36901">
        <ele>145.40039</ele>
        <time>2026-05-19T16:36:15+02:00</time>
      </trkpt>
      <trkpt lat="49.48301" lon="6.369">
        <ele>145.5</ele>
        <time>2026-05-19T16:36:16+02:00</time>
      </trkpt>
      <trkpt lat="49.48295" lon="6.369">
        <ele>145.5</ele>
        <time>2026-05-19T16:36:17+02:00</time>
      </trkpt>
      <trkpt lat="49.48289" lon="6.369">
        <ele>145.5</ele>
        <time>2026-05-19T16:36:18+02:00</time>
      </trkpt>
      <trkpt lat="49.48284" lon="6.36899">
        <ele>145.5</ele>
        <time>2026-05-19T16:36:19+02:00</time>
      </trkpt>
      <trkpt lat="49.48278" lon="6.36898">
        <ele>145.2002</ele>
        <time>2026-05-19T16:36:20+02:00</time>
      </trkpt>
      <trkpt lat="49.48273" lon="6.36897">
        <ele>145.2002</ele>
        <time>2026-05-19T16:36:21+02:00</time>
      </trkpt>
      <trkpt lat="49.48267" lon="6.36897">
        <ele>145.2998</ele>
        <time>2026-05-19T16:36:22+02:00</time>
      </trkpt>
      <trkpt lat="49.48261" lon="6.36897">
        <ele>145.2998</ele>
        <time>2026-05-19T16:36:23+02:00</time>
      </trkpt>
      <trkpt lat="49.48256" lon="6.36896">
        <ele>145.40039</ele>
        <time>2026-05-19T16:36:24+02:00</time>
      </trkpt>
      <trkpt lat="49.4825" lon="6.36896">
        <ele>145.40039</ele>
        <time>2026-05-19T16:36:25+02:00</time>
      </trkpt>
      <trkpt lat="49.48244" lon="6.36896">
        <ele>145.40039</ele>
        <time>2026-05-19T16:36:26+02:00</time>
      </trkpt>
      <trkpt lat="49.48241" lon="6.36896">
        <ele>145.40039</ele>
        <time>2026-05-19T16:36:27+02:00</time>
      </trkpt>
      <trkpt lat="49.48232" lon="6.36897">
        <ele>145.40039</ele>
        <time>2026-05-19T16:36:28+02:00</time>
      </trkpt>
      <trkpt lat="49.48227" lon="6.36897">
        <ele>145.40039</ele>
        <time>2026-05-19T16:36:29+02:00</time>
      </trkpt>
      <trkpt lat="49.48221" lon="6.36897">
        <ele>145.40039</ele>
        <time>2026-05-19T16:36:30+02:00</time>
      </trkpt>
      <trkpt lat="49.48216" lon="6.36897">
        <ele>145.40039</ele>
        <time>2026-05-19T16:36:31+02:00</time>
      </trkpt>
      <trkpt lat="49.48213" lon="6.36897">
        <ele>145.40039</ele>
        <time>2026-05-19T16:36:32+02:00</time>
      </trkpt>
      <trkpt lat="49.48204" lon="6.36897">
        <ele>145.2998</ele>
        <time>2026-05-19T16:36:33+02:00</time>
      </trkpt>
      <trkpt lat="49.48199" lon="6.36897">
        <ele>145.2002</ele>
        <time>2026-05-19T16:36:34+02:00</time>
      </trkpt>
      <trkpt lat="49.48193" lon="6.36897">
        <ele>145.10059</ele>
        <time>2026-05-19T16:36:35+02:00</time>
      </trkpt>
      <trkpt lat="49.48187" lon="6.36898">
        <ele>145.10059</ele>
        <time>2026-05-19T16:36:36+02:00</time>
      </trkpt>
      <trkpt lat="49.48181" lon="6.36898">
        <ele>145</ele>
        <time>2026-05-19T16:36:37+02:00</time>
      </trkpt>
      <trkpt lat="49.48176" lon="6.36898">
        <ele>144.90039</ele>
        <time>2026-05-19T16:36:38+02:00</time>
      </trkpt>
      <trkpt lat="49.48169" lon="6.36898">
        <ele>144.7998</ele>
        <time>2026-05-19T16:36:39+02:00</time>
      </trkpt>
      <trkpt lat="49.48163" lon="6.36898">
        <ele>144.7002</ele>
        <time>2026-05-19T16:36:40+02:00</time>
      </trkpt>
      <trkpt lat="49.48157" lon="6.36898">
        <ele>144.5</ele>
        <time>2026-05-19T16:36:41+02:00</time>
      </trkpt>
      <trkpt lat="49.48151" lon="6.36898">
        <ele>144.40039</ele>
        <time>2026-05-19T16:36:42+02:00</time>
      </trkpt>
      <trkpt lat="49.48145" lon="6.36898">
        <ele>144.2002</ele>
        <time>2026-05-19T16:36:43+02:00</time>
      </trkpt>
      <trkpt lat="49.48139" lon="6.36898">
        <ele>144.10059</ele>
        <time>2026-05-19T16:36:44+02:00</time>
      </trkpt>
      <trkpt lat="49.48133" lon="6.36897">
        <ele>144</ele>
        <time>2026-05-19T16:36:45+02:00</time>
      </trkpt>
      <trkpt lat="49.48127" lon="6.36896">
        <ele>144</ele>
        <time>2026-05-19T16:36:46+02:00</time>
      </trkpt>
      <trkpt lat="49.48121" lon="6.36896">
        <ele>144</ele>
        <time>2026-05-19T16:36:47+02:00</time>
      </trkpt>
      <trkpt lat="49.48115" lon="6.36896">
        <ele>144.10059</ele>
        <time>2026-05-19T16:36:48+02:00</time>
      </trkpt>
      <trkpt lat="49.48109" lon="6.36896">
        <ele>144.5</ele>
        <time>2026-05-19T16:36:49+02:00</time>
      </trkpt>
      <trkpt lat="49.48103" lon="6.36896">
        <ele>145.2002</ele>
        <time>2026-05-19T16:36:50+02:00</time>
      </trkpt>
      <trkpt lat="49.48097" lon="6.36895">
        <ele>146</ele>
        <time>2026-05-19T16:36:51+02:00</time>
      </trkpt>
      <trkpt lat="49.4809" lon="6.36895">
        <ele>146.90039</ele>
        <time>2026-05-19T16:36:52+02:00</time>
      </trkpt>
      <trkpt lat="49.48084" lon="6.36895">
        <ele>148.7002</ele>
        <time>2026-05-19T16:36:53+02:00</time>
      </trkpt>
      <trkpt lat="49.48078" lon="6.36895">
        <ele>149.5</ele>
        <time>2026-05-19T16:36:54+02:00</time>
      </trkpt>
      <trkpt lat="49.48071" lon="6.36895">
        <ele>150.40039</ele>
        <time>2026-05-19T16:36:55+02:00</time>
      </trkpt>
      <trkpt lat="49.48065" lon="6.36895">
        <ele>151.2002</ele>
        <time>2026-05-19T16:36:56+02:00</time>
      </trkpt>
      <trkpt lat="49.48059" lon="6.36895">
        <ele>151.90039</ele>
        <time>2026-05-19T16:36:57+02:00</time>
      </trkpt>
      <trkpt lat="49.48053" lon="6.36895">
        <ele>152.60059</ele>
        <time>2026-05-19T16:36:58+02:00</time>
      </trkpt>
      <trkpt lat="49.48047" lon="6.36895">
        <ele>153.10059</ele>
        <time>2026-05-19T16:36:59+02:00</time>
      </trkpt>
      <trkpt lat="49.48041" lon="6.36895">
        <ele>153.60059</ele>
        <time>2026-05-19T16:37:00+02:00</time>
      </trkpt>
      <trkpt lat="49.48035" lon="6.36895">
        <ele>154.10059</ele>
        <time>2026-05-19T16:37:01+02:00</time>
      </trkpt>
      <trkpt lat="49.48029" lon="6.36895">
        <ele>154.40039</ele>
        <time>2026-05-19T16:37:02+02:00</time>
      </trkpt>
      <trkpt lat="49.48023" lon="6.36895">
        <ele>154.7998</ele>
        <time>2026-05-19T16:37:03+02:00</time>
      </trkpt>
      <trkpt lat="49.48018" lon="6.36894">
        <ele>155</ele>
        <time>2026-05-19T16:37:04+02:00</time>
      </trkpt>
      <trkpt lat="49.48012" lon="6.36894">
        <ele>155.10059</ele>
        <time>2026-05-19T16:37:05+02:00</time>
      </trkpt>
      <trkpt lat="49.48006" lon="6.36893">
        <ele>155.2002</ele>
        <time>2026-05-19T16:37:06+02:00</time>
      </trkpt>
      <trkpt lat="49.48" lon="6.36893">
        <ele>155.2002</ele>
        <time>2026-05-19T16:37:07+02:00</time>
      </trkpt>
      <trkpt lat="49.47995" lon="6.36892">
        <ele>155.2002</ele>
        <time>2026-05-19T16:37:08+02:00</time>
      </trkpt>
      <trkpt lat="49.47989" lon="6.36892">
        <ele>155.2002</ele>
        <time>2026-05-19T16:37:09+02:00</time>
      </trkpt>
      <trkpt lat="49.47984" lon="6.36892">
        <ele>155.2002</ele>
        <time>2026-05-19T16:37:10+02:00</time>
      </trkpt>
      <trkpt lat="49.47978" lon="6.36892">
        <ele>155.2002</ele>
        <time>2026-05-19T16:37:11+02:00</time>
      </trkpt>
      <trkpt lat="49.47973" lon="6.36892">
        <ele>155.2002</ele>
        <time>2026-05-19T16:37:12+02:00</time>
      </trkpt>
      <trkpt lat="49.47967" lon="6.36891">
        <ele>155.2002</ele>
        <time>2026-05-19T16:37:13+02:00</time>
      </trkpt>
      <trkpt lat="49.47961" lon="6.36891">
        <ele>155.2002</ele>
        <time>2026-05-19T16:37:14+02:00</time>
      </trkpt>
      <trkpt lat="49.47955" lon="6.3689">
        <ele>155.2998</ele>
        <time>2026-05-19T16:37:15+02:00</time>
      </trkpt>
      <trkpt lat="49.47949" lon="6.36889">
        <ele>155.2998</ele>
        <time>2026-05-19T16:37:16+02:00</time>
      </trkpt>
      <trkpt lat="49.47942" lon="6.36888">
        <ele>155.40039</ele>
        <time>2026-05-19T16:37:17+02:00</time>
      </trkpt>
      <trkpt lat="49.47936" lon="6.36887">
        <ele>155.60059</ele>
        <time>2026-05-19T16:37:18+02:00</time>
      </trkpt>
      <trkpt lat="49.47929" lon="6.36887">
        <ele>155.7998</ele>
        <time>2026-05-19T16:37:19+02:00</time>
      </trkpt>
      <trkpt lat="49.47923" lon="6.36886">
        <ele>156</ele>
        <time>2026-05-19T16:37:20+02:00</time>
      </trkpt>
      <trkpt lat="49.47917" lon="6.36885">
        <ele>156.40039</ele>
        <time>2026-05-19T16:37:21+02:00</time>
      </trkpt>
      <trkpt lat="49.4791" lon="6.36884">
        <ele>157.10059</ele>
        <time>2026-05-19T16:37:22+02:00</time>
      </trkpt>
      <trkpt lat="49.47904" lon="6.36883">
        <ele>157.40039</ele>
        <time>2026-05-19T16:37:23+02:00</time>
      </trkpt>
      <trkpt lat="49.47901" lon="6.36882">
        <ele>157.40039</ele>
        <time>2026-05-19T16:37:24+02:00</time>
      </trkpt>
      <trkpt lat="49.47891" lon="6.3688">
        <ele>156.7002</ele>
        <time>2026-05-19T16:37:25+02:00</time>
      </trkpt>
      <trkpt lat="49.47885" lon="6.36879">
        <ele>156.60059</ele>
        <time>2026-05-19T16:37:26+02:00</time>
      </trkpt>
      <trkpt lat="49.47878" lon="6.36878">
        <ele>156.2998</ele>
        <time>2026-05-19T16:37:27+02:00</time>
      </trkpt>
      <trkpt lat="49.47873" lon="6.36876">
        <ele>155.7002</ele>
        <time>2026-05-19T16:37:28+02:00</time>
      </trkpt>
      <trkpt lat="49.47867" lon="6.36875">
        <ele>155</ele>
        <time>2026-05-19T16:37:29+02:00</time>
      </trkpt>
      <trkpt lat="49.4786" lon="6.36873">
        <ele>153.60059</ele>
        <time>2026-05-19T16:37:30+02:00</time>
      </trkpt>
      <trkpt lat="49.47854" lon="6.36872">
        <ele>151.90039</ele>
        <time>2026-05-19T16:37:31+02:00</time>
      </trkpt>
      <trkpt lat="49.47848" lon="6.36871">
        <ele>151.40039</ele>
        <time>2026-05-19T16:37:32+02:00</time>
      </trkpt>
      <trkpt lat="49.47842" lon="6.36871">
        <ele>150.90039</ele>
        <time>2026-05-19T16:37:33+02:00</time>
      </trkpt>
      <trkpt lat="49.47836" lon="6.3687">
        <ele>150.60059</ele>
        <time>2026-05-19T16:37:34+02:00</time>
      </trkpt>
      <trkpt lat="49.4783" lon="6.36869">
        <ele>150.2002</ele>
        <time>2026-05-19T16:37:35+02:00</time>
      </trkpt>
      <trkpt lat="49.47824" lon="6.36869">
        <ele>150</ele>
        <time>2026-05-19T16:37:36+02:00</time>
      </trkpt>
      <trkpt lat="49.47818" lon="6.36869">
        <ele>149.7998</ele>
        <time>2026-05-19T16:37:37+02:00</time>
      </trkpt>
      <trkpt lat="49.47812" lon="6.36869">
        <ele>149.7002</ele>
        <time>2026-05-19T16:37:38+02:00</time>
      </trkpt>
      <trkpt lat="49.47806" lon="6.36869">
        <ele>149.60059</ele>
        <time>2026-05-19T16:37:39+02:00</time>
      </trkpt>
      <trkpt lat="49.47799" lon="6.36869">
        <ele>149.2998</ele>
        <time>2026-05-19T16:37:40+02:00</time>
      </trkpt>
      <trkpt lat="49.47793" lon="6.36869">
        <ele>149.2002</ele>
        <time>2026-05-19T16:37:41+02:00</time>
      </trkpt>
      <trkpt lat="49.4779" lon="6.36869">
        <ele>149.2002</ele>
        <time>2026-05-19T16:37:42+02:00</time>
      </trkpt>
      <trkpt lat="49.47781" lon="6.36869">
        <ele>148.90039</ele>
        <time>2026-05-19T16:37:43+02:00</time>
      </trkpt>
      <trkpt lat="49.47774" lon="6.36869">
        <ele>148.7998</ele>
        <time>2026-05-19T16:37:44+02:00</time>
      </trkpt>
      <trkpt lat="49.47768" lon="6.36868">
        <ele>148.60059</ele>
        <time>2026-05-19T16:37:45+02:00</time>
      </trkpt>
      <trkpt lat="49.47765" lon="6.36868">
        <ele>148.5</ele>
        <time>2026-05-19T16:37:46+02:00</time>
      </trkpt>
      <trkpt lat="49.47756" lon="6.36868">
        <ele>148.5</ele>
        <time>2026-05-19T16:37:47+02:00</time>
      </trkpt>
      <trkpt lat="49.47749" lon="6.36869">
        <ele>148.40039</ele>
        <time>2026-05-19T16:37:48+02:00</time>
      </trkpt>
      <trkpt lat="49.47743" lon="6.3687">
        <ele>148.40039</ele>
        <time>2026-05-19T16:37:49+02:00</time>
      </trkpt>
      <trkpt lat="49.47736" lon="6.3687">
        <ele>148.40039</ele>
        <time>2026-05-19T16:37:50+02:00</time>
      </trkpt>
      <trkpt lat="49.47731" lon="6.36871">
        <ele>148.40039</ele>
        <time>2026-05-19T16:37:51+02:00</time>
      </trkpt>
      <trkpt lat="49.47724" lon="6.36871">
        <ele>148.40039</ele>
        <time>2026-05-19T16:37:52+02:00</time>
      </trkpt>
      <trkpt lat="49.47719" lon="6.36872">
        <ele>148.40039</ele>
        <time>2026-05-19T16:37:53+02:00</time>
      </trkpt>
      <trkpt lat="49.47712" lon="6.36872">
        <ele>148.40039</ele>
        <time>2026-05-19T16:37:54+02:00</time>
      </trkpt>
      <trkpt lat="49.47709" lon="6.36872">
        <ele>148.40039</ele>
        <time>2026-05-19T16:37:55+02:00</time>
      </trkpt>
      <trkpt lat="49.477" lon="6.36873">
        <ele>149</ele>
        <time>2026-05-19T16:37:56+02:00</time>
      </trkpt>
      <trkpt lat="49.47695" lon="6.36873">
        <ele>149.10059</ele>
        <time>2026-05-19T16:37:57+02:00</time>
      </trkpt>
      <trkpt lat="49.47688" lon="6.36874">
        <ele>149.2002</ele>
        <time>2026-05-19T16:37:58+02:00</time>
      </trkpt>
      <trkpt lat="49.47683" lon="6.36874">
        <ele>149.2002</ele>
        <time>2026-05-19T16:37:59+02:00</time>
      </trkpt>
      <trkpt lat="49.47677" lon="6.36874">
        <ele>149.40039</ele>
        <time>2026-05-19T16:38:00+02:00</time>
      </trkpt>
      <trkpt lat="49.47671" lon="6.36874">
        <ele>149.60059</ele>
        <time>2026-05-19T16:38:01+02:00</time>
      </trkpt>
      <trkpt lat="49.47666" lon="6.36874">
        <ele>149.60059</ele>
        <time>2026-05-19T16:38:02+02:00</time>
      </trkpt>
      <trkpt lat="49.47661" lon="6.36874">
        <ele>149.7002</ele>
        <time>2026-05-19T16:38:03+02:00</time>
      </trkpt>
      <trkpt lat="49.47656" lon="6.36874">
        <ele>149.90039</ele>
        <time>2026-05-19T16:38:04+02:00</time>
      </trkpt>
      <trkpt lat="49.47651" lon="6.36874">
        <ele>150</ele>
        <time>2026-05-19T16:38:05+02:00</time>
      </trkpt>
      <trkpt lat="49.47646" lon="6.36874">
        <ele>150.10059</ele>
        <time>2026-05-19T16:38:06+02:00</time>
      </trkpt>
      <trkpt lat="49.47641" lon="6.36874">
        <ele>150.2002</ele>
        <time>2026-05-19T16:38:07+02:00</time>
      </trkpt>
      <trkpt lat="49.47636" lon="6.36873">
        <ele>150.2998</ele>
        <time>2026-05-19T16:38:08+02:00</time>
      </trkpt>
      <trkpt lat="49.47631" lon="6.36873">
        <ele>150.40039</ele>
        <time>2026-05-19T16:38:09+02:00</time>
      </trkpt>
      <trkpt lat="49.47627" lon="6.36872">
        <ele>149.60059</ele>
        <time>2026-05-19T16:38:10+02:00</time>
      </trkpt>
      <trkpt lat="49.47622" lon="6.36871">
        <ele>149.60059</ele>
        <time>2026-05-19T16:38:11+02:00</time>
      </trkpt>
      <trkpt lat="49.47618" lon="6.36871">
        <ele>149.60059</ele>
        <time>2026-05-19T16:38:12+02:00</time>
      </trkpt>
      <trkpt lat="49.47614" lon="6.36871">
        <ele>149.5</ele>
        <time>2026-05-19T16:38:13+02:00</time>
      </trkpt>
      <trkpt lat="49.47609" lon="6.36871">
        <ele>149.40039</ele>
        <time>2026-05-19T16:38:14+02:00</time>
      </trkpt>
      <trkpt lat="49.47604" lon="6.36872">
        <ele>149.2002</ele>
        <time>2026-05-19T16:38:15+02:00</time>
      </trkpt>
      <trkpt lat="49.47599" lon="6.36872">
        <ele>149.2002</ele>
        <time>2026-05-19T16:38:16+02:00</time>
      </trkpt>
      <trkpt lat="49.47594" lon="6.36873">
        <ele>149.60059</ele>
        <time>2026-05-19T16:38:17+02:00</time>
      </trkpt>
      <trkpt lat="49.47588" lon="6.36873">
        <ele>149.2998</ele>
        <time>2026-05-19T16:38:18+02:00</time>
      </trkpt>
      <trkpt lat="49.47583" lon="6.36874">
        <ele>149.10059</ele>
        <time>2026-05-19T16:38:19+02:00</time>
      </trkpt>
      <trkpt lat="49.47577" lon="6.36875">
        <ele>148.90039</ele>
        <time>2026-05-19T16:38:20+02:00</time>
      </trkpt>
      <trkpt lat="49.47572" lon="6.36875">
        <ele>148.7002</ele>
        <time>2026-05-19T16:38:21+02:00</time>
      </trkpt>
      <trkpt lat="49.47566" lon="6.36876">
        <ele>148.60059</ele>
        <time>2026-05-19T16:38:22+02:00</time>
      </trkpt>
      <trkpt lat="49.47561" lon="6.36876">
        <ele>148.5</ele>
        <time>2026-05-19T16:38:23+02:00</time>
      </trkpt>
      <trkpt lat="49.47556" lon="6.36877">
        <ele>148.40039</ele>
        <time>2026-05-19T16:38:24+02:00</time>
      </trkpt>
      <trkpt lat="49.4755" lon="6.36878">
        <ele>148.40039</ele>
        <time>2026-05-19T16:38:25+02:00</time>
      </trkpt>
      <trkpt lat="49.47544" lon="6.36879">
        <ele>148.40039</ele>
        <time>2026-05-19T16:38:26+02:00</time>
      </trkpt>
      <trkpt lat="49.47539" lon="6.3688">
        <ele>148.5</ele>
        <time>2026-05-19T16:38:27+02:00</time>
      </trkpt>
      <trkpt lat="49.47533" lon="6.36881">
        <ele>148.90039</ele>
        <time>2026-05-19T16:38:28+02:00</time>
      </trkpt>
      <trkpt lat="49.47527" lon="6.36882">
        <ele>149.10059</ele>
        <time>2026-05-19T16:38:29+02:00</time>
      </trkpt>
      <trkpt lat="49.47522" lon="6.36882">
        <ele>149.2002</ele>
        <time>2026-05-19T16:38:30+02:00</time>
      </trkpt>
      <trkpt lat="49.47516" lon="6.36883">
        <ele>149</ele>
        <time>2026-05-19T16:38:31+02:00</time>
      </trkpt>
      <trkpt lat="49.4751" lon="6.36883">
        <ele>148.2998</ele>
        <time>2026-05-19T16:38:32+02:00</time>
      </trkpt>
      <trkpt lat="49.47504" lon="6.36884">
        <ele>147.5</ele>
        <time>2026-05-19T16:38:33+02:00</time>
      </trkpt>
      <trkpt lat="49.47498" lon="6.36885">
        <ele>146.90039</ele>
        <time>2026-05-19T16:38:34+02:00</time>
      </trkpt>
      <trkpt lat="49.47493" lon="6.36885">
        <ele>146.90039</ele>
        <time>2026-05-19T16:38:35+02:00</time>
      </trkpt>
      <trkpt lat="49.47487" lon="6.36886">
        <ele>146.90039</ele>
        <time>2026-05-19T16:38:36+02:00</time>
      </trkpt>
      <trkpt lat="49.47481" lon="6.36887">
        <ele>147.10059</ele>
        <time>2026-05-19T16:38:37+02:00</time>
      </trkpt>
      <trkpt lat="49.47475" lon="6.36887">
        <ele>147.10059</ele>
        <time>2026-05-19T16:38:38+02:00</time>
      </trkpt>
      <trkpt lat="49.47469" lon="6.36888">
        <ele>147.10059</ele>
        <time>2026-05-19T16:38:39+02:00</time>
      </trkpt>
      <trkpt lat="49.47463" lon="6.36888">
        <ele>147.2002</ele>
        <time>2026-05-19T16:38:40+02:00</time>
      </trkpt>
      <trkpt lat="49.47458" lon="6.36888">
        <ele>147.2002</ele>
        <time>2026-05-19T16:38:41+02:00</time>
      </trkpt>
      <trkpt lat="49.47452" lon="6.36888">
        <ele>147.2998</ele>
        <time>2026-05-19T16:38:42+02:00</time>
      </trkpt>
      <trkpt lat="49.47447" lon="6.36888">
        <ele>147.40039</ele>
        <time>2026-05-19T16:38:43+02:00</time>
      </trkpt>
      <trkpt lat="49.47441" lon="6.36889">
        <ele>147.5</ele>
        <time>2026-05-19T16:38:44+02:00</time>
      </trkpt>
      <trkpt lat="49.47435" lon="6.36889">
        <ele>147.60059</ele>
        <time>2026-05-19T16:38:45+02:00</time>
      </trkpt>
      <trkpt lat="49.47429" lon="6.36889">
        <ele>147.7002</ele>
        <time>2026-05-19T16:38:46+02:00</time>
      </trkpt>
      <trkpt lat="49.47424" lon="6.36889">
        <ele>147.7998</ele>
        <time>2026-05-19T16:38:47+02:00</time>
      </trkpt>
      <trkpt lat="49.47419" lon="6.3689">
        <ele>148.60059</ele>
        <time>2026-05-19T16:38:48+02:00</time>
      </trkpt>
      <trkpt lat="49.47414" lon="6.3689">
        <ele>148.7002</ele>
        <time>2026-05-19T16:38:49+02:00</time>
      </trkpt>
      <trkpt lat="49.47408" lon="6.3689">
        <ele>148.7998</ele>
        <time>2026-05-19T16:38:50+02:00</time>
      </trkpt>
      <trkpt lat="49.47402" lon="6.36891">
        <ele>149</ele>
        <time>2026-05-19T16:38:51+02:00</time>
      </trkpt>
      <trkpt lat="49.47397" lon="6.3689">
        <ele>149.2002</ele>
        <time>2026-05-19T16:38:52+02:00</time>
      </trkpt>
      <trkpt lat="49.47391" lon="6.36891">
        <ele>149.40039</ele>
        <time>2026-05-19T16:38:53+02:00</time>
      </trkpt>
      <trkpt lat="49.47385" lon="6.36891">
        <ele>149.5</ele>
        <time>2026-05-19T16:38:54+02:00</time>
      </trkpt>
      <trkpt lat="49.47382" lon="6.36891">
        <ele>149.5</ele>
        <time>2026-05-19T16:38:55+02:00</time>
      </trkpt>
      <trkpt lat="49.47373" lon="6.36892">
        <ele>149.2998</ele>
        <time>2026-05-19T16:38:56+02:00</time>
      </trkpt>
      <trkpt lat="49.47366" lon="6.36893">
        <ele>149.2002</ele>
        <time>2026-05-19T16:38:57+02:00</time>
      </trkpt>
      <trkpt lat="49.4736" lon="6.36895">
        <ele>149.10059</ele>
        <time>2026-05-19T16:38:58+02:00</time>
      </trkpt>
      <trkpt lat="49.47354" lon="6.36896">
        <ele>149.2002</ele>
        <time>2026-05-19T16:38:59+02:00</time>
      </trkpt>
      <trkpt lat="49.47349" lon="6.36897">
        <ele>149.2002</ele>
        <time>2026-05-19T16:39:00+02:00</time>
      </trkpt>
      <trkpt lat="49.47343" lon="6.36898">
        <ele>149.2002</ele>
        <time>2026-05-19T16:39:01+02:00</time>
      </trkpt>
      <trkpt lat="49.47337" lon="6.36899">
        <ele>149.7002</ele>
        <time>2026-05-19T16:39:02+02:00</time>
      </trkpt>
      <trkpt lat="49.47332" lon="6.369">
        <ele>149.60059</ele>
        <time>2026-05-19T16:39:03+02:00</time>
      </trkpt>
      <trkpt lat="49.47326" lon="6.36902">
        <ele>149.60059</ele>
        <time>2026-05-19T16:39:04+02:00</time>
      </trkpt>
      <trkpt lat="49.47321" lon="6.36903">
        <ele>149.60059</ele>
        <time>2026-05-19T16:39:05+02:00</time>
      </trkpt>
      <trkpt lat="49.47317" lon="6.36903">
        <ele>149.5</ele>
        <time>2026-05-19T16:39:06+02:00</time>
      </trkpt>
      <trkpt lat="49.47315" lon="6.36903">
        <ele>149.5</ele>
        <time>2026-05-19T16:39:07+02:00</time>
      </trkpt>
      <trkpt lat="49.47313" lon="6.36904">
        <ele>149.40039</ele>
        <time>2026-05-19T16:39:08+02:00</time>
      </trkpt>
      <trkpt lat="49.47313" lon="6.36904">
        <ele>149.40039</ele>
        <time>2026-05-19T16:39:09+02:00</time>
      </trkpt>
      <trkpt lat="49.47313" lon="6.36904">
        <ele>149.40039</ele>
        <time>2026-05-19T16:39:10+02:00</time>
      </trkpt>
      <trkpt lat="49.47313" lon="6.36904">
        <ele>149.40039</ele>
        <time>2026-05-19T16:39:11+02:00</time>
      </trkpt>
      <trkpt lat="49.47313" lon="6.36904">
        <ele>149.40039</ele>
        <time>2026-05-19T16:39:12+02:00</time>
      </trkpt>
      <trkpt lat="49.47298" lon="6.36905">
        <ele>149.2002</ele>
        <time>2026-05-19T16:39:25+02:00</time>
      </trkpt>
      <trkpt lat="49.47296" lon="6.36906">
        <ele>149</ele>
        <time>2026-05-19T16:39:26+02:00</time>
      </trkpt>
      <trkpt lat="49.47293" lon="6.36907">
        <ele>149.40039</ele>
        <time>2026-05-19T16:39:27+02:00</time>
      </trkpt>
      <trkpt lat="49.4729" lon="6.36907">
        <ele>149.2002</ele>
        <time>2026-05-19T16:39:28+02:00</time>
      </trkpt>
      <trkpt lat="49.47286" lon="6.36907">
        <ele>149</ele>
        <time>2026-05-19T16:39:29+02:00</time>
      </trkpt>
      <trkpt lat="49.47283" lon="6.36908">
        <ele>149</ele>
        <time>2026-05-19T16:39:30+02:00</time>
      </trkpt>
      <trkpt lat="49.47279" lon="6.36909">
        <ele>148.7998</ele>
        <time>2026-05-19T16:39:31+02:00</time>
      </trkpt>
      <trkpt lat="49.47275" lon="6.36909">
        <ele>148.7002</ele>
        <time>2026-05-19T16:39:32+02:00</time>
      </trkpt>
      <trkpt lat="49.47271" lon="6.36909">
        <ele>148.7002</ele>
        <time>2026-05-19T16:39:33+02:00</time>
      </trkpt>
      <trkpt lat="49.47267" lon="6.36909">
        <ele>148.5</ele>
        <time>2026-05-19T16:39:34+02:00</time>
      </trkpt>
      <trkpt lat="49.47262" lon="6.36908">
        <ele>148.40039</ele>
        <time>2026-05-19T16:39:35+02:00</time>
      </trkpt>
      <trkpt lat="49.47258" lon="6.36908">
        <ele>148.40039</ele>
        <time>2026-05-19T16:39:36+02:00</time>
      </trkpt>
      <trkpt lat="49.47254" lon="6.36909">
        <ele>148.40039</ele>
        <time>2026-05-19T16:39:37+02:00</time>
      </trkpt>
      <trkpt lat="49.47249" lon="6.36909">
        <ele>148.40039</ele>
        <time>2026-05-19T16:39:38+02:00</time>
      </trkpt>
      <trkpt lat="49.47244" lon="6.36909">
        <ele>148.5</ele>
        <time>2026-05-19T16:39:39+02:00</time>
      </trkpt>
      <trkpt lat="49.47239" lon="6.3691">
        <ele>148.60059</ele>
        <time>2026-05-19T16:39:40+02:00</time>
      </trkpt>
      <trkpt lat="49.47235" lon="6.3691">
        <ele>148.7002</ele>
        <time>2026-05-19T16:39:41+02:00</time>
      </trkpt>
      <trkpt lat="49.4723" lon="6.3691">
        <ele>148.7998</ele>
        <time>2026-05-19T16:39:42+02:00</time>
      </trkpt>
      <trkpt lat="49.47226" lon="6.3691">
        <ele>148.7998</ele>
        <time>2026-05-19T16:39:43+02:00</time>
      </trkpt>
      <trkpt lat="49.47222" lon="6.3691">
        <ele>148.90039</ele>
        <time>2026-05-19T16:39:44+02:00</time>
      </trkpt>
      <trkpt lat="49.47217" lon="6.36911">
        <ele>149.10059</ele>
        <time>2026-05-19T16:39:45+02:00</time>
      </trkpt>
      <trkpt lat="49.47213" lon="6.36911">
        <ele>149.2002</ele>
        <time>2026-05-19T16:39:46+02:00</time>
      </trkpt>
      <trkpt lat="49.47208" lon="6.36912">
        <ele>149.2998</ele>
        <time>2026-05-19T16:39:47+02:00</time>
      </trkpt>
      <trkpt lat="49.47204" lon="6.36912">
        <ele>149.2998</ele>
        <time>2026-05-19T16:39:48+02:00</time>
      </trkpt>
      <trkpt lat="49.47199" lon="6.36912">
        <ele>149.40039</ele>
        <time>2026-05-19T16:39:49+02:00</time>
      </trkpt>
      <trkpt lat="49.47194" lon="6.36912">
        <ele>149.40039</ele>
        <time>2026-05-19T16:39:50+02:00</time>
      </trkpt>
      <trkpt lat="49.47189" lon="6.36912">
        <ele>149.5</ele>
        <time>2026-05-19T16:39:51+02:00</time>
      </trkpt>
      <trkpt lat="49.47185" lon="6.36912">
        <ele>149.5</ele>
        <time>2026-05-19T16:39:52+02:00</time>
      </trkpt>
      <trkpt lat="49.47181" lon="6.36912">
        <ele>149.5</ele>
        <time>2026-05-19T16:39:53+02:00</time>
      </trkpt>
      <trkpt lat="49.47177" lon="6.36911">
        <ele>149.5</ele>
        <time>2026-05-19T16:39:54+02:00</time>
      </trkpt>
      <trkpt lat="49.47174" lon="6.36911">
        <ele>149.5</ele>
        <time>2026-05-19T16:39:55+02:00</time>
      </trkpt>
      <trkpt lat="49.47172" lon="6.3691">
        <ele>149.5</ele>
        <time>2026-05-19T16:39:56+02:00</time>
      </trkpt>
      <trkpt lat="49.47169" lon="6.3691">
        <ele>149.40039</ele>
        <time>2026-05-19T16:39:57+02:00</time>
      </trkpt>
      <trkpt lat="49.47168" lon="6.3691">
        <ele>149.40039</ele>
        <time>2026-05-19T16:39:58+02:00</time>
      </trkpt>
      <trkpt lat="49.47165" lon="6.36909">
        <ele>149.40039</ele>
        <time>2026-05-19T16:39:59+02:00</time>
      </trkpt>
      <trkpt lat="49.47164" lon="6.36908">
        <ele>149.40039</ele>
        <time>2026-05-19T16:40:00+02:00</time>
      </trkpt>
      <trkpt lat="49.47162" lon="6.36907">
        <ele>149.2002</ele>
        <time>2026-05-19T16:40:01+02:00</time>
      </trkpt>
      <trkpt lat="49.4716" lon="6.36906">
        <ele>148.90039</ele>
        <time>2026-05-19T16:40:02+02:00</time>
      </trkpt>
      <trkpt lat="49.4716" lon="6.36906">
        <ele>148.90039</ele>
        <time>2026-05-19T16:40:03+02:00</time>
      </trkpt>
      <trkpt lat="49.47159" lon="6.36906">
        <ele>148.90039</ele>
        <time>2026-05-19T16:40:04+02:00</time>
      </trkpt>
      <trkpt lat="49.47159" lon="6.36906">
        <ele>148.90039</ele>
        <time>2026-05-19T16:40:05+02:00</time>
      </trkpt>
      <trkpt lat="49.47159" lon="6.36906">
        <ele>148.90039</ele>
        <time>2026-05-19T16:40:06+02:00</time>
      </trkpt>
      <trkpt lat="49.4716" lon="6.36885">
        <ele>147.40039</ele>
        <time>2026-05-19T16:40:14+02:00</time>
      </trkpt>
      <trkpt lat="49.47161" lon="6.36879">
        <ele>145.7998</ele>
        <time>2026-05-19T16:40:15+02:00</time>
      </trkpt>
      <trkpt lat="49.47162" lon="6.36872">
        <ele>144.2998</ele>
        <time>2026-05-19T16:40:16+02:00</time>
      </trkpt>
      <trkpt lat="49.47162" lon="6.36865">
        <ele>144.2998</ele>
        <time>2026-05-19T16:40:17+02:00</time>
      </trkpt>
      <trkpt lat="49.47163" lon="6.36857">
        <ele>143.40039</ele>
        <time>2026-05-19T16:40:18+02:00</time>
      </trkpt>
      <trkpt lat="49.47164" lon="6.3685">
        <ele>142.90039</ele>
        <time>2026-05-19T16:40:19+02:00</time>
      </trkpt>
      <trkpt lat="49.47164" lon="6.36841">
        <ele>142.40039</ele>
        <time>2026-05-19T16:40:20+02:00</time>
      </trkpt>
      <trkpt lat="49.47165" lon="6.36833">
        <ele>142.10059</ele>
        <time>2026-05-19T16:40:21+02:00</time>
      </trkpt>
      <trkpt lat="49.47166" lon="6.36825">
        <ele>141.90039</ele>
        <time>2026-05-19T16:40:22+02:00</time>
      </trkpt>
      <trkpt lat="49.47167" lon="6.36816">
        <ele>141.90039</ele>
        <time>2026-05-19T16:40:23+02:00</time>
      </trkpt>
      <trkpt lat="49.47167" lon="6.36807">
        <ele>141.90039</ele>
        <time>2026-05-19T16:40:24+02:00</time>
      </trkpt>
      <trkpt lat="49.47168" lon="6.36798">
        <ele>141.90039</ele>
        <time>2026-05-19T16:40:25+02:00</time>
      </trkpt>
      <trkpt lat="49.47169" lon="6.36789">
        <ele>141.90039</ele>
        <time>2026-05-19T16:40:26+02:00</time>
      </trkpt>
      <trkpt lat="49.4717" lon="6.3678">
        <ele>141.90039</ele>
        <time>2026-05-19T16:40:27+02:00</time>
      </trkpt>
      <trkpt lat="49.47171" lon="6.36771">
        <ele>141.90039</ele>
        <time>2026-05-19T16:40:28+02:00</time>
      </trkpt>
      <trkpt lat="49.47172" lon="6.36761">
        <ele>141.90039</ele>
        <time>2026-05-19T16:40:29+02:00</time>
      </trkpt>
      <trkpt lat="49.47172" lon="6.36751">
        <ele>141.90039</ele>
        <time>2026-05-19T16:40:30+02:00</time>
      </trkpt>
      <trkpt lat="49.47173" lon="6.36741">
        <ele>141.90039</ele>
        <time>2026-05-19T16:40:31+02:00</time>
      </trkpt>
      <trkpt lat="49.47174" lon="6.36731">
        <ele>141.90039</ele>
        <time>2026-05-19T16:40:32+02:00</time>
      </trkpt>
      <trkpt lat="49.47175" lon="6.3672">
        <ele>141.90039</ele>
        <time>2026-05-19T16:40:33+02:00</time>
      </trkpt>
      <trkpt lat="49.47176" lon="6.3671">
        <ele>141.7998</ele>
        <time>2026-05-19T16:40:34+02:00</time>
      </trkpt>
      <trkpt lat="49.47176" lon="6.367">
        <ele>141.7002</ele>
        <time>2026-05-19T16:40:35+02:00</time>
      </trkpt>
      <trkpt lat="49.47178" lon="6.3669">
        <ele>141.90039</ele>
        <time>2026-05-19T16:40:36+02:00</time>
      </trkpt>
      <trkpt lat="49.47178" lon="6.3668">
        <ele>142.40039</ele>
        <time>2026-05-19T16:40:37+02:00</time>
      </trkpt>
      <trkpt lat="49.47179" lon="6.36671">
        <ele>143.2998</ele>
        <time>2026-05-19T16:40:38+02:00</time>
      </trkpt>
      <trkpt lat="49.47181" lon="6.36664">
        <ele>144.7998</ele>
        <time>2026-05-19T16:40:39+02:00</time>
      </trkpt>
      <trkpt lat="49.47183" lon="6.36658">
        <ele>144.7998</ele>
        <time>2026-05-19T16:40:40+02:00</time>
      </trkpt>
      <trkpt lat="49.47185" lon="6.36652">
        <ele>145.7002</ele>
        <time>2026-05-19T16:40:41+02:00</time>
      </trkpt>
      <trkpt lat="49.47187" lon="6.36649">
        <ele>146.60059</ele>
        <time>2026-05-19T16:40:42+02:00</time>
      </trkpt>
      <trkpt lat="49.47189" lon="6.36647">
        <ele>146.60059</ele>
        <time>2026-05-19T16:40:43+02:00</time>
      </trkpt>
      <trkpt lat="49.4719" lon="6.36643">
        <ele>146.60059</ele>
        <time>2026-05-19T16:40:44+02:00</time>
      </trkpt>
      <trkpt lat="49.4719" lon="6.36638">
        <ele>147.40039</ele>
        <time>2026-05-19T16:40:45+02:00</time>
      </trkpt>
      <trkpt lat="49.47189" lon="6.36632">
        <ele>147.40039</ele>
        <time>2026-05-19T16:40:46+02:00</time>
      </trkpt>
      <trkpt lat="49.47188" lon="6.36626">
        <ele>148</ele>
        <time>2026-05-19T16:40:47+02:00</time>
      </trkpt>
      <trkpt lat="49.47187" lon="6.36618">
        <ele>148.60059</ele>
        <time>2026-05-19T16:40:48+02:00</time>
      </trkpt>
      <trkpt lat="49.47186" lon="6.3661">
        <ele>149</ele>
        <time>2026-05-19T16:40:49+02:00</time>
      </trkpt>
      <trkpt lat="49.47186" lon="6.36602">
        <ele>149.2998</ele>
        <time>2026-05-19T16:40:50+02:00</time>
      </trkpt>
      <trkpt lat="49.47187" lon="6.36596">
        <ele>149.90039</ele>
        <time>2026-05-19T16:40:51+02:00</time>
      </trkpt>
      <trkpt lat="49.47188" lon="6.36591">
        <ele>149.90039</ele>
        <time>2026-05-19T16:40:52+02:00</time>
      </trkpt>
      <trkpt lat="49.47188" lon="6.36586">
        <ele>150.2998</ele>
        <time>2026-05-19T16:40:53+02:00</time>
      </trkpt>
      <trkpt lat="49.47188" lon="6.36583">
        <ele>150.2998</ele>
        <time>2026-05-19T16:40:54+02:00</time>
      </trkpt>
      <trkpt lat="49.47188" lon="6.36582">
        <ele>150.2998</ele>
        <time>2026-05-19T16:40:55+02:00</time>
      </trkpt>
      <trkpt lat="49.47188" lon="6.36582">
        <ele>150.2998</ele>
        <time>2026-05-19T16:40:56+02:00</time>
      </trkpt>
      <trkpt lat="49.47188" lon="6.36581">
        <ele>150.2998</ele>
        <time>2026-05-19T16:40:57+02:00</time>
      </trkpt>
      <trkpt lat="49.47188" lon="6.36581">
        <ele>150.2998</ele>
        <time>2026-05-19T16:40:58+02:00</time>
      </trkpt>
      <trkpt lat="49.47188" lon="6.36581">
        <ele>150.2998</ele>
        <time>2026-05-19T16:40:59+02:00</time>
      </trkpt>
      <trkpt lat="49.47194" lon="6.36603">
        <ele>149.7998</ele>
        <time>2026-05-19T16:41:22+02:00</time>
      </trkpt>
      <trkpt lat="49.47195" lon="6.36609">
        <ele>149.40039</ele>
        <time>2026-05-19T16:41:23+02:00</time>
      </trkpt>
      <trkpt lat="49.47196" lon="6.36614">
        <ele>149.40039</ele>
        <time>2026-05-19T16:41:24+02:00</time>
      </trkpt>
      <trkpt lat="49.47196" lon="6.36618">
        <ele>148.7998</ele>
        <time>2026-05-19T16:41:25+02:00</time>
      </trkpt>
      <trkpt lat="49.47197" lon="6.36623">
        <ele>148.7998</ele>
        <time>2026-05-19T16:41:26+02:00</time>
      </trkpt>
      <trkpt lat="49.47198" lon="6.36627">
        <ele>148.40039</ele>
        <time>2026-05-19T16:41:27+02:00</time>
      </trkpt>
      <trkpt lat="49.47199" lon="6.36631">
        <ele>148.40039</ele>
        <time>2026-05-19T16:41:28+02:00</time>
      </trkpt>
      <trkpt lat="49.472" lon="6.36635">
        <ele>147.7002</ele>
        <time>2026-05-19T16:41:29+02:00</time>
      </trkpt>
      <trkpt lat="49.47201" lon="6.36639">
        <ele>147.7002</ele>
        <time>2026-05-19T16:41:30+02:00</time>
      </trkpt>
      <trkpt lat="49.47202" lon="6.36643">
        <ele>147</ele>
        <time>2026-05-19T16:41:31+02:00</time>
      </trkpt>
      <trkpt lat="49.47204" lon="6.36646">
        <ele>147.2998</ele>
        <time>2026-05-19T16:41:32+02:00</time>
      </trkpt>
      <trkpt lat="49.47205" lon="6.36648">
        <ele>147.2998</ele>
        <time>2026-05-19T16:41:33+02:00</time>
      </trkpt>
      <trkpt lat="49.47207" lon="6.3665">
        <ele>146.60059</ele>
        <time>2026-05-19T16:41:34+02:00</time>
      </trkpt>
      <trkpt lat="49.47209" lon="6.36652">
        <ele>146.90039</ele>
        <time>2026-05-19T16:41:35+02:00</time>
      </trkpt>
      <trkpt lat="49.4721" lon="6.36655">
        <ele>146.90039</ele>
        <time>2026-05-19T16:41:36+02:00</time>
      </trkpt>
      <trkpt lat="49.4721" lon="6.36659">
        <ele>146.2002</ele>
        <time>2026-05-19T16:41:37+02:00</time>
      </trkpt>
      <trkpt lat="49.47211" lon="6.36664">
        <ele>146.2002</ele>
        <time>2026-05-19T16:41:38+02:00</time>
      </trkpt>
      <trkpt lat="49.47213" lon="6.36668">
        <ele>145.40039</ele>
        <time>2026-05-19T16:41:39+02:00</time>
      </trkpt>
      <trkpt lat="49.47215" lon="6.36672">
        <ele>145.5</ele>
        <time>2026-05-19T16:41:40+02:00</time>
      </trkpt>
      <trkpt lat="49.47216" lon="6.36676">
        <ele>144.7002</ele>
        <time>2026-05-19T16:41:41+02:00</time>
      </trkpt>
      <trkpt lat="49.47216" lon="6.36681">
        <ele>144.7002</ele>
        <time>2026-05-19T16:41:42+02:00</time>
      </trkpt>
      <trkpt lat="49.47214" lon="6.36685">
        <ele>144</ele>
        <time>2026-05-19T16:41:43+02:00</time>
      </trkpt>
      <trkpt lat="49.47211" lon="6.36688">
        <ele>143.90039</ele>
        <time>2026-05-19T16:41:44+02:00</time>
      </trkpt>
      <trkpt lat="49.47207" lon="6.36688">
        <ele>143.7998</ele>
        <time>2026-05-19T16:41:45+02:00</time>
      </trkpt>
      <trkpt lat="49.47202" lon="6.36688">
        <ele>143.7002</ele>
        <time>2026-05-19T16:41:46+02:00</time>
      </trkpt>
      <trkpt lat="49.47197" lon="6.36688">
        <ele>143.2002</ele>
        <time>2026-05-19T16:41:47+02:00</time>
      </trkpt>
      <trkpt lat="49.47195" lon="6.36687">
        <ele>143.2002</ele>
        <time>2026-05-19T16:41:48+02:00</time>
      </trkpt>
      <trkpt lat="49.47187" lon="6.36686">
        <ele>142.7002</ele>
        <time>2026-05-19T16:41:49+02:00</time>
      </trkpt>
      <trkpt lat="49.47181" lon="6.36686">
        <ele>142.10059</ele>
        <time>2026-05-19T16:41:50+02:00</time>
      </trkpt>
      <trkpt lat="49.47176" lon="6.36684">
        <ele>141.90039</ele>
        <time>2026-05-19T16:41:51+02:00</time>
      </trkpt>
      <trkpt lat="49.47171" lon="6.36682">
        <ele>142.2002</ele>
        <time>2026-05-19T16:41:52+02:00</time>
      </trkpt>
      <trkpt lat="49.47167" lon="6.3668">
        <ele>142.2002</ele>
        <time>2026-05-19T16:41:53+02:00</time>
      </trkpt>
      <trkpt lat="49.47164" lon="6.36677">
        <ele>142.2002</ele>
        <time>2026-05-19T16:41:54+02:00</time>
      </trkpt>
      <trkpt lat="49.47161" lon="6.36674">
        <ele>143.10059</ele>
        <time>2026-05-19T16:41:55+02:00</time>
      </trkpt>
      <trkpt lat="49.47159" lon="6.36672">
        <ele>143.10059</ele>
        <time>2026-05-19T16:41:56+02:00</time>
      </trkpt>
      <trkpt lat="49.47157" lon="6.36672">
        <ele>143.10059</ele>
        <time>2026-05-19T16:41:57+02:00</time>
      </trkpt>
      <trkpt lat="49.47155" lon="6.36674">
        <ele>143.10059</ele>
        <time>2026-05-19T16:41:58+02:00</time>
      </trkpt>
      <trkpt lat="49.47154" lon="6.36677">
        <ele>142.2998</ele>
        <time>2026-05-19T16:41:59+02:00</time>
      </trkpt>
      <trkpt lat="49.47151" lon="6.36679">
        <ele>142.40039</ele>
        <time>2026-05-19T16:42:00+02:00</time>
      </trkpt>
      <trkpt lat="49.47149" lon="6.3668">
        <ele>142.40039</ele>
        <time>2026-05-19T16:42:01+02:00</time>
      </trkpt>
      <trkpt lat="49.47148" lon="6.36682">
        <ele>142.40039</ele>
        <time>2026-05-19T16:42:02+02:00</time>
      </trkpt>
      <trkpt lat="49.47146" lon="6.36684">
        <ele>141.90039</ele>
        <time>2026-05-19T16:42:03+02:00</time>
      </trkpt>
      <trkpt lat="49.47144" lon="6.36684">
        <ele>141.90039</ele>
        <time>2026-05-19T16:42:04+02:00</time>
      </trkpt>
      <trkpt lat="49.47142" lon="6.36683">
        <ele>142.40039</ele>
        <time>2026-05-19T16:42:05+02:00</time>
      </trkpt>
      <trkpt lat="49.4714" lon="6.36683">
        <ele>142.40039</ele>
        <time>2026-05-19T16:42:06+02:00</time>
      </trkpt>
      <trkpt lat="49.47137" lon="6.36683">
        <ele>142.40039</ele>
        <time>2026-05-19T16:42:07+02:00</time>
      </trkpt>
      <trkpt lat="49.47134" lon="6.36682">
        <ele>142.5</ele>
        <time>2026-05-19T16:42:08+02:00</time>
      </trkpt>
      <trkpt lat="49.47131" lon="6.36682">
        <ele>142.5</ele>
        <time>2026-05-19T16:42:09+02:00</time>
      </trkpt>
      <trkpt lat="49.47128" lon="6.36681">
        <ele>142.5</ele>
        <time>2026-05-19T16:42:10+02:00</time>
      </trkpt>
      <trkpt lat="49.47124" lon="6.36681">
        <ele>142.5</ele>
        <time>2026-05-19T16:42:11+02:00</time>
      </trkpt>
      <trkpt lat="49.47121" lon="6.3668">
        <ele>142.5</ele>
        <time>2026-05-19T16:42:12+02:00</time>
      </trkpt>
      <trkpt lat="49.47119" lon="6.36679">
        <ele>142.5</ele>
        <time>2026-05-19T16:42:13+02:00</time>
      </trkpt>
      <trkpt lat="49.47116" lon="6.36679">
        <ele>142.5</ele>
        <time>2026-05-19T16:42:14+02:00</time>
      </trkpt>
      <trkpt lat="49.47114" lon="6.36679">
        <ele>142.5</ele>
        <time>2026-05-19T16:42:15+02:00</time>
      </trkpt>
      <trkpt lat="49.47111" lon="6.36679">
        <ele>142.5</ele>
        <time>2026-05-19T16:42:16+02:00</time>
      </trkpt>
      <trkpt lat="49.47109" lon="6.36679">
        <ele>142.5</ele>
        <time>2026-05-19T16:42:17+02:00</time>
      </trkpt>
      <trkpt lat="49.47106" lon="6.36678">
        <ele>142.2998</ele>
        <time>2026-05-19T16:42:18+02:00</time>
      </trkpt>
      <trkpt lat="49.47104" lon="6.36678">
        <ele>142.2998</ele>
        <time>2026-05-19T16:42:19+02:00</time>
      </trkpt>
      <trkpt lat="49.47102" lon="6.36677">
        <ele>142.10059</ele>
        <time>2026-05-19T16:42:20+02:00</time>
      </trkpt>
      <trkpt lat="49.471" lon="6.36677">
        <ele>142.10059</ele>
        <time>2026-05-19T16:42:21+02:00</time>
      </trkpt>
      <trkpt lat="49.47098" lon="6.36676">
        <ele>142.10059</ele>
        <time>2026-05-19T16:42:22+02:00</time>
      </trkpt>
      <trkpt lat="49.47096" lon="6.36676">
        <ele>141.7998</ele>
        <time>2026-05-19T16:42:23+02:00</time>
      </trkpt>
      <trkpt lat="49.47094" lon="6.36676">
        <ele>141.7998</ele>
        <time>2026-05-19T16:42:24+02:00</time>
      </trkpt>
      <trkpt lat="49.47093" lon="6.36676">
        <ele>141.7998</ele>
        <time>2026-05-19T16:42:25+02:00</time>
      </trkpt>
      <trkpt lat="49.47091" lon="6.36676">
        <ele>141.7002</ele>
        <time>2026-05-19T16:42:26+02:00</time>
      </trkpt>
      <trkpt lat="49.4709" lon="6.36676">
        <ele>141.7002</ele>
        <time>2026-05-19T16:42:27+02:00</time>
      </trkpt>
      <trkpt lat="49.4709" lon="6.36676">
        <ele>141.7002</ele>
        <time>2026-05-19T16:42:28+02:00</time>
      </trkpt>
      <trkpt lat="49.4709" lon="6.36676">
        <ele>141.7002</ele>
        <time>2026-05-19T16:42:29+02:00</time>
      </trkpt>
      <trkpt lat="49.4709" lon="6.36676">
        <ele>141.7002</ele>
        <time>2026-05-19T16:42:30+02:00</time>
      </trkpt>
      <trkpt lat="49.4709" lon="6.36676">
        <ele>141.7002</ele>
        <time>2026-05-19T16:42:31+02:00</time>
      </trkpt>
      <trkpt lat="49.47077" lon="6.36679">
        <ele>141.60059</ele>
        <time>2026-05-19T16:44:18+02:00</time>
      </trkpt>
      <trkpt lat="49.47075" lon="6.3668">
        <ele>141.60059</ele>
        <time>2026-05-19T16:44:19+02:00</time>
      </trkpt>
      <trkpt lat="49.47072" lon="6.3668">
        <ele>141.7002</ele>
        <time>2026-05-19T16:44:20+02:00</time>
      </trkpt>
      <trkpt lat="49.4707" lon="6.36679">
        <ele>141.7002</ele>
        <time>2026-05-19T16:44:21+02:00</time>
      </trkpt>
      <trkpt lat="49.47067" lon="6.36679">
        <ele>141.7002</ele>
        <time>2026-05-19T16:44:22+02:00</time>
      </trkpt>
      <trkpt lat="49.47064" lon="6.36679">
        <ele>141.7002</ele>
        <time>2026-05-19T16:44:23+02:00</time>
      </trkpt>
      <trkpt lat="49.47061" lon="6.36679">
        <ele>141.7002</ele>
        <time>2026-05-19T16:44:24+02:00</time>
      </trkpt>
      <trkpt lat="49.47058" lon="6.36679">
        <ele>141.7002</ele>
        <time>2026-05-19T16:44:25+02:00</time>
      </trkpt>
      <trkpt lat="49.47055" lon="6.36678">
        <ele>141.7002</ele>
        <time>2026-05-19T16:44:26+02:00</time>
      </trkpt>
      <trkpt lat="49.47052" lon="6.36677">
        <ele>141.7002</ele>
        <time>2026-05-19T16:44:27+02:00</time>
      </trkpt>
      <trkpt lat="49.47049" lon="6.36675">
        <ele>141.7002</ele>
        <time>2026-05-19T16:44:28+02:00</time>
      </trkpt>
      <trkpt lat="49.47046" lon="6.36674">
        <ele>141.7002</ele>
        <time>2026-05-19T16:44:29+02:00</time>
      </trkpt>
      <trkpt lat="49.47043" lon="6.36674">
        <ele>141.7002</ele>
        <time>2026-05-19T16:44:30+02:00</time>
      </trkpt>
      <trkpt lat="49.4704" lon="6.36673">
        <ele>141.7002</ele>
        <time>2026-05-19T16:44:31+02:00</time>
      </trkpt>
      <trkpt lat="49.47037" lon="6.36672">
        <ele>141.7002</ele>
        <time>2026-05-19T16:44:32+02:00</time>
      </trkpt>
      <trkpt lat="49.47034" lon="6.36672">
        <ele>141.7002</ele>
        <time>2026-05-19T16:44:33+02:00</time>
      </trkpt>
      <trkpt lat="49.47031" lon="6.36671">
        <ele>141.7002</ele>
        <time>2026-05-19T16:44:34+02:00</time>
      </trkpt>
      <trkpt lat="49.47027" lon="6.36671">
        <ele>141.7002</ele>
        <time>2026-05-19T16:44:35+02:00</time>
      </trkpt>
      <trkpt lat="49.47024" lon="6.3667">
        <ele>141.7002</ele>
        <time>2026-05-19T16:44:36+02:00</time>
      </trkpt>
      <trkpt lat="49.4702" lon="6.36669">
        <ele>141.7002</ele>
        <time>2026-05-19T16:44:37+02:00</time>
      </trkpt>
      <trkpt lat="49.47016" lon="6.36669">
        <ele>141.7002</ele>
        <time>2026-05-19T16:44:38+02:00</time>
      </trkpt>
      <trkpt lat="49.47012" lon="6.36668">
        <ele>141.7998</ele>
        <time>2026-05-19T16:44:39+02:00</time>
      </trkpt>
      <trkpt lat="49.47008" lon="6.36667">
        <ele>141.7998</ele>
        <time>2026-05-19T16:44:40+02:00</time>
      </trkpt>
      <trkpt lat="49.47004" lon="6.36666">
        <ele>142</ele>
        <time>2026-05-19T16:44:41+02:00</time>
      </trkpt>
      <trkpt lat="49.47002" lon="6.36666">
        <ele>142</ele>
        <time>2026-05-19T16:44:42+02:00</time>
      </trkpt>
      <trkpt lat="49.46996" lon="6.36664">
        <ele>142</ele>
        <time>2026-05-19T16:44:43+02:00</time>
      </trkpt>
      <trkpt lat="49.46993" lon="6.36663">
        <ele>142</ele>
        <time>2026-05-19T16:44:44+02:00</time>
      </trkpt>
      <trkpt lat="49.46989" lon="6.36662">
        <ele>142</ele>
        <time>2026-05-19T16:44:45+02:00</time>
      </trkpt>
      <trkpt lat="49.46986" lon="6.3666">
        <ele>142</ele>
        <time>2026-05-19T16:44:46+02:00</time>
      </trkpt>
      <trkpt lat="49.46983" lon="6.36659">
        <ele>141.90039</ele>
        <time>2026-05-19T16:44:47+02:00</time>
      </trkpt>
      <trkpt lat="49.4698" lon="6.36658">
        <ele>141.90039</ele>
        <time>2026-05-19T16:44:48+02:00</time>
      </trkpt>
      <trkpt lat="49.46977" lon="6.36658">
        <ele>141.7998</ele>
        <time>2026-05-19T16:44:49+02:00</time>
      </trkpt>
      <trkpt lat="49.46974" lon="6.36657">
        <ele>141.60059</ele>
        <time>2026-05-19T16:44:50+02:00</time>
      </trkpt>
      <trkpt lat="49.46971" lon="6.36655">
        <ele>141.5</ele>
        <time>2026-05-19T16:44:51+02:00</time>
      </trkpt>
      <trkpt lat="49.46969" lon="6.36652">
        <ele>141.5</ele>
        <time>2026-05-19T16:44:52+02:00</time>
      </trkpt>
      <trkpt lat="49.46967" lon="6.36651">
        <ele>141.5</ele>
        <time>2026-05-19T16:44:53+02:00</time>
      </trkpt>
      <trkpt lat="49.46963" lon="6.36647">
        <ele>141.2998</ele>
        <time>2026-05-19T16:44:54+02:00</time>
      </trkpt>
      <trkpt lat="49.46961" lon="6.36645">
        <ele>141.40039</ele>
        <time>2026-05-19T16:44:55+02:00</time>
      </trkpt>
      <trkpt lat="49.46957" lon="6.36643">
        <ele>141.5</ele>
        <time>2026-05-19T16:44:56+02:00</time>
      </trkpt>
      <trkpt lat="49.46953" lon="6.36642">
        <ele>141.5</ele>
        <time>2026-05-19T16:44:57+02:00</time>
      </trkpt>
      <trkpt lat="49.46949" lon="6.36641">
        <ele>141.60059</ele>
        <time>2026-05-19T16:44:58+02:00</time>
      </trkpt>
      <trkpt lat="49.46944" lon="6.3664">
        <ele>141.90039</ele>
        <time>2026-05-19T16:44:59+02:00</time>
      </trkpt>
      <trkpt lat="49.46939" lon="6.36639">
        <ele>141.90039</ele>
        <time>2026-05-19T16:45:00+02:00</time>
      </trkpt>
      <trkpt lat="49.46934" lon="6.36638">
        <ele>141.90039</ele>
        <time>2026-05-19T16:45:01+02:00</time>
      </trkpt>
      <trkpt lat="49.4693" lon="6.36637">
        <ele>141.90039</ele>
        <time>2026-05-19T16:45:02+02:00</time>
      </trkpt>
      <trkpt lat="49.46924" lon="6.36637">
        <ele>141.90039</ele>
        <time>2026-05-19T16:45:03+02:00</time>
      </trkpt>
      <trkpt lat="49.46919" lon="6.36636">
        <ele>141.90039</ele>
        <time>2026-05-19T16:45:04+02:00</time>
      </trkpt>
      <trkpt lat="49.46914" lon="6.36635">
        <ele>142</ele>
        <time>2026-05-19T16:45:05+02:00</time>
      </trkpt>
      <trkpt lat="49.46909" lon="6.36634">
        <ele>142</ele>
        <time>2026-05-19T16:45:06+02:00</time>
      </trkpt>
      <trkpt lat="49.46904" lon="6.36633">
        <ele>142</ele>
        <time>2026-05-19T16:45:07+02:00</time>
      </trkpt>
      <trkpt lat="49.46899" lon="6.36631">
        <ele>142.90039</ele>
        <time>2026-05-19T16:45:08+02:00</time>
      </trkpt>
      <trkpt lat="49.46894" lon="6.36629">
        <ele>142.90039</ele>
        <time>2026-05-19T16:45:09+02:00</time>
      </trkpt>
      <trkpt lat="49.46889" lon="6.36628">
        <ele>142.90039</ele>
        <time>2026-05-19T16:45:10+02:00</time>
      </trkpt>
      <trkpt lat="49.46884" lon="6.36627">
        <ele>142.7998</ele>
        <time>2026-05-19T16:45:11+02:00</time>
      </trkpt>
      <trkpt lat="49.46879" lon="6.36625">
        <ele>142.5</ele>
        <time>2026-05-19T16:45:12+02:00</time>
      </trkpt>
      <trkpt lat="49.46874" lon="6.36623">
        <ele>143.40039</ele>
        <time>2026-05-19T16:45:13+02:00</time>
      </trkpt>
      <trkpt lat="49.46869" lon="6.3662">
        <ele>142.40039</ele>
        <time>2026-05-19T16:45:14+02:00</time>
      </trkpt>
      <trkpt lat="49.46864" lon="6.36618">
        <ele>141.60059</ele>
        <time>2026-05-19T16:45:15+02:00</time>
      </trkpt>
      <trkpt lat="49.4686" lon="6.36615">
        <ele>141.2002</ele>
        <time>2026-05-19T16:45:16+02:00</time>
      </trkpt>
      <trkpt lat="49.46858" lon="6.36614">
        <ele>141.60059</ele>
        <time>2026-05-19T16:45:17+02:00</time>
      </trkpt>
      <trkpt lat="49.46851" lon="6.36609">
        <ele>141.5</ele>
        <time>2026-05-19T16:45:18+02:00</time>
      </trkpt>
      <trkpt lat="49.46846" lon="6.36605">
        <ele>142.2998</ele>
        <time>2026-05-19T16:45:19+02:00</time>
      </trkpt>
      <trkpt lat="49.46842" lon="6.36602">
        <ele>142.5</ele>
        <time>2026-05-19T16:45:20+02:00</time>
      </trkpt>
      <trkpt lat="49.46837" lon="6.36598">
        <ele>142.5</ele>
        <time>2026-05-19T16:45:21+02:00</time>
      </trkpt>
      <trkpt lat="49.46833" lon="6.36595">
        <ele>143.40039</ele>
        <time>2026-05-19T16:45:22+02:00</time>
      </trkpt>
      <trkpt lat="49.46829" lon="6.36592">
        <ele>142.40039</ele>
        <time>2026-05-19T16:45:23+02:00</time>
      </trkpt>
      <trkpt lat="49.46827" lon="6.36589">
        <ele>143.40039</ele>
        <time>2026-05-19T16:45:24+02:00</time>
      </trkpt>
      <trkpt lat="49.46825" lon="6.36587">
        <ele>143.40039</ele>
        <time>2026-05-19T16:45:25+02:00</time>
      </trkpt>
      <trkpt lat="49.46824" lon="6.36587">
        <ele>143.40039</ele>
        <time>2026-05-19T16:45:26+02:00</time>
      </trkpt>
      <trkpt lat="49.46824" lon="6.36587">
        <ele>143.40039</ele>
        <time>2026-05-19T16:45:27+02:00</time>
      </trkpt>
      <trkpt lat="49.46824" lon="6.36587">
        <ele>143.40039</ele>
        <time>2026-05-19T16:45:28+02:00</time>
      </trkpt>
      <trkpt lat="49.46824" lon="6.36587">
        <ele>143.40039</ele>
        <time>2026-05-19T16:45:29+02:00</time>
      </trkpt>
      <trkpt lat="49.46824" lon="6.36587">
        <ele>143.40039</ele>
        <time>2026-05-19T16:45:30+02:00</time>
      </trkpt>
      <trkpt lat="49.4683" lon="6.36601">
        <ele>142.2998</ele>
        <time>2026-05-19T16:46:04+02:00</time>
      </trkpt>
      <trkpt lat="49.46834" lon="6.36604">
        <ele>142.2998</ele>
        <time>2026-05-19T16:46:05+02:00</time>
      </trkpt>
      <trkpt lat="49.46838" lon="6.36607">
        <ele>141.90039</ele>
        <time>2026-05-19T16:46:06+02:00</time>
      </trkpt>
      <trkpt lat="49.46842" lon="6.36611">
        <ele>141.7002</ele>
        <time>2026-05-19T16:46:07+02:00</time>
      </trkpt>
      <trkpt lat="49.46847" lon="6.36615">
        <ele>141.10059</ele>
        <time>2026-05-19T16:46:08+02:00</time>
      </trkpt>
      <trkpt lat="49.46852" lon="6.36619">
        <ele>141</ele>
        <time>2026-05-19T16:46:09+02:00</time>
      </trkpt>
      <trkpt lat="49.46857" lon="6.36623">
        <ele>141.2002</ele>
        <time>2026-05-19T16:46:10+02:00</time>
      </trkpt>
      <trkpt lat="49.46863" lon="6.36626">
        <ele>141.60059</ele>
        <time>2026-05-19T16:46:11+02:00</time>
      </trkpt>
      <trkpt lat="49.46869" lon="6.3663">
        <ele>142</ele>
        <time>2026-05-19T16:46:12+02:00</time>
      </trkpt>
      <trkpt lat="49.46876" lon="6.36633">
        <ele>142</ele>
        <time>2026-05-19T16:46:13+02:00</time>
      </trkpt>
      <trkpt lat="49.46883" lon="6.36635">
        <ele>142.10059</ele>
        <time>2026-05-19T16:46:14+02:00</time>
      </trkpt>
      <trkpt lat="49.46889" lon="6.36638">
        <ele>142</ele>
        <time>2026-05-19T16:46:15+02:00</time>
      </trkpt>
      <trkpt lat="49.46896" lon="6.3664">
        <ele>142</ele>
        <time>2026-05-19T16:46:16+02:00</time>
      </trkpt>
      <trkpt lat="49.469" lon="6.36641">
        <ele>141.7002</ele>
        <time>2026-05-19T16:46:17+02:00</time>
      </trkpt>
      <trkpt lat="49.4691" lon="6.36643">
        <ele>141.60059</ele>
        <time>2026-05-19T16:46:18+02:00</time>
      </trkpt>
      <trkpt lat="49.46917" lon="6.36644">
        <ele>141.60059</ele>
        <time>2026-05-19T16:46:19+02:00</time>
      </trkpt>
      <trkpt lat="49.46924" lon="6.36645">
        <ele>141.60059</ele>
        <time>2026-05-19T16:46:20+02:00</time>
      </trkpt>
      <trkpt lat="49.46931" lon="6.36646">
        <ele>141.60059</ele>
        <time>2026-05-19T16:46:21+02:00</time>
      </trkpt>
      <trkpt lat="49.46938" lon="6.36647">
        <ele>141.60059</ele>
        <time>2026-05-19T16:46:22+02:00</time>
      </trkpt>
      <trkpt lat="49.46945" lon="6.36647">
        <ele>141.60059</ele>
        <time>2026-05-19T16:46:23+02:00</time>
      </trkpt>
      <trkpt lat="49.46952" lon="6.36648">
        <ele>141.5</ele>
        <time>2026-05-19T16:46:24+02:00</time>
      </trkpt>
      <trkpt lat="49.46959" lon="6.36648">
        <ele>141.40039</ele>
        <time>2026-05-19T16:46:25+02:00</time>
      </trkpt>
      <trkpt lat="49.46966" lon="6.36648">
        <ele>141.2998</ele>
        <time>2026-05-19T16:46:26+02:00</time>
      </trkpt>
      <trkpt lat="49.46972" lon="6.36647">
        <ele>141.40039</ele>
        <time>2026-05-19T16:46:27+02:00</time>
      </trkpt>
      <trkpt lat="49.46979" lon="6.36647">
        <ele>141.60059</ele>
        <time>2026-05-19T16:46:28+02:00</time>
      </trkpt>
      <trkpt lat="49.46986" lon="6.36648">
        <ele>142.7002</ele>
        <time>2026-05-19T16:46:29+02:00</time>
      </trkpt>
      <trkpt lat="49.46993" lon="6.36648">
        <ele>143.2002</ele>
        <time>2026-05-19T16:46:30+02:00</time>
      </trkpt>
      <trkpt lat="49.46999" lon="6.36648">
        <ele>143.40039</ele>
        <time>2026-05-19T16:46:31+02:00</time>
      </trkpt>
      <trkpt lat="49.47006" lon="6.36649">
        <ele>143.5</ele>
        <time>2026-05-19T16:46:32+02:00</time>
      </trkpt>
      <trkpt lat="49.47013" lon="6.36649">
        <ele>143.5</ele>
        <time>2026-05-19T16:46:33+02:00</time>
      </trkpt>
      <trkpt lat="49.4702" lon="6.36649">
        <ele>143.5</ele>
        <time>2026-05-19T16:46:34+02:00</time>
      </trkpt>
      <trkpt lat="49.47027" lon="6.3665">
        <ele>142.5</ele>
        <time>2026-05-19T16:46:35+02:00</time>
      </trkpt>
      <trkpt lat="49.47034" lon="6.3665">
        <ele>142.5</ele>
        <time>2026-05-19T16:46:36+02:00</time>
      </trkpt>
      <trkpt lat="49.47041" lon="6.36651">
        <ele>142.40039</ele>
        <time>2026-05-19T16:46:37+02:00</time>
      </trkpt>
      <trkpt lat="49.47047" lon="6.36651">
        <ele>142.2998</ele>
        <time>2026-05-19T16:46:38+02:00</time>
      </trkpt>
      <trkpt lat="49.47054" lon="6.36652">
        <ele>142.2998</ele>
        <time>2026-05-19T16:46:39+02:00</time>
      </trkpt>
      <trkpt lat="49.4706" lon="6.36652">
        <ele>142.2998</ele>
        <time>2026-05-19T16:46:40+02:00</time>
      </trkpt>
      <trkpt lat="49.47066" lon="6.36653">
        <ele>142.2002</ele>
        <time>2026-05-19T16:46:41+02:00</time>
      </trkpt>
      <trkpt lat="49.4709" lon="6.36654">
        <ele>142.2998</ele>
        <time>2026-05-19T16:46:42+02:00</time>
      </trkpt>
      <trkpt lat="49.47095" lon="6.36654">
        <ele>142.7002</ele>
        <time>2026-05-19T16:46:43+02:00</time>
      </trkpt>
      <trkpt lat="49.47098" lon="6.36655">
        <ele>143.40039</ele>
        <time>2026-05-19T16:46:44+02:00</time>
      </trkpt>
      <trkpt lat="49.47104" lon="6.36655">
        <ele>144.10059</ele>
        <time>2026-05-19T16:46:45+02:00</time>
      </trkpt>
      <trkpt lat="49.47106" lon="6.36655">
        <ele>144.10059</ele>
        <time>2026-05-19T16:46:46+02:00</time>
      </trkpt>
      <trkpt lat="49.47107" lon="6.36655">
        <ele>144.10059</ele>
        <time>2026-05-19T16:46:47+02:00</time>
      </trkpt>
      <trkpt lat="49.47107" lon="6.36655">
        <ele>144.10059</ele>
        <time>2026-05-19T16:46:48+02:00</time>
      </trkpt>
      <trkpt lat="49.47107" lon="6.36655">
        <ele>144.10059</ele>
        <time>2026-05-19T16:46:49+02:00</time>
      </trkpt>
      <trkpt lat="49.47107" lon="6.36655">
        <ele>144.10059</ele>
        <time>2026-05-19T16:46:50+02:00</time>
      </trkpt>
      <trkpt lat="49.47107" lon="6.36655">
        <ele>144.10059</ele>
        <time>2026-05-19T16:46:51+02:00</time>
      </trkpt>
      <trkpt lat="49.47106" lon="6.36634">
        <ele>145.60059</ele>
        <time>2026-05-19T16:46:54+02:00</time>
      </trkpt>
      <trkpt lat="49.47106" lon="6.36629">
        <ele>146.2002</ele>
        <time>2026-05-19T16:46:55+02:00</time>
      </trkpt>
      <trkpt lat="49.47106" lon="6.36623">
        <ele>146.7002</ele>
        <time>2026-05-19T16:46:56+02:00</time>
      </trkpt>
      <trkpt lat="49.47106" lon="6.36616">
        <ele>146.7002</ele>
        <time>2026-05-19T16:46:57+02:00</time>
      </trkpt>
      <trkpt lat="49.47107" lon="6.36609">
        <ele>147.2002</ele>
        <time>2026-05-19T16:46:58+02:00</time>
      </trkpt>
      <trkpt lat="49.47108" lon="6.36602">
        <ele>147.7002</ele>
        <time>2026-05-19T16:46:59+02:00</time>
      </trkpt>
      <trkpt lat="49.47109" lon="6.36594">
        <ele>148.10059</ele>
        <time>2026-05-19T16:47:00+02:00</time>
      </trkpt>
      <trkpt lat="49.47111" lon="6.36586">
        <ele>148.5</ele>
        <time>2026-05-19T16:47:01+02:00</time>
      </trkpt>
      <trkpt lat="49.47112" lon="6.36578">
        <ele>148.90039</ele>
        <time>2026-05-19T16:47:02+02:00</time>
      </trkpt>
      <trkpt lat="49.47114" lon="6.36571">
        <ele>149.2002</ele>
        <time>2026-05-19T16:47:03+02:00</time>
      </trkpt>
      <trkpt lat="49.47114" lon="6.36567">
        <ele>149.2002</ele>
        <time>2026-05-19T16:47:04+02:00</time>
      </trkpt>
      <trkpt lat="49.47116" lon="6.36556">
        <ele>149.5</ele>
        <time>2026-05-19T16:47:05+02:00</time>
      </trkpt>
      <trkpt lat="49.47117" lon="6.36549">
        <ele>149.90039</ele>
        <time>2026-05-19T16:47:06+02:00</time>
      </trkpt>
      <trkpt lat="49.47117" lon="6.36542">
        <ele>150.5</ele>
        <time>2026-05-19T16:47:07+02:00</time>
      </trkpt>
      <trkpt lat="49.47118" lon="6.36536">
        <ele>151.10059</ele>
        <time>2026-05-19T16:47:08+02:00</time>
      </trkpt>
      <trkpt lat="49.47119" lon="6.3653">
        <ele>151.10059</ele>
        <time>2026-05-19T16:47:09+02:00</time>
      </trkpt>
      <trkpt lat="49.47119" lon="6.36526">
        <ele>151.90039</ele>
        <time>2026-05-19T16:47:10+02:00</time>
      </trkpt>
      <trkpt lat="49.47118" lon="6.36525">
        <ele>151.90039</ele>
        <time>2026-05-19T16:47:11+02:00</time>
      </trkpt>
      <trkpt lat="49.47117" lon="6.36522">
        <ele>151.90039</ele>
        <time>2026-05-19T16:47:12+02:00</time>
      </trkpt>
      <trkpt lat="49.47115" lon="6.3652">
        <ele>152.7998</ele>
        <time>2026-05-19T16:47:13+02:00</time>
      </trkpt>
      <trkpt lat="49.47114" lon="6.36517">
        <ele>152.7998</ele>
        <time>2026-05-19T16:47:14+02:00</time>
      </trkpt>
      <trkpt lat="49.47112" lon="6.36514">
        <ele>153</ele>
        <time>2026-05-19T16:47:15+02:00</time>
      </trkpt>
      <trkpt lat="49.47111" lon="6.3651">
        <ele>154</ele>
        <time>2026-05-19T16:47:16+02:00</time>
      </trkpt>
      <trkpt lat="49.47111" lon="6.36505">
        <ele>154</ele>
        <time>2026-05-19T16:47:17+02:00</time>
      </trkpt>
      <trkpt lat="49.4711" lon="6.365">
        <ele>155</ele>
        <time>2026-05-19T16:47:18+02:00</time>
      </trkpt>
      <trkpt lat="49.47109" lon="6.36496">
        <ele>155</ele>
        <time>2026-05-19T16:47:19+02:00</time>
      </trkpt>
      <trkpt lat="49.47106" lon="6.36493">
        <ele>156.2002</ele>
        <time>2026-05-19T16:47:20+02:00</time>
      </trkpt>
      <trkpt lat="49.47103" lon="6.36489">
        <ele>156.2002</ele>
        <time>2026-05-19T16:47:21+02:00</time>
      </trkpt>
      <trkpt lat="49.471" lon="6.36486">
        <ele>157.2998</ele>
        <time>2026-05-19T16:47:22+02:00</time>
      </trkpt>
      <trkpt lat="49.47097" lon="6.36481">
        <ele>157.2998</ele>
        <time>2026-05-19T16:47:23+02:00</time>
      </trkpt>
      <trkpt lat="49.47094" lon="6.36478">
        <ele>157.2998</ele>
        <time>2026-05-19T16:47:24+02:00</time>
      </trkpt>
      <trkpt lat="49.47092" lon="6.36474">
        <ele>158.2998</ele>
        <time>2026-05-19T16:47:25+02:00</time>
      </trkpt>
      <trkpt lat="49.47089" lon="6.36471">
        <ele>158.2998</ele>
        <time>2026-05-19T16:47:26+02:00</time>
      </trkpt>
      <trkpt lat="49.47086" lon="6.36468">
        <ele>159.2002</ele>
        <time>2026-05-19T16:47:27+02:00</time>
      </trkpt>
      <trkpt lat="49.47084" lon="6.36464">
        <ele>159.2998</ele>
        <time>2026-05-19T16:47:28+02:00</time>
      </trkpt>
      <trkpt lat="49.47081" lon="6.36461">
        <ele>159.2998</ele>
        <time>2026-05-19T16:47:29+02:00</time>
      </trkpt>
      <trkpt lat="49.47079" lon="6.36457">
        <ele>160.10059</ele>
        <time>2026-05-19T16:47:30+02:00</time>
      </trkpt>
      <trkpt lat="49.47077" lon="6.36453">
        <ele>160.10059</ele>
        <time>2026-05-19T16:47:31+02:00</time>
      </trkpt>
      <trkpt lat="49.47074" lon="6.36449">
        <ele>161</ele>
        <time>2026-05-19T16:47:32+02:00</time>
      </trkpt>
      <trkpt lat="49.47072" lon="6.36445">
        <ele>161</ele>
        <time>2026-05-19T16:47:33+02:00</time>
      </trkpt>
      <trkpt lat="49.47069" lon="6.36441">
        <ele>161.60059</ele>
        <time>2026-05-19T16:47:34+02:00</time>
      </trkpt>
      <trkpt lat="49.47067" lon="6.36437">
        <ele>161.7998</ele>
        <time>2026-05-19T16:47:35+02:00</time>
      </trkpt>
      <trkpt lat="49.47065" lon="6.36433">
        <ele>162.40039</ele>
        <time>2026-05-19T16:47:36+02:00</time>
      </trkpt>
      <trkpt lat="49.47063" lon="6.36429">
        <ele>162.7002</ele>
        <time>2026-05-19T16:47:37+02:00</time>
      </trkpt>
      <trkpt lat="49.47061" lon="6.36425">
        <ele>163.40039</ele>
        <time>2026-05-19T16:47:38+02:00</time>
      </trkpt>
      <trkpt lat="49.47059" lon="6.36421">
        <ele>163.40039</ele>
        <time>2026-05-19T16:47:39+02:00</time>
      </trkpt>
      <trkpt lat="49.47057" lon="6.36417">
        <ele>164.2002</ele>
        <time>2026-05-19T16:47:40+02:00</time>
      </trkpt>
      <trkpt lat="49.47056" lon="6.36413">
        <ele>164.2002</ele>
        <time>2026-05-19T16:47:41+02:00</time>
      </trkpt>
      <trkpt lat="49.47053" lon="6.36409">
        <ele>164.2002</ele>
        <time>2026-05-19T16:47:42+02:00</time>
      </trkpt>
      <trkpt lat="49.47051" lon="6.36405">
        <ele>165.10059</ele>
        <time>2026-05-19T16:47:43+02:00</time>
      </trkpt>
      <trkpt lat="49.47049" lon="6.36402">
        <ele>165.10059</ele>
        <time>2026-05-19T16:47:44+02:00</time>
      </trkpt>
      <trkpt lat="49.47048" lon="6.36397">
        <ele>165.60059</ele>
        <time>2026-05-19T16:47:45+02:00</time>
      </trkpt>
      <trkpt lat="49.47046" lon="6.36393">
        <ele>165.90039</ele>
        <time>2026-05-19T16:47:46+02:00</time>
      </trkpt>
      <trkpt lat="49.47045" lon="6.36388">
        <ele>166.2998</ele>
        <time>2026-05-19T16:47:47+02:00</time>
      </trkpt>
      <trkpt lat="49.47043" lon="6.36384">
        <ele>166.2998</ele>
        <time>2026-05-19T16:47:48+02:00</time>
      </trkpt>
      <trkpt lat="49.47043" lon="6.36382">
        <ele>166.7998</ele>
        <time>2026-05-19T16:47:49+02:00</time>
      </trkpt>
      <trkpt lat="49.4704" lon="6.36375">
        <ele>167.10059</ele>
        <time>2026-05-19T16:47:50+02:00</time>
      </trkpt>
      <trkpt lat="49.47039" lon="6.3637">
        <ele>167.40039</ele>
        <time>2026-05-19T16:47:51+02:00</time>
      </trkpt>
      <trkpt lat="49.47038" lon="6.36365">
        <ele>167.7002</ele>
        <time>2026-05-19T16:47:52+02:00</time>
      </trkpt>
      <trkpt lat="49.47037" lon="6.36361">
        <ele>167.7002</ele>
        <time>2026-05-19T16:47:53+02:00</time>
      </trkpt>
      <trkpt lat="49.47036" lon="6.36356">
        <ele>168</ele>
        <time>2026-05-19T16:47:54+02:00</time>
      </trkpt>
      <trkpt lat="49.47035" lon="6.36351">
        <ele>168.40039</ele>
        <time>2026-05-19T16:47:55+02:00</time>
      </trkpt>
      <trkpt lat="49.47034" lon="6.36346">
        <ele>168.60059</ele>
        <time>2026-05-19T16:47:56+02:00</time>
      </trkpt>
      <trkpt lat="49.47033" lon="6.36341">
        <ele>168.60059</ele>
        <time>2026-05-19T16:47:57+02:00</time>
      </trkpt>
      <trkpt lat="49.47032" lon="6.36337">
        <ele>168.90039</ele>
        <time>2026-05-19T16:47:58+02:00</time>
      </trkpt>
      <trkpt lat="49.47031" lon="6.36332">
        <ele>168.90039</ele>
        <time>2026-05-19T16:47:59+02:00</time>
      </trkpt>
      <trkpt lat="49.4703" lon="6.36327">
        <ele>169.40039</ele>
        <time>2026-05-19T16:48:00+02:00</time>
      </trkpt>
      <trkpt lat="49.47028" lon="6.36322">
        <ele>169.60059</ele>
        <time>2026-05-19T16:48:01+02:00</time>
      </trkpt>
      <trkpt lat="49.47027" lon="6.36318">
        <ele>169.60059</ele>
        <time>2026-05-19T16:48:02+02:00</time>
      </trkpt>
      <trkpt lat="49.47026" lon="6.36313">
        <ele>169.7998</ele>
        <time>2026-05-19T16:48:03+02:00</time>
      </trkpt>
      <trkpt lat="49.47024" lon="6.36309">
        <ele>170.2002</ele>
        <time>2026-05-19T16:48:04+02:00</time>
      </trkpt>
      <trkpt lat="49.47023" lon="6.36304">
        <ele>170.2998</ele>
        <time>2026-05-19T16:48:05+02:00</time>
      </trkpt>
      <trkpt lat="49.47022" lon="6.36299">
        <ele>170.2998</ele>
        <time>2026-05-19T16:48:06+02:00</time>
      </trkpt>
      <trkpt lat="49.4702" lon="6.36295">
        <ele>170.5</ele>
        <time>2026-05-19T16:48:07+02:00</time>
      </trkpt>
      <trkpt lat="49.47019" lon="6.3629">
        <ele>170.5</ele>
        <time>2026-05-19T16:48:08+02:00</time>
      </trkpt>
      <trkpt lat="49.47017" lon="6.36286">
        <ele>171.2002</ele>
        <time>2026-05-19T16:48:09+02:00</time>
      </trkpt>
      <trkpt lat="49.47015" lon="6.36281">
        <ele>171.2002</ele>
        <time>2026-05-19T16:48:10+02:00</time>
      </trkpt>
      <trkpt lat="49.47013" lon="6.36277">
        <ele>172.10059</ele>
        <time>2026-05-19T16:48:11+02:00</time>
      </trkpt>
      <trkpt lat="49.47011" lon="6.36273">
        <ele>172.10059</ele>
        <time>2026-05-19T16:48:12+02:00</time>
      </trkpt>
      <trkpt lat="49.47009" lon="6.36268">
        <ele>172.60059</ele>
        <time>2026-05-19T16:48:13+02:00</time>
      </trkpt>
      <trkpt lat="49.47008" lon="6.36264">
        <ele>172.60059</ele>
        <time>2026-05-19T16:48:14+02:00</time>
      </trkpt>
      <trkpt lat="49.47006" lon="6.3626">
        <ele>173.2998</ele>
        <time>2026-05-19T16:48:15+02:00</time>
      </trkpt>
      <trkpt lat="49.47003" lon="6.36256">
        <ele>173.2998</ele>
        <time>2026-05-19T16:48:16+02:00</time>
      </trkpt>
      <trkpt lat="49.47001" lon="6.36252">
        <ele>173.90039</ele>
        <time>2026-05-19T16:48:17+02:00</time>
      </trkpt>
      <trkpt lat="49.46999" lon="6.36248">
        <ele>173.90039</ele>
        <time>2026-05-19T16:48:18+02:00</time>
      </trkpt>
      <trkpt lat="49.46997" lon="6.36244">
        <ele>174.2002</ele>
        <time>2026-05-19T16:48:19+02:00</time>
      </trkpt>
      <trkpt lat="49.46995" lon="6.3624">
        <ele>174.5</ele>
        <time>2026-05-19T16:48:20+02:00</time>
      </trkpt>
      <trkpt lat="49.46992" lon="6.36236">
        <ele>174.7998</ele>
        <time>2026-05-19T16:48:21+02:00</time>
      </trkpt>
      <trkpt lat="49.4699" lon="6.36232">
        <ele>175.2002</ele>
        <time>2026-05-19T16:48:22+02:00</time>
      </trkpt>
      <trkpt lat="49.46988" lon="6.36228">
        <ele>175.5</ele>
        <time>2026-05-19T16:48:23+02:00</time>
      </trkpt>
      <trkpt lat="49.46986" lon="6.36224">
        <ele>175.5</ele>
        <time>2026-05-19T16:48:24+02:00</time>
      </trkpt>
      <trkpt lat="49.46984" lon="6.3622">
        <ele>176</ele>
        <time>2026-05-19T16:48:25+02:00</time>
      </trkpt>
      <trkpt lat="49.46982" lon="6.36217">
        <ele>176.10059</ele>
        <time>2026-05-19T16:48:26+02:00</time>
      </trkpt>
      <trkpt lat="49.4698" lon="6.36214">
        <ele>176.10059</ele>
        <time>2026-05-19T16:48:27+02:00</time>
      </trkpt>
      <trkpt lat="49.46978" lon="6.3621">
        <ele>176.5</ele>
        <time>2026-05-19T16:48:28+02:00</time>
      </trkpt>
      <trkpt lat="49.46976" lon="6.36206">
        <ele>176.5</ele>
        <time>2026-05-19T16:48:29+02:00</time>
      </trkpt>
      <trkpt lat="49.46974" lon="6.36202">
        <ele>176.2998</ele>
        <time>2026-05-19T16:48:30+02:00</time>
      </trkpt>
      <trkpt lat="49.46971" lon="6.36198">
        <ele>176.5</ele>
        <time>2026-05-19T16:48:31+02:00</time>
      </trkpt>
      <trkpt lat="49.46969" lon="6.36194">
        <ele>176.2998</ele>
        <time>2026-05-19T16:48:32+02:00</time>
      </trkpt>
      <trkpt lat="49.46966" lon="6.3619">
        <ele>176.40039</ele>
        <time>2026-05-19T16:48:33+02:00</time>
      </trkpt>
      <trkpt lat="49.46964" lon="6.36186">
        <ele>176.40039</ele>
        <time>2026-05-19T16:48:34+02:00</time>
      </trkpt>
      <trkpt lat="49.46962" lon="6.36181">
        <ele>176.5</ele>
        <time>2026-05-19T16:48:35+02:00</time>
      </trkpt>
      <trkpt lat="49.46961" lon="6.36177">
        <ele>176.40039</ele>
        <time>2026-05-19T16:48:36+02:00</time>
      </trkpt>
      <trkpt lat="49.46959" lon="6.36173">
        <ele>176.40039</ele>
        <time>2026-05-19T16:48:37+02:00</time>
      </trkpt>
      <trkpt lat="49.46957" lon="6.36169">
        <ele>176.7002</ele>
        <time>2026-05-19T16:48:38+02:00</time>
      </trkpt>
      <trkpt lat="49.46955" lon="6.36165">
        <ele>176.60059</ele>
        <time>2026-05-19T16:48:39+02:00</time>
      </trkpt>
      <trkpt lat="49.46954" lon="6.3616">
        <ele>176.60059</ele>
        <time>2026-05-19T16:48:40+02:00</time>
      </trkpt>
      <trkpt lat="49.46952" lon="6.36156">
        <ele>176.60059</ele>
        <time>2026-05-19T16:48:41+02:00</time>
      </trkpt>
      <trkpt lat="49.46951" lon="6.36151">
        <ele>177</ele>
        <time>2026-05-19T16:48:42+02:00</time>
      </trkpt>
      <trkpt lat="49.46949" lon="6.36146">
        <ele>177</ele>
        <time>2026-05-19T16:48:43+02:00</time>
      </trkpt>
      <trkpt lat="49.46948" lon="6.36141">
        <ele>177.10059</ele>
        <time>2026-05-19T16:48:44+02:00</time>
      </trkpt>
      <trkpt lat="49.46946" lon="6.36136">
        <ele>177.2998</ele>
        <time>2026-05-19T16:48:45+02:00</time>
      </trkpt>
      <trkpt lat="49.46945" lon="6.36131">
        <ele>177.2998</ele>
        <time>2026-05-19T16:48:46+02:00</time>
      </trkpt>
      <trkpt lat="49.46944" lon="6.36126">
        <ele>177.2998</ele>
        <time>2026-05-19T16:48:47+02:00</time>
      </trkpt>
      <trkpt lat="49.46943" lon="6.36121">
        <ele>177.40039</ele>
        <time>2026-05-19T16:48:48+02:00</time>
      </trkpt>
      <trkpt lat="49.46941" lon="6.36116">
        <ele>177.60059</ele>
        <time>2026-05-19T16:48:49+02:00</time>
      </trkpt>
      <trkpt lat="49.4694" lon="6.3611">
        <ele>177.7002</ele>
        <time>2026-05-19T16:48:50+02:00</time>
      </trkpt>
      <trkpt lat="49.46938" lon="6.36105">
        <ele>177.90039</ele>
        <time>2026-05-19T16:48:51+02:00</time>
      </trkpt>
      <trkpt lat="49.46937" lon="6.361">
        <ele>177.90039</ele>
        <time>2026-05-19T16:48:52+02:00</time>
      </trkpt>
      <trkpt lat="49.46937" lon="6.36095">
        <ele>178.10059</ele>
        <time>2026-05-19T16:48:53+02:00</time>
      </trkpt>
      <trkpt lat="49.46935" lon="6.3609">
        <ele>178.40039</ele>
        <time>2026-05-19T16:48:54+02:00</time>
      </trkpt>
      <trkpt lat="49.46934" lon="6.36085">
        <ele>178.40039</ele>
        <time>2026-05-19T16:48:55+02:00</time>
      </trkpt>
      <trkpt lat="49.46933" lon="6.3608">
        <ele>178.60059</ele>
        <time>2026-05-19T16:48:56+02:00</time>
      </trkpt>
      <trkpt lat="49.46933" lon="6.36075">
        <ele>178.60059</ele>
        <time>2026-05-19T16:48:57+02:00</time>
      </trkpt>
      <trkpt lat="49.46932" lon="6.3607">
        <ele>178.90039</ele>
        <time>2026-05-19T16:48:58+02:00</time>
      </trkpt>
      <trkpt lat="49.46931" lon="6.36065">
        <ele>179.10059</ele>
        <time>2026-05-19T16:48:59+02:00</time>
      </trkpt>
      <trkpt lat="49.4693" lon="6.3606">
        <ele>179.10059</ele>
        <time>2026-05-19T16:49:00+02:00</time>
      </trkpt>
      <trkpt lat="49.46929" lon="6.36055">
        <ele>179.5</ele>
        <time>2026-05-19T16:49:01+02:00</time>
      </trkpt>
      <trkpt lat="49.46929" lon="6.36052">
        <ele>179.5</ele>
        <time>2026-05-19T16:49:02+02:00</time>
      </trkpt>
      <trkpt lat="49.46927" lon="6.36044">
        <ele>179.7998</ele>
        <time>2026-05-19T16:49:03+02:00</time>
      </trkpt>
      <trkpt lat="49.46927" lon="6.36039">
        <ele>180.10059</ele>
        <time>2026-05-19T16:49:04+02:00</time>
      </trkpt>
      <trkpt lat="49.46927" lon="6.36034">
        <ele>180.10059</ele>
        <time>2026-05-19T16:49:05+02:00</time>
      </trkpt>
      <trkpt lat="49.46927" lon="6.36029">
        <ele>180.40039</ele>
        <time>2026-05-19T16:49:06+02:00</time>
      </trkpt>
      <trkpt lat="49.46927" lon="6.36024">
        <ele>180.40039</ele>
        <time>2026-05-19T16:49:07+02:00</time>
      </trkpt>
      <trkpt lat="49.46927" lon="6.36019">
        <ele>180.7002</ele>
        <time>2026-05-19T16:49:08+02:00</time>
      </trkpt>
      <trkpt lat="49.46927" lon="6.36014">
        <ele>180.7002</ele>
        <time>2026-05-19T16:49:09+02:00</time>
      </trkpt>
      <trkpt lat="49.46928" lon="6.36008">
        <ele>181</ele>
        <time>2026-05-19T16:49:10+02:00</time>
      </trkpt>
      <trkpt lat="49.46929" lon="6.36003">
        <ele>181.2998</ele>
        <time>2026-05-19T16:49:11+02:00</time>
      </trkpt>
      <trkpt lat="49.4693" lon="6.35998">
        <ele>181.2998</ele>
        <time>2026-05-19T16:49:12+02:00</time>
      </trkpt>
      <trkpt lat="49.46931" lon="6.35993">
        <ele>181.60059</ele>
        <time>2026-05-19T16:49:13+02:00</time>
      </trkpt>
      <trkpt lat="49.46932" lon="6.35988">
        <ele>181.90039</ele>
        <time>2026-05-19T16:49:14+02:00</time>
      </trkpt>
      <trkpt lat="49.46933" lon="6.35983">
        <ele>181.90039</ele>
        <time>2026-05-19T16:49:15+02:00</time>
      </trkpt>
      <trkpt lat="49.46934" lon="6.35978">
        <ele>182.10059</ele>
        <time>2026-05-19T16:49:16+02:00</time>
      </trkpt>
      <trkpt lat="49.46935" lon="6.35973">
        <ele>182.10059</ele>
        <time>2026-05-19T16:49:17+02:00</time>
      </trkpt>
      <trkpt lat="49.46937" lon="6.35968">
        <ele>182.40039</ele>
        <time>2026-05-19T16:49:18+02:00</time>
      </trkpt>
      <trkpt lat="49.46938" lon="6.35963">
        <ele>182.40039</ele>
        <time>2026-05-19T16:49:19+02:00</time>
      </trkpt>
      <trkpt lat="49.46939" lon="6.35958">
        <ele>182.5</ele>
        <time>2026-05-19T16:49:20+02:00</time>
      </trkpt>
      <trkpt lat="49.4694" lon="6.35952">
        <ele>182.7002</ele>
        <time>2026-05-19T16:49:21+02:00</time>
      </trkpt>
      <trkpt lat="49.46942" lon="6.35947">
        <ele>182.7998</ele>
        <time>2026-05-19T16:49:22+02:00</time>
      </trkpt>
      <trkpt lat="49.46943" lon="6.35942">
        <ele>183</ele>
        <time>2026-05-19T16:49:23+02:00</time>
      </trkpt>
      <trkpt lat="49.46944" lon="6.35936">
        <ele>183.2002</ele>
        <time>2026-05-19T16:49:24+02:00</time>
      </trkpt>
      <trkpt lat="49.46945" lon="6.35931">
        <ele>183.2002</ele>
        <time>2026-05-19T16:49:25+02:00</time>
      </trkpt>
      <trkpt lat="49.46946" lon="6.35926">
        <ele>183.40039</ele>
        <time>2026-05-19T16:49:26+02:00</time>
      </trkpt>
      <trkpt lat="49.46948" lon="6.35921">
        <ele>183.40039</ele>
        <time>2026-05-19T16:49:27+02:00</time>
      </trkpt>
      <trkpt lat="49.46949" lon="6.35916">
        <ele>183.60059</ele>
        <time>2026-05-19T16:49:28+02:00</time>
      </trkpt>
      <trkpt lat="49.4695" lon="6.35911">
        <ele>183.90039</ele>
        <time>2026-05-19T16:49:29+02:00</time>
      </trkpt>
      <trkpt lat="49.46951" lon="6.35905">
        <ele>183.90039</ele>
        <time>2026-05-19T16:49:30+02:00</time>
      </trkpt>
      <trkpt lat="49.46952" lon="6.359">
        <ele>184.2998</ele>
        <time>2026-05-19T16:49:31+02:00</time>
      </trkpt>
      <trkpt lat="49.46953" lon="6.35895">
        <ele>184.2998</ele>
        <time>2026-05-19T16:49:32+02:00</time>
      </trkpt>
      <trkpt lat="49.46953" lon="6.35889">
        <ele>184.60059</ele>
        <time>2026-05-19T16:49:33+02:00</time>
      </trkpt>
      <trkpt lat="49.46954" lon="6.35883">
        <ele>184.90039</ele>
        <time>2026-05-19T16:49:34+02:00</time>
      </trkpt>
      <trkpt lat="49.46954" lon="6.35878">
        <ele>184.90039</ele>
        <time>2026-05-19T16:49:35+02:00</time>
      </trkpt>
      <trkpt lat="49.46954" lon="6.35872">
        <ele>185.2002</ele>
        <time>2026-05-19T16:49:36+02:00</time>
      </trkpt>
      <trkpt lat="49.46954" lon="6.35867">
        <ele>185.5</ele>
        <time>2026-05-19T16:49:37+02:00</time>
      </trkpt>
      <trkpt lat="49.46954" lon="6.35864">
        <ele>185.5</ele>
        <time>2026-05-19T16:49:38+02:00</time>
      </trkpt>
      <trkpt lat="49.46954" lon="6.35855">
        <ele>185.7998</ele>
        <time>2026-05-19T16:49:39+02:00</time>
      </trkpt>
      <trkpt lat="49.46954" lon="6.35849">
        <ele>186.10059</ele>
        <time>2026-05-19T16:49:40+02:00</time>
      </trkpt>
      <trkpt lat="49.46954" lon="6.35844">
        <ele>186.10059</ele>
        <time>2026-05-19T16:49:41+02:00</time>
      </trkpt>
      <trkpt lat="49.46953" lon="6.35838">
        <ele>186.40039</ele>
        <time>2026-05-19T16:49:42+02:00</time>
      </trkpt>
      <trkpt lat="49.46953" lon="6.35832">
        <ele>186.7002</ele>
        <time>2026-05-19T16:49:43+02:00</time>
      </trkpt>
      <trkpt lat="49.46952" lon="6.35827">
        <ele>186.7002</ele>
        <time>2026-05-19T16:49:44+02:00</time>
      </trkpt>
      <trkpt lat="49.46951" lon="6.35821">
        <ele>186.7998</ele>
        <time>2026-05-19T16:49:45+02:00</time>
      </trkpt>
      <trkpt lat="49.4695" lon="6.35816">
        <ele>187.10059</ele>
        <time>2026-05-19T16:49:46+02:00</time>
      </trkpt>
      <trkpt lat="49.4695" lon="6.3581">
        <ele>187.10059</ele>
        <time>2026-05-19T16:49:47+02:00</time>
      </trkpt>
      <trkpt lat="49.46949" lon="6.35804">
        <ele>187.40039</ele>
        <time>2026-05-19T16:49:48+02:00</time>
      </trkpt>
      <trkpt lat="49.46948" lon="6.35799">
        <ele>187.60059</ele>
        <time>2026-05-19T16:49:49+02:00</time>
      </trkpt>
      <trkpt lat="49.46947" lon="6.35793">
        <ele>187.60059</ele>
        <time>2026-05-19T16:49:50+02:00</time>
      </trkpt>
      <trkpt lat="49.46946" lon="6.35788">
        <ele>187.7998</ele>
        <time>2026-05-19T16:49:51+02:00</time>
      </trkpt>
      <trkpt lat="49.46945" lon="6.35783">
        <ele>187.7998</ele>
        <time>2026-05-19T16:49:52+02:00</time>
      </trkpt>
      <trkpt lat="49.46945" lon="6.35777">
        <ele>188</ele>
        <time>2026-05-19T16:49:53+02:00</time>
      </trkpt>
      <trkpt lat="49.46944" lon="6.35772">
        <ele>188.2998</ele>
        <time>2026-05-19T16:49:54+02:00</time>
      </trkpt>
      <trkpt lat="49.46943" lon="6.35767">
        <ele>188.2998</ele>
        <time>2026-05-19T16:49:55+02:00</time>
      </trkpt>
      <trkpt lat="49.46943" lon="6.35764">
        <ele>188.60059</ele>
        <time>2026-05-19T16:49:56+02:00</time>
      </trkpt>
      <trkpt lat="49.46942" lon="6.35756">
        <ele>188.90039</ele>
        <time>2026-05-19T16:49:57+02:00</time>
      </trkpt>
      <trkpt lat="49.46941" lon="6.35751">
        <ele>188.90039</ele>
        <time>2026-05-19T16:49:58+02:00</time>
      </trkpt>
      <trkpt lat="49.4694" lon="6.35746">
        <ele>189.10059</ele>
        <time>2026-05-19T16:49:59+02:00</time>
      </trkpt>
      <trkpt lat="49.46938" lon="6.35741">
        <ele>189.10059</ele>
        <time>2026-05-19T16:50:00+02:00</time>
      </trkpt>
      <trkpt lat="49.46937" lon="6.35736">
        <ele>189.40039</ele>
        <time>2026-05-19T16:50:01+02:00</time>
      </trkpt>
      <trkpt lat="49.46935" lon="6.35731">
        <ele>189.2998</ele>
        <time>2026-05-19T16:50:02+02:00</time>
      </trkpt>
      <trkpt lat="49.46933" lon="6.35727">
        <ele>189.60059</ele>
        <time>2026-05-19T16:50:03+02:00</time>
      </trkpt>
      <trkpt lat="49.46931" lon="6.35723">
        <ele>189.60059</ele>
        <time>2026-05-19T16:50:04+02:00</time>
      </trkpt>
      <trkpt lat="49.46929" lon="6.3572">
        <ele>189.7002</ele>
        <time>2026-05-19T16:50:05+02:00</time>
      </trkpt>
      <trkpt lat="49.46926" lon="6.35717">
        <ele>189.7002</ele>
        <time>2026-05-19T16:50:06+02:00</time>
      </trkpt>
      <trkpt lat="49.46923" lon="6.35714">
        <ele>189.7002</ele>
        <time>2026-05-19T16:50:07+02:00</time>
      </trkpt>
      <trkpt lat="49.46921" lon="6.35711">
        <ele>190</ele>
        <time>2026-05-19T16:50:08+02:00</time>
      </trkpt>
      <trkpt lat="49.46918" lon="6.35708">
        <ele>189.90039</ele>
        <time>2026-05-19T16:50:09+02:00</time>
      </trkpt>
      <trkpt lat="49.46915" lon="6.35704">
        <ele>190.2002</ele>
        <time>2026-05-19T16:50:10+02:00</time>
      </trkpt>
      <trkpt lat="49.46913" lon="6.357">
        <ele>190.2002</ele>
        <time>2026-05-19T16:50:11+02:00</time>
      </trkpt>
      <trkpt lat="49.46909" lon="6.35696">
        <ele>190.5</ele>
        <time>2026-05-19T16:50:12+02:00</time>
      </trkpt>
      <trkpt lat="49.46907" lon="6.35692">
        <ele>190.5</ele>
        <time>2026-05-19T16:50:13+02:00</time>
      </trkpt>
      <trkpt lat="49.46904" lon="6.35688">
        <ele>190.5</ele>
        <time>2026-05-19T16:50:14+02:00</time>
      </trkpt>
      <trkpt lat="49.46901" lon="6.35685">
        <ele>190.7998</ele>
        <time>2026-05-19T16:50:15+02:00</time>
      </trkpt>
      <trkpt lat="49.46898" lon="6.35681">
        <ele>190.7998</ele>
        <time>2026-05-19T16:50:16+02:00</time>
      </trkpt>
      <trkpt lat="49.46895" lon="6.35678">
        <ele>191</ele>
        <time>2026-05-19T16:50:17+02:00</time>
      </trkpt>
      <trkpt lat="49.46893" lon="6.35674">
        <ele>191</ele>
        <time>2026-05-19T16:50:18+02:00</time>
      </trkpt>
      <trkpt lat="49.4689" lon="6.35671">
        <ele>191</ele>
        <time>2026-05-19T16:50:19+02:00</time>
      </trkpt>
      <trkpt lat="49.46887" lon="6.35668">
        <ele>191.2998</ele>
        <time>2026-05-19T16:50:20+02:00</time>
      </trkpt>
      <trkpt lat="49.46884" lon="6.35665">
        <ele>191.2998</ele>
        <time>2026-05-19T16:50:21+02:00</time>
      </trkpt>
      <trkpt lat="49.46882" lon="6.35664">
        <ele>191.2998</ele>
        <time>2026-05-19T16:50:22+02:00</time>
      </trkpt>
      <trkpt lat="49.46877" lon="6.3566">
        <ele>191.5</ele>
        <time>2026-05-19T16:50:23+02:00</time>
      </trkpt>
      <trkpt lat="49.46874" lon="6.35658">
        <ele>191.5</ele>
        <time>2026-05-19T16:50:24+02:00</time>
      </trkpt>
      <trkpt lat="49.46871" lon="6.35656">
        <ele>191.5</ele>
        <time>2026-05-19T16:50:25+02:00</time>
      </trkpt>
      <trkpt lat="49.46867" lon="6.35653">
        <ele>191.7002</ele>
        <time>2026-05-19T16:50:26+02:00</time>
      </trkpt>
      <trkpt lat="49.46864" lon="6.35651">
        <ele>191.7002</ele>
        <time>2026-05-19T16:50:27+02:00</time>
      </trkpt>
      <trkpt lat="49.4686" lon="6.35649">
        <ele>191.7002</ele>
        <time>2026-05-19T16:50:28+02:00</time>
      </trkpt>
      <trkpt lat="49.46857" lon="6.35647">
        <ele>191.7002</ele>
        <time>2026-05-19T16:50:29+02:00</time>
      </trkpt>
      <trkpt lat="49.46854" lon="6.35645">
        <ele>191.7002</ele>
        <time>2026-05-19T16:50:30+02:00</time>
      </trkpt>
      <trkpt lat="49.4685" lon="6.35644">
        <ele>191.90039</ele>
        <time>2026-05-19T16:50:31+02:00</time>
      </trkpt>
      <trkpt lat="49.46847" lon="6.35642">
        <ele>191.90039</ele>
        <time>2026-05-19T16:50:32+02:00</time>
      </trkpt>
      <trkpt lat="49.46843" lon="6.35641">
        <ele>192</ele>
        <time>2026-05-19T16:50:33+02:00</time>
      </trkpt>
      <trkpt lat="49.4684" lon="6.3564">
        <ele>192</ele>
        <time>2026-05-19T16:50:34+02:00</time>
      </trkpt>
      <trkpt lat="49.46837" lon="6.35639">
        <ele>192</ele>
        <time>2026-05-19T16:50:35+02:00</time>
      </trkpt>
      <trkpt lat="49.46833" lon="6.35637">
        <ele>192.10059</ele>
        <time>2026-05-19T16:50:36+02:00</time>
      </trkpt>
      <trkpt lat="49.4683" lon="6.35636">
        <ele>192.2998</ele>
        <time>2026-05-19T16:50:37+02:00</time>
      </trkpt>
      <trkpt lat="49.46826" lon="6.35635">
        <ele>192.2998</ele>
        <time>2026-05-19T16:50:38+02:00</time>
      </trkpt>
      <trkpt lat="49.46822" lon="6.35634">
        <ele>192.5</ele>
        <time>2026-05-19T16:50:39+02:00</time>
      </trkpt>
      <trkpt lat="49.46819" lon="6.35633">
        <ele>192.5</ele>
        <time>2026-05-19T16:50:40+02:00</time>
      </trkpt>
      <trkpt lat="49.46817" lon="6.35632">
        <ele>192.60059</ele>
        <time>2026-05-19T16:50:41+02:00</time>
      </trkpt>
      <trkpt lat="49.46811" lon="6.35631">
        <ele>192.7998</ele>
        <time>2026-05-19T16:50:42+02:00</time>
      </trkpt>
      <trkpt lat="49.46807" lon="6.35629">
        <ele>192.7998</ele>
        <time>2026-05-19T16:50:43+02:00</time>
      </trkpt>
      <trkpt lat="49.46803" lon="6.35628">
        <ele>193</ele>
        <time>2026-05-19T16:50:44+02:00</time>
      </trkpt>
      <trkpt lat="49.46802" lon="6.35627">
        <ele>193.10059</ele>
        <time>2026-05-19T16:50:45+02:00</time>
      </trkpt>
      <trkpt lat="49.46796" lon="6.35625">
        <ele>193.2998</ele>
        <time>2026-05-19T16:50:46+02:00</time>
      </trkpt>
      <trkpt lat="49.46792" lon="6.35624">
        <ele>193.5</ele>
        <time>2026-05-19T16:50:47+02:00</time>
      </trkpt>
      <trkpt lat="49.46789" lon="6.35623">
        <ele>193.7002</ele>
        <time>2026-05-19T16:50:48+02:00</time>
      </trkpt>
      <trkpt lat="49.46785" lon="6.35622">
        <ele>193.7002</ele>
        <time>2026-05-19T16:50:49+02:00</time>
      </trkpt>
      <trkpt lat="49.46782" lon="6.3562">
        <ele>193.90039</ele>
        <time>2026-05-19T16:50:50+02:00</time>
      </trkpt>
      <trkpt lat="49.46778" lon="6.35619">
        <ele>194.10059</ele>
        <time>2026-05-19T16:50:51+02:00</time>
      </trkpt>
      <trkpt lat="49.46776" lon="6.35618">
        <ele>194.10059</ele>
        <time>2026-05-19T16:50:52+02:00</time>
      </trkpt>
      <trkpt lat="49.46771" lon="6.35616">
        <ele>194.2998</ele>
        <time>2026-05-19T16:50:53+02:00</time>
      </trkpt>
      <trkpt lat="49.46768" lon="6.35615">
        <ele>194.2998</ele>
        <time>2026-05-19T16:50:54+02:00</time>
      </trkpt>
      <trkpt lat="49.46765" lon="6.35614">
        <ele>194.5</ele>
        <time>2026-05-19T16:50:55+02:00</time>
      </trkpt>
      <trkpt lat="49.46762" lon="6.35613">
        <ele>194.7002</ele>
        <time>2026-05-19T16:50:56+02:00</time>
      </trkpt>
      <trkpt lat="49.4676" lon="6.35612">
        <ele>194.7002</ele>
        <time>2026-05-19T16:50:57+02:00</time>
      </trkpt>
      <trkpt lat="49.46757" lon="6.35612">
        <ele>194.7002</ele>
        <time>2026-05-19T16:50:58+02:00</time>
      </trkpt>
      <trkpt lat="49.46756" lon="6.35613">
        <ele>194.90039</ele>
        <time>2026-05-19T16:50:59+02:00</time>
      </trkpt>
      <trkpt lat="49.46756" lon="6.35615">
        <ele>194.90039</ele>
        <time>2026-05-19T16:51:00+02:00</time>
      </trkpt>
      <trkpt lat="49.46757" lon="6.35616">
        <ele>194.7002</ele>
        <time>2026-05-19T16:51:01+02:00</time>
      </trkpt>
      <trkpt lat="49.46759" lon="6.35616">
        <ele>194.7002</ele>
        <time>2026-05-19T16:51:02+02:00</time>
      </trkpt>
      <trkpt lat="49.46761" lon="6.35616">
        <ele>194.7002</ele>
        <time>2026-05-19T16:51:03+02:00</time>
      </trkpt>
      <trkpt lat="49.46763" lon="6.35617">
        <ele>194.5</ele>
        <time>2026-05-19T16:51:04+02:00</time>
      </trkpt>
      <trkpt lat="49.46763" lon="6.35619">
        <ele>194.5</ele>
        <time>2026-05-19T16:51:05+02:00</time>
      </trkpt>
      <trkpt lat="49.46763" lon="6.3562">
        <ele>194.5</ele>
        <time>2026-05-19T16:51:06+02:00</time>
      </trkpt>
      <trkpt lat="49.46763" lon="6.3562">
        <ele>194.5</ele>
        <time>2026-05-19T16:51:07+02:00</time>
      </trkpt>
      <trkpt lat="49.46763" lon="6.35621">
        <ele>194.5</ele>
        <time>2026-05-19T16:51:08+02:00</time>
      </trkpt>
      <trkpt lat="49.46763" lon="6.35621">
        <ele>194.5</ele>
        <time>2026-05-19T16:51:09+02:00</time>
      </trkpt>
      <trkpt lat="49.46763" lon="6.35621">
        <ele>194.5</ele>
        <time>2026-05-19T16:51:10+02:00</time>
      </trkpt>
      <trkpt lat="49.46751" lon="6.35609">
        <ele>195.10059</ele>
        <time>2026-05-19T16:51:46+02:00</time>
      </trkpt>
      <trkpt lat="49.46748" lon="6.35608">
        <ele>195.10059</ele>
        <time>2026-05-19T16:51:47+02:00</time>
      </trkpt>
      <trkpt lat="49.46744" lon="6.35607">
        <ele>195.2998</ele>
        <time>2026-05-19T16:51:48+02:00</time>
      </trkpt>
      <trkpt lat="49.46741" lon="6.35606">
        <ele>195.2998</ele>
        <time>2026-05-19T16:51:49+02:00</time>
      </trkpt>
      <trkpt lat="49.46737" lon="6.35605">
        <ele>195.5</ele>
        <time>2026-05-19T16:51:50+02:00</time>
      </trkpt>
      <trkpt lat="49.46734" lon="6.35604">
        <ele>195.7002</ele>
        <time>2026-05-19T16:51:51+02:00</time>
      </trkpt>
      <trkpt lat="49.4673" lon="6.35603">
        <ele>195.7002</ele>
        <time>2026-05-19T16:51:52+02:00</time>
      </trkpt>
      <trkpt lat="49.46726" lon="6.35601">
        <ele>195.7998</ele>
        <time>2026-05-19T16:51:53+02:00</time>
      </trkpt>
      <trkpt lat="49.46722" lon="6.356">
        <ele>196</ele>
        <time>2026-05-19T16:51:54+02:00</time>
      </trkpt>
      <trkpt lat="49.46718" lon="6.35598">
        <ele>196</ele>
        <time>2026-05-19T16:51:55+02:00</time>
      </trkpt>
      <trkpt lat="49.46715" lon="6.35596">
        <ele>196.2002</ele>
        <time>2026-05-19T16:51:56+02:00</time>
      </trkpt>
      <trkpt lat="49.4671" lon="6.35595">
        <ele>196.2998</ele>
        <time>2026-05-19T16:51:57+02:00</time>
      </trkpt>
      <trkpt lat="49.46707" lon="6.35593">
        <ele>196.2998</ele>
        <time>2026-05-19T16:51:58+02:00</time>
      </trkpt>
      <trkpt lat="49.46703" lon="6.35592">
        <ele>196.60059</ele>
        <time>2026-05-19T16:51:59+02:00</time>
      </trkpt>
      <trkpt lat="49.46698" lon="6.35591">
        <ele>196.7998</ele>
        <time>2026-05-19T16:52:00+02:00</time>
      </trkpt>
      <trkpt lat="49.46694" lon="6.35589">
        <ele>197</ele>
        <time>2026-05-19T16:52:01+02:00</time>
      </trkpt>
      <trkpt lat="49.4669" lon="6.35588">
        <ele>197</ele>
        <time>2026-05-19T16:52:02+02:00</time>
      </trkpt>
      <trkpt lat="49.46686" lon="6.35586">
        <ele>197.10059</ele>
        <time>2026-05-19T16:52:03+02:00</time>
      </trkpt>
      <trkpt lat="49.46682" lon="6.35584">
        <ele>197.2998</ele>
        <time>2026-05-19T16:52:04+02:00</time>
      </trkpt>
      <trkpt lat="49.46678" lon="6.35583">
        <ele>197.5</ele>
        <time>2026-05-19T16:52:05+02:00</time>
      </trkpt>
      <trkpt lat="49.46674" lon="6.35581">
        <ele>197.5</ele>
        <time>2026-05-19T16:52:06+02:00</time>
      </trkpt>
      <trkpt lat="49.4667" lon="6.35579">
        <ele>197.60059</ele>
        <time>2026-05-19T16:52:07+02:00</time>
      </trkpt>
      <trkpt lat="49.46666" lon="6.35578">
        <ele>197.7998</ele>
        <time>2026-05-19T16:52:08+02:00</time>
      </trkpt>
      <trkpt lat="49.46662" lon="6.35576">
        <ele>197.90039</ele>
        <time>2026-05-19T16:52:09+02:00</time>
      </trkpt>
      <trkpt lat="49.46657" lon="6.35575">
        <ele>198</ele>
        <time>2026-05-19T16:52:10+02:00</time>
      </trkpt>
      <trkpt lat="49.46653" lon="6.35573">
        <ele>198.2998</ele>
        <time>2026-05-19T16:52:11+02:00</time>
      </trkpt>
      <trkpt lat="49.46649" lon="6.35572">
        <ele>198.5</ele>
        <time>2026-05-19T16:52:12+02:00</time>
      </trkpt>
      <trkpt lat="49.46645" lon="6.3557">
        <ele>198.7002</ele>
        <time>2026-05-19T16:52:13+02:00</time>
      </trkpt>
      <trkpt lat="49.46641" lon="6.35569">
        <ele>198.7002</ele>
        <time>2026-05-19T16:52:14+02:00</time>
      </trkpt>
      <trkpt lat="49.46637" lon="6.35567">
        <ele>199.10059</ele>
        <time>2026-05-19T16:52:15+02:00</time>
      </trkpt>
      <trkpt lat="49.46633" lon="6.35566">
        <ele>199.2998</ele>
        <time>2026-05-19T16:52:16+02:00</time>
      </trkpt>
      <trkpt lat="49.46629" lon="6.35564">
        <ele>199.2998</ele>
        <time>2026-05-19T16:52:17+02:00</time>
      </trkpt>
      <trkpt lat="49.46625" lon="6.35563">
        <ele>199.60059</ele>
        <time>2026-05-19T16:52:18+02:00</time>
      </trkpt>
      <trkpt lat="49.46621" lon="6.35561">
        <ele>199.7998</ele>
        <time>2026-05-19T16:52:19+02:00</time>
      </trkpt>
      <trkpt lat="49.46616" lon="6.3556">
        <ele>200.10059</ele>
        <time>2026-05-19T16:52:20+02:00</time>
      </trkpt>
      <trkpt lat="49.46612" lon="6.35558">
        <ele>200.2002</ele>
        <time>2026-05-19T16:52:21+02:00</time>
      </trkpt>
      <trkpt lat="49.46608" lon="6.35557">
        <ele>200.5</ele>
        <time>2026-05-19T16:52:22+02:00</time>
      </trkpt>
      <trkpt lat="49.46604" lon="6.35555">
        <ele>200.7002</ele>
        <time>2026-05-19T16:52:23+02:00</time>
      </trkpt>
      <trkpt lat="49.46599" lon="6.35554">
        <ele>200.90039</ele>
        <time>2026-05-19T16:52:24+02:00</time>
      </trkpt>
      <trkpt lat="49.46595" lon="6.35552">
        <ele>200.90039</ele>
        <time>2026-05-19T16:52:25+02:00</time>
      </trkpt>
      <trkpt lat="49.46591" lon="6.3555">
        <ele>201.2998</ele>
        <time>2026-05-19T16:52:26+02:00</time>
      </trkpt>
      <trkpt lat="49.46586" lon="6.35549">
        <ele>201.5</ele>
        <time>2026-05-19T16:52:27+02:00</time>
      </trkpt>
      <trkpt lat="49.46581" lon="6.35547">
        <ele>201.7002</ele>
        <time>2026-05-19T16:52:28+02:00</time>
      </trkpt>
      <trkpt lat="49.46577" lon="6.35546">
        <ele>201.90039</ele>
        <time>2026-05-19T16:52:29+02:00</time>
      </trkpt>
      <trkpt lat="49.46572" lon="6.35544">
        <ele>202</ele>
        <time>2026-05-19T16:52:30+02:00</time>
      </trkpt>
      <trkpt lat="49.46568" lon="6.35542">
        <ele>202</ele>
        <time>2026-05-19T16:52:31+02:00</time>
      </trkpt>
      <trkpt lat="49.46563" lon="6.35541">
        <ele>202.2002</ele>
        <time>2026-05-19T16:52:32+02:00</time>
      </trkpt>
      <trkpt lat="49.46559" lon="6.35539">
        <ele>202.2998</ele>
        <time>2026-05-19T16:52:33+02:00</time>
      </trkpt>
      <trkpt lat="49.46555" lon="6.35538">
        <ele>202.40039</ele>
        <time>2026-05-19T16:52:34+02:00</time>
      </trkpt>
      <trkpt lat="49.46551" lon="6.35537">
        <ele>202.40039</ele>
        <time>2026-05-19T16:52:35+02:00</time>
      </trkpt>
      <trkpt lat="49.46547" lon="6.35535">
        <ele>202.5</ele>
        <time>2026-05-19T16:52:36+02:00</time>
      </trkpt>
      <trkpt lat="49.46544" lon="6.35535">
        <ele>202.60059</ele>
        <time>2026-05-19T16:52:37+02:00</time>
      </trkpt>
      <trkpt lat="49.46541" lon="6.35534">
        <ele>202.60059</ele>
        <time>2026-05-19T16:52:38+02:00</time>
      </trkpt>
      <trkpt lat="49.46538" lon="6.35533">
        <ele>202.7002</ele>
        <time>2026-05-19T16:52:39+02:00</time>
      </trkpt>
      <trkpt lat="49.46534" lon="6.35532">
        <ele>202.7002</ele>
        <time>2026-05-19T16:52:40+02:00</time>
      </trkpt>
      <trkpt lat="49.46531" lon="6.3553">
        <ele>202.90039</ele>
        <time>2026-05-19T16:52:41+02:00</time>
      </trkpt>
      <trkpt lat="49.46528" lon="6.35529">
        <ele>203</ele>
        <time>2026-05-19T16:52:42+02:00</time>
      </trkpt>
      <trkpt lat="49.46524" lon="6.35527">
        <ele>203</ele>
        <time>2026-05-19T16:52:43+02:00</time>
      </trkpt>
      <trkpt lat="49.4652" lon="6.35525">
        <ele>203.2002</ele>
        <time>2026-05-19T16:52:44+02:00</time>
      </trkpt>
      <trkpt lat="49.46517" lon="6.35524">
        <ele>203.2002</ele>
        <time>2026-05-19T16:52:45+02:00</time>
      </trkpt>
      <trkpt lat="49.46513" lon="6.35522">
        <ele>203.40039</ele>
        <time>2026-05-19T16:52:46+02:00</time>
      </trkpt>
      <trkpt lat="49.46509" lon="6.35521">
        <ele>203.60059</ele>
        <time>2026-05-19T16:52:47+02:00</time>
      </trkpt>
      <trkpt lat="49.46506" lon="6.3552">
        <ele>203.60059</ele>
        <time>2026-05-19T16:52:48+02:00</time>
      </trkpt>
      <trkpt lat="49.46502" lon="6.35518">
        <ele>203.7998</ele>
        <time>2026-05-19T16:52:49+02:00</time>
      </trkpt>
      <trkpt lat="49.46499" lon="6.35517">
        <ele>204.10059</ele>
        <time>2026-05-19T16:52:50+02:00</time>
      </trkpt>
      <trkpt lat="49.46495" lon="6.35516">
        <ele>204.10059</ele>
        <time>2026-05-19T16:52:51+02:00</time>
      </trkpt>
      <trkpt lat="49.46492" lon="6.35514">
        <ele>204.2998</ele>
        <time>2026-05-19T16:52:52+02:00</time>
      </trkpt>
      <trkpt lat="49.46488" lon="6.35513">
        <ele>204.60059</ele>
        <time>2026-05-19T16:52:53+02:00</time>
      </trkpt>
      <trkpt lat="49.46485" lon="6.35512">
        <ele>204.60059</ele>
        <time>2026-05-19T16:52:54+02:00</time>
      </trkpt>
      <trkpt lat="49.46481" lon="6.3551">
        <ele>204.90039</ele>
        <time>2026-05-19T16:52:55+02:00</time>
      </trkpt>
      <trkpt lat="49.46477" lon="6.35508">
        <ele>205.2002</ele>
        <time>2026-05-19T16:52:56+02:00</time>
      </trkpt>
      <trkpt lat="49.46473" lon="6.35507">
        <ele>205.2002</ele>
        <time>2026-05-19T16:52:57+02:00</time>
      </trkpt>
      <trkpt lat="49.4647" lon="6.35506">
        <ele>205.5</ele>
        <time>2026-05-19T16:52:58+02:00</time>
      </trkpt>
      <trkpt lat="49.46466" lon="6.35504">
        <ele>205.7998</ele>
        <time>2026-05-19T16:52:59+02:00</time>
      </trkpt>
      <trkpt lat="49.46462" lon="6.35503">
        <ele>205.7998</ele>
        <time>2026-05-19T16:53:00+02:00</time>
      </trkpt>
      <trkpt lat="49.46459" lon="6.35502">
        <ele>206.10059</ele>
        <time>2026-05-19T16:53:01+02:00</time>
      </trkpt>
      <trkpt lat="49.46455" lon="6.355">
        <ele>206.2998</ele>
        <time>2026-05-19T16:53:02+02:00</time>
      </trkpt>
      <trkpt lat="49.46452" lon="6.35499">
        <ele>206.2998</ele>
        <time>2026-05-19T16:53:03+02:00</time>
      </trkpt>
      <trkpt lat="49.46448" lon="6.35497">
        <ele>206.5</ele>
        <time>2026-05-19T16:53:04+02:00</time>
      </trkpt>
      <trkpt lat="49.46444" lon="6.35496">
        <ele>206.7002</ele>
        <time>2026-05-19T16:53:05+02:00</time>
      </trkpt>
      <trkpt lat="49.4644" lon="6.35494">
        <ele>206.7002</ele>
        <time>2026-05-19T16:53:06+02:00</time>
      </trkpt>
      <trkpt lat="49.46437" lon="6.35493">
        <ele>206.90039</ele>
        <time>2026-05-19T16:53:07+02:00</time>
      </trkpt>
      <trkpt lat="49.46433" lon="6.35492">
        <ele>207.10059</ele>
        <time>2026-05-19T16:53:08+02:00</time>
      </trkpt>
      <trkpt lat="49.46429" lon="6.3549">
        <ele>207</ele>
        <time>2026-05-19T16:53:09+02:00</time>
      </trkpt>
      <trkpt lat="49.46425" lon="6.35488">
        <ele>207.2002</ele>
        <time>2026-05-19T16:53:10+02:00</time>
      </trkpt>
      <trkpt lat="49.46422" lon="6.35487">
        <ele>207.2998</ele>
        <time>2026-05-19T16:53:11+02:00</time>
      </trkpt>
      <trkpt lat="49.46417" lon="6.35485">
        <ele>207.2998</ele>
        <time>2026-05-19T16:53:12+02:00</time>
      </trkpt>
      <trkpt lat="49.46413" lon="6.35483">
        <ele>207.40039</ele>
        <time>2026-05-19T16:53:13+02:00</time>
      </trkpt>
      <trkpt lat="49.46409" lon="6.35481">
        <ele>207.2998</ele>
        <time>2026-05-19T16:53:14+02:00</time>
      </trkpt>
      <trkpt lat="49.46404" lon="6.35479">
        <ele>207.2998</ele>
        <time>2026-05-19T16:53:15+02:00</time>
      </trkpt>
      <trkpt lat="49.464" lon="6.35476">
        <ele>207.2998</ele>
        <time>2026-05-19T16:53:16+02:00</time>
      </trkpt>
      <trkpt lat="49.46395" lon="6.35473">
        <ele>207.10059</ele>
        <time>2026-05-19T16:53:17+02:00</time>
      </trkpt>
      <trkpt lat="49.46391" lon="6.35469">
        <ele>207</ele>
        <time>2026-05-19T16:53:18+02:00</time>
      </trkpt>
      <trkpt lat="49.46386" lon="6.35466">
        <ele>206.90039</ele>
        <time>2026-05-19T16:53:19+02:00</time>
      </trkpt>
      <trkpt lat="49.46381" lon="6.35462">
        <ele>206.60059</ele>
        <time>2026-05-19T16:53:20+02:00</time>
      </trkpt>
      <trkpt lat="49.46376" lon="6.35458">
        <ele>206.40039</ele>
        <time>2026-05-19T16:53:21+02:00</time>
      </trkpt>
      <trkpt lat="49.46371" lon="6.35453">
        <ele>206.10059</ele>
        <time>2026-05-19T16:53:22+02:00</time>
      </trkpt>
      <trkpt lat="49.46366" lon="6.35449">
        <ele>205.90039</ele>
        <time>2026-05-19T16:53:23+02:00</time>
      </trkpt>
      <trkpt lat="49.46361" lon="6.35445">
        <ele>205.7002</ele>
        <time>2026-05-19T16:53:24+02:00</time>
      </trkpt>
      <trkpt lat="49.46356" lon="6.3544">
        <ele>205.60059</ele>
        <time>2026-05-19T16:53:25+02:00</time>
      </trkpt>
      <trkpt lat="49.46351" lon="6.35436">
        <ele>205.10059</ele>
        <time>2026-05-19T16:53:26+02:00</time>
      </trkpt>
      <trkpt lat="49.46346" lon="6.35432">
        <ele>204.90039</ele>
        <time>2026-05-19T16:53:27+02:00</time>
      </trkpt>
      <trkpt lat="49.46341" lon="6.35427">
        <ele>204.40039</ele>
        <time>2026-05-19T16:53:28+02:00</time>
      </trkpt>
      <trkpt lat="49.46335" lon="6.35423">
        <ele>204.2002</ele>
        <time>2026-05-19T16:53:29+02:00</time>
      </trkpt>
      <trkpt lat="49.4633" lon="6.35419">
        <ele>203.60059</ele>
        <time>2026-05-19T16:53:30+02:00</time>
      </trkpt>
      <trkpt lat="49.46324" lon="6.35415">
        <ele>203.40039</ele>
        <time>2026-05-19T16:53:31+02:00</time>
      </trkpt>
      <trkpt lat="49.46318" lon="6.35411">
        <ele>202.7998</ele>
        <time>2026-05-19T16:53:32+02:00</time>
      </trkpt>
      <trkpt lat="49.46311" lon="6.35407">
        <ele>202.60059</ele>
        <time>2026-05-19T16:53:33+02:00</time>
      </trkpt>
      <trkpt lat="49.46305" lon="6.35404">
        <ele>202.2002</ele>
        <time>2026-05-19T16:53:34+02:00</time>
      </trkpt>
      <trkpt lat="49.46299" lon="6.35402">
        <ele>202</ele>
        <time>2026-05-19T16:53:35+02:00</time>
      </trkpt>
      <trkpt lat="49.46292" lon="6.35399">
        <ele>202</ele>
        <time>2026-05-19T16:53:36+02:00</time>
      </trkpt>
      <trkpt lat="49.46285" lon="6.35397">
        <ele>202.10059</ele>
        <time>2026-05-19T16:53:37+02:00</time>
      </trkpt>
      <trkpt lat="49.46279" lon="6.35396">
        <ele>201.7002</ele>
        <time>2026-05-19T16:53:38+02:00</time>
      </trkpt>
      <trkpt lat="49.46272" lon="6.35395">
        <ele>201.7998</ele>
        <time>2026-05-19T16:53:39+02:00</time>
      </trkpt>
      <trkpt lat="49.46265" lon="6.35394">
        <ele>202</ele>
        <time>2026-05-19T16:53:40+02:00</time>
      </trkpt>
      <trkpt lat="49.46258" lon="6.35392">
        <ele>202.2002</ele>
        <time>2026-05-19T16:53:41+02:00</time>
      </trkpt>
      <trkpt lat="49.46251" lon="6.35391">
        <ele>202.5</ele>
        <time>2026-05-19T16:53:42+02:00</time>
      </trkpt>
      <trkpt lat="49.46245" lon="6.3539">
        <ele>202.7002</ele>
        <time>2026-05-19T16:53:43+02:00</time>
      </trkpt>
      <trkpt lat="49.46238" lon="6.35389">
        <ele>203</ele>
        <time>2026-05-19T16:53:44+02:00</time>
      </trkpt>
      <trkpt lat="49.46232" lon="6.35387">
        <ele>202.7998</ele>
        <time>2026-05-19T16:53:45+02:00</time>
      </trkpt>
      <trkpt lat="49.46225" lon="6.35385">
        <ele>203.10059</ele>
        <time>2026-05-19T16:53:46+02:00</time>
      </trkpt>
      <trkpt lat="49.46219" lon="6.35383">
        <ele>203.40039</ele>
        <time>2026-05-19T16:53:47+02:00</time>
      </trkpt>
      <trkpt lat="49.46213" lon="6.35381">
        <ele>203.7998</ele>
        <time>2026-05-19T16:53:48+02:00</time>
      </trkpt>
      <trkpt lat="49.46206" lon="6.35379">
        <ele>204.10059</ele>
        <time>2026-05-19T16:53:49+02:00</time>
      </trkpt>
      <trkpt lat="49.462" lon="6.35376">
        <ele>203.7002</ele>
        <time>2026-05-19T16:53:50+02:00</time>
      </trkpt>
      <trkpt lat="49.46193" lon="6.35373">
        <ele>204.2998</ele>
        <time>2026-05-19T16:53:51+02:00</time>
      </trkpt>
      <trkpt lat="49.46187" lon="6.35369">
        <ele>203.7998</ele>
        <time>2026-05-19T16:53:52+02:00</time>
      </trkpt>
      <trkpt lat="49.46181" lon="6.35365">
        <ele>203.90039</ele>
        <time>2026-05-19T16:53:53+02:00</time>
      </trkpt>
      <trkpt lat="49.46178" lon="6.35362">
        <ele>203.90039</ele>
        <time>2026-05-19T16:53:54+02:00</time>
      </trkpt>
      <trkpt lat="49.46169" lon="6.35355">
        <ele>203.2002</ele>
        <time>2026-05-19T16:53:55+02:00</time>
      </trkpt>
      <trkpt lat="49.46163" lon="6.35349">
        <ele>202.60059</ele>
        <time>2026-05-19T16:53:56+02:00</time>
      </trkpt>
      <trkpt lat="49.46158" lon="6.35344">
        <ele>202.10059</ele>
        <time>2026-05-19T16:53:57+02:00</time>
      </trkpt>
      <trkpt lat="49.46152" lon="6.35338">
        <ele>202.40039</ele>
        <time>2026-05-19T16:53:58+02:00</time>
      </trkpt>
      <trkpt lat="49.46147" lon="6.35332">
        <ele>202</ele>
        <time>2026-05-19T16:53:59+02:00</time>
      </trkpt>
      <trkpt lat="49.46142" lon="6.35326">
        <ele>201.5</ele>
        <time>2026-05-19T16:54:00+02:00</time>
      </trkpt>
      <trkpt lat="49.46136" lon="6.3532">
        <ele>201.7998</ele>
        <time>2026-05-19T16:54:01+02:00</time>
      </trkpt>
      <trkpt lat="49.46131" lon="6.35313">
        <ele>201.2002</ele>
        <time>2026-05-19T16:54:02+02:00</time>
      </trkpt>
      <trkpt lat="49.46126" lon="6.35306">
        <ele>200.7002</ele>
        <time>2026-05-19T16:54:03+02:00</time>
      </trkpt>
      <trkpt lat="49.46121" lon="6.35299">
        <ele>199.7998</ele>
        <time>2026-05-19T16:54:04+02:00</time>
      </trkpt>
      <trkpt lat="49.46115" lon="6.35292">
        <ele>199.7998</ele>
        <time>2026-05-19T16:54:05+02:00</time>
      </trkpt>
      <trkpt lat="49.46109" lon="6.35286">
        <ele>200.2998</ele>
        <time>2026-05-19T16:54:06+02:00</time>
      </trkpt>
      <trkpt lat="49.46104" lon="6.35279">
        <ele>199.5</ele>
        <time>2026-05-19T16:54:07+02:00</time>
      </trkpt>
      <trkpt lat="49.46098" lon="6.35273">
        <ele>199.5</ele>
        <time>2026-05-19T16:54:08+02:00</time>
      </trkpt>
      <trkpt lat="49.46093" lon="6.35266">
        <ele>198.7002</ele>
        <time>2026-05-19T16:54:09+02:00</time>
      </trkpt>
      <trkpt lat="49.46087" lon="6.35259">
        <ele>199.40039</ele>
        <time>2026-05-19T16:54:10+02:00</time>
      </trkpt>
      <trkpt lat="49.46082" lon="6.35253">
        <ele>198.5</ele>
        <time>2026-05-19T16:54:11+02:00</time>
      </trkpt>
      <trkpt lat="49.46076" lon="6.35246">
        <ele>198.5</ele>
        <time>2026-05-19T16:54:12+02:00</time>
      </trkpt>
      <trkpt lat="49.46071" lon="6.35239">
        <ele>197.7002</ele>
        <time>2026-05-19T16:54:13+02:00</time>
      </trkpt>
      <trkpt lat="49.46065" lon="6.35232">
        <ele>197.40039</ele>
        <time>2026-05-19T16:54:14+02:00</time>
      </trkpt>
      <trkpt lat="49.4606" lon="6.35225">
        <ele>197.90039</ele>
        <time>2026-05-19T16:54:15+02:00</time>
      </trkpt>
      <trkpt lat="49.46055" lon="6.35218">
        <ele>197.60059</ele>
        <time>2026-05-19T16:54:16+02:00</time>
      </trkpt>
      <trkpt lat="49.46049" lon="6.3521">
        <ele>197.40039</ele>
        <time>2026-05-19T16:54:17+02:00</time>
      </trkpt>
      <trkpt lat="49.46044" lon="6.35203">
        <ele>197.2002</ele>
        <time>2026-05-19T16:54:18+02:00</time>
      </trkpt>
      <trkpt lat="49.46039" lon="6.35196">
        <ele>196.90039</ele>
        <time>2026-05-19T16:54:19+02:00</time>
      </trkpt>
      <trkpt lat="49.46034" lon="6.35188">
        <ele>196.60059</ele>
        <time>2026-05-19T16:54:20+02:00</time>
      </trkpt>
      <trkpt lat="49.46029" lon="6.3518">
        <ele>196.2002</ele>
        <time>2026-05-19T16:54:21+02:00</time>
      </trkpt>
      <trkpt lat="49.46025" lon="6.35173">
        <ele>196.7002</ele>
        <time>2026-05-19T16:54:22+02:00</time>
      </trkpt>
      <trkpt lat="49.4602" lon="6.35165">
        <ele>196.5</ele>
        <time>2026-05-19T16:54:23+02:00</time>
      </trkpt>
      <trkpt lat="49.46015" lon="6.35158">
        <ele>195.7998</ele>
        <time>2026-05-19T16:54:24+02:00</time>
      </trkpt>
      <trkpt lat="49.46011" lon="6.35151">
        <ele>195.40039</ele>
        <time>2026-05-19T16:54:25+02:00</time>
      </trkpt>
      <trkpt lat="49.46006" lon="6.35143">
        <ele>195</ele>
        <time>2026-05-19T16:54:26+02:00</time>
      </trkpt>
      <trkpt lat="49.46001" lon="6.35136">
        <ele>194.5</ele>
        <time>2026-05-19T16:54:27+02:00</time>
      </trkpt>
      <trkpt lat="49.45996" lon="6.35129">
        <ele>194</ele>
        <time>2026-05-19T16:54:28+02:00</time>
      </trkpt>
      <trkpt lat="49.45991" lon="6.35121">
        <ele>193.5</ele>
        <time>2026-05-19T16:54:29+02:00</time>
      </trkpt>
      <trkpt lat="49.45986" lon="6.35114">
        <ele>193.7002</ele>
        <time>2026-05-19T16:54:30+02:00</time>
      </trkpt>
      <trkpt lat="49.45981" lon="6.35107">
        <ele>193.2002</ele>
        <time>2026-05-19T16:54:31+02:00</time>
      </trkpt>
      <trkpt lat="49.45976" lon="6.35099">
        <ele>192.5</ele>
        <time>2026-05-19T16:54:32+02:00</time>
      </trkpt>
      <trkpt lat="49.45971" lon="6.35092">
        <ele>192.10059</ele>
        <time>2026-05-19T16:54:33+02:00</time>
      </trkpt>
      <trkpt lat="49.45966" lon="6.35084">
        <ele>191.7002</ele>
        <time>2026-05-19T16:54:34+02:00</time>
      </trkpt>
      <trkpt lat="49.45962" lon="6.35077">
        <ele>191.40039</ele>
        <time>2026-05-19T16:54:35+02:00</time>
      </trkpt>
      <trkpt lat="49.45957" lon="6.3507">
        <ele>191.7998</ele>
        <time>2026-05-19T16:54:36+02:00</time>
      </trkpt>
      <trkpt lat="49.45952" lon="6.35062">
        <ele>191.60059</ele>
        <time>2026-05-19T16:54:37+02:00</time>
      </trkpt>
      <trkpt lat="49.45947" lon="6.35055">
        <ele>191.40039</ele>
        <time>2026-05-19T16:54:38+02:00</time>
      </trkpt>
      <trkpt lat="49.45942" lon="6.35048">
        <ele>191.10059</ele>
        <time>2026-05-19T16:54:39+02:00</time>
      </trkpt>
      <trkpt lat="49.45938" lon="6.35041">
        <ele>190.5</ele>
        <time>2026-05-19T16:54:40+02:00</time>
      </trkpt>
      <trkpt lat="49.45933" lon="6.35033">
        <ele>190.2998</ele>
        <time>2026-05-19T16:54:41+02:00</time>
      </trkpt>
      <trkpt lat="49.45928" lon="6.35025">
        <ele>190</ele>
        <time>2026-05-19T16:54:42+02:00</time>
      </trkpt>
      <trkpt lat="49.45923" lon="6.35018">
        <ele>189.7998</ele>
        <time>2026-05-19T16:54:43+02:00</time>
      </trkpt>
      <trkpt lat="49.45917" lon="6.3501">
        <ele>190.2998</ele>
        <time>2026-05-19T16:54:44+02:00</time>
      </trkpt>
      <trkpt lat="49.45912" lon="6.35002">
        <ele>190.10059</ele>
        <time>2026-05-19T16:54:45+02:00</time>
      </trkpt>
      <trkpt lat="49.45907" lon="6.34994">
        <ele>190</ele>
        <time>2026-05-19T16:54:46+02:00</time>
      </trkpt>
      <trkpt lat="49.45902" lon="6.34986">
        <ele>189.90039</ele>
        <time>2026-05-19T16:54:47+02:00</time>
      </trkpt>
      <trkpt lat="49.45897" lon="6.34978">
        <ele>189.7002</ele>
        <time>2026-05-19T16:54:48+02:00</time>
      </trkpt>
      <trkpt lat="49.45892" lon="6.34971">
        <ele>189.40039</ele>
        <time>2026-05-19T16:54:49+02:00</time>
      </trkpt>
      <trkpt lat="49.45887" lon="6.34963">
        <ele>188.60059</ele>
        <time>2026-05-19T16:54:50+02:00</time>
      </trkpt>
      <trkpt lat="49.45883" lon="6.34956">
        <ele>188.2998</ele>
        <time>2026-05-19T16:54:51+02:00</time>
      </trkpt>
      <trkpt lat="49.45878" lon="6.34948">
        <ele>188.2002</ele>
        <time>2026-05-19T16:54:52+02:00</time>
      </trkpt>
      <trkpt lat="49.45874" lon="6.34942">
        <ele>188.7002</ele>
        <time>2026-05-19T16:54:53+02:00</time>
      </trkpt>
      <trkpt lat="49.45869" lon="6.34935">
        <ele>188.5</ele>
        <time>2026-05-19T16:54:54+02:00</time>
      </trkpt>
      <trkpt lat="49.45864" lon="6.34928">
        <ele>187.7998</ele>
        <time>2026-05-19T16:54:55+02:00</time>
      </trkpt>
      <trkpt lat="49.45859" lon="6.34921">
        <ele>187.5</ele>
        <time>2026-05-19T16:54:56+02:00</time>
      </trkpt>
      <trkpt lat="49.45854" lon="6.34914">
        <ele>187.2002</ele>
        <time>2026-05-19T16:54:57+02:00</time>
      </trkpt>
      <trkpt lat="49.45849" lon="6.34908">
        <ele>187.60059</ele>
        <time>2026-05-19T16:54:58+02:00</time>
      </trkpt>
      <trkpt lat="49.45844" lon="6.34901">
        <ele>187.2998</ele>
        <time>2026-05-19T16:54:59+02:00</time>
      </trkpt>
      <trkpt lat="49.45838" lon="6.34894">
        <ele>186.90039</ele>
        <time>2026-05-19T16:55:00+02:00</time>
      </trkpt>
      <trkpt lat="49.45833" lon="6.34887">
        <ele>186.2998</ele>
        <time>2026-05-19T16:55:01+02:00</time>
      </trkpt>
      <trkpt lat="49.45827" lon="6.3488">
        <ele>185.5</ele>
        <time>2026-05-19T16:55:02+02:00</time>
      </trkpt>
      <trkpt lat="49.45821" lon="6.34872">
        <ele>184.60059</ele>
        <time>2026-05-19T16:55:03+02:00</time>
      </trkpt>
      <trkpt lat="49.45815" lon="6.34865">
        <ele>184.60059</ele>
        <time>2026-05-19T16:55:04+02:00</time>
      </trkpt>
      <trkpt lat="49.4581" lon="6.34858">
        <ele>183.7998</ele>
        <time>2026-05-19T16:55:05+02:00</time>
      </trkpt>
      <trkpt lat="49.45804" lon="6.34851">
        <ele>183</ele>
        <time>2026-05-19T16:55:06+02:00</time>
      </trkpt>
      <trkpt lat="49.45798" lon="6.34844">
        <ele>182.10059</ele>
        <time>2026-05-19T16:55:07+02:00</time>
      </trkpt>
      <trkpt lat="49.45793" lon="6.34836">
        <ele>181.40039</ele>
        <time>2026-05-19T16:55:08+02:00</time>
      </trkpt>
      <trkpt lat="49.45786" lon="6.34829">
        <ele>180.90039</ele>
        <time>2026-05-19T16:55:09+02:00</time>
      </trkpt>
      <trkpt lat="49.4578" lon="6.34822">
        <ele>181.10059</ele>
        <time>2026-05-19T16:55:10+02:00</time>
      </trkpt>
      <trkpt lat="49.45774" lon="6.34815">
        <ele>180.40039</ele>
        <time>2026-05-19T16:55:11+02:00</time>
      </trkpt>
      <trkpt lat="49.45768" lon="6.34808">
        <ele>179.7002</ele>
        <time>2026-05-19T16:55:12+02:00</time>
      </trkpt>
      <trkpt lat="49.45761" lon="6.348">
        <ele>179</ele>
        <time>2026-05-19T16:55:13+02:00</time>
      </trkpt>
      <trkpt lat="49.45755" lon="6.34793">
        <ele>178.5</ele>
        <time>2026-05-19T16:55:14+02:00</time>
      </trkpt>
      <trkpt lat="49.45749" lon="6.34785">
        <ele>178</ele>
        <time>2026-05-19T16:55:15+02:00</time>
      </trkpt>
      <trkpt lat="49.45743" lon="6.34778">
        <ele>177.60059</ele>
        <time>2026-05-19T16:55:16+02:00</time>
      </trkpt>
      <trkpt lat="49.45736" lon="6.3477">
        <ele>177.90039</ele>
        <time>2026-05-19T16:55:17+02:00</time>
      </trkpt>
      <trkpt lat="49.4573" lon="6.34762">
        <ele>178</ele>
        <time>2026-05-19T16:55:18+02:00</time>
      </trkpt>
      <trkpt lat="49.45724" lon="6.34754">
        <ele>177.7998</ele>
        <time>2026-05-19T16:55:19+02:00</time>
      </trkpt>
      <trkpt lat="49.45718" lon="6.34746">
        <ele>177.7002</ele>
        <time>2026-05-19T16:55:20+02:00</time>
      </trkpt>
      <trkpt lat="49.45712" lon="6.34738">
        <ele>177.5</ele>
        <time>2026-05-19T16:55:21+02:00</time>
      </trkpt>
      <trkpt lat="49.45707" lon="6.3473">
        <ele>177.2998</ele>
        <time>2026-05-19T16:55:22+02:00</time>
      </trkpt>
      <trkpt lat="49.45701" lon="6.34722">
        <ele>177.2002</ele>
        <time>2026-05-19T16:55:23+02:00</time>
      </trkpt>
      <trkpt lat="49.45695" lon="6.34715">
        <ele>177</ele>
        <time>2026-05-19T16:55:24+02:00</time>
      </trkpt>
      <trkpt lat="49.45689" lon="6.34707">
        <ele>176.7998</ele>
        <time>2026-05-19T16:55:25+02:00</time>
      </trkpt>
      <trkpt lat="49.45683" lon="6.347">
        <ele>176.7002</ele>
        <time>2026-05-19T16:55:26+02:00</time>
      </trkpt>
      <trkpt lat="49.45678" lon="6.34693">
        <ele>177</ele>
        <time>2026-05-19T16:55:27+02:00</time>
      </trkpt>
      <trkpt lat="49.45673" lon="6.34686">
        <ele>177.10059</ele>
        <time>2026-05-19T16:55:28+02:00</time>
      </trkpt>
      <trkpt lat="49.45667" lon="6.34679">
        <ele>177.10059</ele>
        <time>2026-05-19T16:55:29+02:00</time>
      </trkpt>
      <trkpt lat="49.45662" lon="6.34673">
        <ele>177.10059</ele>
        <time>2026-05-19T16:55:30+02:00</time>
      </trkpt>
      <trkpt lat="49.45657" lon="6.34667">
        <ele>177.40039</ele>
        <time>2026-05-19T16:55:31+02:00</time>
      </trkpt>
      <trkpt lat="49.45651" lon="6.3466">
        <ele>177.2002</ele>
        <time>2026-05-19T16:55:32+02:00</time>
      </trkpt>
      <trkpt lat="49.45646" lon="6.34654">
        <ele>177</ele>
        <time>2026-05-19T16:55:33+02:00</time>
      </trkpt>
      <trkpt lat="49.45642" lon="6.34647">
        <ele>176.5</ele>
        <time>2026-05-19T16:55:34+02:00</time>
      </trkpt>
      <trkpt lat="49.45637" lon="6.34641">
        <ele>176.7998</ele>
        <time>2026-05-19T16:55:35+02:00</time>
      </trkpt>
      <trkpt lat="49.45632" lon="6.34636">
        <ele>176.7998</ele>
        <time>2026-05-19T16:55:36+02:00</time>
      </trkpt>
      <trkpt lat="49.45628" lon="6.34631">
        <ele>176.7998</ele>
        <time>2026-05-19T16:55:37+02:00</time>
      </trkpt>
      <trkpt lat="49.45624" lon="6.34625">
        <ele>177.10059</ele>
        <time>2026-05-19T16:55:38+02:00</time>
      </trkpt>
      <trkpt lat="49.4562" lon="6.3462">
        <ele>176.60059</ele>
        <time>2026-05-19T16:55:39+02:00</time>
      </trkpt>
      <trkpt lat="49.45616" lon="6.34615">
        <ele>177</ele>
        <time>2026-05-19T16:55:40+02:00</time>
      </trkpt>
      <trkpt lat="49.45611" lon="6.34609">
        <ele>176.7998</ele>
        <time>2026-05-19T16:55:41+02:00</time>
      </trkpt>
      <trkpt lat="49.45607" lon="6.34604">
        <ele>176.7002</ele>
        <time>2026-05-19T16:55:42+02:00</time>
      </trkpt>
      <trkpt lat="49.45603" lon="6.34598">
        <ele>176.7002</ele>
        <time>2026-05-19T16:55:43+02:00</time>
      </trkpt>
      <trkpt lat="49.45598" lon="6.34592">
        <ele>176.60059</ele>
        <time>2026-05-19T16:55:44+02:00</time>
      </trkpt>
      <trkpt lat="49.45594" lon="6.34587">
        <ele>176.7002</ele>
        <time>2026-05-19T16:55:45+02:00</time>
      </trkpt>
      <trkpt lat="49.45592" lon="6.34584">
        <ele>176.7002</ele>
        <time>2026-05-19T16:55:46+02:00</time>
      </trkpt>
      <trkpt lat="49.45585" lon="6.34576">
        <ele>177.2998</ele>
        <time>2026-05-19T16:55:47+02:00</time>
      </trkpt>
      <trkpt lat="49.4558" lon="6.3457">
        <ele>177</ele>
        <time>2026-05-19T16:55:48+02:00</time>
      </trkpt>
      <trkpt lat="49.45575" lon="6.34564">
        <ele>177.2998</ele>
        <time>2026-05-19T16:55:49+02:00</time>
      </trkpt>
      <trkpt lat="49.45571" lon="6.34558">
        <ele>177.2002</ele>
        <time>2026-05-19T16:55:50+02:00</time>
      </trkpt>
      <trkpt lat="49.45566" lon="6.34551">
        <ele>177</ele>
        <time>2026-05-19T16:55:51+02:00</time>
      </trkpt>
      <trkpt lat="49.45561" lon="6.34545">
        <ele>176.7002</ele>
        <time>2026-05-19T16:55:52+02:00</time>
      </trkpt>
      <trkpt lat="49.45556" lon="6.34539">
        <ele>177</ele>
        <time>2026-05-19T16:55:53+02:00</time>
      </trkpt>
      <trkpt lat="49.45551" lon="6.34534">
        <ele>176.7002</ele>
        <time>2026-05-19T16:55:54+02:00</time>
      </trkpt>
      <trkpt lat="49.45547" lon="6.34528">
        <ele>176.2002</ele>
        <time>2026-05-19T16:55:55+02:00</time>
      </trkpt>
      <trkpt lat="49.45543" lon="6.34523">
        <ele>176.40039</ele>
        <time>2026-05-19T16:55:56+02:00</time>
      </trkpt>
      <trkpt lat="49.4554" lon="6.34519">
        <ele>175.90039</ele>
        <time>2026-05-19T16:55:57+02:00</time>
      </trkpt>
      <trkpt lat="49.45536" lon="6.34514">
        <ele>175.90039</ele>
        <time>2026-05-19T16:55:58+02:00</time>
      </trkpt>
      <trkpt lat="49.45532" lon="6.34508">
        <ele>175.40039</ele>
        <time>2026-05-19T16:55:59+02:00</time>
      </trkpt>
      <trkpt lat="49.45527" lon="6.34502">
        <ele>175</ele>
        <time>2026-05-19T16:56:00+02:00</time>
      </trkpt>
      <trkpt lat="49.45522" lon="6.34496">
        <ele>175.2002</ele>
        <time>2026-05-19T16:56:01+02:00</time>
      </trkpt>
      <trkpt lat="49.45517" lon="6.3449">
        <ele>174.60059</ele>
        <time>2026-05-19T16:56:02+02:00</time>
      </trkpt>
      <trkpt lat="49.45512" lon="6.34483">
        <ele>173.90039</ele>
        <time>2026-05-19T16:56:03+02:00</time>
      </trkpt>
      <trkpt lat="49.45507" lon="6.34476">
        <ele>173</ele>
        <time>2026-05-19T16:56:04+02:00</time>
      </trkpt>
      <trkpt lat="49.45501" lon="6.3447">
        <ele>173</ele>
        <time>2026-05-19T16:56:05+02:00</time>
      </trkpt>
      <trkpt lat="49.45495" lon="6.34465">
        <ele>172.10059</ele>
        <time>2026-05-19T16:56:06+02:00</time>
      </trkpt>
      <trkpt lat="49.4549" lon="6.3446">
        <ele>171.2002</ele>
        <time>2026-05-19T16:56:07+02:00</time>
      </trkpt>
      <trkpt lat="49.45484" lon="6.34455">
        <ele>171.2002</ele>
        <time>2026-05-19T16:56:08+02:00</time>
      </trkpt>
      <trkpt lat="49.45478" lon="6.34451">
        <ele>170.2002</ele>
        <time>2026-05-19T16:56:09+02:00</time>
      </trkpt>
      <trkpt lat="49.45472" lon="6.34447">
        <ele>170.2002</ele>
        <time>2026-05-19T16:56:10+02:00</time>
      </trkpt>
      <trkpt lat="49.45467" lon="6.34444">
        <ele>170</ele>
        <time>2026-05-19T16:56:11+02:00</time>
      </trkpt>
      <trkpt lat="49.45463" lon="6.34441">
        <ele>169.10059</ele>
        <time>2026-05-19T16:56:12+02:00</time>
      </trkpt>
      <trkpt lat="49.45458" lon="6.34439">
        <ele>168.7998</ele>
        <time>2026-05-19T16:56:13+02:00</time>
      </trkpt>
      <trkpt lat="49.45454" lon="6.34438">
        <ele>168.2998</ele>
        <time>2026-05-19T16:56:14+02:00</time>
      </trkpt>
      <trkpt lat="49.4545" lon="6.34441">
        <ele>167.7998</ele>
        <time>2026-05-19T16:56:15+02:00</time>
      </trkpt>
      <trkpt lat="49.45448" lon="6.34445">
        <ele>168.7998</ele>
        <time>2026-05-19T16:56:16+02:00</time>
      </trkpt>
      <trkpt lat="49.45446" lon="6.3445">
        <ele>168.7998</ele>
        <time>2026-05-19T16:56:17+02:00</time>
      </trkpt>
      <trkpt lat="49.45445" lon="6.34454">
        <ele>169.2998</ele>
        <time>2026-05-19T16:56:18+02:00</time>
      </trkpt>
      <trkpt lat="49.45443" lon="6.34459">
        <ele>169.2998</ele>
        <time>2026-05-19T16:56:19+02:00</time>
      </trkpt>
      <trkpt lat="49.45442" lon="6.34463">
        <ele>170.2002</ele>
        <time>2026-05-19T16:56:20+02:00</time>
      </trkpt>
      <trkpt lat="49.4544" lon="6.34466">
        <ele>169.7998</ele>
        <time>2026-05-19T16:56:21+02:00</time>
      </trkpt>
      <trkpt lat="49.45438" lon="6.3447">
        <ele>170.7998</ele>
        <time>2026-05-19T16:56:22+02:00</time>
      </trkpt>
      <trkpt lat="49.45435" lon="6.34475">
        <ele>170.7998</ele>
        <time>2026-05-19T16:56:23+02:00</time>
      </trkpt>
      <trkpt lat="49.45433" lon="6.3448">
        <ele>171.40039</ele>
        <time>2026-05-19T16:56:24+02:00</time>
      </trkpt>
      <trkpt lat="49.45431" lon="6.34484">
        <ele>171.40039</ele>
        <time>2026-05-19T16:56:25+02:00</time>
      </trkpt>
      <trkpt lat="49.45428" lon="6.34489">
        <ele>172</ele>
        <time>2026-05-19T16:56:26+02:00</time>
      </trkpt>
      <trkpt lat="49.45426" lon="6.34494">
        <ele>172</ele>
        <time>2026-05-19T16:56:27+02:00</time>
      </trkpt>
      <trkpt lat="49.45422" lon="6.34499">
        <ele>172.60059</ele>
        <time>2026-05-19T16:56:28+02:00</time>
      </trkpt>
      <trkpt lat="49.45419" lon="6.34504">
        <ele>173.5</ele>
        <time>2026-05-19T16:56:29+02:00</time>
      </trkpt>
      <trkpt lat="49.45416" lon="6.3451">
        <ele>173</ele>
        <time>2026-05-19T16:56:30+02:00</time>
      </trkpt>
      <trkpt lat="49.45413" lon="6.34515">
        <ele>174</ele>
        <time>2026-05-19T16:56:31+02:00</time>
      </trkpt>
      <trkpt lat="49.45409" lon="6.34521">
        <ele>174.40039</ele>
        <time>2026-05-19T16:56:32+02:00</time>
      </trkpt>
      <trkpt lat="49.45405" lon="6.34526">
        <ele>173.7998</ele>
        <time>2026-05-19T16:56:33+02:00</time>
      </trkpt>
      <trkpt lat="49.45402" lon="6.34531">
        <ele>174.7998</ele>
        <time>2026-05-19T16:56:34+02:00</time>
      </trkpt>
      <trkpt lat="49.454" lon="6.34533">
        <ele>174.2998</ele>
        <time>2026-05-19T16:56:35+02:00</time>
      </trkpt>
      <trkpt lat="49.45394" lon="6.3454">
        <ele>174.90039</ele>
        <time>2026-05-19T16:56:36+02:00</time>
      </trkpt>
      <trkpt lat="49.45389" lon="6.34544">
        <ele>174.5</ele>
        <time>2026-05-19T16:56:37+02:00</time>
      </trkpt>
      <trkpt lat="49.45385" lon="6.34548">
        <ele>175.5</ele>
        <time>2026-05-19T16:56:38+02:00</time>
      </trkpt>
      <trkpt lat="49.45382" lon="6.34553">
        <ele>175.10059</ele>
        <time>2026-05-19T16:56:39+02:00</time>
      </trkpt>
      <trkpt lat="49.45378" lon="6.34557">
        <ele>175.7002</ele>
        <time>2026-05-19T16:56:40+02:00</time>
      </trkpt>
      <trkpt lat="49.45374" lon="6.34562">
        <ele>175.7002</ele>
        <time>2026-05-19T16:56:41+02:00</time>
      </trkpt>
      <trkpt lat="49.45371" lon="6.34566">
        <ele>176.2998</ele>
        <time>2026-05-19T16:56:42+02:00</time>
      </trkpt>
      <trkpt lat="49.45368" lon="6.3457">
        <ele>176.2998</ele>
        <time>2026-05-19T16:56:43+02:00</time>
      </trkpt>
      <trkpt lat="49.45365" lon="6.34575">
        <ele>176.7998</ele>
        <time>2026-05-19T16:56:44+02:00</time>
      </trkpt>
      <trkpt lat="49.45361" lon="6.34579">
        <ele>176.40039</ele>
        <time>2026-05-19T16:56:45+02:00</time>
      </trkpt>
      <trkpt lat="49.45358" lon="6.34583">
        <ele>177.5</ele>
        <time>2026-05-19T16:56:46+02:00</time>
      </trkpt>
      <trkpt lat="49.45355" lon="6.34588">
        <ele>177.10059</ele>
        <time>2026-05-19T16:56:47+02:00</time>
      </trkpt>
      <trkpt lat="49.45353" lon="6.34592">
        <ele>178.2998</ele>
        <time>2026-05-19T16:56:48+02:00</time>
      </trkpt>
      <trkpt lat="49.4535" lon="6.34597">
        <ele>177.90039</ele>
        <time>2026-05-19T16:56:49+02:00</time>
      </trkpt>
      <trkpt lat="49.45348" lon="6.34602">
        <ele>179.10059</ele>
        <time>2026-05-19T16:56:50+02:00</time>
      </trkpt>
      <trkpt lat="49.45346" lon="6.34606">
        <ele>179.10059</ele>
        <time>2026-05-19T16:56:51+02:00</time>
      </trkpt>
      <trkpt lat="49.45344" lon="6.34611">
        <ele>179.90039</ele>
        <time>2026-05-19T16:56:52+02:00</time>
      </trkpt>
      <trkpt lat="49.45342" lon="6.34615">
        <ele>181</ele>
        <time>2026-05-19T16:56:53+02:00</time>
      </trkpt>
      <trkpt lat="49.4534" lon="6.34619">
        <ele>181</ele>
        <time>2026-05-19T16:56:54+02:00</time>
      </trkpt>
      <trkpt lat="49.45339" lon="6.34622">
        <ele>180.60059</ele>
        <time>2026-05-19T16:56:55+02:00</time>
      </trkpt>
      <trkpt lat="49.45337" lon="6.34625">
        <ele>181.5</ele>
        <time>2026-05-19T16:56:56+02:00</time>
      </trkpt>
      <trkpt lat="49.45335" lon="6.34628">
        <ele>181.5</ele>
        <time>2026-05-19T16:56:57+02:00</time>
      </trkpt>
      <trkpt lat="49.45333" lon="6.34631">
        <ele>181</ele>
        <time>2026-05-19T16:56:58+02:00</time>
      </trkpt>
      <trkpt lat="49.45332" lon="6.34634">
        <ele>182</ele>
        <time>2026-05-19T16:56:59+02:00</time>
      </trkpt>
      <trkpt lat="49.45331" lon="6.34637">
        <ele>182</ele>
        <time>2026-05-19T16:57:00+02:00</time>
      </trkpt>
      <trkpt lat="49.4533" lon="6.3464">
        <ele>182</ele>
        <time>2026-05-19T16:57:01+02:00</time>
      </trkpt>
      <trkpt lat="49.45329" lon="6.34644">
        <ele>182.90039</ele>
        <time>2026-05-19T16:57:02+02:00</time>
      </trkpt>
      <trkpt lat="49.45329" lon="6.34647">
        <ele>182.90039</ele>
        <time>2026-05-19T16:57:03+02:00</time>
      </trkpt>
      <trkpt lat="49.45329" lon="6.3465">
        <ele>183.7998</ele>
        <time>2026-05-19T16:57:04+02:00</time>
      </trkpt>
      <trkpt lat="49.45331" lon="6.34652">
        <ele>183.7998</ele>
        <time>2026-05-19T16:57:05+02:00</time>
      </trkpt>
      <trkpt lat="49.45332" lon="6.34653">
        <ele>183.7998</ele>
        <time>2026-05-19T16:57:06+02:00</time>
      </trkpt>
      <trkpt lat="49.45334" lon="6.34653">
        <ele>183.7998</ele>
        <time>2026-05-19T16:57:07+02:00</time>
      </trkpt>
      <trkpt lat="49.45337" lon="6.34653">
        <ele>184.2002</ele>
        <time>2026-05-19T16:57:08+02:00</time>
      </trkpt>
      <trkpt lat="49.45338" lon="6.34653">
        <ele>184.2002</ele>
        <time>2026-05-19T16:57:09+02:00</time>
      </trkpt>
      <trkpt lat="49.4534" lon="6.34653">
        <ele>184.7002</ele>
        <time>2026-05-19T16:57:10+02:00</time>
      </trkpt>
      <trkpt lat="49.45342" lon="6.34653">
        <ele>184.7002</ele>
        <time>2026-05-19T16:57:11+02:00</time>
      </trkpt>
      <trkpt lat="49.45344" lon="6.34652">
        <ele>184.7002</ele>
        <time>2026-05-19T16:57:12+02:00</time>
      </trkpt>
      <trkpt lat="49.45346" lon="6.34653">
        <ele>185.10059</ele>
        <time>2026-05-19T16:57:13+02:00</time>
      </trkpt>
      <trkpt lat="49.45348" lon="6.34653">
        <ele>185.10059</ele>
        <time>2026-05-19T16:57:14+02:00</time>
      </trkpt>
      <trkpt lat="49.4535" lon="6.34653">
        <ele>185.10059</ele>
        <time>2026-05-19T16:57:15+02:00</time>
      </trkpt>
      <trkpt lat="49.45352" lon="6.34652">
        <ele>185.5</ele>
        <time>2026-05-19T16:57:16+02:00</time>
      </trkpt>
      <trkpt lat="49.45354" lon="6.34652">
        <ele>185.5</ele>
        <time>2026-05-19T16:57:17+02:00</time>
      </trkpt>
      <trkpt lat="49.45356" lon="6.34652">
        <ele>185.5</ele>
        <time>2026-05-19T16:57:18+02:00</time>
      </trkpt>
      <trkpt lat="49.45357" lon="6.34652">
        <ele>185.7998</ele>
        <time>2026-05-19T16:57:19+02:00</time>
      </trkpt>
      <trkpt lat="49.4536" lon="6.34653">
        <ele>185.7998</ele>
        <time>2026-05-19T16:57:20+02:00</time>
      </trkpt>
      <trkpt lat="49.45361" lon="6.34654">
        <ele>185.7998</ele>
        <time>2026-05-19T16:57:21+02:00</time>
      </trkpt>
      <trkpt lat="49.45363" lon="6.34656">
        <ele>186</ele>
        <time>2026-05-19T16:57:22+02:00</time>
      </trkpt>
      <trkpt lat="49.45365" lon="6.34657">
        <ele>186</ele>
        <time>2026-05-19T16:57:23+02:00</time>
      </trkpt>
      <trkpt lat="49.45366" lon="6.34658">
        <ele>186.7998</ele>
        <time>2026-05-19T16:57:24+02:00</time>
      </trkpt>
      <trkpt lat="49.45368" lon="6.34659">
        <ele>187</ele>
        <time>2026-05-19T16:57:25+02:00</time>
      </trkpt>
      <trkpt lat="49.45369" lon="6.34661">
        <ele>187</ele>
        <time>2026-05-19T16:57:26+02:00</time>
      </trkpt>
      <trkpt lat="49.45372" lon="6.34662">
        <ele>187</ele>
        <time>2026-05-19T16:57:27+02:00</time>
      </trkpt>
      <trkpt lat="49.45374" lon="6.34664">
        <ele>187.2002</ele>
        <time>2026-05-19T16:57:28+02:00</time>
      </trkpt>
      <trkpt lat="49.45376" lon="6.34665">
        <ele>187.2002</ele>
        <time>2026-05-19T16:57:29+02:00</time>
      </trkpt>
      <trkpt lat="49.45378" lon="6.34667">
        <ele>188</ele>
        <time>2026-05-19T16:57:30+02:00</time>
      </trkpt>
      <trkpt lat="49.4538" lon="6.34669">
        <ele>188.2002</ele>
        <time>2026-05-19T16:57:31+02:00</time>
      </trkpt>
      <trkpt lat="49.45382" lon="6.34671">
        <ele>188.2002</ele>
        <time>2026-05-19T16:57:32+02:00</time>
      </trkpt>
      <trkpt lat="49.45384" lon="6.34672">
        <ele>188.2002</ele>
        <time>2026-05-19T16:57:33+02:00</time>
      </trkpt>
      <trkpt lat="49.45385" lon="6.34674">
        <ele>188.5</ele>
        <time>2026-05-19T16:57:34+02:00</time>
      </trkpt>
      <trkpt lat="49.45387" lon="6.34676">
        <ele>189.2002</ele>
        <time>2026-05-19T16:57:35+02:00</time>
      </trkpt>
      <trkpt lat="49.45389" lon="6.34678">
        <ele>189.2002</ele>
        <time>2026-05-19T16:57:36+02:00</time>
      </trkpt>
      <trkpt lat="49.45391" lon="6.34679">
        <ele>189.40039</ele>
        <time>2026-05-19T16:57:37+02:00</time>
      </trkpt>
      <trkpt lat="49.45393" lon="6.34681">
        <ele>189.40039</ele>
        <time>2026-05-19T16:57:38+02:00</time>
      </trkpt>
      <trkpt lat="49.45395" lon="6.34682">
        <ele>189.40039</ele>
        <time>2026-05-19T16:57:39+02:00</time>
      </trkpt>
      <trkpt lat="49.45397" lon="6.34683">
        <ele>189.7002</ele>
        <time>2026-05-19T16:57:40+02:00</time>
      </trkpt>
      <trkpt lat="49.45398" lon="6.34684">
        <ele>190.2002</ele>
        <time>2026-05-19T16:57:41+02:00</time>
      </trkpt>
      <trkpt lat="49.454" lon="6.34686">
        <ele>190.2002</ele>
        <time>2026-05-19T16:57:42+02:00</time>
      </trkpt>
      <trkpt lat="49.45401" lon="6.34689">
        <ele>190.40039</ele>
        <time>2026-05-19T16:57:43+02:00</time>
      </trkpt>
      <trkpt lat="49.45402" lon="6.34691">
        <ele>190.40039</ele>
        <time>2026-05-19T16:57:44+02:00</time>
      </trkpt>
      <trkpt lat="49.45403" lon="6.34694">
        <ele>190.7002</ele>
        <time>2026-05-19T16:57:45+02:00</time>
      </trkpt>
      <trkpt lat="49.45403" lon="6.34696">
        <ele>190.7002</ele>
        <time>2026-05-19T16:57:46+02:00</time>
      </trkpt>
      <trkpt lat="49.45404" lon="6.34699">
        <ele>190.7002</ele>
        <time>2026-05-19T16:57:47+02:00</time>
      </trkpt>
      <trkpt lat="49.45406" lon="6.34701">
        <ele>191</ele>
        <time>2026-05-19T16:57:48+02:00</time>
      </trkpt>
      <trkpt lat="49.45407" lon="6.34703">
        <ele>191.10059</ele>
        <time>2026-05-19T16:57:49+02:00</time>
      </trkpt>
      <trkpt lat="49.45409" lon="6.34705">
        <ele>191.10059</ele>
        <time>2026-05-19T16:57:50+02:00</time>
      </trkpt>
      <trkpt lat="49.4541" lon="6.34706">
        <ele>191.10059</ele>
        <time>2026-05-19T16:57:51+02:00</time>
      </trkpt>
      <trkpt lat="49.45412" lon="6.34707">
        <ele>191.10059</ele>
        <time>2026-05-19T16:57:52+02:00</time>
      </trkpt>
      <trkpt lat="49.45413" lon="6.34709">
        <ele>191.2002</ele>
        <time>2026-05-19T16:57:53+02:00</time>
      </trkpt>
      <trkpt lat="49.45415" lon="6.3471">
        <ele>191.7002</ele>
        <time>2026-05-19T16:57:54+02:00</time>
      </trkpt>
      <trkpt lat="49.45416" lon="6.34712">
        <ele>191.7002</ele>
        <time>2026-05-19T16:57:55+02:00</time>
      </trkpt>
      <trkpt lat="49.45418" lon="6.34714">
        <ele>191.7998</ele>
        <time>2026-05-19T16:57:56+02:00</time>
      </trkpt>
      <trkpt lat="49.4542" lon="6.34716">
        <ele>191.7998</ele>
        <time>2026-05-19T16:57:57+02:00</time>
      </trkpt>
      <trkpt lat="49.45422" lon="6.34717">
        <ele>191.7998</ele>
        <time>2026-05-19T16:57:58+02:00</time>
      </trkpt>
      <trkpt lat="49.45423" lon="6.34719">
        <ele>192.2998</ele>
        <time>2026-05-19T16:57:59+02:00</time>
      </trkpt>
      <trkpt lat="49.45425" lon="6.34721">
        <ele>192.2998</ele>
        <time>2026-05-19T16:58:00+02:00</time>
      </trkpt>
      <trkpt lat="49.45427" lon="6.34723">
        <ele>192.2998</ele>
        <time>2026-05-19T16:58:01+02:00</time>
      </trkpt>
      <trkpt lat="49.45429" lon="6.34725">
        <ele>192.2998</ele>
        <time>2026-05-19T16:58:02+02:00</time>
      </trkpt>
      <trkpt lat="49.4543" lon="6.34727">
        <ele>192.90039</ele>
        <time>2026-05-19T16:58:03+02:00</time>
      </trkpt>
      <trkpt lat="49.45431" lon="6.34729">
        <ele>192.90039</ele>
        <time>2026-05-19T16:58:04+02:00</time>
      </trkpt>
      <trkpt lat="49.45434" lon="6.34731">
        <ele>192.90039</ele>
        <time>2026-05-19T16:58:05+02:00</time>
      </trkpt>
      <trkpt lat="49.45435" lon="6.34734">
        <ele>192.90039</ele>
        <time>2026-05-19T16:58:06+02:00</time>
      </trkpt>
      <trkpt lat="49.45438" lon="6.34736">
        <ele>193.5</ele>
        <time>2026-05-19T16:58:07+02:00</time>
      </trkpt>
      <trkpt lat="49.4544" lon="6.34739">
        <ele>193.5</ele>
        <time>2026-05-19T16:58:08+02:00</time>
      </trkpt>
      <trkpt lat="49.45442" lon="6.34741">
        <ele>193.5</ele>
        <time>2026-05-19T16:58:09+02:00</time>
      </trkpt>
      <trkpt lat="49.45444" lon="6.34743">
        <ele>193.5</ele>
        <time>2026-05-19T16:58:10+02:00</time>
      </trkpt>
      <trkpt lat="49.45446" lon="6.34745">
        <ele>194.10059</ele>
        <time>2026-05-19T16:58:11+02:00</time>
      </trkpt>
      <trkpt lat="49.45448" lon="6.34748">
        <ele>194.10059</ele>
        <time>2026-05-19T16:58:12+02:00</time>
      </trkpt>
      <trkpt lat="49.45451" lon="6.34751">
        <ele>194.10059</ele>
        <time>2026-05-19T16:58:13+02:00</time>
      </trkpt>
      <trkpt lat="49.45452" lon="6.34754">
        <ele>194.60059</ele>
        <time>2026-05-19T16:58:14+02:00</time>
      </trkpt>
      <trkpt lat="49.45455" lon="6.34757">
        <ele>194.60059</ele>
        <time>2026-05-19T16:58:15+02:00</time>
      </trkpt>
      <trkpt lat="49.45456" lon="6.3476">
        <ele>194.60059</ele>
        <time>2026-05-19T16:58:16+02:00</time>
      </trkpt>
      <trkpt lat="49.45458" lon="6.34763">
        <ele>195.10059</ele>
        <time>2026-05-19T16:58:17+02:00</time>
      </trkpt>
      <trkpt lat="49.4546" lon="6.34766">
        <ele>195.10059</ele>
        <time>2026-05-19T16:58:18+02:00</time>
      </trkpt>
      <trkpt lat="49.45462" lon="6.34769">
        <ele>195.10059</ele>
        <time>2026-05-19T16:58:19+02:00</time>
      </trkpt>
      <trkpt lat="49.45463" lon="6.34772">
        <ele>195.60059</ele>
        <time>2026-05-19T16:58:20+02:00</time>
      </trkpt>
      <trkpt lat="49.45464" lon="6.34775">
        <ele>195.60059</ele>
        <time>2026-05-19T16:58:21+02:00</time>
      </trkpt>
      <trkpt lat="49.45465" lon="6.34778">
        <ele>195.60059</ele>
        <time>2026-05-19T16:58:22+02:00</time>
      </trkpt>
      <trkpt lat="49.45466" lon="6.34781">
        <ele>196.2002</ele>
        <time>2026-05-19T16:58:23+02:00</time>
      </trkpt>
      <trkpt lat="49.45468" lon="6.34783">
        <ele>196.2002</ele>
        <time>2026-05-19T16:58:24+02:00</time>
      </trkpt>
      <trkpt lat="49.45469" lon="6.34785">
        <ele>196.2002</ele>
        <time>2026-05-19T16:58:25+02:00</time>
      </trkpt>
      <trkpt lat="49.45471" lon="6.34788">
        <ele>196.7998</ele>
        <time>2026-05-19T16:58:26+02:00</time>
      </trkpt>
      <trkpt lat="49.45472" lon="6.3479">
        <ele>196.7998</ele>
        <time>2026-05-19T16:58:27+02:00</time>
      </trkpt>
      <trkpt lat="49.45474" lon="6.34792">
        <ele>196.7998</ele>
        <time>2026-05-19T16:58:28+02:00</time>
      </trkpt>
      <trkpt lat="49.45476" lon="6.34794">
        <ele>196.7998</ele>
        <time>2026-05-19T16:58:29+02:00</time>
      </trkpt>
      <trkpt lat="49.45477" lon="6.34797">
        <ele>197.40039</ele>
        <time>2026-05-19T16:58:30+02:00</time>
      </trkpt>
      <trkpt lat="49.45479" lon="6.348">
        <ele>197.40039</ele>
        <time>2026-05-19T16:58:31+02:00</time>
      </trkpt>
      <trkpt lat="49.4548" lon="6.34802">
        <ele>197.2998</ele>
        <time>2026-05-19T16:58:32+02:00</time>
      </trkpt>
      <trkpt lat="49.45481" lon="6.34805">
        <ele>198</ele>
        <time>2026-05-19T16:58:33+02:00</time>
      </trkpt>
      <trkpt lat="49.45482" lon="6.34808">
        <ele>198</ele>
        <time>2026-05-19T16:58:34+02:00</time>
      </trkpt>
      <trkpt lat="49.45484" lon="6.34811">
        <ele>198</ele>
        <time>2026-05-19T16:58:35+02:00</time>
      </trkpt>
      <trkpt lat="49.45485" lon="6.34814">
        <ele>198.7002</ele>
        <time>2026-05-19T16:58:36+02:00</time>
      </trkpt>
      <trkpt lat="49.45486" lon="6.34817">
        <ele>198.7002</ele>
        <time>2026-05-19T16:58:37+02:00</time>
      </trkpt>
      <trkpt lat="49.45487" lon="6.34819">
        <ele>198.7002</ele>
        <time>2026-05-19T16:58:38+02:00</time>
      </trkpt>
      <trkpt lat="49.45488" lon="6.34822">
        <ele>199.5</ele>
        <time>2026-05-19T16:58:39+02:00</time>
      </trkpt>
      <trkpt lat="49.45489" lon="6.34823">
        <ele>199.5</ele>
        <time>2026-05-19T16:58:40+02:00</time>
      </trkpt>
      <trkpt lat="49.4549" lon="6.34826">
        <ele>199.5</ele>
        <time>2026-05-19T16:58:41+02:00</time>
      </trkpt>
      <trkpt lat="49.45491" lon="6.34827">
        <ele>199.5</ele>
        <time>2026-05-19T16:58:42+02:00</time>
      </trkpt>
      <trkpt lat="49.45492" lon="6.34829">
        <ele>199.5</ele>
        <time>2026-05-19T16:58:43+02:00</time>
      </trkpt>
      <trkpt lat="49.45492" lon="6.34831">
        <ele>200.40039</ele>
        <time>2026-05-19T16:58:44+02:00</time>
      </trkpt>
      <trkpt lat="49.45493" lon="6.34831">
        <ele>200.40039</ele>
        <time>2026-05-19T16:58:45+02:00</time>
      </trkpt>
      <trkpt lat="49.45493" lon="6.34832">
        <ele>200.40039</ele>
        <time>2026-05-19T16:58:46+02:00</time>
      </trkpt>
      <trkpt lat="49.45493" lon="6.34832">
        <ele>200.40039</ele>
        <time>2026-05-19T16:58:47+02:00</time>
      </trkpt>
      <trkpt lat="49.45487" lon="6.34813">
        <ele>198.7002</ele>
        <time>2026-05-19T16:59:52+02:00</time>
      </trkpt>
      <trkpt lat="49.45484" lon="6.34809">
        <ele>198</ele>
        <time>2026-05-19T16:59:53+02:00</time>
      </trkpt>
      <trkpt lat="49.45482" lon="6.34804">
        <ele>198</ele>
        <time>2026-05-19T16:59:54+02:00</time>
      </trkpt>
      <trkpt lat="49.4548" lon="6.348">
        <ele>197.2998</ele>
        <time>2026-05-19T16:59:55+02:00</time>
      </trkpt>
      <trkpt lat="49.45477" lon="6.34795">
        <ele>196.7998</ele>
        <time>2026-05-19T16:59:56+02:00</time>
      </trkpt>
      <trkpt lat="49.45475" lon="6.34791">
        <ele>196.7998</ele>
        <time>2026-05-19T16:59:57+02:00</time>
      </trkpt>
      <trkpt lat="49.45472" lon="6.34787">
        <ele>196.7998</ele>
        <time>2026-05-19T16:59:58+02:00</time>
      </trkpt>
      <trkpt lat="49.45471" lon="6.34783">
        <ele>196.2002</ele>
        <time>2026-05-19T16:59:59+02:00</time>
      </trkpt>
      <trkpt lat="49.45469" lon="6.34778">
        <ele>195.60059</ele>
        <time>2026-05-19T17:00:00+02:00</time>
      </trkpt>
      <trkpt lat="49.45467" lon="6.34773">
        <ele>195.60059</ele>
        <time>2026-05-19T17:00:01+02:00</time>
      </trkpt>
      <trkpt lat="49.45466" lon="6.34771">
        <ele>195.60059</ele>
        <time>2026-05-19T17:00:02+02:00</time>
      </trkpt>
      <trkpt lat="49.45461" lon="6.34762">
        <ele>195.10059</ele>
        <time>2026-05-19T17:00:03+02:00</time>
      </trkpt>
      <trkpt lat="49.45457" lon="6.34756">
        <ele>194.60059</ele>
        <time>2026-05-19T17:00:04+02:00</time>
      </trkpt>
      <trkpt lat="49.45453" lon="6.34751">
        <ele>194</ele>
        <time>2026-05-19T17:00:05+02:00</time>
      </trkpt>
      <trkpt lat="49.45449" lon="6.34745">
        <ele>194.10059</ele>
        <time>2026-05-19T17:00:06+02:00</time>
      </trkpt>
      <trkpt lat="49.45445" lon="6.3474">
        <ele>193.5</ele>
        <time>2026-05-19T17:00:07+02:00</time>
      </trkpt>
      <trkpt lat="49.4544" lon="6.34736">
        <ele>193.5</ele>
        <time>2026-05-19T17:00:08+02:00</time>
      </trkpt>
      <trkpt lat="49.45437" lon="6.34732">
        <ele>192.90039</ele>
        <time>2026-05-19T17:00:09+02:00</time>
      </trkpt>
      <trkpt lat="49.45432" lon="6.34727">
        <ele>192.90039</ele>
        <time>2026-05-19T17:00:10+02:00</time>
      </trkpt>
      <trkpt lat="49.45429" lon="6.34723">
        <ele>192.2998</ele>
        <time>2026-05-19T17:00:11+02:00</time>
      </trkpt>
      <trkpt lat="49.45424" lon="6.34718">
        <ele>192.2998</ele>
        <time>2026-05-19T17:00:12+02:00</time>
      </trkpt>
      <trkpt lat="49.45422" lon="6.34716">
        <ele>191.7998</ele>
        <time>2026-05-19T17:00:13+02:00</time>
      </trkpt>
      <trkpt lat="49.45415" lon="6.34708">
        <ele>191.2002</ele>
        <time>2026-05-19T17:00:14+02:00</time>
      </trkpt>
      <trkpt lat="49.45413" lon="6.34706">
        <ele>191.2002</ele>
        <time>2026-05-19T17:00:15+02:00</time>
      </trkpt>
      <trkpt lat="49.45408" lon="6.34699">
        <ele>190.7998</ele>
        <time>2026-05-19T17:00:16+02:00</time>
      </trkpt>
      <trkpt lat="49.45405" lon="6.34696">
        <ele>190.7002</ele>
        <time>2026-05-19T17:00:17+02:00</time>
      </trkpt>
      <trkpt lat="49.45403" lon="6.34691">
        <ele>190.40039</ele>
        <time>2026-05-19T17:00:18+02:00</time>
      </trkpt>
      <trkpt lat="49.45399" lon="6.34687">
        <ele>190.2002</ele>
        <time>2026-05-19T17:00:19+02:00</time>
      </trkpt>
      <trkpt lat="49.45395" lon="6.34682">
        <ele>189.40039</ele>
        <time>2026-05-19T17:00:20+02:00</time>
      </trkpt>
      <trkpt lat="49.45392" lon="6.34678">
        <ele>189.40039</ele>
        <time>2026-05-19T17:00:21+02:00</time>
      </trkpt>
      <trkpt lat="49.45388" lon="6.34674">
        <ele>188.5</ele>
        <time>2026-05-19T17:00:22+02:00</time>
      </trkpt>
      <trkpt lat="49.45384" lon="6.34671">
        <ele>188.2002</ele>
        <time>2026-05-19T17:00:23+02:00</time>
      </trkpt>
      <trkpt lat="49.45381" lon="6.34669">
        <ele>188.2002</ele>
        <time>2026-05-19T17:00:24+02:00</time>
      </trkpt>
      <trkpt lat="49.45379" lon="6.34666">
        <ele>187.5</ele>
        <time>2026-05-19T17:00:25+02:00</time>
      </trkpt>
      <trkpt lat="49.45377" lon="6.34663">
        <ele>187.2002</ele>
        <time>2026-05-19T17:00:26+02:00</time>
      </trkpt>
      <trkpt lat="49.45378" lon="6.3466">
        <ele>187.2002</ele>
        <time>2026-05-19T17:00:27+02:00</time>
      </trkpt>
      <trkpt lat="49.45379" lon="6.34657">
        <ele>186.60059</ele>
        <time>2026-05-19T17:00:28+02:00</time>
      </trkpt>
      <trkpt lat="49.4538" lon="6.34655">
        <ele>186.60059</ele>
        <time>2026-05-19T17:00:29+02:00</time>
      </trkpt>
      <trkpt lat="49.45381" lon="6.34655">
        <ele>186.60059</ele>
        <time>2026-05-19T17:00:30+02:00</time>
      </trkpt>
      <trkpt lat="49.45383" lon="6.34653">
        <ele>186.60059</ele>
        <time>2026-05-19T17:00:31+02:00</time>
      </trkpt>
      <trkpt lat="49.45385" lon="6.34653">
        <ele>186.90039</ele>
        <time>2026-05-19T17:00:32+02:00</time>
      </trkpt>
      <trkpt lat="49.45385" lon="6.34651">
        <ele>186.90039</ele>
        <time>2026-05-19T17:00:33+02:00</time>
      </trkpt>
      <trkpt lat="49.45386" lon="6.34649">
        <ele>186</ele>
        <time>2026-05-19T17:00:34+02:00</time>
      </trkpt>
      <trkpt lat="49.45386" lon="6.34647">
        <ele>186</ele>
        <time>2026-05-19T17:00:35+02:00</time>
      </trkpt>
      <trkpt lat="49.45385" lon="6.34644">
        <ele>186</ele>
        <time>2026-05-19T17:00:36+02:00</time>
      </trkpt>
      <trkpt lat="49.45385" lon="6.34641">
        <ele>186</ele>
        <time>2026-05-19T17:00:37+02:00</time>
      </trkpt>
      <trkpt lat="49.45384" lon="6.34637">
        <ele>184.7998</ele>
        <time>2026-05-19T17:00:38+02:00</time>
      </trkpt>
      <trkpt lat="49.45384" lon="6.34634">
        <ele>184.7998</ele>
        <time>2026-05-19T17:00:39+02:00</time>
      </trkpt>
      <trkpt lat="49.45383" lon="6.3463">
        <ele>183.90039</ele>
        <time>2026-05-19T17:00:40+02:00</time>
      </trkpt>
      <trkpt lat="49.45384" lon="6.34626">
        <ele>183.90039</ele>
        <time>2026-05-19T17:00:41+02:00</time>
      </trkpt>
      <trkpt lat="49.45384" lon="6.34623">
        <ele>182.90039</ele>
        <time>2026-05-19T17:00:42+02:00</time>
      </trkpt>
      <trkpt lat="49.45384" lon="6.34621">
        <ele>182.90039</ele>
        <time>2026-05-19T17:00:43+02:00</time>
      </trkpt>
      <trkpt lat="49.45384" lon="6.34619">
        <ele>182.90039</ele>
        <time>2026-05-19T17:00:44+02:00</time>
      </trkpt>
      <trkpt lat="49.45385" lon="6.34617">
        <ele>183.2998</ele>
        <time>2026-05-19T17:00:45+02:00</time>
      </trkpt>
      <trkpt lat="49.45385" lon="6.34616">
        <ele>183.2998</ele>
        <time>2026-05-19T17:00:46+02:00</time>
      </trkpt>
      <trkpt lat="49.45385" lon="6.34615">
        <ele>183.2998</ele>
        <time>2026-05-19T17:00:47+02:00</time>
      </trkpt>
      <trkpt lat="49.45385" lon="6.34615">
        <ele>183.2998</ele>
        <time>2026-05-19T17:00:48+02:00</time>
      </trkpt>
      <trkpt lat="49.4539" lon="6.34619">
        <ele>183.60059</ele>
        <time>2026-05-19T17:01:21+02:00</time>
      </trkpt>
      <trkpt lat="49.45389" lon="6.3462">
        <ele>183.2998</ele>
        <time>2026-05-19T17:01:22+02:00</time>
      </trkpt>
      <trkpt lat="49.45389" lon="6.3462">
        <ele>183.2998</ele>
        <time>2026-05-19T17:01:23+02:00</time>
      </trkpt>
      <trkpt lat="49.45389" lon="6.3462">
        <ele>183.2998</ele>
        <time>2026-05-19T17:01:24+02:00</time>
      </trkpt>
      <trkpt lat="49.45386" lon="6.3464">
        <ele>185.10059</ele>
        <time>2026-05-19T17:01:32+02:00</time>
      </trkpt>
      <trkpt lat="49.45386" lon="6.34644">
        <ele>186</ele>
        <time>2026-05-19T17:01:33+02:00</time>
      </trkpt>
      <trkpt lat="49.45386" lon="6.34647">
        <ele>186</ele>
        <time>2026-05-19T17:01:34+02:00</time>
      </trkpt>
      <trkpt lat="49.45385" lon="6.34651">
        <ele>186.90039</ele>
        <time>2026-05-19T17:01:35+02:00</time>
      </trkpt>
      <trkpt lat="49.45384" lon="6.34653">
        <ele>186.60059</ele>
        <time>2026-05-19T17:01:36+02:00</time>
      </trkpt>
      <trkpt lat="49.45381" lon="6.34653">
        <ele>186.60059</ele>
        <time>2026-05-19T17:01:37+02:00</time>
      </trkpt>
      <trkpt lat="49.45378" lon="6.34653">
        <ele>186.40039</ele>
        <time>2026-05-19T17:01:38+02:00</time>
      </trkpt>
      <trkpt lat="49.45375" lon="6.34654">
        <ele>186.40039</ele>
        <time>2026-05-19T17:01:39+02:00</time>
      </trkpt>
      <trkpt lat="49.45372" lon="6.34654">
        <ele>186.2002</ele>
        <time>2026-05-19T17:01:40+02:00</time>
      </trkpt>
      <trkpt lat="49.45368" lon="6.34653">
        <ele>186.2002</ele>
        <time>2026-05-19T17:01:41+02:00</time>
      </trkpt>
      <trkpt lat="49.45365" lon="6.34653">
        <ele>186</ele>
        <time>2026-05-19T17:01:42+02:00</time>
      </trkpt>
      <trkpt lat="49.4536" lon="6.34651">
        <ele>185.7998</ele>
        <time>2026-05-19T17:01:43+02:00</time>
      </trkpt>
      <trkpt lat="49.45357" lon="6.34651">
        <ele>185.7998</ele>
        <time>2026-05-19T17:01:44+02:00</time>
      </trkpt>
      <trkpt lat="49.45353" lon="6.34652">
        <ele>185.5</ele>
        <time>2026-05-19T17:01:45+02:00</time>
      </trkpt>
      <trkpt lat="49.45349" lon="6.34652">
        <ele>185.10059</ele>
        <time>2026-05-19T17:01:46+02:00</time>
      </trkpt>
      <trkpt lat="49.45346" lon="6.34652">
        <ele>185.10059</ele>
        <time>2026-05-19T17:01:47+02:00</time>
      </trkpt>
      <trkpt lat="49.45343" lon="6.34651">
        <ele>184.7002</ele>
        <time>2026-05-19T17:01:48+02:00</time>
      </trkpt>
      <trkpt lat="49.4534" lon="6.34651">
        <ele>184.7002</ele>
        <time>2026-05-19T17:01:49+02:00</time>
      </trkpt>
      <trkpt lat="49.45336" lon="6.34651">
        <ele>184.2002</ele>
        <time>2026-05-19T17:01:50+02:00</time>
      </trkpt>
      <trkpt lat="49.45332" lon="6.34651">
        <ele>183.7998</ele>
        <time>2026-05-19T17:01:51+02:00</time>
      </trkpt>
      <trkpt lat="49.45328" lon="6.34652">
        <ele>183.2998</ele>
        <time>2026-05-19T17:01:52+02:00</time>
      </trkpt>
      <trkpt lat="49.45325" lon="6.34654">
        <ele>183.2998</ele>
        <time>2026-05-19T17:01:53+02:00</time>
      </trkpt>
      <trkpt lat="49.45319" lon="6.34659">
        <ele>183.7998</ele>
        <time>2026-05-19T17:01:54+02:00</time>
      </trkpt>
      <trkpt lat="49.45315" lon="6.34662">
        <ele>183.2998</ele>
        <time>2026-05-19T17:01:55+02:00</time>
      </trkpt>
      <trkpt lat="49.45311" lon="6.34666">
        <ele>182.7998</ele>
        <time>2026-05-19T17:01:56+02:00</time>
      </trkpt>
      <trkpt lat="49.45308" lon="6.34669">
        <ele>183.90039</ele>
        <time>2026-05-19T17:01:57+02:00</time>
      </trkpt>
      <trkpt lat="49.45304" lon="6.34672">
        <ele>183.40039</ele>
        <time>2026-05-19T17:01:58+02:00</time>
      </trkpt>
      <trkpt lat="49.45301" lon="6.34675">
        <ele>183.40039</ele>
        <time>2026-05-19T17:01:59+02:00</time>
      </trkpt>
      <trkpt lat="49.45298" lon="6.34679">
        <ele>183.90039</ele>
        <time>2026-05-19T17:02:00+02:00</time>
      </trkpt>
      <trkpt lat="49.45295" lon="6.34682">
        <ele>183.40039</ele>
        <time>2026-05-19T17:02:01+02:00</time>
      </trkpt>
      <trkpt lat="49.45292" lon="6.34686">
        <ele>184.2998</ele>
        <time>2026-05-19T17:02:02+02:00</time>
      </trkpt>
      <trkpt lat="49.45289" lon="6.34688">
        <ele>183.60059</ele>
        <time>2026-05-19T17:02:03+02:00</time>
      </trkpt>
      <trkpt lat="49.45285" lon="6.34692">
        <ele>183.60059</ele>
        <time>2026-05-19T17:02:04+02:00</time>
      </trkpt>
      <trkpt lat="49.45282" lon="6.34695">
        <ele>183.90039</ele>
        <time>2026-05-19T17:02:05+02:00</time>
      </trkpt>
      <trkpt lat="49.45279" lon="6.34697">
        <ele>183.90039</ele>
        <time>2026-05-19T17:02:06+02:00</time>
      </trkpt>
      <trkpt lat="49.45275" lon="6.34699">
        <ele>183.2998</ele>
        <time>2026-05-19T17:02:07+02:00</time>
      </trkpt>
      <trkpt lat="49.45271" lon="6.34701">
        <ele>183.60059</ele>
        <time>2026-05-19T17:02:08+02:00</time>
      </trkpt>
      <trkpt lat="49.45267" lon="6.34703">
        <ele>183.60059</ele>
        <time>2026-05-19T17:02:09+02:00</time>
      </trkpt>
      <trkpt lat="49.45263" lon="6.34705">
        <ele>183</ele>
        <time>2026-05-19T17:02:10+02:00</time>
      </trkpt>
      <trkpt lat="49.45259" lon="6.34707">
        <ele>182.40039</ele>
        <time>2026-05-19T17:02:11+02:00</time>
      </trkpt>
      <trkpt lat="49.45255" lon="6.34709">
        <ele>181.7998</ele>
        <time>2026-05-19T17:02:12+02:00</time>
      </trkpt>
      <trkpt lat="49.45252" lon="6.3471">
        <ele>182.7002</ele>
        <time>2026-05-19T17:02:13+02:00</time>
      </trkpt>
      <trkpt lat="49.45249" lon="6.34712">
        <ele>182</ele>
        <time>2026-05-19T17:02:14+02:00</time>
      </trkpt>
      <trkpt lat="49.45247" lon="6.34713">
        <ele>182</ele>
        <time>2026-05-19T17:02:15+02:00</time>
      </trkpt>
      <trkpt lat="49.45245" lon="6.34713">
        <ele>182</ele>
        <time>2026-05-19T17:02:16+02:00</time>
      </trkpt>
      <trkpt lat="49.45244" lon="6.34712">
        <ele>181.2998</ele>
        <time>2026-05-19T17:02:17+02:00</time>
      </trkpt>
      <trkpt lat="49.45243" lon="6.34708">
        <ele>180.40039</ele>
        <time>2026-05-19T17:02:18+02:00</time>
      </trkpt>
      <trkpt lat="49.45242" lon="6.34704">
        <ele>180.40039</ele>
        <time>2026-05-19T17:02:19+02:00</time>
      </trkpt>
      <trkpt lat="49.4524" lon="6.347">
        <ele>179.40039</ele>
        <time>2026-05-19T17:02:20+02:00</time>
      </trkpt>
      <trkpt lat="49.45238" lon="6.34697">
        <ele>178.60059</ele>
        <time>2026-05-19T17:02:21+02:00</time>
      </trkpt>
      <trkpt lat="49.45236" lon="6.34694">
        <ele>178.60059</ele>
        <time>2026-05-19T17:02:22+02:00</time>
      </trkpt>
      <trkpt lat="49.45234" lon="6.34693">
        <ele>178.60059</ele>
        <time>2026-05-19T17:02:23+02:00</time>
      </trkpt>
      <trkpt lat="49.45232" lon="6.34691">
        <ele>176.60059</ele>
        <time>2026-05-19T17:02:24+02:00</time>
      </trkpt>
      <trkpt lat="49.45231" lon="6.34691">
        <ele>176.60059</ele>
        <time>2026-05-19T17:02:25+02:00</time>
      </trkpt>
      <trkpt lat="49.45231" lon="6.3469">
        <ele>176.60059</ele>
        <time>2026-05-19T17:02:26+02:00</time>
      </trkpt>
      <trkpt lat="49.4523" lon="6.3469">
        <ele>176.60059</ele>
        <time>2026-05-19T17:02:27+02:00</time>
      </trkpt>
      <trkpt lat="49.4523" lon="6.3469">
        <ele>176.60059</ele>
        <time>2026-05-19T17:02:28+02:00</time>
      </trkpt>
      <trkpt lat="49.4523" lon="6.3469">
        <ele>176.60059</ele>
        <time>2026-05-19T17:02:29+02:00</time>
      </trkpt>
      <trkpt lat="49.45233" lon="6.34708">
        <ele>178.7002</ele>
        <time>2026-05-19T17:02:40+02:00</time>
      </trkpt>
      <trkpt lat="49.45233" lon="6.34711">
        <ele>179.60059</ele>
        <time>2026-05-19T17:02:41+02:00</time>
      </trkpt>
      <trkpt lat="49.45232" lon="6.34714">
        <ele>179.60059</ele>
        <time>2026-05-19T17:02:42+02:00</time>
      </trkpt>
      <trkpt lat="49.45231" lon="6.34715">
        <ele>179.60059</ele>
        <time>2026-05-19T17:02:43+02:00</time>
      </trkpt>
      <trkpt lat="49.45231" lon="6.34716">
        <ele>179.60059</ele>
        <time>2026-05-19T17:02:44+02:00</time>
      </trkpt>
      <trkpt lat="49.4523" lon="6.34716">
        <ele>179.60059</ele>
        <time>2026-05-19T17:02:45+02:00</time>
      </trkpt>
      <trkpt lat="49.4523" lon="6.34716">
        <ele>179.60059</ele>
        <time>2026-05-19T17:02:46+02:00</time>
      </trkpt>
      <trkpt lat="49.4523" lon="6.34716">
        <ele>179.60059</ele>
        <time>2026-05-19T17:02:47+02:00</time>
      </trkpt>
      <trkpt lat="49.45219" lon="6.34738">
        <ele>180.7002</ele>
        <time>2026-05-19T17:02:55+02:00</time>
      </trkpt>
      <trkpt lat="49.45217" lon="6.34742">
        <ele>180.7002</ele>
        <time>2026-05-19T17:02:56+02:00</time>
      </trkpt>
      <trkpt lat="49.45215" lon="6.34745">
        <ele>180.90039</ele>
        <time>2026-05-19T17:02:57+02:00</time>
      </trkpt>
      <trkpt lat="49.45213" lon="6.34749">
        <ele>180.90039</ele>
        <time>2026-05-19T17:02:58+02:00</time>
      </trkpt>
      <trkpt lat="49.45212" lon="6.34753">
        <ele>181.90039</ele>
        <time>2026-05-19T17:02:59+02:00</time>
      </trkpt>
      <trkpt lat="49.45212" lon="6.34755">
        <ele>181.90039</ele>
        <time>2026-05-19T17:03:00+02:00</time>
      </trkpt>
      <trkpt lat="49.45211" lon="6.3476">
        <ele>181.2002</ele>
        <time>2026-05-19T17:03:01+02:00</time>
      </trkpt>
      <trkpt lat="49.4521" lon="6.34764">
        <ele>182.2002</ele>
        <time>2026-05-19T17:03:02+02:00</time>
      </trkpt>
      <trkpt lat="49.45208" lon="6.34767">
        <ele>182.2002</ele>
        <time>2026-05-19T17:03:03+02:00</time>
      </trkpt>
      <trkpt lat="49.45207" lon="6.3477">
        <ele>183.10059</ele>
        <time>2026-05-19T17:03:04+02:00</time>
      </trkpt>
      <trkpt lat="49.45205" lon="6.34773">
        <ele>182.5</ele>
        <time>2026-05-19T17:03:05+02:00</time>
      </trkpt>
      <trkpt lat="49.45204" lon="6.34776">
        <ele>182.5</ele>
        <time>2026-05-19T17:03:06+02:00</time>
      </trkpt>
      <trkpt lat="49.45202" lon="6.34779">
        <ele>183.40039</ele>
        <time>2026-05-19T17:03:07+02:00</time>
      </trkpt>
      <trkpt lat="49.45201" lon="6.34782">
        <ele>183.40039</ele>
        <time>2026-05-19T17:03:08+02:00</time>
      </trkpt>
      <trkpt lat="49.452" lon="6.34786">
        <ele>182.7998</ele>
        <time>2026-05-19T17:03:09+02:00</time>
      </trkpt>
      <trkpt lat="49.45199" lon="6.3479">
        <ele>183.7002</ele>
        <time>2026-05-19T17:03:10+02:00</time>
      </trkpt>
      <trkpt lat="49.45197" lon="6.34794">
        <ele>183.7002</ele>
        <time>2026-05-19T17:03:11+02:00</time>
      </trkpt>
      <trkpt lat="49.45196" lon="6.34799">
        <ele>184.5</ele>
        <time>2026-05-19T17:03:12+02:00</time>
      </trkpt>
      <trkpt lat="49.45194" lon="6.34804">
        <ele>184.60059</ele>
        <time>2026-05-19T17:03:13+02:00</time>
      </trkpt>
      <trkpt lat="49.45193" lon="6.34808">
        <ele>184.60059</ele>
        <time>2026-05-19T17:03:14+02:00</time>
      </trkpt>
      <trkpt lat="49.45192" lon="6.34812">
        <ele>184.60059</ele>
        <time>2026-05-19T17:03:15+02:00</time>
      </trkpt>
      <trkpt lat="49.45191" lon="6.34813">
        <ele>185.2998</ele>
        <time>2026-05-19T17:03:16+02:00</time>
      </trkpt>
      <trkpt lat="49.45191" lon="6.34813">
        <ele>185.2998</ele>
        <time>2026-05-19T17:03:17+02:00</time>
      </trkpt>
      <trkpt lat="49.45191" lon="6.34812">
        <ele>184.60059</ele>
        <time>2026-05-19T17:03:18+02:00</time>
      </trkpt>
      <trkpt lat="49.45191" lon="6.34812">
        <ele>184.60059</ele>
        <time>2026-05-19T17:03:19+02:00</time>
      </trkpt>
      <trkpt lat="49.45191" lon="6.34812">
        <ele>184.60059</ele>
        <time>2026-05-19T17:03:20+02:00</time>
      </trkpt>
      <trkpt lat="49.45195" lon="6.34799">
        <ele>184.5</ele>
        <time>2026-05-19T17:03:24+02:00</time>
      </trkpt>
      <trkpt lat="49.45193" lon="6.34798">
        <ele>183.90039</ele>
        <time>2026-05-19T17:03:25+02:00</time>
      </trkpt>
      <trkpt lat="49.45191" lon="6.34796">
        <ele>183.90039</ele>
        <time>2026-05-19T17:03:26+02:00</time>
      </trkpt>
      <trkpt lat="49.45188" lon="6.34794">
        <ele>182.40039</ele>
        <time>2026-05-19T17:03:27+02:00</time>
      </trkpt>
      <trkpt lat="49.45185" lon="6.34791">
        <ele>182.40039</ele>
        <time>2026-05-19T17:03:28+02:00</time>
      </trkpt>
      <trkpt lat="49.45182" lon="6.34788">
        <ele>181.60059</ele>
        <time>2026-05-19T17:03:29+02:00</time>
      </trkpt>
      <trkpt lat="49.45179" lon="6.34786">
        <ele>180.7002</ele>
        <time>2026-05-19T17:03:30+02:00</time>
      </trkpt>
      <trkpt lat="49.45177" lon="6.34783">
        <ele>179.90039</ele>
        <time>2026-05-19T17:03:31+02:00</time>
      </trkpt>
      <trkpt lat="49.45175" lon="6.3478">
        <ele>179.90039</ele>
        <time>2026-05-19T17:03:32+02:00</time>
      </trkpt>
      <trkpt lat="49.45171" lon="6.34777">
        <ele>178.10059</ele>
        <time>2026-05-19T17:03:33+02:00</time>
      </trkpt>
      <trkpt lat="49.45169" lon="6.34774">
        <ele>178.10059</ele>
        <time>2026-05-19T17:03:34+02:00</time>
      </trkpt>
      <trkpt lat="49.45166" lon="6.34771">
        <ele>177.2002</ele>
        <time>2026-05-19T17:03:35+02:00</time>
      </trkpt>
      <trkpt lat="49.45163" lon="6.34768">
        <ele>176.2998</ele>
        <time>2026-05-19T17:03:36+02:00</time>
      </trkpt>
      <trkpt lat="49.4516" lon="6.34764">
        <ele>175.40039</ele>
        <time>2026-05-19T17:03:37+02:00</time>
      </trkpt>
      <trkpt lat="49.45158" lon="6.34761">
        <ele>175.40039</ele>
        <time>2026-05-19T17:03:38+02:00</time>
      </trkpt>
      <trkpt lat="49.45157" lon="6.3476">
        <ele>174.40039</ele>
        <time>2026-05-19T17:03:39+02:00</time>
      </trkpt>
      <trkpt lat="49.45154" lon="6.34755">
        <ele>173.5</ele>
        <time>2026-05-19T17:03:40+02:00</time>
      </trkpt>
      <trkpt lat="49.45152" lon="6.34752">
        <ele>172.5</ele>
        <time>2026-05-19T17:03:41+02:00</time>
      </trkpt>
      <trkpt lat="49.45151" lon="6.34748">
        <ele>172.5</ele>
        <time>2026-05-19T17:03:42+02:00</time>
      </trkpt>
      <trkpt lat="49.4515" lon="6.34746">
        <ele>172.5</ele>
        <time>2026-05-19T17:03:43+02:00</time>
      </trkpt>
      <trkpt lat="49.4515" lon="6.34744">
        <ele>172.5</ele>
        <time>2026-05-19T17:03:44+02:00</time>
      </trkpt>
      <trkpt lat="49.45149" lon="6.34741">
        <ele>170.40039</ele>
        <time>2026-05-19T17:03:45+02:00</time>
      </trkpt>
      <trkpt lat="49.45147" lon="6.34739">
        <ele>170.40039</ele>
        <time>2026-05-19T17:03:46+02:00</time>
      </trkpt>
      <trkpt lat="49.45146" lon="6.34737">
        <ele>170.40039</ele>
        <time>2026-05-19T17:03:47+02:00</time>
      </trkpt>
      <trkpt lat="49.45146" lon="6.34734">
        <ele>169.2998</ele>
        <time>2026-05-19T17:03:48+02:00</time>
      </trkpt>
      <trkpt lat="49.45146" lon="6.34731">
        <ele>169.2998</ele>
        <time>2026-05-19T17:03:49+02:00</time>
      </trkpt>
      <trkpt lat="49.45146" lon="6.34728">
        <ele>169.2998</ele>
        <time>2026-05-19T17:03:50+02:00</time>
      </trkpt>
      <trkpt lat="49.45146" lon="6.34725">
        <ele>168.10059</ele>
        <time>2026-05-19T17:03:51+02:00</time>
      </trkpt>
      <trkpt lat="49.45145" lon="6.34721">
        <ele>168.10059</ele>
        <time>2026-05-19T17:03:52+02:00</time>
      </trkpt>
      <trkpt lat="49.45145" lon="6.34718">
        <ele>168.10059</ele>
        <time>2026-05-19T17:03:53+02:00</time>
      </trkpt>
      <trkpt lat="49.45146" lon="6.34715">
        <ele>166.90039</ele>
        <time>2026-05-19T17:03:54+02:00</time>
      </trkpt>
      <trkpt lat="49.45146" lon="6.34711">
        <ele>166.90039</ele>
        <time>2026-05-19T17:03:55+02:00</time>
      </trkpt>
      <trkpt lat="49.45146" lon="6.34709">
        <ele>165.7002</ele>
        <time>2026-05-19T17:03:56+02:00</time>
      </trkpt>
      <trkpt lat="49.45146" lon="6.34706">
        <ele>165.7002</ele>
        <time>2026-05-19T17:03:57+02:00</time>
      </trkpt>
      <trkpt lat="49.45146" lon="6.34704">
        <ele>165.7002</ele>
        <time>2026-05-19T17:03:58+02:00</time>
      </trkpt>
      <trkpt lat="49.45145" lon="6.34701">
        <ele>165.7002</ele>
        <time>2026-05-19T17:03:59+02:00</time>
      </trkpt>
      <trkpt lat="49.45142" lon="6.34699">
        <ele>163.7998</ele>
        <time>2026-05-19T17:04:00+02:00</time>
      </trkpt>
      <trkpt lat="49.45139" lon="6.34697">
        <ele>163.7998</ele>
        <time>2026-05-19T17:04:01+02:00</time>
      </trkpt>
      <trkpt lat="49.45135" lon="6.34696">
        <ele>163.10059</ele>
        <time>2026-05-19T17:04:02+02:00</time>
      </trkpt>
      <trkpt lat="49.45131" lon="6.34695">
        <ele>162.40039</ele>
        <time>2026-05-19T17:04:03+02:00</time>
      </trkpt>
      <trkpt lat="49.45128" lon="6.34694">
        <ele>162.40039</ele>
        <time>2026-05-19T17:04:04+02:00</time>
      </trkpt>
      <trkpt lat="49.45124" lon="6.34693">
        <ele>161.7002</ele>
        <time>2026-05-19T17:04:05+02:00</time>
      </trkpt>
      <trkpt lat="49.45121" lon="6.34693">
        <ele>161.10059</ele>
        <time>2026-05-19T17:04:06+02:00</time>
      </trkpt>
      <trkpt lat="49.45118" lon="6.34693">
        <ele>161.10059</ele>
        <time>2026-05-19T17:04:07+02:00</time>
      </trkpt>
      <trkpt lat="49.45114" lon="6.34693">
        <ele>160.40039</ele>
        <time>2026-05-19T17:04:08+02:00</time>
      </trkpt>
      <trkpt lat="49.4511" lon="6.34693">
        <ele>159.7002</ele>
        <time>2026-05-19T17:04:09+02:00</time>
      </trkpt>
      <trkpt lat="49.45105" lon="6.34694">
        <ele>159</ele>
        <time>2026-05-19T17:04:10+02:00</time>
      </trkpt>
      <trkpt lat="49.451" lon="6.34695">
        <ele>159</ele>
        <time>2026-05-19T17:04:11+02:00</time>
      </trkpt>
      <trkpt lat="49.45095" lon="6.34696">
        <ele>158.2998</ele>
        <time>2026-05-19T17:04:12+02:00</time>
      </trkpt>
      <trkpt lat="49.4509" lon="6.34697">
        <ele>157.60059</ele>
        <time>2026-05-19T17:04:13+02:00</time>
      </trkpt>
      <trkpt lat="49.45085" lon="6.34699">
        <ele>156.90039</ele>
        <time>2026-05-19T17:04:14+02:00</time>
      </trkpt>
      <trkpt lat="49.4508" lon="6.34701">
        <ele>157.10059</ele>
        <time>2026-05-19T17:04:15+02:00</time>
      </trkpt>
      <trkpt lat="49.45075" lon="6.34702">
        <ele>156.40039</ele>
        <time>2026-05-19T17:04:16+02:00</time>
      </trkpt>
      <trkpt lat="49.4507" lon="6.34705">
        <ele>155.7002</ele>
        <time>2026-05-19T17:04:17+02:00</time>
      </trkpt>
      <trkpt lat="49.45066" lon="6.34707">
        <ele>155</ele>
        <time>2026-05-19T17:04:18+02:00</time>
      </trkpt>
      <trkpt lat="49.45063" lon="6.34709">
        <ele>155</ele>
        <time>2026-05-19T17:04:19+02:00</time>
      </trkpt>
      <trkpt lat="49.45059" lon="6.34711">
        <ele>155.40039</ele>
        <time>2026-05-19T17:04:20+02:00</time>
      </trkpt>
      <trkpt lat="49.45056" lon="6.34712">
        <ele>155.40039</ele>
        <time>2026-05-19T17:04:21+02:00</time>
      </trkpt>
      <trkpt lat="49.45052" lon="6.34714">
        <ele>154.7998</ele>
        <time>2026-05-19T17:04:22+02:00</time>
      </trkpt>
      <trkpt lat="49.45048" lon="6.34715">
        <ele>154.40039</ele>
        <time>2026-05-19T17:04:23+02:00</time>
      </trkpt>
      <trkpt lat="49.45044" lon="6.34716">
        <ele>154.40039</ele>
        <time>2026-05-19T17:04:24+02:00</time>
      </trkpt>
      <trkpt lat="49.4504" lon="6.34718">
        <ele>154.90039</ele>
        <time>2026-05-19T17:04:25+02:00</time>
      </trkpt>
      <trkpt lat="49.45036" lon="6.34721">
        <ele>154.5</ele>
        <time>2026-05-19T17:04:26+02:00</time>
      </trkpt>
      <trkpt lat="49.45032" lon="6.34725">
        <ele>154.10059</ele>
        <time>2026-05-19T17:04:27+02:00</time>
      </trkpt>
      <trkpt lat="49.45028" lon="6.34729">
        <ele>154.7998</ele>
        <time>2026-05-19T17:04:28+02:00</time>
      </trkpt>
      <trkpt lat="49.45023" lon="6.34733">
        <ele>154.40039</ele>
        <time>2026-05-19T17:04:29+02:00</time>
      </trkpt>
      <trkpt lat="49.45021" lon="6.34735">
        <ele>154.10059</ele>
        <time>2026-05-19T17:04:30+02:00</time>
      </trkpt>
      <trkpt lat="49.45014" lon="6.34741">
        <ele>154.60059</ele>
        <time>2026-05-19T17:04:31+02:00</time>
      </trkpt>
      <trkpt lat="49.4501" lon="6.34745">
        <ele>155.2998</ele>
        <time>2026-05-19T17:04:32+02:00</time>
      </trkpt>
      <trkpt lat="49.45005" lon="6.3475">
        <ele>155.2998</ele>
        <time>2026-05-19T17:04:33+02:00</time>
      </trkpt>
      <trkpt lat="49.45" lon="6.34753">
        <ele>156.10059</ele>
        <time>2026-05-19T17:04:34+02:00</time>
      </trkpt>
      <trkpt lat="49.44996" lon="6.34757">
        <ele>155.7002</ele>
        <time>2026-05-19T17:04:35+02:00</time>
      </trkpt>
      <trkpt lat="49.44991" lon="6.34761">
        <ele>156.2998</ele>
        <time>2026-05-19T17:04:36+02:00</time>
      </trkpt>
      <trkpt lat="49.44986" lon="6.34765">
        <ele>155.90039</ele>
        <time>2026-05-19T17:04:37+02:00</time>
      </trkpt>
      <trkpt lat="49.44982" lon="6.34768">
        <ele>155.60059</ele>
        <time>2026-05-19T17:04:38+02:00</time>
      </trkpt>
      <trkpt lat="49.44977" lon="6.34772">
        <ele>156.5</ele>
        <time>2026-05-19T17:04:39+02:00</time>
      </trkpt>
      <trkpt lat="49.44973" lon="6.34776">
        <ele>156.10059</ele>
        <time>2026-05-19T17:04:40+02:00</time>
      </trkpt>
      <trkpt lat="49.44969" lon="6.34779">
        <ele>156.60059</ele>
        <time>2026-05-19T17:04:41+02:00</time>
      </trkpt>
      <trkpt lat="49.44964" lon="6.34782">
        <ele>156.10059</ele>
        <time>2026-05-19T17:04:42+02:00</time>
      </trkpt>
      <trkpt lat="49.4496" lon="6.34785">
        <ele>155.60059</ele>
        <time>2026-05-19T17:04:43+02:00</time>
      </trkpt>
      <trkpt lat="49.44956" lon="6.34786">
        <ele>155.60059</ele>
        <time>2026-05-19T17:04:44+02:00</time>
      </trkpt>
      <trkpt lat="49.44951" lon="6.34786">
        <ele>155.2002</ele>
        <time>2026-05-19T17:04:45+02:00</time>
      </trkpt>
      <trkpt lat="49.44946" lon="6.34785">
        <ele>154.7998</ele>
        <time>2026-05-19T17:04:46+02:00</time>
      </trkpt>
      <trkpt lat="49.44943" lon="6.34781">
        <ele>154.40039</ele>
        <time>2026-05-19T17:04:47+02:00</time>
      </trkpt>
      <trkpt lat="49.44939" lon="6.34777">
        <ele>153.40039</ele>
        <time>2026-05-19T17:04:48+02:00</time>
      </trkpt>
      <trkpt lat="49.44937" lon="6.34775">
        <ele>152.60059</ele>
        <time>2026-05-19T17:04:49+02:00</time>
      </trkpt>
      <trkpt lat="49.44933" lon="6.34767">
        <ele>151</ele>
        <time>2026-05-19T17:04:50+02:00</time>
      </trkpt>
      <trkpt lat="49.4493" lon="6.34761">
        <ele>150</ele>
        <time>2026-05-19T17:04:51+02:00</time>
      </trkpt>
      <trkpt lat="49.44928" lon="6.34755">
        <ele>148.40039</ele>
        <time>2026-05-19T17:04:52+02:00</time>
      </trkpt>
      <trkpt lat="49.44925" lon="6.34748">
        <ele>146.2002</ele>
        <time>2026-05-19T17:04:53+02:00</time>
      </trkpt>
      <trkpt lat="49.44923" lon="6.34742">
        <ele>145.10059</ele>
        <time>2026-05-19T17:04:54+02:00</time>
      </trkpt>
      <trkpt lat="49.4492" lon="6.34735">
        <ele>143.60059</ele>
        <time>2026-05-19T17:04:55+02:00</time>
      </trkpt>
      <trkpt lat="49.44919" lon="6.34732">
        <ele>143.60059</ele>
        <time>2026-05-19T17:04:56+02:00</time>
      </trkpt>
      <trkpt lat="49.44914" lon="6.34722">
        <ele>142.40039</ele>
        <time>2026-05-19T17:04:57+02:00</time>
      </trkpt>
      <trkpt lat="49.44912" lon="6.34714">
        <ele>142</ele>
        <time>2026-05-19T17:04:58+02:00</time>
      </trkpt>
      <trkpt lat="49.44909" lon="6.34707">
        <ele>141.90039</ele>
        <time>2026-05-19T17:04:59+02:00</time>
      </trkpt>
      <trkpt lat="49.44906" lon="6.347">
        <ele>141.90039</ele>
        <time>2026-05-19T17:05:00+02:00</time>
      </trkpt>
      <trkpt lat="49.44903" lon="6.34693">
        <ele>141.90039</ele>
        <time>2026-05-19T17:05:01+02:00</time>
      </trkpt>
      <trkpt lat="49.449" lon="6.34686">
        <ele>141.90039</ele>
        <time>2026-05-19T17:05:02+02:00</time>
      </trkpt>
      <trkpt lat="49.44897" lon="6.34679">
        <ele>141.90039</ele>
        <time>2026-05-19T17:05:03+02:00</time>
      </trkpt>
      <trkpt lat="49.44894" lon="6.34672">
        <ele>141.90039</ele>
        <time>2026-05-19T17:05:04+02:00</time>
      </trkpt>
      <trkpt lat="49.44891" lon="6.34664">
        <ele>141.90039</ele>
        <time>2026-05-19T17:05:05+02:00</time>
      </trkpt>
      <trkpt lat="49.44888" lon="6.34657">
        <ele>141.90039</ele>
        <time>2026-05-19T17:05:06+02:00</time>
      </trkpt>
      <trkpt lat="49.44885" lon="6.34649">
        <ele>141.90039</ele>
        <time>2026-05-19T17:05:07+02:00</time>
      </trkpt>
      <trkpt lat="49.44882" lon="6.34641">
        <ele>141.90039</ele>
        <time>2026-05-19T17:05:08+02:00</time>
      </trkpt>
      <trkpt lat="49.44879" lon="6.34633">
        <ele>141.90039</ele>
        <time>2026-05-19T17:05:09+02:00</time>
      </trkpt>
      <trkpt lat="49.44875" lon="6.34625">
        <ele>141.90039</ele>
        <time>2026-05-19T17:05:10+02:00</time>
      </trkpt>
      <trkpt lat="49.44872" lon="6.34618">
        <ele>141.90039</ele>
        <time>2026-05-19T17:05:11+02:00</time>
      </trkpt>
      <trkpt lat="49.44869" lon="6.3461">
        <ele>141.90039</ele>
        <time>2026-05-19T17:05:12+02:00</time>
      </trkpt>
      <trkpt lat="49.44866" lon="6.34602">
        <ele>141.7002</ele>
        <time>2026-05-19T17:05:13+02:00</time>
      </trkpt>
      <trkpt lat="49.44863" lon="6.34595">
        <ele>141.60059</ele>
        <time>2026-05-19T17:05:14+02:00</time>
      </trkpt>
      <trkpt lat="49.44859" lon="6.34587">
        <ele>142</ele>
        <time>2026-05-19T17:05:15+02:00</time>
      </trkpt>
      <trkpt lat="49.44856" lon="6.34579">
        <ele>142.2998</ele>
        <time>2026-05-19T17:05:16+02:00</time>
      </trkpt>
      <trkpt lat="49.44853" lon="6.34572">
        <ele>143.60059</ele>
        <time>2026-05-19T17:05:17+02:00</time>
      </trkpt>
      <trkpt lat="49.4485" lon="6.34565">
        <ele>143.60059</ele>
        <time>2026-05-19T17:05:18+02:00</time>
      </trkpt>
      <trkpt lat="49.44847" lon="6.34558">
        <ele>145.2002</ele>
        <time>2026-05-19T17:05:19+02:00</time>
      </trkpt>
      <trkpt lat="49.44844" lon="6.34551">
        <ele>146</ele>
        <time>2026-05-19T17:05:20+02:00</time>
      </trkpt>
      <trkpt lat="49.44842" lon="6.34544">
        <ele>147.40039</ele>
        <time>2026-05-19T17:05:21+02:00</time>
      </trkpt>
      <trkpt lat="49.44839" lon="6.34538">
        <ele>147.40039</ele>
        <time>2026-05-19T17:05:22+02:00</time>
      </trkpt>
      <trkpt lat="49.44836" lon="6.34534">
        <ele>149</ele>
        <time>2026-05-19T17:05:23+02:00</time>
      </trkpt>
      <trkpt lat="49.44832" lon="6.34533">
        <ele>149.5</ele>
        <time>2026-05-19T17:05:24+02:00</time>
      </trkpt>
      <trkpt lat="49.44828" lon="6.34534">
        <ele>149.5</ele>
        <time>2026-05-19T17:05:25+02:00</time>
      </trkpt>
      <trkpt lat="49.44824" lon="6.34538">
        <ele>149.60059</ele>
        <time>2026-05-19T17:05:26+02:00</time>
      </trkpt>
      <trkpt lat="49.44821" lon="6.34543">
        <ele>149.60059</ele>
        <time>2026-05-19T17:05:27+02:00</time>
      </trkpt>
      <trkpt lat="49.44817" lon="6.34548">
        <ele>149.7002</ele>
        <time>2026-05-19T17:05:28+02:00</time>
      </trkpt>
      <trkpt lat="49.44814" lon="6.34553">
        <ele>150.2002</ele>
        <time>2026-05-19T17:05:29+02:00</time>
      </trkpt>
      <trkpt lat="49.4481" lon="6.34558">
        <ele>149.7002</ele>
        <time>2026-05-19T17:05:30+02:00</time>
      </trkpt>
      <trkpt lat="49.44806" lon="6.34563">
        <ele>149.90039</ele>
        <time>2026-05-19T17:05:31+02:00</time>
      </trkpt>
      <trkpt lat="49.44801" lon="6.34567">
        <ele>149.2998</ele>
        <time>2026-05-19T17:05:32+02:00</time>
      </trkpt>
      <trkpt lat="49.44797" lon="6.34573">
        <ele>148.7998</ele>
        <time>2026-05-19T17:05:33+02:00</time>
      </trkpt>
      <trkpt lat="49.44792" lon="6.34579">
        <ele>149.10059</ele>
        <time>2026-05-19T17:05:34+02:00</time>
      </trkpt>
      <trkpt lat="49.44787" lon="6.34584">
        <ele>149</ele>
        <time>2026-05-19T17:05:35+02:00</time>
      </trkpt>
      <trkpt lat="49.44783" lon="6.34589">
        <ele>149</ele>
        <time>2026-05-19T17:05:36+02:00</time>
      </trkpt>
      <trkpt lat="49.44779" lon="6.34593">
        <ele>149.2002</ele>
        <time>2026-05-19T17:05:37+02:00</time>
      </trkpt>
      <trkpt lat="49.44774" lon="6.34598">
        <ele>149.10059</ele>
        <time>2026-05-19T17:05:38+02:00</time>
      </trkpt>
      <trkpt lat="49.44771" lon="6.34602">
        <ele>149.10059</ele>
        <time>2026-05-19T17:05:39+02:00</time>
      </trkpt>
      <trkpt lat="49.44767" lon="6.34606">
        <ele>149.40039</ele>
        <time>2026-05-19T17:05:40+02:00</time>
      </trkpt>
      <trkpt lat="49.44763" lon="6.34611">
        <ele>148.90039</ele>
        <time>2026-05-19T17:05:41+02:00</time>
      </trkpt>
      <trkpt lat="49.44758" lon="6.34616">
        <ele>148.5</ele>
        <time>2026-05-19T17:05:42+02:00</time>
      </trkpt>
      <trkpt lat="49.44754" lon="6.34622">
        <ele>148.5</ele>
        <time>2026-05-19T17:05:43+02:00</time>
      </trkpt>
      <trkpt lat="49.4475" lon="6.34627">
        <ele>148.2002</ele>
        <time>2026-05-19T17:05:44+02:00</time>
      </trkpt>
      <trkpt lat="49.44747" lon="6.34629">
        <ele>148.7002</ele>
        <time>2026-05-19T17:05:45+02:00</time>
      </trkpt>
      <trkpt lat="49.4474" lon="6.34637">
        <ele>148.7998</ele>
        <time>2026-05-19T17:05:46+02:00</time>
      </trkpt>
      <trkpt lat="49.44735" lon="6.34641">
        <ele>148.7998</ele>
        <time>2026-05-19T17:05:47+02:00</time>
      </trkpt>
      <trkpt lat="49.4473" lon="6.34646">
        <ele>149.2002</ele>
        <time>2026-05-19T17:05:48+02:00</time>
      </trkpt>
      <trkpt lat="49.44725" lon="6.3465">
        <ele>149</ele>
        <time>2026-05-19T17:05:49+02:00</time>
      </trkpt>
      <trkpt lat="49.4472" lon="6.34653">
        <ele>149.40039</ele>
        <time>2026-05-19T17:05:50+02:00</time>
      </trkpt>
      <trkpt lat="49.44714" lon="6.34654">
        <ele>149.7002</ele>
        <time>2026-05-19T17:05:51+02:00</time>
      </trkpt>
      <trkpt lat="49.44709" lon="6.34653">
        <ele>149.90039</ele>
        <time>2026-05-19T17:05:52+02:00</time>
      </trkpt>
      <trkpt lat="49.44703" lon="6.34651">
        <ele>149.90039</ele>
        <time>2026-05-19T17:05:53+02:00</time>
      </trkpt>
      <trkpt lat="49.44699" lon="6.34647">
        <ele>149.90039</ele>
        <time>2026-05-19T17:05:54+02:00</time>
      </trkpt>
      <trkpt lat="49.44695" lon="6.34641">
        <ele>149.90039</ele>
        <time>2026-05-19T17:05:55+02:00</time>
      </trkpt>
      <trkpt lat="49.44693" lon="6.34635">
        <ele>149.90039</ele>
        <time>2026-05-19T17:05:56+02:00</time>
      </trkpt>
      <trkpt lat="49.4469" lon="6.34629">
        <ele>149.7998</ele>
        <time>2026-05-19T17:05:57+02:00</time>
      </trkpt>
      <trkpt lat="49.44689" lon="6.34622">
        <ele>149.90039</ele>
        <time>2026-05-19T17:05:58+02:00</time>
      </trkpt>
      <trkpt lat="49.44687" lon="6.34616">
        <ele>149.90039</ele>
        <time>2026-05-19T17:05:59+02:00</time>
      </trkpt>
      <trkpt lat="49.44684" lon="6.34613">
        <ele>150</ele>
        <time>2026-05-19T17:06:00+02:00</time>
      </trkpt>
      <trkpt lat="49.44681" lon="6.34611">
        <ele>150.10059</ele>
        <time>2026-05-19T17:06:01+02:00</time>
      </trkpt>
      <trkpt lat="49.44677" lon="6.34612">
        <ele>150.10059</ele>
        <time>2026-05-19T17:06:02+02:00</time>
      </trkpt>
      <trkpt lat="49.44673" lon="6.34615">
        <ele>150.10059</ele>
        <time>2026-05-19T17:06:03+02:00</time>
      </trkpt>
      <trkpt lat="49.44669" lon="6.3462">
        <ele>150.2998</ele>
        <time>2026-05-19T17:06:04+02:00</time>
      </trkpt>
      <trkpt lat="49.44665" lon="6.34625">
        <ele>150.2002</ele>
        <time>2026-05-19T17:06:05+02:00</time>
      </trkpt>
      <trkpt lat="49.44661" lon="6.34631">
        <ele>150.40039</ele>
        <time>2026-05-19T17:06:06+02:00</time>
      </trkpt>
      <trkpt lat="49.44657" lon="6.34635">
        <ele>150.60059</ele>
        <time>2026-05-19T17:06:07+02:00</time>
      </trkpt>
      <trkpt lat="49.44653" lon="6.34641">
        <ele>150.90039</ele>
        <time>2026-05-19T17:06:08+02:00</time>
      </trkpt>
      <trkpt lat="49.4465" lon="6.34647">
        <ele>150.90039</ele>
        <time>2026-05-19T17:06:09+02:00</time>
      </trkpt>
      <trkpt lat="49.44647" lon="6.34653">
        <ele>151.2002</ele>
        <time>2026-05-19T17:06:10+02:00</time>
      </trkpt>
      <trkpt lat="49.44644" lon="6.3466">
        <ele>151.10059</ele>
        <time>2026-05-19T17:06:11+02:00</time>
      </trkpt>
      <trkpt lat="49.4464" lon="6.34667">
        <ele>151.40039</ele>
        <time>2026-05-19T17:06:12+02:00</time>
      </trkpt>
      <trkpt lat="49.44637" lon="6.34673">
        <ele>151.40039</ele>
        <time>2026-05-19T17:06:13+02:00</time>
      </trkpt>
      <trkpt lat="49.44633" lon="6.3468">
        <ele>151.7002</ele>
        <time>2026-05-19T17:06:14+02:00</time>
      </trkpt>
      <trkpt lat="49.4463" lon="6.34687">
        <ele>151.7998</ele>
        <time>2026-05-19T17:06:15+02:00</time>
      </trkpt>
      <trkpt lat="49.44626" lon="6.34693">
        <ele>151.60059</ele>
        <time>2026-05-19T17:06:16+02:00</time>
      </trkpt>
      <trkpt lat="49.44623" lon="6.347">
        <ele>152</ele>
        <time>2026-05-19T17:06:17+02:00</time>
      </trkpt>
      <trkpt lat="49.44619" lon="6.34706">
        <ele>152.10059</ele>
        <time>2026-05-19T17:06:18+02:00</time>
      </trkpt>
      <trkpt lat="49.44616" lon="6.34712">
        <ele>151.90039</ele>
        <time>2026-05-19T17:06:19+02:00</time>
      </trkpt>
      <trkpt lat="49.44613" lon="6.34717">
        <ele>152.10059</ele>
        <time>2026-05-19T17:06:20+02:00</time>
      </trkpt>
      <trkpt lat="49.44609" lon="6.34722">
        <ele>151.90039</ele>
        <time>2026-05-19T17:06:21+02:00</time>
      </trkpt>
      <trkpt lat="49.44607" lon="6.34727">
        <ele>152</ele>
        <time>2026-05-19T17:06:22+02:00</time>
      </trkpt>
      <trkpt lat="49.44603" lon="6.34732">
        <ele>152.2002</ele>
        <time>2026-05-19T17:06:23+02:00</time>
      </trkpt>
      <trkpt lat="49.446" lon="6.34737">
        <ele>152</ele>
        <time>2026-05-19T17:06:24+02:00</time>
      </trkpt>
      <trkpt lat="49.44598" lon="6.34743">
        <ele>152</ele>
        <time>2026-05-19T17:06:25+02:00</time>
      </trkpt>
      <trkpt lat="49.44594" lon="6.34749">
        <ele>152.10059</ele>
        <time>2026-05-19T17:06:26+02:00</time>
      </trkpt>
      <trkpt lat="49.44591" lon="6.34755">
        <ele>152.10059</ele>
        <time>2026-05-19T17:06:27+02:00</time>
      </trkpt>
      <trkpt lat="49.44587" lon="6.34761">
        <ele>151.90039</ele>
        <time>2026-05-19T17:06:28+02:00</time>
      </trkpt>
      <trkpt lat="49.44583" lon="6.34767">
        <ele>152.10059</ele>
        <time>2026-05-19T17:06:29+02:00</time>
      </trkpt>
      <trkpt lat="49.4458" lon="6.34773">
        <ele>152.2002</ele>
        <time>2026-05-19T17:06:30+02:00</time>
      </trkpt>
      <trkpt lat="49.44576" lon="6.34779">
        <ele>151.90039</ele>
        <time>2026-05-19T17:06:31+02:00</time>
      </trkpt>
      <trkpt lat="49.44573" lon="6.34786">
        <ele>152.2002</ele>
        <time>2026-05-19T17:06:32+02:00</time>
      </trkpt>
      <trkpt lat="49.44569" lon="6.34792">
        <ele>152.10059</ele>
        <time>2026-05-19T17:06:33+02:00</time>
      </trkpt>
      <trkpt lat="49.44565" lon="6.34799">
        <ele>151.90039</ele>
        <time>2026-05-19T17:06:34+02:00</time>
      </trkpt>
      <trkpt lat="49.44561" lon="6.34805">
        <ele>151.7998</ele>
        <time>2026-05-19T17:06:35+02:00</time>
      </trkpt>
      <trkpt lat="49.44558" lon="6.34812">
        <ele>152</ele>
        <time>2026-05-19T17:06:36+02:00</time>
      </trkpt>
      <trkpt lat="49.44555" lon="6.34818">
        <ele>151.7002</ele>
        <time>2026-05-19T17:06:37+02:00</time>
      </trkpt>
      <trkpt lat="49.44552" lon="6.34825">
        <ele>151.60059</ele>
        <time>2026-05-19T17:06:38+02:00</time>
      </trkpt>
      <trkpt lat="49.44549" lon="6.3483">
        <ele>151.2002</ele>
        <time>2026-05-19T17:06:39+02:00</time>
      </trkpt>
      <trkpt lat="49.44545" lon="6.34837">
        <ele>151.40039</ele>
        <time>2026-05-19T17:06:40+02:00</time>
      </trkpt>
      <trkpt lat="49.44541" lon="6.34844">
        <ele>151.2002</ele>
        <time>2026-05-19T17:06:41+02:00</time>
      </trkpt>
      <trkpt lat="49.44539" lon="6.34847">
        <ele>150.7998</ele>
        <time>2026-05-19T17:06:42+02:00</time>
      </trkpt>
      <trkpt lat="49.44535" lon="6.34855">
        <ele>151</ele>
        <time>2026-05-19T17:06:43+02:00</time>
      </trkpt>
      <trkpt lat="49.44532" lon="6.34861">
        <ele>150.60059</ele>
        <time>2026-05-19T17:06:44+02:00</time>
      </trkpt>
      <trkpt lat="49.4453" lon="6.34865">
        <ele>150.2998</ele>
        <time>2026-05-19T17:06:45+02:00</time>
      </trkpt>
      <trkpt lat="49.44529" lon="6.34868">
        <ele>150.2998</ele>
        <time>2026-05-19T17:06:46+02:00</time>
      </trkpt>
      <trkpt lat="49.44528" lon="6.34871">
        <ele>150.2998</ele>
        <time>2026-05-19T17:06:47+02:00</time>
      </trkpt>
      <trkpt lat="49.44529" lon="6.34874">
        <ele>149.90039</ele>
        <time>2026-05-19T17:06:48+02:00</time>
      </trkpt>
      <trkpt lat="49.44531" lon="6.34876">
        <ele>149.7002</ele>
        <time>2026-05-19T17:06:49+02:00</time>
      </trkpt>
      <trkpt lat="49.44532" lon="6.34878">
        <ele>149.7002</ele>
        <time>2026-05-19T17:06:50+02:00</time>
      </trkpt>
      <trkpt lat="49.44531" lon="6.34879">
        <ele>149.7002</ele>
        <time>2026-05-19T17:06:51+02:00</time>
      </trkpt>
      <trkpt lat="49.44531" lon="6.34879">
        <ele>149.7002</ele>
        <time>2026-05-19T17:06:52+02:00</time>
      </trkpt>
      <trkpt lat="49.44531" lon="6.34879">
        <ele>149.7002</ele>
        <time>2026-05-19T17:06:53+02:00</time>
      </trkpt>
      <trkpt lat="49.44531" lon="6.34879">
        <ele>149.7002</ele>
        <time>2026-05-19T17:06:54+02:00</time>
      </trkpt>
    </trkseg>
  </trk>
</gpx>